<?xml version="1.0" encoding="UTF-8" standalone="no" ?>
<gpx xmlns="http://www.topografix.com/GPX/1/1" xmlns:xsi="http://www.w3.org/2001/XMLSchema-instance" xsi:schemaLocation="http://www.topografix.com/GPX/1/1 http://www.topografix.com/GPX/1/1/gpx.xsd" version="1.1" creator="VisuGPX - https://www.visugpx.com">
  <metadata>
    <name>Champagnat Cyclisme sur route</name>
  </metadata>
  <trk>
    <name><![CDATA[Champagnat Cyclisme sur route]]></name>
    <trkseg>
      <trkpt lat="46.48266" lon="5.36832">
        <ele>252.19999694824</ele>
        <time>2021-12-30T11:41:39.000Z</time>
      </trkpt>
      <trkpt lat="46.48257" lon="5.36821">
        <ele>251.19999694824</ele>
        <time>2021-12-30T11:41:40.000Z</time>
      </trkpt>
      <trkpt lat="46.48247" lon="5.36811">
        <ele>250</ele>
        <time>2021-12-30T11:41:41.000Z</time>
      </trkpt>
      <trkpt lat="46.48226" lon="5.36794">
        <ele>247.80000305176</ele>
        <time>2021-12-30T11:41:43.000Z</time>
      </trkpt>
      <trkpt lat="46.48216" lon="5.36786">
        <ele>247.39999389648</ele>
        <time>2021-12-30T11:41:44.000Z</time>
      </trkpt>
      <trkpt lat="46.48206" lon="5.36777">
        <ele>246.39999389648</ele>
        <time>2021-12-30T11:41:45.000Z</time>
      </trkpt>
      <trkpt lat="46.48186" lon="5.36761">
        <ele>244.80000305176</ele>
        <time>2021-12-30T11:41:47.000Z</time>
      </trkpt>
      <trkpt lat="46.48166" lon="5.36744">
        <ele>243.60000610352</ele>
        <time>2021-12-30T11:41:49.000Z</time>
      </trkpt>
      <trkpt lat="46.48146" lon="5.36729">
        <ele>242.19999694824</ele>
        <time>2021-12-30T11:41:51.000Z</time>
      </trkpt>
      <trkpt lat="46.48137" lon="5.36721">
        <ele>240.80000305176</ele>
        <time>2021-12-30T11:41:52.000Z</time>
      </trkpt>
      <trkpt lat="46.48111" lon="5.36699">
        <ele>239.39999389648</ele>
        <time>2021-12-30T11:41:56.000Z</time>
      </trkpt>
      <trkpt lat="46.48108" lon="5.36688">
        <ele>238.60000610352</ele>
        <time>2021-12-30T11:41:58.000Z</time>
      </trkpt>
      <trkpt lat="46.48109" lon="5.36681">
        <ele>238</ele>
        <time>2021-12-30T11:41:59.000Z</time>
      </trkpt>
      <trkpt lat="46.48112" lon="5.36675">
        <ele>237.80000305176</ele>
        <time>2021-12-30T11:42:00.000Z</time>
      </trkpt>
      <trkpt lat="46.48117" lon="5.3667">
        <ele>237.60000610352</ele>
        <time>2021-12-30T11:42:01.000Z</time>
      </trkpt>
      <trkpt lat="46.48133" lon="5.36654">
        <ele>236.60000610352</ele>
        <time>2021-12-30T11:42:04.000Z</time>
      </trkpt>
      <trkpt lat="46.4814" lon="5.36646">
        <ele>236.39999389648</ele>
        <time>2021-12-30T11:42:05.000Z</time>
      </trkpt>
      <trkpt lat="46.4816" lon="5.36619">
        <ele>235.39999389648</ele>
        <time>2021-12-30T11:42:08.000Z</time>
      </trkpt>
      <trkpt lat="46.48167" lon="5.36613">
        <ele>235.39999389648</ele>
        <time>2021-12-30T11:42:09.000Z</time>
      </trkpt>
      <trkpt lat="46.48181" lon="5.36604">
        <ele>235</ele>
        <time>2021-12-30T11:42:11.000Z</time>
      </trkpt>
      <trkpt lat="46.48203" lon="5.36598">
        <ele>234.80000305176</ele>
        <time>2021-12-30T11:42:14.000Z</time>
      </trkpt>
      <trkpt lat="46.4821" lon="5.36595">
        <ele>234.60000610352</ele>
        <time>2021-12-30T11:42:15.000Z</time>
      </trkpt>
      <trkpt lat="46.48215" lon="5.36589">
        <ele>234.60000610352</ele>
        <time>2021-12-30T11:42:16.000Z</time>
      </trkpt>
      <trkpt lat="46.48222" lon="5.36573">
        <ele>234.39999389648</ele>
        <time>2021-12-30T11:42:18.000Z</time>
      </trkpt>
      <trkpt lat="46.48226" lon="5.36564">
        <ele>234.39999389648</ele>
        <time>2021-12-30T11:42:19.000Z</time>
      </trkpt>
      <trkpt lat="46.48237" lon="5.36549">
        <ele>234.19999694824</ele>
        <time>2021-12-30T11:42:21.000Z</time>
      </trkpt>
      <trkpt lat="46.48268" lon="5.36515">
        <ele>233.19999694824</ele>
        <time>2021-12-30T11:42:26.000Z</time>
      </trkpt>
      <trkpt lat="46.48294" lon="5.36487">
        <ele>232.80000305176</ele>
        <time>2021-12-30T11:42:30.000Z</time>
      </trkpt>
      <trkpt lat="46.48314" lon="5.36466">
        <ele>232.19999694824</ele>
        <time>2021-12-30T11:42:33.000Z</time>
      </trkpt>
      <trkpt lat="46.48347" lon="5.36429">
        <ele>230.80000305176</ele>
        <time>2021-12-30T11:42:38.000Z</time>
      </trkpt>
      <trkpt lat="46.48377" lon="5.36396">
        <ele>229.60000610352</ele>
        <time>2021-12-30T11:42:42.000Z</time>
      </trkpt>
      <trkpt lat="46.48397" lon="5.36375">
        <ele>228.60000610352</ele>
        <time>2021-12-30T11:42:45.000Z</time>
      </trkpt>
      <trkpt lat="46.48412" lon="5.36362">
        <ele>228.39999389648</ele>
        <time>2021-12-30T11:42:47.000Z</time>
      </trkpt>
      <trkpt lat="46.48444" lon="5.36349">
        <ele>227.80000305176</ele>
        <time>2021-12-30T11:42:51.000Z</time>
      </trkpt>
      <trkpt lat="46.48492" lon="5.36341">
        <ele>227.60000610352</ele>
        <time>2021-12-30T11:42:57.000Z</time>
      </trkpt>
      <trkpt lat="46.48498" lon="5.3634">
        <ele>227.60000610352</ele>
        <time>2021-12-30T11:42:58.000Z</time>
      </trkpt>
      <trkpt lat="46.48506" lon="5.36339">
        <ele>227.60000610352</ele>
        <time>2021-12-30T11:42:59.000Z</time>
      </trkpt>
      <trkpt lat="46.4856" lon="5.3633">
        <ele>227</ele>
        <time>2021-12-30T11:43:06.000Z</time>
      </trkpt>
      <trkpt lat="46.48568" lon="5.36329">
        <ele>227</ele>
        <time>2021-12-30T11:43:07.000Z</time>
      </trkpt>
      <trkpt lat="46.48608" lon="5.36321">
        <ele>226.19999694824</ele>
        <time>2021-12-30T11:43:12.000Z</time>
      </trkpt>
      <trkpt lat="46.48616" lon="5.36316">
        <ele>226</ele>
        <time>2021-12-30T11:43:13.000Z</time>
      </trkpt>
      <trkpt lat="46.48623" lon="5.36309">
        <ele>225.60000610352</ele>
        <time>2021-12-30T11:43:14.000Z</time>
      </trkpt>
      <trkpt lat="46.48629" lon="5.36299">
        <ele>225.19999694824</ele>
        <time>2021-12-30T11:43:15.000Z</time>
      </trkpt>
      <trkpt lat="46.48633" lon="5.36287">
        <ele>225</ele>
        <time>2021-12-30T11:43:16.000Z</time>
      </trkpt>
      <trkpt lat="46.4864" lon="5.36247">
        <ele>223.60000610352</ele>
        <time>2021-12-30T11:43:19.000Z</time>
      </trkpt>
      <trkpt lat="46.48641" lon="5.36233">
        <ele>223.19999694824</ele>
        <time>2021-12-30T11:43:20.000Z</time>
      </trkpt>
      <trkpt lat="46.48642" lon="5.36219">
        <ele>222.39999389648</ele>
        <time>2021-12-30T11:43:21.000Z</time>
      </trkpt>
      <trkpt lat="46.48645" lon="5.36179">
        <ele>221.19999694824</ele>
        <time>2021-12-30T11:43:24.000Z</time>
      </trkpt>
      <trkpt lat="46.48652" lon="5.36126">
        <ele>220.19999694824</ele>
        <time>2021-12-30T11:43:28.000Z</time>
      </trkpt>
      <trkpt lat="46.48657" lon="5.36101">
        <ele>220</ele>
        <time>2021-12-30T11:43:30.000Z</time>
      </trkpt>
      <trkpt lat="46.4867" lon="5.36044">
        <ele>219.60000610352</ele>
        <time>2021-12-30T11:43:35.000Z</time>
      </trkpt>
      <trkpt lat="46.48678" lon="5.35998">
        <ele>220.39999389648</ele>
        <time>2021-12-30T11:43:40.000Z</time>
      </trkpt>
      <trkpt lat="46.48683" lon="5.35965">
        <ele>221.39999389648</ele>
        <time>2021-12-30T11:43:44.000Z</time>
      </trkpt>
      <trkpt lat="46.48685" lon="5.35953">
        <ele>221.60000610352</ele>
        <time>2021-12-30T11:43:46.000Z</time>
      </trkpt>
      <trkpt lat="46.48686" lon="5.35951">
        <ele>222</ele>
        <time>2021-12-30T11:43:49.000Z</time>
      </trkpt>
      <trkpt lat="46.48686" lon="5.35951">
        <ele>222</ele>
        <time>2021-12-30T11:43:50.000Z</time>
      </trkpt>
      <trkpt lat="46.48686" lon="5.35942">
        <ele>222.19999694824</ele>
        <time>2021-12-30T11:43:58.000Z</time>
      </trkpt>
      <trkpt lat="46.48688" lon="5.35931">
        <ele>222.19999694824</ele>
        <time>2021-12-30T11:44:00.000Z</time>
      </trkpt>
      <trkpt lat="46.48695" lon="5.35902">
        <ele>221.80000305176</ele>
        <time>2021-12-30T11:44:04.000Z</time>
      </trkpt>
      <trkpt lat="46.48712" lon="5.35857">
        <ele>220.80000305176</ele>
        <time>2021-12-30T11:44:09.000Z</time>
      </trkpt>
      <trkpt lat="46.48731" lon="5.3581">
        <ele>220</ele>
        <time>2021-12-30T11:44:14.000Z</time>
      </trkpt>
      <trkpt lat="46.4874" lon="5.35792">
        <ele>219.80000305176</ele>
        <time>2021-12-30T11:44:16.000Z</time>
      </trkpt>
      <trkpt lat="46.48759" lon="5.35747">
        <ele>218.80000305176</ele>
        <time>2021-12-30T11:44:21.000Z</time>
      </trkpt>
      <trkpt lat="46.48768" lon="5.35728">
        <ele>218.39999389648</ele>
        <time>2021-12-30T11:44:23.000Z</time>
      </trkpt>
      <trkpt lat="46.48799" lon="5.35657">
        <ele>218.19999694824</ele>
        <time>2021-12-30T11:44:31.000Z</time>
      </trkpt>
      <trkpt lat="46.4883" lon="5.35588">
        <ele>218.39999389648</ele>
        <time>2021-12-30T11:44:39.000Z</time>
      </trkpt>
      <trkpt lat="46.48838" lon="5.35572">
        <ele>218.39999389648</ele>
        <time>2021-12-30T11:44:41.000Z</time>
      </trkpt>
      <trkpt lat="46.4885" lon="5.35563">
        <ele>218.39999389648</ele>
        <time>2021-12-30T11:44:43.000Z</time>
      </trkpt>
      <trkpt lat="46.48856" lon="5.35561">
        <ele>218.39999389648</ele>
        <time>2021-12-30T11:44:44.000Z</time>
      </trkpt>
      <trkpt lat="46.48864" lon="5.3556">
        <ele>218.39999389648</ele>
        <time>2021-12-30T11:44:45.000Z</time>
      </trkpt>
      <trkpt lat="46.48888" lon="5.35559">
        <ele>218.39999389648</ele>
        <time>2021-12-30T11:44:48.000Z</time>
      </trkpt>
      <trkpt lat="46.4894" lon="5.35558">
        <ele>217.39999389648</ele>
        <time>2021-12-30T11:44:54.000Z</time>
      </trkpt>
      <trkpt lat="46.48985" lon="5.35555">
        <ele>216.39999389648</ele>
        <time>2021-12-30T11:44:59.000Z</time>
      </trkpt>
      <trkpt lat="46.49011" lon="5.35554">
        <ele>215.60000610352</ele>
        <time>2021-12-30T11:45:02.000Z</time>
      </trkpt>
      <trkpt lat="46.49051" lon="5.35551">
        <ele>215.19999694824</ele>
        <time>2021-12-30T11:45:07.000Z</time>
      </trkpt>
      <trkpt lat="46.49059" lon="5.35551">
        <ele>215.19999694824</ele>
        <time>2021-12-30T11:45:08.000Z</time>
      </trkpt>
      <trkpt lat="46.49099" lon="5.35549">
        <ele>215.80000305176</ele>
        <time>2021-12-30T11:45:14.000Z</time>
      </trkpt>
      <trkpt lat="46.49112" lon="5.35548">
        <ele>216.19999694824</ele>
        <time>2021-12-30T11:45:16.000Z</time>
      </trkpt>
      <trkpt lat="46.49143" lon="5.35547">
        <ele>217.39999389648</ele>
        <time>2021-12-30T11:45:21.000Z</time>
      </trkpt>
      <trkpt lat="46.49166" lon="5.35546">
        <ele>218.19999694824</ele>
        <time>2021-12-30T11:45:25.000Z</time>
      </trkpt>
      <trkpt lat="46.49176" lon="5.35545">
        <ele>218.60000610352</ele>
        <time>2021-12-30T11:45:27.000Z</time>
      </trkpt>
      <trkpt lat="46.49208" lon="5.35541">
        <ele>219.19999694824</ele>
        <time>2021-12-30T11:45:33.000Z</time>
      </trkpt>
      <trkpt lat="46.49235" lon="5.35539">
        <ele>219.60000610352</ele>
        <time>2021-12-30T11:45:37.000Z</time>
      </trkpt>
      <trkpt lat="46.49249" lon="5.35539">
        <ele>219.60000610352</ele>
        <time>2021-12-30T11:45:39.000Z</time>
      </trkpt>
      <trkpt lat="46.49307" lon="5.35535">
        <ele>219.80000305176</ele>
        <time>2021-12-30T11:45:47.000Z</time>
      </trkpt>
      <trkpt lat="46.49322" lon="5.35534">
        <ele>219.60000610352</ele>
        <time>2021-12-30T11:45:49.000Z</time>
      </trkpt>
      <trkpt lat="46.49346" lon="5.35533">
        <ele>219.60000610352</ele>
        <time>2021-12-30T11:45:52.000Z</time>
      </trkpt>
      <trkpt lat="46.49388" lon="5.35537">
        <ele>219</ele>
        <time>2021-12-30T11:45:57.000Z</time>
      </trkpt>
      <trkpt lat="46.49412" lon="5.35545">
        <ele>218.19999694824</ele>
        <time>2021-12-30T11:46:00.000Z</time>
      </trkpt>
      <trkpt lat="46.49442" lon="5.35557">
        <ele>217.60000610352</ele>
        <time>2021-12-30T11:46:04.000Z</time>
      </trkpt>
      <trkpt lat="46.49479" lon="5.35571">
        <ele>217.19999694824</ele>
        <time>2021-12-30T11:46:09.000Z</time>
      </trkpt>
      <trkpt lat="46.49502" lon="5.3558">
        <ele>217.19999694824</ele>
        <time>2021-12-30T11:46:12.000Z</time>
      </trkpt>
      <trkpt lat="46.49561" lon="5.35604">
        <ele>216.60000610352</ele>
        <time>2021-12-30T11:46:20.000Z</time>
      </trkpt>
      <trkpt lat="46.49576" lon="5.35609">
        <ele>216.19999694824</ele>
        <time>2021-12-30T11:46:22.000Z</time>
      </trkpt>
      <trkpt lat="46.49582" lon="5.35612">
        <ele>216</ele>
        <time>2021-12-30T11:46:23.000Z</time>
      </trkpt>
      <trkpt lat="46.4962" lon="5.35623">
        <ele>215.19999694824</ele>
        <time>2021-12-30T11:46:28.000Z</time>
      </trkpt>
      <trkpt lat="46.4963" lon="5.35626">
        <ele>215</ele>
        <time>2021-12-30T11:46:29.000Z</time>
      </trkpt>
      <trkpt lat="46.49673" lon="5.3564">
        <ele>214.39999389648</ele>
        <time>2021-12-30T11:46:35.000Z</time>
      </trkpt>
      <trkpt lat="46.49692" lon="5.35645">
        <ele>214</ele>
        <time>2021-12-30T11:46:38.000Z</time>
      </trkpt>
      <trkpt lat="46.49695" lon="5.35645">
        <ele>213.60000610352</ele>
        <time>2021-12-30T11:46:39.000Z</time>
      </trkpt>
      <trkpt lat="46.49707" lon="5.35634">
        <ele>213.19999694824</ele>
        <time>2021-12-30T11:46:43.000Z</time>
      </trkpt>
      <trkpt lat="46.49711" lon="5.35604">
        <ele>213</ele>
        <time>2021-12-30T11:46:47.000Z</time>
      </trkpt>
      <trkpt lat="46.49713" lon="5.35593">
        <ele>212.80000305176</ele>
        <time>2021-12-30T11:46:48.000Z</time>
      </trkpt>
      <trkpt lat="46.49719" lon="5.35544">
        <ele>212.19999694824</ele>
        <time>2021-12-30T11:46:53.000Z</time>
      </trkpt>
      <trkpt lat="46.49728" lon="5.3546">
        <ele>211.80000305176</ele>
        <time>2021-12-30T11:47:01.000Z</time>
      </trkpt>
      <trkpt lat="46.49729" lon="5.35449">
        <ele>211.60000610352</ele>
        <time>2021-12-30T11:47:02.000Z</time>
      </trkpt>
      <trkpt lat="46.49738" lon="5.35372">
        <ele>210.39999389648</ele>
        <time>2021-12-30T11:47:09.000Z</time>
      </trkpt>
      <trkpt lat="46.49738" lon="5.35358">
        <ele>210.19999694824</ele>
        <time>2021-12-30T11:47:10.000Z</time>
      </trkpt>
      <trkpt lat="46.49734" lon="5.35305">
        <ele>209.60000610352</ele>
        <time>2021-12-30T11:47:15.000Z</time>
      </trkpt>
      <trkpt lat="46.4972" lon="5.35241">
        <ele>210.39999389648</ele>
        <time>2021-12-30T11:47:22.000Z</time>
      </trkpt>
      <trkpt lat="46.49705" lon="5.35168">
        <ele>211</ele>
        <time>2021-12-30T11:47:30.000Z</time>
      </trkpt>
      <trkpt lat="46.49687" lon="5.35088">
        <ele>210.60000610352</ele>
        <time>2021-12-30T11:47:38.000Z</time>
      </trkpt>
      <trkpt lat="46.49676" lon="5.35031">
        <ele>210.19999694824</ele>
        <time>2021-12-30T11:47:44.000Z</time>
      </trkpt>
      <trkpt lat="46.49664" lon="5.34973">
        <ele>210.80000305176</ele>
        <time>2021-12-30T11:47:51.000Z</time>
      </trkpt>
      <trkpt lat="46.49658" lon="5.3494">
        <ele>211.39999389648</ele>
        <time>2021-12-30T11:47:55.000Z</time>
      </trkpt>
      <trkpt lat="46.49647" lon="5.34878">
        <ele>212.19999694824</ele>
        <time>2021-12-30T11:48:02.000Z</time>
      </trkpt>
      <trkpt lat="46.49634" lon="5.34813">
        <ele>212.39999389648</ele>
        <time>2021-12-30T11:48:09.000Z</time>
      </trkpt>
      <trkpt lat="46.4963" lon="5.34759">
        <ele>211.60000610352</ele>
        <time>2021-12-30T11:48:14.000Z</time>
      </trkpt>
      <trkpt lat="46.49629" lon="5.34747">
        <ele>211.39999389648</ele>
        <time>2021-12-30T11:48:15.000Z</time>
      </trkpt>
      <trkpt lat="46.4963" lon="5.34732">
        <ele>211.19999694824</ele>
        <time>2021-12-30T11:48:16.000Z</time>
      </trkpt>
      <trkpt lat="46.49632" lon="5.34695">
        <ele>210.19999694824</ele>
        <time>2021-12-30T11:48:19.000Z</time>
      </trkpt>
      <trkpt lat="46.49633" lon="5.34683">
        <ele>210</ele>
        <time>2021-12-30T11:48:20.000Z</time>
      </trkpt>
      <trkpt lat="46.49637" lon="5.34644">
        <ele>208.80000305176</ele>
        <time>2021-12-30T11:48:23.000Z</time>
      </trkpt>
      <trkpt lat="46.49639" lon="5.3462">
        <ele>207.80000305176</ele>
        <time>2021-12-30T11:48:25.000Z</time>
      </trkpt>
      <trkpt lat="46.49643" lon="5.3459">
        <ele>206.80000305176</ele>
        <time>2021-12-30T11:48:27.000Z</time>
      </trkpt>
      <trkpt lat="46.49644" lon="5.34577">
        <ele>206.60000610352</ele>
        <time>2021-12-30T11:48:28.000Z</time>
      </trkpt>
      <trkpt lat="46.49648" lon="5.34553">
        <ele>205.60000610352</ele>
        <time>2021-12-30T11:48:30.000Z</time>
      </trkpt>
      <trkpt lat="46.49655" lon="5.34518">
        <ele>204.80000305176</ele>
        <time>2021-12-30T11:48:33.000Z</time>
      </trkpt>
      <trkpt lat="46.49669" lon="5.34465">
        <ele>204.80000305176</ele>
        <time>2021-12-30T11:48:38.000Z</time>
      </trkpt>
      <trkpt lat="46.49687" lon="5.34404">
        <ele>206.60000610352</ele>
        <time>2021-12-30T11:48:45.000Z</time>
      </trkpt>
      <trkpt lat="46.497" lon="5.34356">
        <ele>207.60000610352</ele>
        <time>2021-12-30T11:48:51.000Z</time>
      </trkpt>
      <trkpt lat="46.49711" lon="5.34312">
        <ele>209</ele>
        <time>2021-12-30T11:48:57.000Z</time>
      </trkpt>
      <trkpt lat="46.49714" lon="5.34305">
        <ele>209.19999694824</ele>
        <time>2021-12-30T11:48:58.000Z</time>
      </trkpt>
      <trkpt lat="46.49725" lon="5.34283">
        <ele>209.80000305176</ele>
        <time>2021-12-30T11:49:01.000Z</time>
      </trkpt>
      <trkpt lat="46.49733" lon="5.34268">
        <ele>210</ele>
        <time>2021-12-30T11:49:03.000Z</time>
      </trkpt>
      <trkpt lat="46.49737" lon="5.3426">
        <ele>210</ele>
        <time>2021-12-30T11:49:04.000Z</time>
      </trkpt>
      <trkpt lat="46.49751" lon="5.34239">
        <ele>210</ele>
        <time>2021-12-30T11:49:07.000Z</time>
      </trkpt>
      <trkpt lat="46.49786" lon="5.34182">
        <ele>210</ele>
        <time>2021-12-30T11:49:15.000Z</time>
      </trkpt>
      <trkpt lat="46.49799" lon="5.34161">
        <ele>209.80000305176</ele>
        <time>2021-12-30T11:49:18.000Z</time>
      </trkpt>
      <trkpt lat="46.49825" lon="5.34119">
        <ele>210.19999694824</ele>
        <time>2021-12-30T11:49:24.000Z</time>
      </trkpt>
      <trkpt lat="46.49865" lon="5.34061">
        <ele>210.39999389648</ele>
        <time>2021-12-30T11:49:32.000Z</time>
      </trkpt>
      <trkpt lat="46.49906" lon="5.34013">
        <ele>209.80000305176</ele>
        <time>2021-12-30T11:49:40.000Z</time>
      </trkpt>
      <trkpt lat="46.49936" lon="5.3398">
        <ele>210.80000305176</ele>
        <time>2021-12-30T11:49:47.000Z</time>
      </trkpt>
      <trkpt lat="46.49939" lon="5.33976">
        <ele>211</ele>
        <time>2021-12-30T11:49:48.000Z</time>
      </trkpt>
      <trkpt lat="46.49947" lon="5.33966">
        <ele>211.39999389648</ele>
        <time>2021-12-30T11:49:50.000Z</time>
      </trkpt>
      <trkpt lat="46.49956" lon="5.33957">
        <ele>211.80000305176</ele>
        <time>2021-12-30T11:49:52.000Z</time>
      </trkpt>
      <trkpt lat="46.4996" lon="5.33952">
        <ele>212</ele>
        <time>2021-12-30T11:49:53.000Z</time>
      </trkpt>
      <trkpt lat="46.49988" lon="5.33919">
        <ele>212.80000305176</ele>
        <time>2021-12-30T11:49:59.000Z</time>
      </trkpt>
      <trkpt lat="46.49998" lon="5.33908">
        <ele>212.80000305176</ele>
        <time>2021-12-30T11:50:01.000Z</time>
      </trkpt>
      <trkpt lat="46.50019" lon="5.33886">
        <ele>212.80000305176</ele>
        <time>2021-12-30T11:50:05.000Z</time>
      </trkpt>
      <trkpt lat="46.50064" lon="5.3384">
        <ele>212.19999694824</ele>
        <time>2021-12-30T11:50:12.000Z</time>
      </trkpt>
      <trkpt lat="46.50086" lon="5.3382">
        <ele>211.80000305176</ele>
        <time>2021-12-30T11:50:15.000Z</time>
      </trkpt>
      <trkpt lat="46.501" lon="5.33808">
        <ele>211.39999389648</ele>
        <time>2021-12-30T11:50:17.000Z</time>
      </trkpt>
      <trkpt lat="46.50126" lon="5.3378">
        <ele>210.60000610352</ele>
        <time>2021-12-30T11:50:21.000Z</time>
      </trkpt>
      <trkpt lat="46.50138" lon="5.33767">
        <ele>210.39999389648</ele>
        <time>2021-12-30T11:50:23.000Z</time>
      </trkpt>
      <trkpt lat="46.50174" lon="5.33725">
        <ele>210.19999694824</ele>
        <time>2021-12-30T11:50:30.000Z</time>
      </trkpt>
      <trkpt lat="46.50208" lon="5.33685">
        <ele>210.60000610352</ele>
        <time>2021-12-30T11:50:37.000Z</time>
      </trkpt>
      <trkpt lat="46.50219" lon="5.33674">
        <ele>210.80000305176</ele>
        <time>2021-12-30T11:50:39.000Z</time>
      </trkpt>
      <trkpt lat="46.50229" lon="5.33662">
        <ele>210.80000305176</ele>
        <time>2021-12-30T11:50:41.000Z</time>
      </trkpt>
      <trkpt lat="46.50273" lon="5.33613">
        <ele>210.39999389648</ele>
        <time>2021-12-30T11:50:49.000Z</time>
      </trkpt>
      <trkpt lat="46.50323" lon="5.33563">
        <ele>209.80000305176</ele>
        <time>2021-12-30T11:50:57.000Z</time>
      </trkpt>
      <trkpt lat="46.50329" lon="5.33556">
        <ele>209.60000610352</ele>
        <time>2021-12-30T11:50:58.000Z</time>
      </trkpt>
      <trkpt lat="46.50341" lon="5.33545">
        <ele>209.39999389648</ele>
        <time>2021-12-30T11:51:00.000Z</time>
      </trkpt>
      <trkpt lat="46.50346" lon="5.33539">
        <ele>209.39999389648</ele>
        <time>2021-12-30T11:51:01.000Z</time>
      </trkpt>
      <trkpt lat="46.50359" lon="5.33524">
        <ele>209.39999389648</ele>
        <time>2021-12-30T11:51:03.000Z</time>
      </trkpt>
      <trkpt lat="46.5037" lon="5.33512">
        <ele>209.19999694824</ele>
        <time>2021-12-30T11:51:05.000Z</time>
      </trkpt>
      <trkpt lat="46.50399" lon="5.33488">
        <ele>209</ele>
        <time>2021-12-30T11:51:09.000Z</time>
      </trkpt>
      <trkpt lat="46.50428" lon="5.33453">
        <ele>208.39999389648</ele>
        <time>2021-12-30T11:51:14.000Z</time>
      </trkpt>
      <trkpt lat="46.50439" lon="5.33439">
        <ele>208</ele>
        <time>2021-12-30T11:51:16.000Z</time>
      </trkpt>
      <trkpt lat="46.50461" lon="5.33396">
        <ele>207.39999389648</ele>
        <time>2021-12-30T11:51:21.000Z</time>
      </trkpt>
      <trkpt lat="46.50463" lon="5.33386">
        <ele>207.19999694824</ele>
        <time>2021-12-30T11:51:22.000Z</time>
      </trkpt>
      <trkpt lat="46.50468" lon="5.33354">
        <ele>207</ele>
        <time>2021-12-30T11:51:25.000Z</time>
      </trkpt>
      <trkpt lat="46.50471" lon="5.33324">
        <ele>206.80000305176</ele>
        <time>2021-12-30T11:51:28.000Z</time>
      </trkpt>
      <trkpt lat="46.50471" lon="5.33293">
        <ele>206.60000610352</ele>
        <time>2021-12-30T11:51:31.000Z</time>
      </trkpt>
      <trkpt lat="46.50472" lon="5.33254">
        <ele>206.80000305176</ele>
        <time>2021-12-30T11:51:35.000Z</time>
      </trkpt>
      <trkpt lat="46.50473" lon="5.33245">
        <ele>206.80000305176</ele>
        <time>2021-12-30T11:51:36.000Z</time>
      </trkpt>
      <trkpt lat="46.50473" lon="5.33184">
        <ele>207</ele>
        <time>2021-12-30T11:51:42.000Z</time>
      </trkpt>
      <trkpt lat="46.50473" lon="5.33162">
        <ele>207</ele>
        <time>2021-12-30T11:51:44.000Z</time>
      </trkpt>
      <trkpt lat="46.50472" lon="5.33128">
        <ele>207</ele>
        <time>2021-12-30T11:51:47.000Z</time>
      </trkpt>
      <trkpt lat="46.50472" lon="5.33049">
        <ele>205.60000610352</ele>
        <time>2021-12-30T11:51:53.000Z</time>
      </trkpt>
      <trkpt lat="46.50472" lon="5.33007">
        <ele>203.80000305176</ele>
        <time>2021-12-30T11:51:56.000Z</time>
      </trkpt>
      <trkpt lat="46.50472" lon="5.32978">
        <ele>202.80000305176</ele>
        <time>2021-12-30T11:51:58.000Z</time>
      </trkpt>
      <trkpt lat="46.50473" lon="5.32964">
        <ele>202.39999389648</ele>
        <time>2021-12-30T11:51:59.000Z</time>
      </trkpt>
      <trkpt lat="46.50473" lon="5.32934">
        <ele>201.19999694824</ele>
        <time>2021-12-30T11:52:01.000Z</time>
      </trkpt>
      <trkpt lat="46.50474" lon="5.32876">
        <ele>199.19999694824</ele>
        <time>2021-12-30T11:52:05.000Z</time>
      </trkpt>
      <trkpt lat="46.50474" lon="5.32846">
        <ele>198.19999694824</ele>
        <time>2021-12-30T11:52:07.000Z</time>
      </trkpt>
      <trkpt lat="46.50475" lon="5.32817">
        <ele>197.19999694824</ele>
        <time>2021-12-30T11:52:09.000Z</time>
      </trkpt>
      <trkpt lat="46.50475" lon="5.32788">
        <ele>195.80000305176</ele>
        <time>2021-12-30T11:52:11.000Z</time>
      </trkpt>
      <trkpt lat="46.50476" lon="5.32749">
        <ele>194.60000610352</ele>
        <time>2021-12-30T11:52:14.000Z</time>
      </trkpt>
      <trkpt lat="46.50478" lon="5.32668">
        <ele>194</ele>
        <time>2021-12-30T11:52:20.000Z</time>
      </trkpt>
      <trkpt lat="46.50478" lon="5.32656">
        <ele>193.80000305176</ele>
        <time>2021-12-30T11:52:21.000Z</time>
      </trkpt>
      <trkpt lat="46.50478" lon="5.3262">
        <ele>193.39999389648</ele>
        <time>2021-12-30T11:52:24.000Z</time>
      </trkpt>
      <trkpt lat="46.50476" lon="5.3256">
        <ele>193.19999694824</ele>
        <time>2021-12-30T11:52:29.000Z</time>
      </trkpt>
      <trkpt lat="46.50474" lon="5.32513">
        <ele>192.39999389648</ele>
        <time>2021-12-30T11:52:33.000Z</time>
      </trkpt>
      <trkpt lat="46.50466" lon="5.32428">
        <ele>191.60000610352</ele>
        <time>2021-12-30T11:52:40.000Z</time>
      </trkpt>
      <trkpt lat="46.5046" lon="5.32394">
        <ele>191.39999389648</ele>
        <time>2021-12-30T11:52:43.000Z</time>
      </trkpt>
      <trkpt lat="46.50446" lon="5.32331">
        <ele>191</ele>
        <time>2021-12-30T11:52:49.000Z</time>
      </trkpt>
      <trkpt lat="46.50435" lon="5.32268">
        <ele>191</ele>
        <time>2021-12-30T11:52:55.000Z</time>
      </trkpt>
      <trkpt lat="46.50434" lon="5.32183">
        <ele>190.80000305176</ele>
        <time>2021-12-30T11:53:03.000Z</time>
      </trkpt>
      <trkpt lat="46.50437" lon="5.32114">
        <ele>190.19999694824</ele>
        <time>2021-12-30T11:53:09.000Z</time>
      </trkpt>
      <trkpt lat="46.50437" lon="5.3208">
        <ele>189.80000305176</ele>
        <time>2021-12-30T11:53:12.000Z</time>
      </trkpt>
      <trkpt lat="46.50438" lon="5.32036">
        <ele>189.19999694824</ele>
        <time>2021-12-30T11:53:16.000Z</time>
      </trkpt>
      <trkpt lat="46.5044" lon="5.31954">
        <ele>188.39999389648</ele>
        <time>2021-12-30T11:53:23.000Z</time>
      </trkpt>
      <trkpt lat="46.5044" lon="5.31931">
        <ele>188.19999694824</ele>
        <time>2021-12-30T11:53:25.000Z</time>
      </trkpt>
      <trkpt lat="46.50439" lon="5.31877">
        <ele>188</ele>
        <time>2021-12-30T11:53:30.000Z</time>
      </trkpt>
      <trkpt lat="46.5043" lon="5.31825">
        <ele>187.80000305176</ele>
        <time>2021-12-30T11:53:35.000Z</time>
      </trkpt>
      <trkpt lat="46.50409" lon="5.31746">
        <ele>187.60000610352</ele>
        <time>2021-12-30T11:53:43.000Z</time>
      </trkpt>
      <trkpt lat="46.50406" lon="5.31737">
        <ele>187.60000610352</ele>
        <time>2021-12-30T11:53:44.000Z</time>
      </trkpt>
      <trkpt lat="46.50376" lon="5.31679">
        <ele>187.19999694824</ele>
        <time>2021-12-30T11:53:51.000Z</time>
      </trkpt>
      <trkpt lat="46.50371" lon="5.31671">
        <ele>187.19999694824</ele>
        <time>2021-12-30T11:53:52.000Z</time>
      </trkpt>
      <trkpt lat="46.5036" lon="5.31657">
        <ele>187</ele>
        <time>2021-12-30T11:53:54.000Z</time>
      </trkpt>
      <trkpt lat="46.50347" lon="5.31645">
        <ele>186.80000305176</ele>
        <time>2021-12-30T11:53:56.000Z</time>
      </trkpt>
      <trkpt lat="46.50293" lon="5.31607">
        <ele>186.39999389648</ele>
        <time>2021-12-30T11:54:04.000Z</time>
      </trkpt>
      <trkpt lat="46.50281" lon="5.31596">
        <ele>186.39999389648</ele>
        <time>2021-12-30T11:54:06.000Z</time>
      </trkpt>
      <trkpt lat="46.5024" lon="5.31554">
        <ele>186.39999389648</ele>
        <time>2021-12-30T11:54:13.000Z</time>
      </trkpt>
      <trkpt lat="46.5022" lon="5.31518">
        <ele>186.80000305176</ele>
        <time>2021-12-30T11:54:18.000Z</time>
      </trkpt>
      <trkpt lat="46.50205" lon="5.31478">
        <ele>187.60000610352</ele>
        <time>2021-12-30T11:54:24.000Z</time>
      </trkpt>
      <trkpt lat="46.50198" lon="5.3146">
        <ele>188.39999389648</ele>
        <time>2021-12-30T11:54:27.000Z</time>
      </trkpt>
      <trkpt lat="46.50188" lon="5.31429">
        <ele>189.60000610352</ele>
        <time>2021-12-30T11:54:32.000Z</time>
      </trkpt>
      <trkpt lat="46.50182" lon="5.31411">
        <ele>190.60000610352</ele>
        <time>2021-12-30T11:54:35.000Z</time>
      </trkpt>
      <trkpt lat="46.50172" lon="5.31377">
        <ele>191.80000305176</ele>
        <time>2021-12-30T11:54:41.000Z</time>
      </trkpt>
      <trkpt lat="46.50168" lon="5.31364">
        <ele>192.19999694824</ele>
        <time>2021-12-30T11:54:43.000Z</time>
      </trkpt>
      <trkpt lat="46.50156" lon="5.31332">
        <ele>193</ele>
        <time>2021-12-30T11:54:48.000Z</time>
      </trkpt>
      <trkpt lat="46.50151" lon="5.31318">
        <ele>193.19999694824</ele>
        <time>2021-12-30T11:54:50.000Z</time>
      </trkpt>
      <trkpt lat="46.50139" lon="5.31283">
        <ele>194.19999694824</ele>
        <time>2021-12-30T11:54:55.000Z</time>
      </trkpt>
      <trkpt lat="46.50137" lon="5.31276">
        <ele>194.19999694824</ele>
        <time>2021-12-30T11:54:56.000Z</time>
      </trkpt>
      <trkpt lat="46.50121" lon="5.31227">
        <ele>194.19999694824</ele>
        <time>2021-12-30T11:55:02.000Z</time>
      </trkpt>
      <trkpt lat="46.50097" lon="5.31159">
        <ele>193</ele>
        <time>2021-12-30T11:55:09.000Z</time>
      </trkpt>
      <trkpt lat="46.50094" lon="5.31149">
        <ele>192.80000305176</ele>
        <time>2021-12-30T11:55:10.000Z</time>
      </trkpt>
      <trkpt lat="46.50085" lon="5.31122">
        <ele>192</ele>
        <time>2021-12-30T11:55:13.000Z</time>
      </trkpt>
      <trkpt lat="46.5007" lon="5.31078">
        <ele>191.80000305176</ele>
        <time>2021-12-30T11:55:18.000Z</time>
      </trkpt>
      <trkpt lat="46.50055" lon="5.31036">
        <ele>192.60000610352</ele>
        <time>2021-12-30T11:55:24.000Z</time>
      </trkpt>
      <trkpt lat="46.50049" lon="5.31017">
        <ele>193.60000610352</ele>
        <time>2021-12-30T11:55:27.000Z</time>
      </trkpt>
      <trkpt lat="46.50043" lon="5.31001">
        <ele>194.19999694824</ele>
        <time>2021-12-30T11:55:30.000Z</time>
      </trkpt>
      <trkpt lat="46.5004" lon="5.30991">
        <ele>194.80000305176</ele>
        <time>2021-12-30T11:55:32.000Z</time>
      </trkpt>
      <trkpt lat="46.50033" lon="5.30969">
        <ele>195.80000305176</ele>
        <time>2021-12-30T11:55:36.000Z</time>
      </trkpt>
      <trkpt lat="46.50031" lon="5.30962">
        <ele>196.19999694824</ele>
        <time>2021-12-30T11:55:37.000Z</time>
      </trkpt>
      <trkpt lat="46.50027" lon="5.30951">
        <ele>197</ele>
        <time>2021-12-30T11:55:39.000Z</time>
      </trkpt>
      <trkpt lat="46.50018" lon="5.30925">
        <ele>198.19999694824</ele>
        <time>2021-12-30T11:55:44.000Z</time>
      </trkpt>
      <trkpt lat="46.50006" lon="5.30896">
        <ele>199.39999389648</ele>
        <time>2021-12-30T11:55:50.000Z</time>
      </trkpt>
      <trkpt lat="46.50001" lon="5.30881">
        <ele>200.19999694824</ele>
        <time>2021-12-30T11:55:53.000Z</time>
      </trkpt>
      <trkpt lat="46.49998" lon="5.30871">
        <ele>200.80000305176</ele>
        <time>2021-12-30T11:55:55.000Z</time>
      </trkpt>
      <trkpt lat="46.49984" lon="5.30833">
        <ele>202</ele>
        <time>2021-12-30T11:56:02.000Z</time>
      </trkpt>
      <trkpt lat="46.49981" lon="5.30826">
        <ele>202.19999694824</ele>
        <time>2021-12-30T11:56:03.000Z</time>
      </trkpt>
      <trkpt lat="46.49975" lon="5.30802">
        <ele>203</ele>
        <time>2021-12-30T11:56:07.000Z</time>
      </trkpt>
      <trkpt lat="46.49966" lon="5.30768">
        <ele>203.60000610352</ele>
        <time>2021-12-30T11:56:12.000Z</time>
      </trkpt>
      <trkpt lat="46.4996" lon="5.30737">
        <ele>204.19999694824</ele>
        <time>2021-12-30T11:56:17.000Z</time>
      </trkpt>
      <trkpt lat="46.49955" lon="5.30708">
        <ele>204.39999389648</ele>
        <time>2021-12-30T11:56:21.000Z</time>
      </trkpt>
      <trkpt lat="46.49945" lon="5.30656">
        <ele>204</ele>
        <time>2021-12-30T11:56:27.000Z</time>
      </trkpt>
      <trkpt lat="46.49937" lon="5.3061">
        <ele>202.80000305176</ele>
        <time>2021-12-30T11:56:32.000Z</time>
      </trkpt>
      <trkpt lat="46.49935" lon="5.30597">
        <ele>202.39999389648</ele>
        <time>2021-12-30T11:56:33.000Z</time>
      </trkpt>
      <trkpt lat="46.49934" lon="5.30578">
        <ele>202</ele>
        <time>2021-12-30T11:56:35.000Z</time>
      </trkpt>
      <trkpt lat="46.49934" lon="5.30557">
        <ele>201.39999389648</ele>
        <time>2021-12-30T11:56:37.000Z</time>
      </trkpt>
      <trkpt lat="46.49935" lon="5.30546">
        <ele>201.39999389648</ele>
        <time>2021-12-30T11:56:38.000Z</time>
      </trkpt>
      <trkpt lat="46.49942" lon="5.30511">
        <ele>200.39999389648</ele>
        <time>2021-12-30T11:56:41.000Z</time>
      </trkpt>
      <trkpt lat="46.49945" lon="5.30503">
        <ele>200.19999694824</ele>
        <time>2021-12-30T11:56:42.000Z</time>
      </trkpt>
      <trkpt lat="46.49964" lon="5.30462">
        <ele>199.19999694824</ele>
        <time>2021-12-30T11:56:46.000Z</time>
      </trkpt>
      <trkpt lat="46.49971" lon="5.30454">
        <ele>199</ele>
        <time>2021-12-30T11:56:47.000Z</time>
      </trkpt>
      <trkpt lat="46.49993" lon="5.30431">
        <ele>198</ele>
        <time>2021-12-30T11:56:50.000Z</time>
      </trkpt>
      <trkpt lat="46.50017" lon="5.30413">
        <ele>196.80000305176</ele>
        <time>2021-12-30T11:56:53.000Z</time>
      </trkpt>
      <trkpt lat="46.50041" lon="5.30394">
        <ele>195.80000305176</ele>
        <time>2021-12-30T11:56:56.000Z</time>
      </trkpt>
      <trkpt lat="46.50048" lon="5.30386">
        <ele>195.60000610352</ele>
        <time>2021-12-30T11:56:57.000Z</time>
      </trkpt>
      <trkpt lat="46.5007" lon="5.30351">
        <ele>195.19999694824</ele>
        <time>2021-12-30T11:57:01.000Z</time>
      </trkpt>
      <trkpt lat="46.50083" lon="5.30313">
        <ele>195.39999389648</ele>
        <time>2021-12-30T11:57:05.000Z</time>
      </trkpt>
      <trkpt lat="46.50088" lon="5.30278">
        <ele>196.39999389648</ele>
        <time>2021-12-30T11:57:09.000Z</time>
      </trkpt>
      <trkpt lat="46.50089" lon="5.3027">
        <ele>196.60000610352</ele>
        <time>2021-12-30T11:57:10.000Z</time>
      </trkpt>
      <trkpt lat="46.5009" lon="5.30254">
        <ele>196.80000305176</ele>
        <time>2021-12-30T11:57:12.000Z</time>
      </trkpt>
      <trkpt lat="46.5009" lon="5.30211">
        <ele>197.39999389648</ele>
        <time>2021-12-30T11:57:17.000Z</time>
      </trkpt>
      <trkpt lat="46.5009" lon="5.3019">
        <ele>197.60000610352</ele>
        <time>2021-12-30T11:57:19.000Z</time>
      </trkpt>
      <trkpt lat="46.5009" lon="5.30162">
        <ele>197.80000305176</ele>
        <time>2021-12-30T11:57:22.000Z</time>
      </trkpt>
      <trkpt lat="46.50091" lon="5.30112">
        <ele>198.19999694824</ele>
        <time>2021-12-30T11:57:28.000Z</time>
      </trkpt>
      <trkpt lat="46.50091" lon="5.3007">
        <ele>198.60000610352</ele>
        <time>2021-12-30T11:57:33.000Z</time>
      </trkpt>
      <trkpt lat="46.5009" lon="5.30036">
        <ele>199</ele>
        <time>2021-12-30T11:57:37.000Z</time>
      </trkpt>
      <trkpt lat="46.50084" lon="5.29978">
        <ele>199.19999694824</ele>
        <time>2021-12-30T11:57:44.000Z</time>
      </trkpt>
      <trkpt lat="46.50079" lon="5.29957">
        <ele>199.39999389648</ele>
        <time>2021-12-30T11:57:47.000Z</time>
      </trkpt>
      <trkpt lat="46.50079" lon="5.29944">
        <ele>199.39999389648</ele>
        <time>2021-12-30T11:57:49.000Z</time>
      </trkpt>
      <trkpt lat="46.50077" lon="5.29937">
        <ele>199.39999389648</ele>
        <time>2021-12-30T11:57:51.000Z</time>
      </trkpt>
      <trkpt lat="46.50075" lon="5.29936">
        <ele>199.39999389648</ele>
        <time>2021-12-30T11:57:52.000Z</time>
      </trkpt>
      <trkpt lat="46.50074" lon="5.29935">
        <ele>199.39999389648</ele>
        <time>2021-12-30T11:57:56.000Z</time>
      </trkpt>
      <trkpt lat="46.50074" lon="5.29935">
        <ele>199.19999694824</ele>
        <time>2021-12-30T11:57:58.000Z</time>
      </trkpt>
      <trkpt lat="46.5007" lon="5.29932">
        <ele>199.19999694824</ele>
        <time>2021-12-30T11:58:07.000Z</time>
      </trkpt>
      <trkpt lat="46.50069" lon="5.29929">
        <ele>199</ele>
        <time>2021-12-30T11:58:08.000Z</time>
      </trkpt>
      <trkpt lat="46.50057" lon="5.2991">
        <ele>198.80000305176</ele>
        <time>2021-12-30T11:58:13.000Z</time>
      </trkpt>
      <trkpt lat="46.50054" lon="5.29906">
        <ele>198.80000305176</ele>
        <time>2021-12-30T11:58:14.000Z</time>
      </trkpt>
      <trkpt lat="46.50037" lon="5.29885">
        <ele>198.39999389648</ele>
        <time>2021-12-30T11:58:18.000Z</time>
      </trkpt>
      <trkpt lat="46.50025" lon="5.2987">
        <ele>198.19999694824</ele>
        <time>2021-12-30T11:58:21.000Z</time>
      </trkpt>
      <trkpt lat="46.50021" lon="5.29856">
        <ele>197.80000305176</ele>
        <time>2021-12-30T11:58:23.000Z</time>
      </trkpt>
      <trkpt lat="46.50025" lon="5.29842">
        <ele>197.60000610352</ele>
        <time>2021-12-30T11:58:25.000Z</time>
      </trkpt>
      <trkpt lat="46.50029" lon="5.29834">
        <ele>197.60000610352</ele>
        <time>2021-12-30T11:58:26.000Z</time>
      </trkpt>
      <trkpt lat="46.50049" lon="5.29811">
        <ele>197.39999389648</ele>
        <time>2021-12-30T11:58:30.000Z</time>
      </trkpt>
      <trkpt lat="46.50055" lon="5.29806">
        <ele>197.39999389648</ele>
        <time>2021-12-30T11:58:31.000Z</time>
      </trkpt>
      <trkpt lat="46.50067" lon="5.29798">
        <ele>197.19999694824</ele>
        <time>2021-12-30T11:58:33.000Z</time>
      </trkpt>
      <trkpt lat="46.50085" lon="5.29791">
        <ele>197.19999694824</ele>
        <time>2021-12-30T11:58:36.000Z</time>
      </trkpt>
      <trkpt lat="46.50123" lon="5.29781">
        <ele>198.60000610352</ele>
        <time>2021-12-30T11:58:42.000Z</time>
      </trkpt>
      <trkpt lat="46.50127" lon="5.29779">
        <ele>199</ele>
        <time>2021-12-30T11:58:43.000Z</time>
      </trkpt>
      <trkpt lat="46.50154" lon="5.29772">
        <ele>200.19999694824</ele>
        <time>2021-12-30T11:58:48.000Z</time>
      </trkpt>
      <trkpt lat="46.5017" lon="5.29768">
        <ele>200.80000305176</ele>
        <time>2021-12-30T11:58:51.000Z</time>
      </trkpt>
      <trkpt lat="46.50179" lon="5.29768">
        <ele>201.19999694824</ele>
        <time>2021-12-30T11:58:53.000Z</time>
      </trkpt>
      <trkpt lat="46.50186" lon="5.29767">
        <ele>201.39999389648</ele>
        <time>2021-12-30T11:58:54.000Z</time>
      </trkpt>
      <trkpt lat="46.50208" lon="5.2977">
        <ele>202.19999694824</ele>
        <time>2021-12-30T11:58:58.000Z</time>
      </trkpt>
      <trkpt lat="46.50228" lon="5.29769">
        <ele>202.39999389648</ele>
        <time>2021-12-30T11:59:01.000Z</time>
      </trkpt>
      <trkpt lat="46.50246" lon="5.29767">
        <ele>202.60000610352</ele>
        <time>2021-12-30T11:59:04.000Z</time>
      </trkpt>
      <trkpt lat="46.50269" lon="5.29761">
        <ele>202.39999389648</ele>
        <time>2021-12-30T11:59:08.000Z</time>
      </trkpt>
      <trkpt lat="46.50291" lon="5.29752">
        <ele>202.60000610352</ele>
        <time>2021-12-30T11:59:12.000Z</time>
      </trkpt>
      <trkpt lat="46.5034" lon="5.29733">
        <ele>203.19999694824</ele>
        <time>2021-12-30T11:59:21.000Z</time>
      </trkpt>
      <trkpt lat="46.50352" lon="5.29728">
        <ele>203.39999389648</ele>
        <time>2021-12-30T11:59:23.000Z</time>
      </trkpt>
      <trkpt lat="46.50403" lon="5.29701">
        <ele>204</ele>
        <time>2021-12-30T11:59:32.000Z</time>
      </trkpt>
      <trkpt lat="46.50452" lon="5.29669">
        <ele>203.80000305176</ele>
        <time>2021-12-30T11:59:40.000Z</time>
      </trkpt>
      <trkpt lat="46.50502" lon="5.29635">
        <ele>203.39999389648</ele>
        <time>2021-12-30T11:59:48.000Z</time>
      </trkpt>
      <trkpt lat="46.50509" lon="5.29631">
        <ele>203.39999389648</ele>
        <time>2021-12-30T11:59:49.000Z</time>
      </trkpt>
      <trkpt lat="46.50558" lon="5.29594">
        <ele>203.19999694824</ele>
        <time>2021-12-30T11:59:57.000Z</time>
      </trkpt>
      <trkpt lat="46.50569" lon="5.29586">
        <ele>203.19999694824</ele>
        <time>2021-12-30T11:59:59.000Z</time>
      </trkpt>
      <trkpt lat="46.50618" lon="5.29548">
        <ele>203</ele>
        <time>2021-12-30T12:00:07.000Z</time>
      </trkpt>
      <trkpt lat="46.50643" lon="5.29531">
        <ele>203</ele>
        <time>2021-12-30T12:00:11.000Z</time>
      </trkpt>
      <trkpt lat="46.5065" lon="5.29528">
        <ele>203</ele>
        <time>2021-12-30T12:00:12.000Z</time>
      </trkpt>
      <trkpt lat="46.50665" lon="5.29526">
        <ele>202.80000305176</ele>
        <time>2021-12-30T12:00:14.000Z</time>
      </trkpt>
      <trkpt lat="46.50674" lon="5.29528">
        <ele>202.80000305176</ele>
        <time>2021-12-30T12:00:15.000Z</time>
      </trkpt>
      <trkpt lat="46.50695" lon="5.29537">
        <ele>202.39999389648</ele>
        <time>2021-12-30T12:00:18.000Z</time>
      </trkpt>
      <trkpt lat="46.50719" lon="5.29547">
        <ele>201.80000305176</ele>
        <time>2021-12-30T12:00:21.000Z</time>
      </trkpt>
      <trkpt lat="46.50744" lon="5.29559">
        <ele>201</ele>
        <time>2021-12-30T12:00:24.000Z</time>
      </trkpt>
      <trkpt lat="46.50753" lon="5.29562">
        <ele>200.39999389648</ele>
        <time>2021-12-30T12:00:25.000Z</time>
      </trkpt>
      <trkpt lat="46.50762" lon="5.29564">
        <ele>200.19999694824</ele>
        <time>2021-12-30T12:00:26.000Z</time>
      </trkpt>
      <trkpt lat="46.50771" lon="5.29566">
        <ele>199.80000305176</ele>
        <time>2021-12-30T12:00:27.000Z</time>
      </trkpt>
      <trkpt lat="46.5081" lon="5.29568">
        <ele>198.60000610352</ele>
        <time>2021-12-30T12:00:31.000Z</time>
      </trkpt>
      <trkpt lat="46.50842" lon="5.29571">
        <ele>197</ele>
        <time>2021-12-30T12:00:34.000Z</time>
      </trkpt>
      <trkpt lat="46.50871" lon="5.29574">
        <ele>196</ele>
        <time>2021-12-30T12:00:37.000Z</time>
      </trkpt>
      <trkpt lat="46.50884" lon="5.29574">
        <ele>195.39999389648</ele>
        <time>2021-12-30T12:00:38.000Z</time>
      </trkpt>
      <trkpt lat="46.50903" lon="5.29571">
        <ele>194.80000305176</ele>
        <time>2021-12-30T12:00:40.000Z</time>
      </trkpt>
      <trkpt lat="46.50924" lon="5.29562">
        <ele>193.39999389648</ele>
        <time>2021-12-30T12:00:42.000Z</time>
      </trkpt>
      <trkpt lat="46.50934" lon="5.29555">
        <ele>192.19999694824</ele>
        <time>2021-12-30T12:00:43.000Z</time>
      </trkpt>
      <trkpt lat="46.50955" lon="5.29539">
        <ele>191.19999694824</ele>
        <time>2021-12-30T12:00:45.000Z</time>
      </trkpt>
      <trkpt lat="46.50965" lon="5.2953">
        <ele>190.80000305176</ele>
        <time>2021-12-30T12:00:46.000Z</time>
      </trkpt>
      <trkpt lat="46.50975" lon="5.29522">
        <ele>190</ele>
        <time>2021-12-30T12:00:47.000Z</time>
      </trkpt>
      <trkpt lat="46.50986" lon="5.29513">
        <ele>188.60000610352</ele>
        <time>2021-12-30T12:00:48.000Z</time>
      </trkpt>
      <trkpt lat="46.5101" lon="5.29494">
        <ele>186.80000305176</ele>
        <time>2021-12-30T12:00:50.000Z</time>
      </trkpt>
      <trkpt lat="46.51029" lon="5.29479">
        <ele>185.19999694824</ele>
        <time>2021-12-30T12:00:52.000Z</time>
      </trkpt>
      <trkpt lat="46.5104" lon="5.29472">
        <ele>184.60000610352</ele>
        <time>2021-12-30T12:00:53.000Z</time>
      </trkpt>
      <trkpt lat="46.5105" lon="5.29464">
        <ele>183.60000610352</ele>
        <time>2021-12-30T12:00:54.000Z</time>
      </trkpt>
      <trkpt lat="46.51072" lon="5.29452">
        <ele>182.39999389648</ele>
        <time>2021-12-30T12:00:56.000Z</time>
      </trkpt>
      <trkpt lat="46.51093" lon="5.29442">
        <ele>181.39999389648</ele>
        <time>2021-12-30T12:00:58.000Z</time>
      </trkpt>
      <trkpt lat="46.51123" lon="5.29434">
        <ele>180.19999694824</ele>
        <time>2021-12-30T12:01:01.000Z</time>
      </trkpt>
      <trkpt lat="46.51142" lon="5.29428">
        <ele>179.80000305176</ele>
        <time>2021-12-30T12:01:03.000Z</time>
      </trkpt>
      <trkpt lat="46.51196" lon="5.29413">
        <ele>179.39999389648</ele>
        <time>2021-12-30T12:01:09.000Z</time>
      </trkpt>
      <trkpt lat="46.51204" lon="5.29411">
        <ele>179.39999389648</ele>
        <time>2021-12-30T12:01:10.000Z</time>
      </trkpt>
      <trkpt lat="46.51258" lon="5.29398">
        <ele>179.19999694824</ele>
        <time>2021-12-30T12:01:16.000Z</time>
      </trkpt>
      <trkpt lat="46.51273" lon="5.29393">
        <ele>179.19999694824</ele>
        <time>2021-12-30T12:01:18.000Z</time>
      </trkpt>
      <trkpt lat="46.51321" lon="5.29368">
        <ele>178.80000305176</ele>
        <time>2021-12-30T12:01:24.000Z</time>
      </trkpt>
      <trkpt lat="46.51366" lon="5.29336">
        <ele>179</ele>
        <time>2021-12-30T12:01:30.000Z</time>
      </trkpt>
      <trkpt lat="46.51371" lon="5.2933">
        <ele>179</ele>
        <time>2021-12-30T12:01:31.000Z</time>
      </trkpt>
      <trkpt lat="46.51376" lon="5.29322">
        <ele>179</ele>
        <time>2021-12-30T12:01:32.000Z</time>
      </trkpt>
      <trkpt lat="46.51391" lon="5.29296">
        <ele>179</ele>
        <time>2021-12-30T12:01:35.000Z</time>
      </trkpt>
      <trkpt lat="46.51395" lon="5.29287">
        <ele>179</ele>
        <time>2021-12-30T12:01:36.000Z</time>
      </trkpt>
      <trkpt lat="46.51409" lon="5.29262">
        <ele>179</ele>
        <time>2021-12-30T12:01:39.000Z</time>
      </trkpt>
      <trkpt lat="46.51439" lon="5.29217">
        <ele>179.19999694824</ele>
        <time>2021-12-30T12:01:45.000Z</time>
      </trkpt>
      <trkpt lat="46.51443" lon="5.29208">
        <ele>179.19999694824</ele>
        <time>2021-12-30T12:01:46.000Z</time>
      </trkpt>
      <trkpt lat="46.51449" lon="5.29189">
        <ele>179.39999389648</ele>
        <time>2021-12-30T12:01:48.000Z</time>
      </trkpt>
      <trkpt lat="46.51451" lon="5.29179">
        <ele>179.39999389648</ele>
        <time>2021-12-30T12:01:49.000Z</time>
      </trkpt>
      <trkpt lat="46.51467" lon="5.29094">
        <ele>179.19999694824</ele>
        <time>2021-12-30T12:01:57.000Z</time>
      </trkpt>
      <trkpt lat="46.5147" lon="5.29071">
        <ele>178.80000305176</ele>
        <time>2021-12-30T12:01:59.000Z</time>
      </trkpt>
      <trkpt lat="46.51484" lon="5.28988">
        <ele>178.19999694824</ele>
        <time>2021-12-30T12:02:07.000Z</time>
      </trkpt>
      <trkpt lat="46.51486" lon="5.28978">
        <ele>178.19999694824</ele>
        <time>2021-12-30T12:02:08.000Z</time>
      </trkpt>
      <trkpt lat="46.51488" lon="5.28967">
        <ele>178</ele>
        <time>2021-12-30T12:02:09.000Z</time>
      </trkpt>
      <trkpt lat="46.51501" lon="5.28884">
        <ele>177.19999694824</ele>
        <time>2021-12-30T12:02:17.000Z</time>
      </trkpt>
      <trkpt lat="46.51504" lon="5.28864">
        <ele>177</ele>
        <time>2021-12-30T12:02:19.000Z</time>
      </trkpt>
      <trkpt lat="46.51512" lon="5.28808">
        <ele>176.80000305176</ele>
        <time>2021-12-30T12:02:25.000Z</time>
      </trkpt>
      <trkpt lat="46.51512" lon="5.28799">
        <ele>176.80000305176</ele>
        <time>2021-12-30T12:02:26.000Z</time>
      </trkpt>
      <trkpt lat="46.51506" lon="5.28747">
        <ele>177.39999389648</ele>
        <time>2021-12-30T12:02:32.000Z</time>
      </trkpt>
      <trkpt lat="46.5149" lon="5.28692">
        <ele>177.60000610352</ele>
        <time>2021-12-30T12:02:38.000Z</time>
      </trkpt>
      <trkpt lat="46.51469" lon="5.28629">
        <ele>177</ele>
        <time>2021-12-30T12:02:45.000Z</time>
      </trkpt>
      <trkpt lat="46.51446" lon="5.28559">
        <ele>176.80000305176</ele>
        <time>2021-12-30T12:02:53.000Z</time>
      </trkpt>
      <trkpt lat="46.51426" lon="5.285">
        <ele>177.19999694824</ele>
        <time>2021-12-30T12:03:00.000Z</time>
      </trkpt>
      <trkpt lat="46.51421" lon="5.28481">
        <ele>177.19999694824</ele>
        <time>2021-12-30T12:03:02.000Z</time>
      </trkpt>
      <trkpt lat="46.51421" lon="5.28465">
        <ele>177.60000610352</ele>
        <time>2021-12-30T12:03:04.000Z</time>
      </trkpt>
      <trkpt lat="46.51423" lon="5.28448">
        <ele>177.80000305176</ele>
        <time>2021-12-30T12:03:06.000Z</time>
      </trkpt>
      <trkpt lat="46.51426" lon="5.28433">
        <ele>178</ele>
        <time>2021-12-30T12:03:08.000Z</time>
      </trkpt>
      <trkpt lat="46.51428" lon="5.28426">
        <ele>178</ele>
        <time>2021-12-30T12:03:09.000Z</time>
      </trkpt>
      <trkpt lat="46.51437" lon="5.28407">
        <ele>178.60000610352</ele>
        <time>2021-12-30T12:03:12.000Z</time>
      </trkpt>
      <trkpt lat="46.51447" lon="5.2839">
        <ele>179</ele>
        <time>2021-12-30T12:03:15.000Z</time>
      </trkpt>
      <trkpt lat="46.51459" lon="5.28368">
        <ele>180</ele>
        <time>2021-12-30T12:03:19.000Z</time>
      </trkpt>
      <trkpt lat="46.51462" lon="5.28363">
        <ele>180.39999389648</ele>
        <time>2021-12-30T12:03:20.000Z</time>
      </trkpt>
      <trkpt lat="46.51481" lon="5.28327">
        <ele>181.39999389648</ele>
        <time>2021-12-30T12:03:26.000Z</time>
      </trkpt>
      <trkpt lat="46.51484" lon="5.28321">
        <ele>181.60000610352</ele>
        <time>2021-12-30T12:03:27.000Z</time>
      </trkpt>
      <trkpt lat="46.51499" lon="5.28294">
        <ele>182.39999389648</ele>
        <time>2021-12-30T12:03:32.000Z</time>
      </trkpt>
      <trkpt lat="46.51509" lon="5.28277">
        <ele>183.19999694824</ele>
        <time>2021-12-30T12:03:35.000Z</time>
      </trkpt>
      <trkpt lat="46.51511" lon="5.28272">
        <ele>183.39999389648</ele>
        <time>2021-12-30T12:03:36.000Z</time>
      </trkpt>
      <trkpt lat="46.51532" lon="5.28235">
        <ele>184.60000610352</ele>
        <time>2021-12-30T12:03:43.000Z</time>
      </trkpt>
      <trkpt lat="46.51538" lon="5.28222">
        <ele>185</ele>
        <time>2021-12-30T12:03:45.000Z</time>
      </trkpt>
      <trkpt lat="46.51545" lon="5.28198">
        <ele>185.80000305176</ele>
        <time>2021-12-30T12:03:49.000Z</time>
      </trkpt>
      <trkpt lat="46.51552" lon="5.28174">
        <ele>186.80000305176</ele>
        <time>2021-12-30T12:03:53.000Z</time>
      </trkpt>
      <trkpt lat="46.51554" lon="5.28169">
        <ele>187</ele>
        <time>2021-12-30T12:03:54.000Z</time>
      </trkpt>
      <trkpt lat="46.51556" lon="5.28162">
        <ele>187</ele>
        <time>2021-12-30T12:03:55.000Z</time>
      </trkpt>
      <trkpt lat="46.51565" lon="5.28132">
        <ele>188</ele>
        <time>2021-12-30T12:04:00.000Z</time>
      </trkpt>
      <trkpt lat="46.51567" lon="5.28127">
        <ele>188</ele>
        <time>2021-12-30T12:04:01.000Z</time>
      </trkpt>
      <trkpt lat="46.51573" lon="5.28103">
        <ele>189.19999694824</ele>
        <time>2021-12-30T12:04:05.000Z</time>
      </trkpt>
      <trkpt lat="46.51579" lon="5.28085">
        <ele>189.80000305176</ele>
        <time>2021-12-30T12:04:08.000Z</time>
      </trkpt>
      <trkpt lat="46.51584" lon="5.2807">
        <ele>190.19999694824</ele>
        <time>2021-12-30T12:04:11.000Z</time>
      </trkpt>
      <trkpt lat="46.51599" lon="5.2803">
        <ele>191.39999389648</ele>
        <time>2021-12-30T12:04:18.000Z</time>
      </trkpt>
      <trkpt lat="46.51602" lon="5.28025">
        <ele>191.60000610352</ele>
        <time>2021-12-30T12:04:19.000Z</time>
      </trkpt>
      <trkpt lat="46.51619" lon="5.27997">
        <ele>192.39999389648</ele>
        <time>2021-12-30T12:04:25.000Z</time>
      </trkpt>
      <trkpt lat="46.51623" lon="5.27992">
        <ele>192.60000610352</ele>
        <time>2021-12-30T12:04:26.000Z</time>
      </trkpt>
      <trkpt lat="46.51644" lon="5.2797">
        <ele>193.39999389648</ele>
        <time>2021-12-30T12:04:31.000Z</time>
      </trkpt>
      <trkpt lat="46.51648" lon="5.27965">
        <ele>193.39999389648</ele>
        <time>2021-12-30T12:04:32.000Z</time>
      </trkpt>
      <trkpt lat="46.51693" lon="5.27919">
        <ele>193</ele>
        <time>2021-12-30T12:04:41.000Z</time>
      </trkpt>
      <trkpt lat="46.51716" lon="5.27896">
        <ele>192.39999389648</ele>
        <time>2021-12-30T12:04:45.000Z</time>
      </trkpt>
      <trkpt lat="46.51747" lon="5.27864">
        <ele>191.60000610352</ele>
        <time>2021-12-30T12:04:50.000Z</time>
      </trkpt>
      <trkpt lat="46.51759" lon="5.27851">
        <ele>191.19999694824</ele>
        <time>2021-12-30T12:04:52.000Z</time>
      </trkpt>
      <trkpt lat="46.51796" lon="5.27814">
        <ele>190</ele>
        <time>2021-12-30T12:04:57.000Z</time>
      </trkpt>
      <trkpt lat="46.5182" lon="5.27789">
        <ele>188.80000305176</ele>
        <time>2021-12-30T12:05:00.000Z</time>
      </trkpt>
      <trkpt lat="46.51833" lon="5.27775">
        <ele>187.60000610352</ele>
        <time>2021-12-30T12:05:02.000Z</time>
      </trkpt>
      <trkpt lat="46.51857" lon="5.27751">
        <ele>186.19999694824</ele>
        <time>2021-12-30T12:05:05.000Z</time>
      </trkpt>
      <trkpt lat="46.51864" lon="5.27743">
        <ele>186</ele>
        <time>2021-12-30T12:05:06.000Z</time>
      </trkpt>
      <trkpt lat="46.5188" lon="5.27727">
        <ele>185</ele>
        <time>2021-12-30T12:05:08.000Z</time>
      </trkpt>
      <trkpt lat="46.51912" lon="5.27695">
        <ele>183.60000610352</ele>
        <time>2021-12-30T12:05:12.000Z</time>
      </trkpt>
      <trkpt lat="46.51921" lon="5.27684">
        <ele>183.19999694824</ele>
        <time>2021-12-30T12:05:13.000Z</time>
      </trkpt>
      <trkpt lat="46.51937" lon="5.27666">
        <ele>182.39999389648</ele>
        <time>2021-12-30T12:05:15.000Z</time>
      </trkpt>
      <trkpt lat="46.5196" lon="5.27638">
        <ele>181.39999389648</ele>
        <time>2021-12-30T12:05:18.000Z</time>
      </trkpt>
      <trkpt lat="46.51973" lon="5.27621">
        <ele>180.39999389648</ele>
        <time>2021-12-30T12:05:20.000Z</time>
      </trkpt>
      <trkpt lat="46.5198" lon="5.27611">
        <ele>179.80000305176</ele>
        <time>2021-12-30T12:05:21.000Z</time>
      </trkpt>
      <trkpt lat="46.51995" lon="5.2759">
        <ele>179.19999694824</ele>
        <time>2021-12-30T12:05:23.000Z</time>
      </trkpt>
      <trkpt lat="46.52027" lon="5.27548">
        <ele>178.80000305176</ele>
        <time>2021-12-30T12:05:28.000Z</time>
      </trkpt>
      <trkpt lat="46.52066" lon="5.27499">
        <ele>179.19999694824</ele>
        <time>2021-12-30T12:05:35.000Z</time>
      </trkpt>
      <trkpt lat="46.5208" lon="5.2748">
        <ele>179.60000610352</ele>
        <time>2021-12-30T12:05:38.000Z</time>
      </trkpt>
      <trkpt lat="46.52088" lon="5.27469">
        <ele>180.19999694824</ele>
        <time>2021-12-30T12:05:40.000Z</time>
      </trkpt>
      <trkpt lat="46.52092" lon="5.27463">
        <ele>180.39999389648</ele>
        <time>2021-12-30T12:05:41.000Z</time>
      </trkpt>
      <trkpt lat="46.52107" lon="5.27441">
        <ele>181.60000610352</ele>
        <time>2021-12-30T12:05:45.000Z</time>
      </trkpt>
      <trkpt lat="46.52112" lon="5.2743">
        <ele>182.39999389648</ele>
        <time>2021-12-30T12:05:47.000Z</time>
      </trkpt>
      <trkpt lat="46.52117" lon="5.27417">
        <ele>182.80000305176</ele>
        <time>2021-12-30T12:05:49.000Z</time>
      </trkpt>
      <trkpt lat="46.52119" lon="5.2741">
        <ele>183</ele>
        <time>2021-12-30T12:05:50.000Z</time>
      </trkpt>
      <trkpt lat="46.52125" lon="5.27391">
        <ele>183.60000610352</ele>
        <time>2021-12-30T12:05:53.000Z</time>
      </trkpt>
      <trkpt lat="46.52126" lon="5.27385">
        <ele>183.80000305176</ele>
        <time>2021-12-30T12:05:54.000Z</time>
      </trkpt>
      <trkpt lat="46.52127" lon="5.27377">
        <ele>183.80000305176</ele>
        <time>2021-12-30T12:05:55.000Z</time>
      </trkpt>
      <trkpt lat="46.52127" lon="5.27371">
        <ele>184.19999694824</ele>
        <time>2021-12-30T12:05:56.000Z</time>
      </trkpt>
      <trkpt lat="46.52127" lon="5.27357">
        <ele>184.39999389648</ele>
        <time>2021-12-30T12:05:58.000Z</time>
      </trkpt>
      <trkpt lat="46.52125" lon="5.27338">
        <ele>185.19999694824</ele>
        <time>2021-12-30T12:06:01.000Z</time>
      </trkpt>
      <trkpt lat="46.52122" lon="5.27327">
        <ele>185.60000610352</ele>
        <time>2021-12-30T12:06:03.000Z</time>
      </trkpt>
      <trkpt lat="46.5212" lon="5.27322">
        <ele>185.60000610352</ele>
        <time>2021-12-30T12:06:04.000Z</time>
      </trkpt>
      <trkpt lat="46.52114" lon="5.27312">
        <ele>186</ele>
        <time>2021-12-30T12:06:06.000Z</time>
      </trkpt>
      <trkpt lat="46.52111" lon="5.27309">
        <ele>186.19999694824</ele>
        <time>2021-12-30T12:06:07.000Z</time>
      </trkpt>
      <trkpt lat="46.52103" lon="5.27303">
        <ele>186.80000305176</ele>
        <time>2021-12-30T12:06:09.000Z</time>
      </trkpt>
      <trkpt lat="46.52099" lon="5.273">
        <ele>187</ele>
        <time>2021-12-30T12:06:10.000Z</time>
      </trkpt>
      <trkpt lat="46.52092" lon="5.27296">
        <ele>187.39999389648</ele>
        <time>2021-12-30T12:06:12.000Z</time>
      </trkpt>
      <trkpt lat="46.52082" lon="5.27292">
        <ele>187.80000305176</ele>
        <time>2021-12-30T12:06:14.000Z</time>
      </trkpt>
      <trkpt lat="46.52078" lon="5.2729">
        <ele>188.19999694824</ele>
        <time>2021-12-30T12:06:15.000Z</time>
      </trkpt>
      <trkpt lat="46.52065" lon="5.27283">
        <ele>188.60000610352</ele>
        <time>2021-12-30T12:06:18.000Z</time>
      </trkpt>
      <trkpt lat="46.52054" lon="5.27274">
        <ele>188.80000305176</ele>
        <time>2021-12-30T12:06:21.000Z</time>
      </trkpt>
      <trkpt lat="46.5205" lon="5.2727">
        <ele>189</ele>
        <time>2021-12-30T12:06:22.000Z</time>
      </trkpt>
      <trkpt lat="46.52036" lon="5.27254">
        <ele>189.60000610352</ele>
        <time>2021-12-30T12:06:26.000Z</time>
      </trkpt>
      <trkpt lat="46.5203" lon="5.27244">
        <ele>190</ele>
        <time>2021-12-30T12:06:28.000Z</time>
      </trkpt>
      <trkpt lat="46.52028" lon="5.27239">
        <ele>190.19999694824</ele>
        <time>2021-12-30T12:06:29.000Z</time>
      </trkpt>
      <trkpt lat="46.52023" lon="5.27223">
        <ele>190.80000305176</ele>
        <time>2021-12-30T12:06:32.000Z</time>
      </trkpt>
      <trkpt lat="46.52014" lon="5.2719">
        <ele>192</ele>
        <time>2021-12-30T12:06:38.000Z</time>
      </trkpt>
      <trkpt lat="46.52006" lon="5.27157">
        <ele>193.19999694824</ele>
        <time>2021-12-30T12:06:44.000Z</time>
      </trkpt>
      <trkpt lat="46.52004" lon="5.27147">
        <ele>193.60000610352</ele>
        <time>2021-12-30T12:06:46.000Z</time>
      </trkpt>
      <trkpt lat="46.52001" lon="5.27122">
        <ele>194.19999694824</ele>
        <time>2021-12-30T12:06:50.000Z</time>
      </trkpt>
      <trkpt lat="46.51998" lon="5.27092">
        <ele>194.80000305176</ele>
        <time>2021-12-30T12:06:55.000Z</time>
      </trkpt>
      <trkpt lat="46.51997" lon="5.27079">
        <ele>195.19999694824</ele>
        <time>2021-12-30T12:06:57.000Z</time>
      </trkpt>
      <trkpt lat="46.51994" lon="5.27056">
        <ele>196.19999694824</ele>
        <time>2021-12-30T12:07:01.000Z</time>
      </trkpt>
      <trkpt lat="46.51993" lon="5.27043">
        <ele>196.60000610352</ele>
        <time>2021-12-30T12:07:03.000Z</time>
      </trkpt>
      <trkpt lat="46.51993" lon="5.27036">
        <ele>196.80000305176</ele>
        <time>2021-12-30T12:07:04.000Z</time>
      </trkpt>
      <trkpt lat="46.5199" lon="5.2701">
        <ele>197.39999389648</ele>
        <time>2021-12-30T12:07:08.000Z</time>
      </trkpt>
      <trkpt lat="46.51988" lon="5.26985">
        <ele>197.80000305176</ele>
        <time>2021-12-30T12:07:12.000Z</time>
      </trkpt>
      <trkpt lat="46.51982" lon="5.26951">
        <ele>198.39999389648</ele>
        <time>2021-12-30T12:07:17.000Z</time>
      </trkpt>
      <trkpt lat="46.51976" lon="5.2693">
        <ele>198.80000305176</ele>
        <time>2021-12-30T12:07:20.000Z</time>
      </trkpt>
      <trkpt lat="46.51959" lon="5.26878">
        <ele>199</ele>
        <time>2021-12-30T12:07:27.000Z</time>
      </trkpt>
      <trkpt lat="46.51955" lon="5.26861">
        <ele>199</ele>
        <time>2021-12-30T12:07:29.000Z</time>
      </trkpt>
      <trkpt lat="46.51954" lon="5.26837">
        <ele>198.39999389648</ele>
        <time>2021-12-30T12:07:31.000Z</time>
      </trkpt>
      <trkpt lat="46.5196" lon="5.26802">
        <ele>197.60000610352</ele>
        <time>2021-12-30T12:07:34.000Z</time>
      </trkpt>
      <trkpt lat="46.51965" lon="5.26792">
        <ele>197.19999694824</ele>
        <time>2021-12-30T12:07:35.000Z</time>
      </trkpt>
      <trkpt lat="46.5197" lon="5.26783">
        <ele>196.80000305176</ele>
        <time>2021-12-30T12:07:36.000Z</time>
      </trkpt>
      <trkpt lat="46.51977" lon="5.26775">
        <ele>196.19999694824</ele>
        <time>2021-12-30T12:07:37.000Z</time>
      </trkpt>
      <trkpt lat="46.51983" lon="5.2677">
        <ele>195.80000305176</ele>
        <time>2021-12-30T12:07:38.000Z</time>
      </trkpt>
      <trkpt lat="46.52001" lon="5.26755">
        <ele>194.60000610352</ele>
        <time>2021-12-30T12:07:40.000Z</time>
      </trkpt>
      <trkpt lat="46.52016" lon="5.26742">
        <ele>193.39999389648</ele>
        <time>2021-12-30T12:07:42.000Z</time>
      </trkpt>
      <trkpt lat="46.52043" lon="5.2672">
        <ele>192.39999389648</ele>
        <time>2021-12-30T12:07:45.000Z</time>
      </trkpt>
      <trkpt lat="46.52062" lon="5.26705">
        <ele>190.80000305176</ele>
        <time>2021-12-30T12:07:47.000Z</time>
      </trkpt>
      <trkpt lat="46.52072" lon="5.26698">
        <ele>190.39999389648</ele>
        <time>2021-12-30T12:07:48.000Z</time>
      </trkpt>
      <trkpt lat="46.5209" lon="5.26683">
        <ele>189.39999389648</ele>
        <time>2021-12-30T12:07:50.000Z</time>
      </trkpt>
      <trkpt lat="46.52118" lon="5.26658">
        <ele>187.80000305176</ele>
        <time>2021-12-30T12:07:53.000Z</time>
      </trkpt>
      <trkpt lat="46.52134" lon="5.26639">
        <ele>186.60000610352</ele>
        <time>2021-12-30T12:07:55.000Z</time>
      </trkpt>
      <trkpt lat="46.52154" lon="5.26606">
        <ele>185</ele>
        <time>2021-12-30T12:07:58.000Z</time>
      </trkpt>
      <trkpt lat="46.52175" lon="5.26572">
        <ele>184</ele>
        <time>2021-12-30T12:08:01.000Z</time>
      </trkpt>
      <trkpt lat="46.52188" lon="5.26554">
        <ele>183.60000610352</ele>
        <time>2021-12-30T12:08:03.000Z</time>
      </trkpt>
      <trkpt lat="46.52196" lon="5.26546">
        <ele>183.60000610352</ele>
        <time>2021-12-30T12:08:04.000Z</time>
      </trkpt>
      <trkpt lat="46.52212" lon="5.26534">
        <ele>183.39999389648</ele>
        <time>2021-12-30T12:08:06.000Z</time>
      </trkpt>
      <trkpt lat="46.52219" lon="5.2653">
        <ele>183.19999694824</ele>
        <time>2021-12-30T12:08:07.000Z</time>
      </trkpt>
      <trkpt lat="46.52239" lon="5.26521">
        <ele>183</ele>
        <time>2021-12-30T12:08:09.000Z</time>
      </trkpt>
      <trkpt lat="46.52283" lon="5.26499">
        <ele>181.60000610352</ele>
        <time>2021-12-30T12:08:14.000Z</time>
      </trkpt>
      <trkpt lat="46.52299" lon="5.26491">
        <ele>181</ele>
        <time>2021-12-30T12:08:16.000Z</time>
      </trkpt>
      <trkpt lat="46.52319" lon="5.26482">
        <ele>180.60000610352</ele>
        <time>2021-12-30T12:08:18.000Z</time>
      </trkpt>
      <trkpt lat="46.52345" lon="5.26471">
        <ele>179.39999389648</ele>
        <time>2021-12-30T12:08:21.000Z</time>
      </trkpt>
      <trkpt lat="46.52375" lon="5.26454">
        <ele>178.60000610352</ele>
        <time>2021-12-30T12:08:24.000Z</time>
      </trkpt>
      <trkpt lat="46.52383" lon="5.26446">
        <ele>178.19999694824</ele>
        <time>2021-12-30T12:08:25.000Z</time>
      </trkpt>
      <trkpt lat="46.52389" lon="5.26438">
        <ele>177.80000305176</ele>
        <time>2021-12-30T12:08:26.000Z</time>
      </trkpt>
      <trkpt lat="46.52397" lon="5.26426">
        <ele>177.60000610352</ele>
        <time>2021-12-30T12:08:27.000Z</time>
      </trkpt>
      <trkpt lat="46.52402" lon="5.26417">
        <ele>177.19999694824</ele>
        <time>2021-12-30T12:08:28.000Z</time>
      </trkpt>
      <trkpt lat="46.52409" lon="5.264">
        <ele>176.80000305176</ele>
        <time>2021-12-30T12:08:30.000Z</time>
      </trkpt>
      <trkpt lat="46.52426" lon="5.26353">
        <ele>176.19999694824</ele>
        <time>2021-12-30T12:08:36.000Z</time>
      </trkpt>
      <trkpt lat="46.52436" lon="5.26327">
        <ele>176.19999694824</ele>
        <time>2021-12-30T12:08:39.000Z</time>
      </trkpt>
      <trkpt lat="46.52444" lon="5.26303">
        <ele>176</ele>
        <time>2021-12-30T12:08:43.000Z</time>
      </trkpt>
      <trkpt lat="46.52451" lon="5.26285">
        <ele>175.80000305176</ele>
        <time>2021-12-30T12:08:49.000Z</time>
      </trkpt>
      <trkpt lat="46.52453" lon="5.2628">
        <ele>176</ele>
        <time>2021-12-30T12:08:52.000Z</time>
      </trkpt>
      <trkpt lat="46.52452" lon="5.2628">
        <ele>176</ele>
        <time>2021-12-30T12:08:53.000Z</time>
      </trkpt>
      <trkpt lat="46.52451" lon="5.26283">
        <ele>176</ele>
        <time>2021-12-30T12:08:55.000Z</time>
      </trkpt>
      <trkpt lat="46.52449" lon="5.26292">
        <ele>176</ele>
        <time>2021-12-30T12:08:58.000Z</time>
      </trkpt>
      <trkpt lat="46.52441" lon="5.26312">
        <ele>176</ele>
        <time>2021-12-30T12:09:04.000Z</time>
      </trkpt>
      <trkpt lat="46.52433" lon="5.2633">
        <ele>175.80000305176</ele>
        <time>2021-12-30T12:09:08.000Z</time>
      </trkpt>
      <trkpt lat="46.52432" lon="5.26336">
        <ele>175.80000305176</ele>
        <time>2021-12-30T12:09:09.000Z</time>
      </trkpt>
      <trkpt lat="46.52418" lon="5.26366">
        <ele>175.80000305176</ele>
        <time>2021-12-30T12:09:15.000Z</time>
      </trkpt>
      <trkpt lat="46.52415" lon="5.26369">
        <ele>175.80000305176</ele>
        <time>2021-12-30T12:09:16.000Z</time>
      </trkpt>
      <trkpt lat="46.52412" lon="5.2637">
        <ele>175.80000305176</ele>
        <time>2021-12-30T12:09:17.000Z</time>
      </trkpt>
      <trkpt lat="46.52405" lon="5.26367">
        <ele>175.80000305176</ele>
        <time>2021-12-30T12:09:19.000Z</time>
      </trkpt>
      <trkpt lat="46.5237" lon="5.26337">
        <ele>176.60000610352</ele>
        <time>2021-12-30T12:09:28.000Z</time>
      </trkpt>
      <trkpt lat="46.52354" lon="5.26325">
        <ele>177.39999389648</ele>
        <time>2021-12-30T12:09:32.000Z</time>
      </trkpt>
      <trkpt lat="46.52343" lon="5.26317">
        <ele>177.80000305176</ele>
        <time>2021-12-30T12:09:35.000Z</time>
      </trkpt>
      <trkpt lat="46.52328" lon="5.26305">
        <ele>178.60000610352</ele>
        <time>2021-12-30T12:09:39.000Z</time>
      </trkpt>
      <trkpt lat="46.52314" lon="5.26292">
        <ele>179.39999389648</ele>
        <time>2021-12-30T12:09:43.000Z</time>
      </trkpt>
      <trkpt lat="46.5231" lon="5.26289">
        <ele>179.60000610352</ele>
        <time>2021-12-30T12:09:44.000Z</time>
      </trkpt>
      <trkpt lat="46.52307" lon="5.26285">
        <ele>179.60000610352</ele>
        <time>2021-12-30T12:09:45.000Z</time>
      </trkpt>
      <trkpt lat="46.52292" lon="5.26273">
        <ele>180.39999389648</ele>
        <time>2021-12-30T12:09:49.000Z</time>
      </trkpt>
      <trkpt lat="46.52285" lon="5.26268">
        <ele>180.80000305176</ele>
        <time>2021-12-30T12:09:51.000Z</time>
      </trkpt>
      <trkpt lat="46.52264" lon="5.26251">
        <ele>181.80000305176</ele>
        <time>2021-12-30T12:09:56.000Z</time>
      </trkpt>
      <trkpt lat="46.52259" lon="5.26248">
        <ele>182</ele>
        <time>2021-12-30T12:09:57.000Z</time>
      </trkpt>
      <trkpt lat="46.52241" lon="5.26233">
        <ele>182</ele>
        <time>2021-12-30T12:10:01.000Z</time>
      </trkpt>
      <trkpt lat="46.5223" lon="5.26224">
        <ele>182</ele>
        <time>2021-12-30T12:10:03.000Z</time>
      </trkpt>
      <trkpt lat="46.52191" lon="5.26196">
        <ele>181.60000610352</ele>
        <time>2021-12-30T12:10:10.000Z</time>
      </trkpt>
      <trkpt lat="46.5217" lon="5.26188">
        <ele>181</ele>
        <time>2021-12-30T12:10:13.000Z</time>
      </trkpt>
      <trkpt lat="46.52162" lon="5.26187">
        <ele>180.80000305176</ele>
        <time>2021-12-30T12:10:14.000Z</time>
      </trkpt>
      <trkpt lat="46.52154" lon="5.26186">
        <ele>180.60000610352</ele>
        <time>2021-12-30T12:10:15.000Z</time>
      </trkpt>
      <trkpt lat="46.5213" lon="5.26186">
        <ele>179.39999389648</ele>
        <time>2021-12-30T12:10:18.000Z</time>
      </trkpt>
      <trkpt lat="46.52097" lon="5.26188">
        <ele>178.39999389648</ele>
        <time>2021-12-30T12:10:22.000Z</time>
      </trkpt>
      <trkpt lat="46.52066" lon="5.26189">
        <ele>177.19999694824</ele>
        <time>2021-12-30T12:10:26.000Z</time>
      </trkpt>
      <trkpt lat="46.52043" lon="5.2619">
        <ele>176.80000305176</ele>
        <time>2021-12-30T12:10:29.000Z</time>
      </trkpt>
      <trkpt lat="46.52" lon="5.26194">
        <ele>177</ele>
        <time>2021-12-30T12:10:35.000Z</time>
      </trkpt>
      <trkpt lat="46.51954" lon="5.26196">
        <ele>177.80000305176</ele>
        <time>2021-12-30T12:10:42.000Z</time>
      </trkpt>
      <trkpt lat="46.51915" lon="5.26198">
        <ele>178.19999694824</ele>
        <time>2021-12-30T12:10:48.000Z</time>
      </trkpt>
      <trkpt lat="46.51883" lon="5.26198">
        <ele>178.60000610352</ele>
        <time>2021-12-30T12:10:53.000Z</time>
      </trkpt>
      <trkpt lat="46.51827" lon="5.26188">
        <ele>179</ele>
        <time>2021-12-30T12:11:02.000Z</time>
      </trkpt>
      <trkpt lat="46.51787" lon="5.26169">
        <ele>191.19999694824</ele>
        <time>2021-12-30T12:11:09.000Z</time>
      </trkpt>
      <trkpt lat="46.51764" lon="5.26157">
        <ele>179.19999694824</ele>
        <time>2021-12-30T12:11:13.000Z</time>
      </trkpt>
      <trkpt lat="46.51737" lon="5.26141">
        <ele>179.80000305176</ele>
        <time>2021-12-30T12:11:18.000Z</time>
      </trkpt>
      <trkpt lat="46.51706" lon="5.26123">
        <ele>180.39999389648</ele>
        <time>2021-12-30T12:11:24.000Z</time>
      </trkpt>
      <trkpt lat="46.51697" lon="5.26118">
        <ele>180.60000610352</ele>
        <time>2021-12-30T12:11:26.000Z</time>
      </trkpt>
      <trkpt lat="46.51688" lon="5.26113">
        <ele>181</ele>
        <time>2021-12-30T12:11:28.000Z</time>
      </trkpt>
      <trkpt lat="46.5168" lon="5.26108">
        <ele>181.60000610352</ele>
        <time>2021-12-30T12:11:30.000Z</time>
      </trkpt>
      <trkpt lat="46.51677" lon="5.26106">
        <ele>181.80000305176</ele>
        <time>2021-12-30T12:11:31.000Z</time>
      </trkpt>
      <trkpt lat="46.51665" lon="5.26099">
        <ele>182.60000610352</ele>
        <time>2021-12-30T12:11:34.000Z</time>
      </trkpt>
      <trkpt lat="46.51654" lon="5.26093">
        <ele>183.60000610352</ele>
        <time>2021-12-30T12:11:37.000Z</time>
      </trkpt>
      <trkpt lat="46.51651" lon="5.26091">
        <ele>183.80000305176</ele>
        <time>2021-12-30T12:11:38.000Z</time>
      </trkpt>
      <trkpt lat="46.5164" lon="5.26085">
        <ele>185</ele>
        <time>2021-12-30T12:11:41.000Z</time>
      </trkpt>
      <trkpt lat="46.51629" lon="5.26079">
        <ele>185.60000610352</ele>
        <time>2021-12-30T12:11:44.000Z</time>
      </trkpt>
      <trkpt lat="46.51614" lon="5.2607">
        <ele>186.39999389648</ele>
        <time>2021-12-30T12:11:48.000Z</time>
      </trkpt>
      <trkpt lat="46.51598" lon="5.2606">
        <ele>187.80000305176</ele>
        <time>2021-12-30T12:11:53.000Z</time>
      </trkpt>
      <trkpt lat="46.51595" lon="5.26058">
        <ele>188</ele>
        <time>2021-12-30T12:11:54.000Z</time>
      </trkpt>
      <trkpt lat="46.51581" lon="5.26051">
        <ele>189</ele>
        <time>2021-12-30T12:11:58.000Z</time>
      </trkpt>
      <trkpt lat="46.51571" lon="5.26045">
        <ele>189.60000610352</ele>
        <time>2021-12-30T12:12:01.000Z</time>
      </trkpt>
      <trkpt lat="46.51568" lon="5.26043">
        <ele>190</ele>
        <time>2021-12-30T12:12:02.000Z</time>
      </trkpt>
      <trkpt lat="46.51551" lon="5.26035">
        <ele>191.19999694824</ele>
        <time>2021-12-30T12:12:07.000Z</time>
      </trkpt>
      <trkpt lat="46.51548" lon="5.26033">
        <ele>191.39999389648</ele>
        <time>2021-12-30T12:12:08.000Z</time>
      </trkpt>
      <trkpt lat="46.51535" lon="5.26026">
        <ele>192.39999389648</ele>
        <time>2021-12-30T12:12:12.000Z</time>
      </trkpt>
      <trkpt lat="46.51518" lon="5.26019">
        <ele>193.39999389648</ele>
        <time>2021-12-30T12:12:17.000Z</time>
      </trkpt>
      <trkpt lat="46.515" lon="5.2601">
        <ele>194.39999389648</ele>
        <time>2021-12-30T12:12:22.000Z</time>
      </trkpt>
      <trkpt lat="46.51492" lon="5.26007">
        <ele>194.80000305176</ele>
        <time>2021-12-30T12:12:24.000Z</time>
      </trkpt>
      <trkpt lat="46.51465" lon="5.25996">
        <ele>195.60000610352</ele>
        <time>2021-12-30T12:12:30.000Z</time>
      </trkpt>
      <trkpt lat="46.5145" lon="5.2599">
        <ele>195.60000610352</ele>
        <time>2021-12-30T12:12:33.000Z</time>
      </trkpt>
      <trkpt lat="46.5141" lon="5.25973">
        <ele>195.60000610352</ele>
        <time>2021-12-30T12:12:41.000Z</time>
      </trkpt>
      <trkpt lat="46.51357" lon="5.2595">
        <ele>195.60000610352</ele>
        <time>2021-12-30T12:12:51.000Z</time>
      </trkpt>
      <trkpt lat="46.51351" lon="5.25948">
        <ele>195.60000610352</ele>
        <time>2021-12-30T12:12:52.000Z</time>
      </trkpt>
      <trkpt lat="46.51313" lon="5.25932">
        <ele>195.39999389648</ele>
        <time>2021-12-30T12:12:59.000Z</time>
      </trkpt>
      <trkpt lat="46.51274" lon="5.25915">
        <ele>195.80000305176</ele>
        <time>2021-12-30T12:13:06.000Z</time>
      </trkpt>
      <trkpt lat="46.51225" lon="5.25892">
        <ele>195.60000610352</ele>
        <time>2021-12-30T12:13:14.000Z</time>
      </trkpt>
      <trkpt lat="46.51199" lon="5.2587">
        <ele>195.39999389648</ele>
        <time>2021-12-30T12:13:19.000Z</time>
      </trkpt>
      <trkpt lat="46.51189" lon="5.25859">
        <ele>195.39999389648</ele>
        <time>2021-12-30T12:13:21.000Z</time>
      </trkpt>
      <trkpt lat="46.51157" lon="5.25824">
        <ele>195.80000305176</ele>
        <time>2021-12-30T12:13:28.000Z</time>
      </trkpt>
      <trkpt lat="46.51124" lon="5.25789">
        <ele>196.39999389648</ele>
        <time>2021-12-30T12:13:35.000Z</time>
      </trkpt>
      <trkpt lat="46.51119" lon="5.25784">
        <ele>196.60000610352</ele>
        <time>2021-12-30T12:13:36.000Z</time>
      </trkpt>
      <trkpt lat="46.51079" lon="5.25747">
        <ele>197</ele>
        <time>2021-12-30T12:13:44.000Z</time>
      </trkpt>
      <trkpt lat="46.51032" lon="5.25707">
        <ele>197.19999694824</ele>
        <time>2021-12-30T12:13:53.000Z</time>
      </trkpt>
      <trkpt lat="46.51027" lon="5.25703">
        <ele>197.19999694824</ele>
        <time>2021-12-30T12:13:54.000Z</time>
      </trkpt>
      <trkpt lat="46.50995" lon="5.25681">
        <ele>197.19999694824</ele>
        <time>2021-12-30T12:14:00.000Z</time>
      </trkpt>
      <trkpt lat="46.50989" lon="5.25678">
        <ele>197.39999389648</ele>
        <time>2021-12-30T12:14:01.000Z</time>
      </trkpt>
      <trkpt lat="46.50962" lon="5.25664">
        <ele>197.60000610352</ele>
        <time>2021-12-30T12:14:06.000Z</time>
      </trkpt>
      <trkpt lat="46.50911" lon="5.25639">
        <ele>198</ele>
        <time>2021-12-30T12:14:15.000Z</time>
      </trkpt>
      <trkpt lat="46.50866" lon="5.25618">
        <ele>197.80000305176</ele>
        <time>2021-12-30T12:14:22.000Z</time>
      </trkpt>
      <trkpt lat="46.50829" lon="5.25592">
        <ele>196.60000610352</ele>
        <time>2021-12-30T12:14:28.000Z</time>
      </trkpt>
      <trkpt lat="46.50823" lon="5.25586">
        <ele>196.19999694824</ele>
        <time>2021-12-30T12:14:29.000Z</time>
      </trkpt>
      <trkpt lat="46.5079" lon="5.25553">
        <ele>195.19999694824</ele>
        <time>2021-12-30T12:14:34.000Z</time>
      </trkpt>
      <trkpt lat="46.50785" lon="5.25548">
        <ele>194.80000305176</ele>
        <time>2021-12-30T12:14:35.000Z</time>
      </trkpt>
      <trkpt lat="46.50772" lon="5.25534">
        <ele>194.19999694824</ele>
        <time>2021-12-30T12:14:37.000Z</time>
      </trkpt>
      <trkpt lat="46.50734" lon="5.25497">
        <ele>193.19999694824</ele>
        <time>2021-12-30T12:14:43.000Z</time>
      </trkpt>
      <trkpt lat="46.50708" lon="5.25476">
        <ele>193</ele>
        <time>2021-12-30T12:14:47.000Z</time>
      </trkpt>
      <trkpt lat="46.50695" lon="5.25468">
        <ele>193</ele>
        <time>2021-12-30T12:14:49.000Z</time>
      </trkpt>
      <trkpt lat="46.50656" lon="5.25455">
        <ele>192.80000305176</ele>
        <time>2021-12-30T12:14:55.000Z</time>
      </trkpt>
      <trkpt lat="46.50604" lon="5.25442">
        <ele>193</ele>
        <time>2021-12-30T12:15:03.000Z</time>
      </trkpt>
      <trkpt lat="46.5056" lon="5.2543">
        <ele>194.19999694824</ele>
        <time>2021-12-30T12:15:10.000Z</time>
      </trkpt>
      <trkpt lat="46.50553" lon="5.25428">
        <ele>194.39999389648</ele>
        <time>2021-12-30T12:15:11.000Z</time>
      </trkpt>
      <trkpt lat="46.50518" lon="5.25419">
        <ele>194.39999389648</ele>
        <time>2021-12-30T12:15:16.000Z</time>
      </trkpt>
      <trkpt lat="46.50457" lon="5.25404">
        <ele>194</ele>
        <time>2021-12-30T12:15:24.000Z</time>
      </trkpt>
      <trkpt lat="46.50448" lon="5.25401">
        <ele>193.80000305176</ele>
        <time>2021-12-30T12:15:25.000Z</time>
      </trkpt>
      <trkpt lat="46.50425" lon="5.25397">
        <ele>193.19999694824</ele>
        <time>2021-12-30T12:15:28.000Z</time>
      </trkpt>
      <trkpt lat="46.50393" lon="5.25396">
        <ele>192.19999694824</ele>
        <time>2021-12-30T12:15:32.000Z</time>
      </trkpt>
      <trkpt lat="46.50386" lon="5.25397">
        <ele>192</ele>
        <time>2021-12-30T12:15:33.000Z</time>
      </trkpt>
      <trkpt lat="46.50341" lon="5.2541">
        <ele>191.19999694824</ele>
        <time>2021-12-30T12:15:39.000Z</time>
      </trkpt>
      <trkpt lat="46.50326" lon="5.25415">
        <ele>191</ele>
        <time>2021-12-30T12:15:41.000Z</time>
      </trkpt>
      <trkpt lat="46.50283" lon="5.25429">
        <ele>190.80000305176</ele>
        <time>2021-12-30T12:15:47.000Z</time>
      </trkpt>
      <trkpt lat="46.50223" lon="5.25448">
        <ele>190.39999389648</ele>
        <time>2021-12-30T12:15:55.000Z</time>
      </trkpt>
      <trkpt lat="46.50208" lon="5.25453">
        <ele>189.80000305176</ele>
        <time>2021-12-30T12:15:57.000Z</time>
      </trkpt>
      <trkpt lat="46.50172" lon="5.25463">
        <ele>188.80000305176</ele>
        <time>2021-12-30T12:16:02.000Z</time>
      </trkpt>
      <trkpt lat="46.50151" lon="5.25469">
        <ele>188.39999389648</ele>
        <time>2021-12-30T12:16:05.000Z</time>
      </trkpt>
      <trkpt lat="46.50096" lon="5.25486">
        <ele>188.39999389648</ele>
        <time>2021-12-30T12:16:13.000Z</time>
      </trkpt>
      <trkpt lat="46.5009" lon="5.25489">
        <ele>188.39999389648</ele>
        <time>2021-12-30T12:16:14.000Z</time>
      </trkpt>
      <trkpt lat="46.50051" lon="5.25501">
        <ele>188.19999694824</ele>
        <time>2021-12-30T12:16:20.000Z</time>
      </trkpt>
      <trkpt lat="46.49996" lon="5.25518">
        <ele>188.19999694824</ele>
        <time>2021-12-30T12:16:28.000Z</time>
      </trkpt>
      <trkpt lat="46.49943" lon="5.25532">
        <ele>188.39999389648</ele>
        <time>2021-12-30T12:16:38.000Z</time>
      </trkpt>
      <trkpt lat="46.4993" lon="5.25531">
        <ele>188.19999694824</ele>
        <time>2021-12-30T12:16:39.000Z</time>
      </trkpt>
      <trkpt lat="46.49906" lon="5.25525">
        <ele>188.19999694824</ele>
        <time>2021-12-30T12:16:43.000Z</time>
      </trkpt>
      <trkpt lat="46.4985" lon="5.255">
        <ele>188.19999694824</ele>
        <time>2021-12-30T12:16:52.000Z</time>
      </trkpt>
      <trkpt lat="46.49796" lon="5.25478">
        <ele>188.19999694824</ele>
        <time>2021-12-30T12:17:00.000Z</time>
      </trkpt>
      <trkpt lat="46.49762" lon="5.25462">
        <ele>187.80000305176</ele>
        <time>2021-12-30T12:17:05.000Z</time>
      </trkpt>
      <trkpt lat="46.4975" lon="5.25454">
        <ele>187.39999389648</ele>
        <time>2021-12-30T12:17:07.000Z</time>
      </trkpt>
      <trkpt lat="46.49725" lon="5.25433">
        <ele>187.39999389648</ele>
        <time>2021-12-30T12:17:12.000Z</time>
      </trkpt>
      <trkpt lat="46.49708" lon="5.25417">
        <ele>189.19999694824</ele>
        <time>2021-12-30T12:17:17.000Z</time>
      </trkpt>
      <trkpt lat="46.49704" lon="5.25414">
        <ele>189.60000610352</ele>
        <time>2021-12-30T12:17:18.000Z</time>
      </trkpt>
      <trkpt lat="46.49701" lon="5.2541">
        <ele>190.19999694824</ele>
        <time>2021-12-30T12:17:19.000Z</time>
      </trkpt>
      <trkpt lat="46.49697" lon="5.25406">
        <ele>190.60000610352</ele>
        <time>2021-12-30T12:17:20.000Z</time>
      </trkpt>
      <trkpt lat="46.4969" lon="5.25401">
        <ele>191</ele>
        <time>2021-12-30T12:17:22.000Z</time>
      </trkpt>
      <trkpt lat="46.49683" lon="5.25395">
        <ele>191.80000305176</ele>
        <time>2021-12-30T12:17:24.000Z</time>
      </trkpt>
      <trkpt lat="46.4968" lon="5.25393">
        <ele>192</ele>
        <time>2021-12-30T12:17:25.000Z</time>
      </trkpt>
      <trkpt lat="46.49677" lon="5.2539">
        <ele>192.60000610352</ele>
        <time>2021-12-30T12:17:27.000Z</time>
      </trkpt>
      <trkpt lat="46.49671" lon="5.25386">
        <ele>192.80000305176</ele>
        <time>2021-12-30T12:17:28.000Z</time>
      </trkpt>
      <trkpt lat="46.49661" lon="5.2538">
        <ele>193.80000305176</ele>
        <time>2021-12-30T12:17:31.000Z</time>
      </trkpt>
      <trkpt lat="46.49653" lon="5.25375">
        <ele>194.80000305176</ele>
        <time>2021-12-30T12:17:35.000Z</time>
      </trkpt>
      <trkpt lat="46.49647" lon="5.25372">
        <ele>195</ele>
        <time>2021-12-30T12:17:36.000Z</time>
      </trkpt>
      <trkpt lat="46.49633" lon="5.25368">
        <ele>196.19999694824</ele>
        <time>2021-12-30T12:17:40.000Z</time>
      </trkpt>
      <trkpt lat="46.49625" lon="5.25368">
        <ele>197</ele>
        <time>2021-12-30T12:17:42.000Z</time>
      </trkpt>
      <trkpt lat="46.49621" lon="5.25367">
        <ele>197.19999694824</ele>
        <time>2021-12-30T12:17:43.000Z</time>
      </trkpt>
      <trkpt lat="46.49595" lon="5.25362">
        <ele>198.19999694824</ele>
        <time>2021-12-30T12:17:49.000Z</time>
      </trkpt>
      <trkpt lat="46.49595" lon="5.25362">
        <ele>198.39999389648</ele>
        <time>2021-12-30T12:17:50.000Z</time>
      </trkpt>
      <trkpt lat="46.49548" lon="5.25351">
        <ele>199.60000610352</ele>
        <time>2021-12-30T12:18:00.000Z</time>
      </trkpt>
      <trkpt lat="46.49543" lon="5.2535">
        <ele>199.60000610352</ele>
        <time>2021-12-30T12:18:01.000Z</time>
      </trkpt>
      <trkpt lat="46.49519" lon="5.25345">
        <ele>200</ele>
        <time>2021-12-30T12:18:06.000Z</time>
      </trkpt>
      <trkpt lat="46.49509" lon="5.25343">
        <ele>200.19999694824</ele>
        <time>2021-12-30T12:18:08.000Z</time>
      </trkpt>
      <trkpt lat="46.49488" lon="5.25338">
        <ele>200</ele>
        <time>2021-12-30T12:18:12.000Z</time>
      </trkpt>
      <trkpt lat="46.49471" lon="5.25335">
        <ele>200</ele>
        <time>2021-12-30T12:18:15.000Z</time>
      </trkpt>
      <trkpt lat="46.49454" lon="5.25331">
        <ele>199.80000305176</ele>
        <time>2021-12-30T12:18:19.000Z</time>
      </trkpt>
      <trkpt lat="46.49404" lon="5.2532">
        <ele>199</ele>
        <time>2021-12-30T12:18:26.000Z</time>
      </trkpt>
      <trkpt lat="46.4938" lon="5.25311">
        <ele>198.80000305176</ele>
        <time>2021-12-30T12:18:30.000Z</time>
      </trkpt>
      <trkpt lat="46.49361" lon="5.25302">
        <ele>198.39999389648</ele>
        <time>2021-12-30T12:18:33.000Z</time>
      </trkpt>
      <trkpt lat="46.49317" lon="5.2527">
        <ele>198.39999389648</ele>
        <time>2021-12-30T12:18:41.000Z</time>
      </trkpt>
      <trkpt lat="46.49273" lon="5.25237">
        <ele>198.60000610352</ele>
        <time>2021-12-30T12:18:49.000Z</time>
      </trkpt>
      <trkpt lat="46.49239" lon="5.2521">
        <ele>199</ele>
        <time>2021-12-30T12:18:56.000Z</time>
      </trkpt>
      <trkpt lat="46.49233" lon="5.25206">
        <ele>199</ele>
        <time>2021-12-30T12:18:57.000Z</time>
      </trkpt>
      <trkpt lat="46.49218" lon="5.25196">
        <ele>199.39999389648</ele>
        <time>2021-12-30T12:19:00.000Z</time>
      </trkpt>
      <trkpt lat="46.49183" lon="5.2517">
        <ele>199.60000610352</ele>
        <time>2021-12-30T12:19:06.000Z</time>
      </trkpt>
      <trkpt lat="46.49157" lon="5.25147">
        <ele>198.60000610352</ele>
        <time>2021-12-30T12:19:10.000Z</time>
      </trkpt>
      <trkpt lat="46.49152" lon="5.25141">
        <ele>198.39999389648</ele>
        <time>2021-12-30T12:19:11.000Z</time>
      </trkpt>
      <trkpt lat="46.49147" lon="5.25133">
        <ele>198.19999694824</ele>
        <time>2021-12-30T12:19:12.000Z</time>
      </trkpt>
      <trkpt lat="46.49143" lon="5.25125">
        <ele>198.19999694824</ele>
        <time>2021-12-30T12:19:13.000Z</time>
      </trkpt>
      <trkpt lat="46.4913" lon="5.25103">
        <ele>197.60000610352</ele>
        <time>2021-12-30T12:19:16.000Z</time>
      </trkpt>
      <trkpt lat="46.4912" lon="5.25088">
        <ele>197.60000610352</ele>
        <time>2021-12-30T12:19:18.000Z</time>
      </trkpt>
      <trkpt lat="46.49106" lon="5.25063">
        <ele>197.39999389648</ele>
        <time>2021-12-30T12:19:21.000Z</time>
      </trkpt>
      <trkpt lat="46.49091" lon="5.25038">
        <ele>197.19999694824</ele>
        <time>2021-12-30T12:19:24.000Z</time>
      </trkpt>
      <trkpt lat="46.49078" lon="5.25007">
        <ele>196.80000305176</ele>
        <time>2021-12-30T12:19:28.000Z</time>
      </trkpt>
      <trkpt lat="46.49056" lon="5.24975">
        <ele>196.80000305176</ele>
        <time>2021-12-30T12:19:33.000Z</time>
      </trkpt>
      <trkpt lat="46.4905" lon="5.24968">
        <ele>196.80000305176</ele>
        <time>2021-12-30T12:19:34.000Z</time>
      </trkpt>
      <trkpt lat="46.49017" lon="5.24931">
        <ele>196.39999389648</ele>
        <time>2021-12-30T12:19:40.000Z</time>
      </trkpt>
      <trkpt lat="46.48979" lon="5.24889">
        <ele>196.80000305176</ele>
        <time>2021-12-30T12:19:48.000Z</time>
      </trkpt>
      <trkpt lat="46.48962" lon="5.24867">
        <ele>198.19999694824</ele>
        <time>2021-12-30T12:19:52.000Z</time>
      </trkpt>
      <trkpt lat="46.48941" lon="5.24844">
        <ele>199</ele>
        <time>2021-12-30T12:19:57.000Z</time>
      </trkpt>
      <trkpt lat="46.48932" lon="5.24834">
        <ele>199.19999694824</ele>
        <time>2021-12-30T12:19:59.000Z</time>
      </trkpt>
      <trkpt lat="46.4891" lon="5.24807">
        <ele>199.39999389648</ele>
        <time>2021-12-30T12:20:04.000Z</time>
      </trkpt>
      <trkpt lat="46.48896" lon="5.24791">
        <ele>200.39999389648</ele>
        <time>2021-12-30T12:20:07.000Z</time>
      </trkpt>
      <trkpt lat="46.48873" lon="5.24764">
        <ele>201</ele>
        <time>2021-12-30T12:20:12.000Z</time>
      </trkpt>
      <trkpt lat="46.4883" lon="5.24718">
        <ele>201.19999694824</ele>
        <time>2021-12-30T12:20:21.000Z</time>
      </trkpt>
      <trkpt lat="46.48816" lon="5.24704">
        <ele>201.19999694824</ele>
        <time>2021-12-30T12:20:24.000Z</time>
      </trkpt>
      <trkpt lat="46.488" lon="5.24686">
        <ele>201.39999389648</ele>
        <time>2021-12-30T12:20:28.000Z</time>
      </trkpt>
      <trkpt lat="46.48794" lon="5.24681">
        <ele>201.39999389648</ele>
        <time>2021-12-30T12:20:29.000Z</time>
      </trkpt>
      <trkpt lat="46.4877" lon="5.24656">
        <ele>201.60000610352</ele>
        <time>2021-12-30T12:20:34.000Z</time>
      </trkpt>
      <trkpt lat="46.48767" lon="5.24652">
        <ele>201.60000610352</ele>
        <time>2021-12-30T12:20:35.000Z</time>
      </trkpt>
      <trkpt lat="46.48763" lon="5.24642">
        <ele>201.80000305176</ele>
        <time>2021-12-30T12:20:37.000Z</time>
      </trkpt>
      <trkpt lat="46.48761" lon="5.24638">
        <ele>201.80000305176</ele>
        <time>2021-12-30T12:20:39.000Z</time>
      </trkpt>
      <trkpt lat="46.48761" lon="5.24637">
        <ele>201.80000305176</ele>
        <time>2021-12-30T12:20:40.000Z</time>
      </trkpt>
      <trkpt lat="46.48761" lon="5.24637">
        <ele>202</ele>
        <time>2021-12-30T12:20:41.000Z</time>
      </trkpt>
      <trkpt lat="46.48757" lon="5.24632">
        <ele>202.19999694824</ele>
        <time>2021-12-30T12:20:46.000Z</time>
      </trkpt>
      <trkpt lat="46.48749" lon="5.24629">
        <ele>202.19999694824</ele>
        <time>2021-12-30T12:20:48.000Z</time>
      </trkpt>
      <trkpt lat="46.48731" lon="5.24627">
        <ele>202</ele>
        <time>2021-12-30T12:20:51.000Z</time>
      </trkpt>
      <trkpt lat="46.48724" lon="5.24625">
        <ele>202</ele>
        <time>2021-12-30T12:20:52.000Z</time>
      </trkpt>
      <trkpt lat="46.48695" lon="5.24612">
        <ele>201</ele>
        <time>2021-12-30T12:20:57.000Z</time>
      </trkpt>
      <trkpt lat="46.48674" lon="5.24601">
        <ele>200.39999389648</ele>
        <time>2021-12-30T12:21:00.000Z</time>
      </trkpt>
      <trkpt lat="46.48636" lon="5.24581">
        <ele>200</ele>
        <time>2021-12-30T12:21:05.000Z</time>
      </trkpt>
      <trkpt lat="46.48595" lon="5.24558">
        <ele>201.19999694824</ele>
        <time>2021-12-30T12:21:12.000Z</time>
      </trkpt>
      <trkpt lat="46.48584" lon="5.24549">
        <ele>201.39999389648</ele>
        <time>2021-12-30T12:21:14.000Z</time>
      </trkpt>
      <trkpt lat="46.48558" lon="5.24521">
        <ele>201.60000610352</ele>
        <time>2021-12-30T12:21:19.000Z</time>
      </trkpt>
      <trkpt lat="46.48519" lon="5.24475">
        <ele>201.19999694824</ele>
        <time>2021-12-30T12:21:26.000Z</time>
      </trkpt>
      <trkpt lat="46.48481" lon="5.24426">
        <ele>200.39999389648</ele>
        <time>2021-12-30T12:21:33.000Z</time>
      </trkpt>
      <trkpt lat="46.48451" lon="5.2439">
        <ele>199.19999694824</ele>
        <time>2021-12-30T12:21:38.000Z</time>
      </trkpt>
      <trkpt lat="46.48432" lon="5.2437">
        <ele>198.60000610352</ele>
        <time>2021-12-30T12:21:41.000Z</time>
      </trkpt>
      <trkpt lat="46.48397" lon="5.24344">
        <ele>198.60000610352</ele>
        <time>2021-12-30T12:21:47.000Z</time>
      </trkpt>
      <trkpt lat="46.48368" lon="5.24334">
        <ele>199.19999694824</ele>
        <time>2021-12-30T12:21:52.000Z</time>
      </trkpt>
      <trkpt lat="46.48344" lon="5.24318">
        <ele>200.39999389648</ele>
        <time>2021-12-30T12:21:57.000Z</time>
      </trkpt>
      <trkpt lat="46.4834" lon="5.24313">
        <ele>200.39999389648</ele>
        <time>2021-12-30T12:21:58.000Z</time>
      </trkpt>
      <trkpt lat="46.48336" lon="5.24308">
        <ele>200.60000610352</ele>
        <time>2021-12-30T12:21:59.000Z</time>
      </trkpt>
      <trkpt lat="46.48329" lon="5.24296">
        <ele>201.39999389648</ele>
        <time>2021-12-30T12:22:01.000Z</time>
      </trkpt>
      <trkpt lat="46.48319" lon="5.24283">
        <ele>202</ele>
        <time>2021-12-30T12:22:03.000Z</time>
      </trkpt>
      <trkpt lat="46.48304" lon="5.24272">
        <ele>202.60000610352</ele>
        <time>2021-12-30T12:22:06.000Z</time>
      </trkpt>
      <trkpt lat="46.48297" lon="5.2427">
        <ele>202.60000610352</ele>
        <time>2021-12-30T12:22:07.000Z</time>
      </trkpt>
      <trkpt lat="46.48253" lon="5.24259">
        <ele>203.80000305176</ele>
        <time>2021-12-30T12:22:15.000Z</time>
      </trkpt>
      <trkpt lat="46.48247" lon="5.24257">
        <ele>203.80000305176</ele>
        <time>2021-12-30T12:22:16.000Z</time>
      </trkpt>
      <trkpt lat="46.48213" lon="5.24251">
        <ele>204</ele>
        <time>2021-12-30T12:22:22.000Z</time>
      </trkpt>
      <trkpt lat="46.48209" lon="5.24252">
        <ele>204</ele>
        <time>2021-12-30T12:22:23.000Z</time>
      </trkpt>
      <trkpt lat="46.48193" lon="5.24256">
        <ele>204</ele>
        <time>2021-12-30T12:22:26.000Z</time>
      </trkpt>
      <trkpt lat="46.48183" lon="5.24265">
        <ele>204</ele>
        <time>2021-12-30T12:22:28.000Z</time>
      </trkpt>
      <trkpt lat="46.48155" lon="5.24303">
        <ele>204</ele>
        <time>2021-12-30T12:22:35.000Z</time>
      </trkpt>
      <trkpt lat="46.48135" lon="5.24323">
        <ele>203.80000305176</ele>
        <time>2021-12-30T12:22:39.000Z</time>
      </trkpt>
      <trkpt lat="46.48123" lon="5.24328">
        <ele>203.19999694824</ele>
        <time>2021-12-30T12:22:41.000Z</time>
      </trkpt>
      <trkpt lat="46.4811" lon="5.24328">
        <ele>203</ele>
        <time>2021-12-30T12:22:43.000Z</time>
      </trkpt>
      <trkpt lat="46.48103" lon="5.24324">
        <ele>202.60000610352</ele>
        <time>2021-12-30T12:22:44.000Z</time>
      </trkpt>
      <trkpt lat="46.48096" lon="5.24319">
        <ele>202.39999389648</ele>
        <time>2021-12-30T12:22:45.000Z</time>
      </trkpt>
      <trkpt lat="46.48083" lon="5.24302">
        <ele>201.80000305176</ele>
        <time>2021-12-30T12:22:47.000Z</time>
      </trkpt>
      <trkpt lat="46.48079" lon="5.24291">
        <ele>201.19999694824</ele>
        <time>2021-12-30T12:22:48.000Z</time>
      </trkpt>
      <trkpt lat="46.48076" lon="5.24278">
        <ele>200.80000305176</ele>
        <time>2021-12-30T12:22:49.000Z</time>
      </trkpt>
      <trkpt lat="46.48075" lon="5.24264">
        <ele>200.60000610352</ele>
        <time>2021-12-30T12:22:50.000Z</time>
      </trkpt>
      <trkpt lat="46.48075" lon="5.24248">
        <ele>200</ele>
        <time>2021-12-30T12:22:51.000Z</time>
      </trkpt>
      <trkpt lat="46.4808" lon="5.24223">
        <ele>198.60000610352</ele>
        <time>2021-12-30T12:22:53.000Z</time>
      </trkpt>
      <trkpt lat="46.48091" lon="5.24195">
        <ele>197.19999694824</ele>
        <time>2021-12-30T12:22:55.000Z</time>
      </trkpt>
      <trkpt lat="46.481" lon="5.24171">
        <ele>196</ele>
        <time>2021-12-30T12:22:57.000Z</time>
      </trkpt>
      <trkpt lat="46.48111" lon="5.24144">
        <ele>194.80000305176</ele>
        <time>2021-12-30T12:22:59.000Z</time>
      </trkpt>
      <trkpt lat="46.48121" lon="5.24116">
        <ele>193.60000610352</ele>
        <time>2021-12-30T12:23:01.000Z</time>
      </trkpt>
      <trkpt lat="46.48132" lon="5.24088">
        <ele>192.19999694824</ele>
        <time>2021-12-30T12:23:03.000Z</time>
      </trkpt>
      <trkpt lat="46.48145" lon="5.24057">
        <ele>191</ele>
        <time>2021-12-30T12:23:05.000Z</time>
      </trkpt>
      <trkpt lat="46.48156" lon="5.24032">
        <ele>189.60000610352</ele>
        <time>2021-12-30T12:23:07.000Z</time>
      </trkpt>
      <trkpt lat="46.48161" lon="5.24018">
        <ele>189</ele>
        <time>2021-12-30T12:23:08.000Z</time>
      </trkpt>
      <trkpt lat="46.48167" lon="5.24003">
        <ele>188.19999694824</ele>
        <time>2021-12-30T12:23:09.000Z</time>
      </trkpt>
      <trkpt lat="46.48179" lon="5.23973">
        <ele>187</ele>
        <time>2021-12-30T12:23:11.000Z</time>
      </trkpt>
      <trkpt lat="46.4819" lon="5.2394">
        <ele>185.80000305176</ele>
        <time>2021-12-30T12:23:13.000Z</time>
      </trkpt>
      <trkpt lat="46.48192" lon="5.23925">
        <ele>185</ele>
        <time>2021-12-30T12:23:14.000Z</time>
      </trkpt>
      <trkpt lat="46.48193" lon="5.23912">
        <ele>184.39999389648</ele>
        <time>2021-12-30T12:23:15.000Z</time>
      </trkpt>
      <trkpt lat="46.4819" lon="5.23882">
        <ele>183.19999694824</ele>
        <time>2021-12-30T12:23:17.000Z</time>
      </trkpt>
      <trkpt lat="46.48187" lon="5.23867">
        <ele>182</ele>
        <time>2021-12-30T12:23:19.000Z</time>
      </trkpt>
      <trkpt lat="46.48177" lon="5.23842">
        <ele>181.19999694824</ele>
        <time>2021-12-30T12:23:20.000Z</time>
      </trkpt>
      <trkpt lat="46.48162" lon="5.23821">
        <ele>180.80000305176</ele>
        <time>2021-12-30T12:23:22.000Z</time>
      </trkpt>
      <trkpt lat="46.48156" lon="5.23814">
        <ele>180.80000305176</ele>
        <time>2021-12-30T12:23:23.000Z</time>
      </trkpt>
      <trkpt lat="46.48116" lon="5.23765">
        <ele>180</ele>
        <time>2021-12-30T12:23:29.000Z</time>
      </trkpt>
      <trkpt lat="46.4809" lon="5.23719">
        <ele>179.80000305176</ele>
        <time>2021-12-30T12:23:34.000Z</time>
      </trkpt>
      <trkpt lat="46.48083" lon="5.23698">
        <ele>179.80000305176</ele>
        <time>2021-12-30T12:23:36.000Z</time>
      </trkpt>
      <trkpt lat="46.48073" lon="5.23666">
        <ele>179.80000305176</ele>
        <time>2021-12-30T12:23:39.000Z</time>
      </trkpt>
      <trkpt lat="46.48064" lon="5.23599">
        <ele>179</ele>
        <time>2021-12-30T12:23:45.000Z</time>
      </trkpt>
      <trkpt lat="46.48063" lon="5.23566">
        <ele>178.60000610352</ele>
        <time>2021-12-30T12:23:48.000Z</time>
      </trkpt>
      <trkpt lat="46.48061" lon="5.23514">
        <ele>178.60000610352</ele>
        <time>2021-12-30T12:23:53.000Z</time>
      </trkpt>
      <trkpt lat="46.48059" lon="5.2343">
        <ele>178.60000610352</ele>
        <time>2021-12-30T12:24:01.000Z</time>
      </trkpt>
      <trkpt lat="46.48059" lon="5.23412">
        <ele>178.60000610352</ele>
        <time>2021-12-30T12:24:03.000Z</time>
      </trkpt>
      <trkpt lat="46.48057" lon="5.23332">
        <ele>179.19999694824</ele>
        <time>2021-12-30T12:24:11.000Z</time>
      </trkpt>
      <trkpt lat="46.48057" lon="5.2332">
        <ele>179.19999694824</ele>
        <time>2021-12-30T12:24:12.000Z</time>
      </trkpt>
      <trkpt lat="46.48055" lon="5.23237">
        <ele>179.39999389648</ele>
        <time>2021-12-30T12:24:21.000Z</time>
      </trkpt>
      <trkpt lat="46.48055" lon="5.23218">
        <ele>179.80000305176</ele>
        <time>2021-12-30T12:24:23.000Z</time>
      </trkpt>
      <trkpt lat="46.48055" lon="5.23207">
        <ele>179.80000305176</ele>
        <time>2021-12-30T12:24:24.000Z</time>
      </trkpt>
      <trkpt lat="46.48054" lon="5.23158">
        <ele>180.39999389648</ele>
        <time>2021-12-30T12:24:30.000Z</time>
      </trkpt>
      <trkpt lat="46.48053" lon="5.23122">
        <ele>180.80000305176</ele>
        <time>2021-12-30T12:24:35.000Z</time>
      </trkpt>
      <trkpt lat="46.48052" lon="5.23107">
        <ele>181.39999389648</ele>
        <time>2021-12-30T12:24:37.000Z</time>
      </trkpt>
      <trkpt lat="46.48052" lon="5.23087">
        <ele>182.39999389648</ele>
        <time>2021-12-30T12:24:40.000Z</time>
      </trkpt>
      <trkpt lat="46.48051" lon="5.23041">
        <ele>183.39999389648</ele>
        <time>2021-12-30T12:24:47.000Z</time>
      </trkpt>
      <trkpt lat="46.48051" lon="5.23035">
        <ele>183.80000305176</ele>
        <time>2021-12-30T12:24:48.000Z</time>
      </trkpt>
      <trkpt lat="46.4805" lon="5.23009">
        <ele>184.60000610352</ele>
        <time>2021-12-30T12:24:52.000Z</time>
      </trkpt>
      <trkpt lat="46.48049" lon="5.22968">
        <ele>185.60000610352</ele>
        <time>2021-12-30T12:24:58.000Z</time>
      </trkpt>
      <trkpt lat="46.48041" lon="5.22921">
        <ele>186.39999389648</ele>
        <time>2021-12-30T12:25:05.000Z</time>
      </trkpt>
      <trkpt lat="46.48039" lon="5.22917">
        <ele>186.39999389648</ele>
        <time>2021-12-30T12:25:06.000Z</time>
      </trkpt>
      <trkpt lat="46.48036" lon="5.22903">
        <ele>186.60000610352</ele>
        <time>2021-12-30T12:25:08.000Z</time>
      </trkpt>
      <trkpt lat="46.48023" lon="5.22869">
        <ele>187.39999389648</ele>
        <time>2021-12-30T12:25:14.000Z</time>
      </trkpt>
      <trkpt lat="46.48019" lon="5.22858">
        <ele>187.80000305176</ele>
        <time>2021-12-30T12:25:16.000Z</time>
      </trkpt>
      <trkpt lat="46.48001" lon="5.22809">
        <ele>188.60000610352</ele>
        <time>2021-12-30T12:25:24.000Z</time>
      </trkpt>
      <trkpt lat="46.47999" lon="5.22803">
        <ele>188.80000305176</ele>
        <time>2021-12-30T12:25:25.000Z</time>
      </trkpt>
      <trkpt lat="46.47988" lon="5.22772">
        <ele>189.39999389648</ele>
        <time>2021-12-30T12:25:30.000Z</time>
      </trkpt>
      <trkpt lat="46.47986" lon="5.22768">
        <ele>189.39999389648</ele>
        <time>2021-12-30T12:25:31.000Z</time>
      </trkpt>
      <trkpt lat="46.47979" lon="5.22751">
        <ele>189.80000305176</ele>
        <time>2021-12-30T12:25:34.000Z</time>
      </trkpt>
      <trkpt lat="46.47972" lon="5.22739">
        <ele>190</ele>
        <time>2021-12-30T12:25:36.000Z</time>
      </trkpt>
      <trkpt lat="46.4796" lon="5.2272">
        <ele>190.39999389648</ele>
        <time>2021-12-30T12:25:40.000Z</time>
      </trkpt>
      <trkpt lat="46.47949" lon="5.22708">
        <ele>190.80000305176</ele>
        <time>2021-12-30T12:25:43.000Z</time>
      </trkpt>
      <trkpt lat="46.47924" lon="5.2268">
        <ele>192</ele>
        <time>2021-12-30T12:25:50.000Z</time>
      </trkpt>
      <trkpt lat="46.4792" lon="5.22676">
        <ele>192.19999694824</ele>
        <time>2021-12-30T12:25:51.000Z</time>
      </trkpt>
      <trkpt lat="46.47904" lon="5.22659">
        <ele>193</ele>
        <time>2021-12-30T12:25:56.000Z</time>
      </trkpt>
      <trkpt lat="46.4789" lon="5.22644">
        <ele>194.19999694824</ele>
        <time>2021-12-30T12:26:00.000Z</time>
      </trkpt>
      <trkpt lat="46.47871" lon="5.22624">
        <ele>195.39999389648</ele>
        <time>2021-12-30T12:26:06.000Z</time>
      </trkpt>
      <trkpt lat="46.47865" lon="5.22617">
        <ele>195.80000305176</ele>
        <time>2021-12-30T12:26:08.000Z</time>
      </trkpt>
      <trkpt lat="46.47852" lon="5.22604">
        <ele>196.60000610352</ele>
        <time>2021-12-30T12:26:12.000Z</time>
      </trkpt>
      <trkpt lat="46.47836" lon="5.22587">
        <ele>197.60000610352</ele>
        <time>2021-12-30T12:26:17.000Z</time>
      </trkpt>
      <trkpt lat="46.47829" lon="5.22578">
        <ele>198.19999694824</ele>
        <time>2021-12-30T12:26:19.000Z</time>
      </trkpt>
      <trkpt lat="46.47823" lon="5.22571">
        <ele>198.80000305176</ele>
        <time>2021-12-30T12:26:21.000Z</time>
      </trkpt>
      <trkpt lat="46.4782" lon="5.22567">
        <ele>199</ele>
        <time>2021-12-30T12:26:22.000Z</time>
      </trkpt>
      <trkpt lat="46.47813" lon="5.22552">
        <ele>199.19999694824</ele>
        <time>2021-12-30T12:26:25.000Z</time>
      </trkpt>
      <trkpt lat="46.4781" lon="5.22545">
        <ele>199.39999389648</ele>
        <time>2021-12-30T12:26:26.000Z</time>
      </trkpt>
      <trkpt lat="46.47805" lon="5.22528">
        <ele>200</ele>
        <time>2021-12-30T12:26:29.000Z</time>
      </trkpt>
      <trkpt lat="46.47802" lon="5.22515">
        <ele>200.39999389648</ele>
        <time>2021-12-30T12:26:31.000Z</time>
      </trkpt>
      <trkpt lat="46.47799" lon="5.22497">
        <ele>200.60000610352</ele>
        <time>2021-12-30T12:26:34.000Z</time>
      </trkpt>
      <trkpt lat="46.47791" lon="5.22459">
        <ele>201</ele>
        <time>2021-12-30T12:26:40.000Z</time>
      </trkpt>
      <trkpt lat="46.47788" lon="5.22445">
        <ele>201</ele>
        <time>2021-12-30T12:26:42.000Z</time>
      </trkpt>
      <trkpt lat="46.47784" lon="5.22423">
        <ele>201.19999694824</ele>
        <time>2021-12-30T12:26:45.000Z</time>
      </trkpt>
      <trkpt lat="46.47776" lon="5.22385">
        <ele>201.19999694824</ele>
        <time>2021-12-30T12:26:50.000Z</time>
      </trkpt>
      <trkpt lat="46.47769" lon="5.2234">
        <ele>200.60000610352</ele>
        <time>2021-12-30T12:26:55.000Z</time>
      </trkpt>
      <trkpt lat="46.47764" lon="5.22293">
        <ele>200</ele>
        <time>2021-12-30T12:27:00.000Z</time>
      </trkpt>
      <trkpt lat="46.47762" lon="5.22273">
        <ele>199.80000305176</ele>
        <time>2021-12-30T12:27:02.000Z</time>
      </trkpt>
      <trkpt lat="46.47756" lon="5.222">
        <ele>198.80000305176</ele>
        <time>2021-12-30T12:27:09.000Z</time>
      </trkpt>
      <trkpt lat="46.47753" lon="5.22169">
        <ele>198.39999389648</ele>
        <time>2021-12-30T12:27:12.000Z</time>
      </trkpt>
      <trkpt lat="46.47749" lon="5.22117">
        <ele>197.80000305176</ele>
        <time>2021-12-30T12:27:17.000Z</time>
      </trkpt>
      <trkpt lat="46.47746" lon="5.22086">
        <ele>197.60000610352</ele>
        <time>2021-12-30T12:27:20.000Z</time>
      </trkpt>
      <trkpt lat="46.4774" lon="5.22004">
        <ele>197.19999694824</ele>
        <time>2021-12-30T12:27:28.000Z</time>
      </trkpt>
      <trkpt lat="46.47739" lon="5.21991">
        <ele>196.80000305176</ele>
        <time>2021-12-30T12:27:29.000Z</time>
      </trkpt>
      <trkpt lat="46.47739" lon="5.21983">
        <ele>196.80000305176</ele>
        <time>2021-12-30T12:27:30.000Z</time>
      </trkpt>
      <trkpt lat="46.47732" lon="5.219">
        <ele>196</ele>
        <time>2021-12-30T12:27:38.000Z</time>
      </trkpt>
      <trkpt lat="46.47731" lon="5.2189">
        <ele>195.80000305176</ele>
        <time>2021-12-30T12:27:39.000Z</time>
      </trkpt>
      <trkpt lat="46.47725" lon="5.21818">
        <ele>195.80000305176</ele>
        <time>2021-12-30T12:27:47.000Z</time>
      </trkpt>
      <trkpt lat="46.47719" lon="5.21747">
        <ele>196.80000305176</ele>
        <time>2021-12-30T12:27:55.000Z</time>
      </trkpt>
      <trkpt lat="46.47718" lon="5.21739">
        <ele>197</ele>
        <time>2021-12-30T12:27:56.000Z</time>
      </trkpt>
      <trkpt lat="46.47718" lon="5.21693">
        <ele>197.80000305176</ele>
        <time>2021-12-30T12:28:01.000Z</time>
      </trkpt>
      <trkpt lat="46.4772" lon="5.21682">
        <ele>197.80000305176</ele>
        <time>2021-12-30T12:28:02.000Z</time>
      </trkpt>
      <trkpt lat="46.47727" lon="5.21655">
        <ele>198.19999694824</ele>
        <time>2021-12-30T12:28:05.000Z</time>
      </trkpt>
      <trkpt lat="46.47733" lon="5.21637">
        <ele>198.19999694824</ele>
        <time>2021-12-30T12:28:07.000Z</time>
      </trkpt>
      <trkpt lat="46.47756" lon="5.21561">
        <ele>197</ele>
        <time>2021-12-30T12:28:14.000Z</time>
      </trkpt>
      <trkpt lat="46.47766" lon="5.21527">
        <ele>195.80000305176</ele>
        <time>2021-12-30T12:28:17.000Z</time>
      </trkpt>
      <trkpt lat="46.47776" lon="5.21493">
        <ele>194.60000610352</ele>
        <time>2021-12-30T12:28:20.000Z</time>
      </trkpt>
      <trkpt lat="46.47779" lon="5.21481">
        <ele>194.19999694824</ele>
        <time>2021-12-30T12:28:21.000Z</time>
      </trkpt>
      <trkpt lat="46.47785" lon="5.2146">
        <ele>193.60000610352</ele>
        <time>2021-12-30T12:28:23.000Z</time>
      </trkpt>
      <trkpt lat="46.47797" lon="5.2142">
        <ele>193.19999694824</ele>
        <time>2021-12-30T12:28:27.000Z</time>
      </trkpt>
      <trkpt lat="46.47814" lon="5.2136">
        <ele>194</ele>
        <time>2021-12-30T12:28:34.000Z</time>
      </trkpt>
      <trkpt lat="46.47821" lon="5.21336">
        <ele>194.60000610352</ele>
        <time>2021-12-30T12:28:37.000Z</time>
      </trkpt>
      <trkpt lat="46.4783" lon="5.21305">
        <ele>195.19999694824</ele>
        <time>2021-12-30T12:28:41.000Z</time>
      </trkpt>
      <trkpt lat="46.47834" lon="5.2129">
        <ele>195.60000610352</ele>
        <time>2021-12-30T12:28:43.000Z</time>
      </trkpt>
      <trkpt lat="46.47848" lon="5.21238">
        <ele>196</ele>
        <time>2021-12-30T12:28:49.000Z</time>
      </trkpt>
      <trkpt lat="46.47865" lon="5.21166">
        <ele>195.19999694824</ele>
        <time>2021-12-30T12:28:56.000Z</time>
      </trkpt>
      <trkpt lat="46.47873" lon="5.21132">
        <ele>194.60000610352</ele>
        <time>2021-12-30T12:28:59.000Z</time>
      </trkpt>
      <trkpt lat="46.47878" lon="5.21106">
        <ele>193.19999694824</ele>
        <time>2021-12-30T12:29:01.000Z</time>
      </trkpt>
      <trkpt lat="46.47885" lon="5.21072">
        <ele>192</ele>
        <time>2021-12-30T12:29:04.000Z</time>
      </trkpt>
      <trkpt lat="46.47893" lon="5.21034">
        <ele>190.60000610352</ele>
        <time>2021-12-30T12:29:07.000Z</time>
      </trkpt>
      <trkpt lat="46.47895" lon="5.21021">
        <ele>190.39999389648</ele>
        <time>2021-12-30T12:29:08.000Z</time>
      </trkpt>
      <trkpt lat="46.47898" lon="5.21008">
        <ele>189.60000610352</ele>
        <time>2021-12-30T12:29:09.000Z</time>
      </trkpt>
      <trkpt lat="46.47906" lon="5.20969">
        <ele>188.39999389648</ele>
        <time>2021-12-30T12:29:12.000Z</time>
      </trkpt>
      <trkpt lat="46.47914" lon="5.20931">
        <ele>187.39999389648</ele>
        <time>2021-12-30T12:29:15.000Z</time>
      </trkpt>
      <trkpt lat="46.47916" lon="5.20918">
        <ele>187</ele>
        <time>2021-12-30T12:29:16.000Z</time>
      </trkpt>
      <trkpt lat="46.47922" lon="5.2087">
        <ele>186.39999389648</ele>
        <time>2021-12-30T12:29:20.000Z</time>
      </trkpt>
      <trkpt lat="46.47918" lon="5.20813">
        <ele>186.19999694824</ele>
        <time>2021-12-30T12:29:25.000Z</time>
      </trkpt>
      <trkpt lat="46.47914" lon="5.20766">
        <ele>186.60000610352</ele>
        <time>2021-12-30T12:29:30.000Z</time>
      </trkpt>
      <trkpt lat="46.4791" lon="5.20726">
        <ele>188</ele>
        <time>2021-12-30T12:29:35.000Z</time>
      </trkpt>
      <trkpt lat="46.4791" lon="5.20711">
        <ele>188.60000610352</ele>
        <time>2021-12-30T12:29:37.000Z</time>
      </trkpt>
      <trkpt lat="46.47909" lon="5.20689">
        <ele>189.39999389648</ele>
        <time>2021-12-30T12:29:40.000Z</time>
      </trkpt>
      <trkpt lat="46.47908" lon="5.20674">
        <ele>190</ele>
        <time>2021-12-30T12:29:42.000Z</time>
      </trkpt>
      <trkpt lat="46.47908" lon="5.20667">
        <ele>190.39999389648</ele>
        <time>2021-12-30T12:29:43.000Z</time>
      </trkpt>
      <trkpt lat="46.47906" lon="5.20638">
        <ele>191.39999389648</ele>
        <time>2021-12-30T12:29:47.000Z</time>
      </trkpt>
      <trkpt lat="46.47906" lon="5.20609">
        <ele>192.39999389648</ele>
        <time>2021-12-30T12:29:51.000Z</time>
      </trkpt>
      <trkpt lat="46.47905" lon="5.20602">
        <ele>192.39999389648</ele>
        <time>2021-12-30T12:29:52.000Z</time>
      </trkpt>
      <trkpt lat="46.47905" lon="5.20595">
        <ele>193</ele>
        <time>2021-12-30T12:29:53.000Z</time>
      </trkpt>
      <trkpt lat="46.47903" lon="5.20581">
        <ele>193.80000305176</ele>
        <time>2021-12-30T12:29:55.000Z</time>
      </trkpt>
      <trkpt lat="46.47902" lon="5.20574">
        <ele>194.19999694824</ele>
        <time>2021-12-30T12:29:56.000Z</time>
      </trkpt>
      <trkpt lat="46.47902" lon="5.2056">
        <ele>194.60000610352</ele>
        <time>2021-12-30T12:29:58.000Z</time>
      </trkpt>
      <trkpt lat="46.47898" lon="5.2053">
        <ele>195.39999389648</ele>
        <time>2021-12-30T12:30:02.000Z</time>
      </trkpt>
      <trkpt lat="46.47895" lon="5.20503">
        <ele>196.39999389648</ele>
        <time>2021-12-30T12:30:06.000Z</time>
      </trkpt>
      <trkpt lat="46.47889" lon="5.20448">
        <ele>197.60000610352</ele>
        <time>2021-12-30T12:30:13.000Z</time>
      </trkpt>
      <trkpt lat="46.47888" lon="5.2044">
        <ele>197.80000305176</ele>
        <time>2021-12-30T12:30:14.000Z</time>
      </trkpt>
      <trkpt lat="46.47879" lon="5.20363">
        <ele>198</ele>
        <time>2021-12-30T12:30:23.000Z</time>
      </trkpt>
      <trkpt lat="46.47873" lon="5.20315">
        <ele>197.60000610352</ele>
        <time>2021-12-30T12:30:28.000Z</time>
      </trkpt>
      <trkpt lat="46.47865" lon="5.20246">
        <ele>197</ele>
        <time>2021-12-30T12:30:35.000Z</time>
      </trkpt>
      <trkpt lat="46.47858" lon="5.20183">
        <ele>197</ele>
        <time>2021-12-30T12:30:42.000Z</time>
      </trkpt>
      <trkpt lat="46.47853" lon="5.20128">
        <ele>197.80000305176</ele>
        <time>2021-12-30T12:30:49.000Z</time>
      </trkpt>
      <trkpt lat="46.4785" lon="5.20097">
        <ele>198.60000610352</ele>
        <time>2021-12-30T12:30:53.000Z</time>
      </trkpt>
      <trkpt lat="46.47847" lon="5.20074">
        <ele>199</ele>
        <time>2021-12-30T12:30:56.000Z</time>
      </trkpt>
      <trkpt lat="46.47847" lon="5.20066">
        <ele>199</ele>
        <time>2021-12-30T12:30:57.000Z</time>
      </trkpt>
      <trkpt lat="46.47843" lon="5.2003">
        <ele>199.60000610352</ele>
        <time>2021-12-30T12:31:01.000Z</time>
      </trkpt>
      <trkpt lat="46.47842" lon="5.20021">
        <ele>199.60000610352</ele>
        <time>2021-12-30T12:31:02.000Z</time>
      </trkpt>
      <trkpt lat="46.47837" lon="5.19975">
        <ele>200</ele>
        <time>2021-12-30T12:31:07.000Z</time>
      </trkpt>
      <trkpt lat="46.4783" lon="5.19897">
        <ele>199.39999389648</ele>
        <time>2021-12-30T12:31:15.000Z</time>
      </trkpt>
      <trkpt lat="46.47823" lon="5.19816">
        <ele>199.39999389648</ele>
        <time>2021-12-30T12:31:24.000Z</time>
      </trkpt>
      <trkpt lat="46.47822" lon="5.19806">
        <ele>199.39999389648</ele>
        <time>2021-12-30T12:31:25.000Z</time>
      </trkpt>
      <trkpt lat="46.47815" lon="5.19721">
        <ele>200</ele>
        <time>2021-12-30T12:31:34.000Z</time>
      </trkpt>
      <trkpt lat="46.47813" lon="5.19712">
        <ele>200</ele>
        <time>2021-12-30T12:31:35.000Z</time>
      </trkpt>
      <trkpt lat="46.47807" lon="5.19636">
        <ele>199.80000305176</ele>
        <time>2021-12-30T12:31:43.000Z</time>
      </trkpt>
      <trkpt lat="46.47801" lon="5.19567">
        <ele>199.80000305176</ele>
        <time>2021-12-30T12:31:51.000Z</time>
      </trkpt>
      <trkpt lat="46.47794" lon="5.1949">
        <ele>200.60000610352</ele>
        <time>2021-12-30T12:32:00.000Z</time>
      </trkpt>
      <trkpt lat="46.47787" lon="5.19409">
        <ele>200.80000305176</ele>
        <time>2021-12-30T12:32:09.000Z</time>
      </trkpt>
      <trkpt lat="46.4778" lon="5.19331">
        <ele>200.80000305176</ele>
        <time>2021-12-30T12:32:17.000Z</time>
      </trkpt>
      <trkpt lat="46.47778" lon="5.1931">
        <ele>200.60000610352</ele>
        <time>2021-12-30T12:32:19.000Z</time>
      </trkpt>
      <trkpt lat="46.47771" lon="5.19242">
        <ele>199.60000610352</ele>
        <time>2021-12-30T12:32:25.000Z</time>
      </trkpt>
      <trkpt lat="46.47769" lon="5.19222">
        <ele>199</ele>
        <time>2021-12-30T12:32:27.000Z</time>
      </trkpt>
      <trkpt lat="46.47767" lon="5.19199">
        <ele>198.39999389648</ele>
        <time>2021-12-30T12:32:29.000Z</time>
      </trkpt>
      <trkpt lat="46.47761" lon="5.19138">
        <ele>197.19999694824</ele>
        <time>2021-12-30T12:32:34.000Z</time>
      </trkpt>
      <trkpt lat="46.47757" lon="5.19087">
        <ele>195.80000305176</ele>
        <time>2021-12-30T12:32:38.000Z</time>
      </trkpt>
      <trkpt lat="46.47753" lon="5.19036">
        <ele>194.80000305176</ele>
        <time>2021-12-30T12:32:42.000Z</time>
      </trkpt>
      <trkpt lat="46.47751" lon="5.1901">
        <ele>193.80000305176</ele>
        <time>2021-12-30T12:32:44.000Z</time>
      </trkpt>
      <trkpt lat="46.47746" lon="5.18958">
        <ele>192.39999389648</ele>
        <time>2021-12-30T12:32:48.000Z</time>
      </trkpt>
      <trkpt lat="46.47742" lon="5.18919">
        <ele>191.60000610352</ele>
        <time>2021-12-30T12:32:51.000Z</time>
      </trkpt>
      <trkpt lat="46.47741" lon="5.18906">
        <ele>191</ele>
        <time>2021-12-30T12:32:52.000Z</time>
      </trkpt>
      <trkpt lat="46.47735" lon="5.1884">
        <ele>189.60000610352</ele>
        <time>2021-12-30T12:32:57.000Z</time>
      </trkpt>
      <trkpt lat="46.47731" lon="5.18789">
        <ele>188.60000610352</ele>
        <time>2021-12-30T12:33:01.000Z</time>
      </trkpt>
      <trkpt lat="46.47729" lon="5.18774">
        <ele>188.19999694824</ele>
        <time>2021-12-30T12:33:02.000Z</time>
      </trkpt>
      <trkpt lat="46.47725" lon="5.18729">
        <ele>187</ele>
        <time>2021-12-30T12:33:06.000Z</time>
      </trkpt>
      <trkpt lat="46.47721" lon="5.18684">
        <ele>186.80000305176</ele>
        <time>2021-12-30T12:33:10.000Z</time>
      </trkpt>
      <trkpt lat="46.47715" lon="5.18611">
        <ele>186.80000305176</ele>
        <time>2021-12-30T12:33:17.000Z</time>
      </trkpt>
      <trkpt lat="46.47709" lon="5.18533">
        <ele>186.80000305176</ele>
        <time>2021-12-30T12:33:25.000Z</time>
      </trkpt>
      <trkpt lat="46.47702" lon="5.18457">
        <ele>186.60000610352</ele>
        <time>2021-12-30T12:33:33.000Z</time>
      </trkpt>
      <trkpt lat="46.47695" lon="5.18376">
        <ele>187</ele>
        <time>2021-12-30T12:33:42.000Z</time>
      </trkpt>
      <trkpt lat="46.47694" lon="5.18367">
        <ele>187</ele>
        <time>2021-12-30T12:33:43.000Z</time>
      </trkpt>
      <trkpt lat="46.47686" lon="5.18284">
        <ele>188</ele>
        <time>2021-12-30T12:33:53.000Z</time>
      </trkpt>
      <trkpt lat="46.47685" lon="5.18276">
        <ele>188.19999694824</ele>
        <time>2021-12-30T12:33:54.000Z</time>
      </trkpt>
      <trkpt lat="46.47685" lon="5.18268">
        <ele>188.39999389648</ele>
        <time>2021-12-30T12:33:55.000Z</time>
      </trkpt>
      <trkpt lat="46.47682" lon="5.18229">
        <ele>189</ele>
        <time>2021-12-30T12:34:00.000Z</time>
      </trkpt>
      <trkpt lat="46.47677" lon="5.18166">
        <ele>190</ele>
        <time>2021-12-30T12:34:08.000Z</time>
      </trkpt>
      <trkpt lat="46.47676" lon="5.1815">
        <ele>190.19999694824</ele>
        <time>2021-12-30T12:34:10.000Z</time>
      </trkpt>
      <trkpt lat="46.47672" lon="5.18099">
        <ele>191.39999389648</ele>
        <time>2021-12-30T12:34:17.000Z</time>
      </trkpt>
      <trkpt lat="46.47669" lon="5.18066">
        <ele>192.39999389648</ele>
        <time>2021-12-30T12:34:22.000Z</time>
      </trkpt>
      <trkpt lat="46.47667" lon="5.18048">
        <ele>193.19999694824</ele>
        <time>2021-12-30T12:34:25.000Z</time>
      </trkpt>
      <trkpt lat="46.47667" lon="5.18042">
        <ele>193.39999389648</ele>
        <time>2021-12-30T12:34:26.000Z</time>
      </trkpt>
      <trkpt lat="46.47665" lon="5.18024">
        <ele>194.60000610352</ele>
        <time>2021-12-30T12:34:29.000Z</time>
      </trkpt>
      <trkpt lat="46.47663" lon="5.18006">
        <ele>195.19999694824</ele>
        <time>2021-12-30T12:34:32.000Z</time>
      </trkpt>
      <trkpt lat="46.47662" lon="5.17993">
        <ele>196</ele>
        <time>2021-12-30T12:34:34.000Z</time>
      </trkpt>
      <trkpt lat="46.47662" lon="5.17986">
        <ele>196.19999694824</ele>
        <time>2021-12-30T12:34:35.000Z</time>
      </trkpt>
      <trkpt lat="46.4766" lon="5.17958">
        <ele>197</ele>
        <time>2021-12-30T12:34:40.000Z</time>
      </trkpt>
      <trkpt lat="46.47657" lon="5.17926">
        <ele>198</ele>
        <time>2021-12-30T12:34:45.000Z</time>
      </trkpt>
      <trkpt lat="46.47653" lon="5.17891">
        <ele>199.39999389648</ele>
        <time>2021-12-30T12:34:50.000Z</time>
      </trkpt>
      <trkpt lat="46.47653" lon="5.17884">
        <ele>199.39999389648</ele>
        <time>2021-12-30T12:34:51.000Z</time>
      </trkpt>
      <trkpt lat="46.47647" lon="5.17819">
        <ele>200.39999389648</ele>
        <time>2021-12-30T12:35:00.000Z</time>
      </trkpt>
      <trkpt lat="46.47642" lon="5.17764">
        <ele>200.19999694824</ele>
        <time>2021-12-30T12:35:06.000Z</time>
      </trkpt>
      <trkpt lat="46.47636" lon="5.1769">
        <ele>199</ele>
        <time>2021-12-30T12:35:13.000Z</time>
      </trkpt>
      <trkpt lat="46.47632" lon="5.17646">
        <ele>198.19999694824</ele>
        <time>2021-12-30T12:35:17.000Z</time>
      </trkpt>
      <trkpt lat="46.47627" lon="5.17602">
        <ele>197.39999389648</ele>
        <time>2021-12-30T12:35:21.000Z</time>
      </trkpt>
      <trkpt lat="46.47626" lon="5.17582">
        <ele>197</ele>
        <time>2021-12-30T12:35:23.000Z</time>
      </trkpt>
      <trkpt lat="46.47619" lon="5.17513">
        <ele>196.60000610352</ele>
        <time>2021-12-30T12:35:30.000Z</time>
      </trkpt>
      <trkpt lat="46.47614" lon="5.17453">
        <ele>197.19999694824</ele>
        <time>2021-12-30T12:35:37.000Z</time>
      </trkpt>
      <trkpt lat="46.47609" lon="5.17399">
        <ele>198.19999694824</ele>
        <time>2021-12-30T12:35:44.000Z</time>
      </trkpt>
      <trkpt lat="46.47606" lon="5.17354">
        <ele>199.19999694824</ele>
        <time>2021-12-30T12:35:50.000Z</time>
      </trkpt>
      <trkpt lat="46.47603" lon="5.1733">
        <ele>199.60000610352</ele>
        <time>2021-12-30T12:35:53.000Z</time>
      </trkpt>
      <trkpt lat="46.47599" lon="5.17289">
        <ele>200.39999389648</ele>
        <time>2021-12-30T12:35:58.000Z</time>
      </trkpt>
      <trkpt lat="46.47595" lon="5.17249">
        <ele>200.80000305176</ele>
        <time>2021-12-30T12:36:03.000Z</time>
      </trkpt>
      <trkpt lat="46.47587" lon="5.17167">
        <ele>201.19999694824</ele>
        <time>2021-12-30T12:36:14.000Z</time>
      </trkpt>
      <trkpt lat="46.47584" lon="5.17144">
        <ele>201.39999389648</ele>
        <time>2021-12-30T12:36:17.000Z</time>
      </trkpt>
      <trkpt lat="46.4758" lon="5.17089">
        <ele>202.39999389648</ele>
        <time>2021-12-30T12:36:24.000Z</time>
      </trkpt>
      <trkpt lat="46.47579" lon="5.17081">
        <ele>202.39999389648</ele>
        <time>2021-12-30T12:36:25.000Z</time>
      </trkpt>
      <trkpt lat="46.47572" lon="5.17018">
        <ele>202.80000305176</ele>
        <time>2021-12-30T12:36:33.000Z</time>
      </trkpt>
      <trkpt lat="46.47564" lon="5.16938">
        <ele>203.19999694824</ele>
        <time>2021-12-30T12:36:43.000Z</time>
      </trkpt>
      <trkpt lat="46.47557" lon="5.16862">
        <ele>203.39999389648</ele>
        <time>2021-12-30T12:36:52.000Z</time>
      </trkpt>
      <trkpt lat="46.4755" lon="5.16789">
        <ele>203.39999389648</ele>
        <time>2021-12-30T12:37:01.000Z</time>
      </trkpt>
      <trkpt lat="46.47548" lon="5.16765">
        <ele>203.39999389648</ele>
        <time>2021-12-30T12:37:04.000Z</time>
      </trkpt>
      <trkpt lat="46.47542" lon="5.16706">
        <ele>204</ele>
        <time>2021-12-30T12:37:11.000Z</time>
      </trkpt>
      <trkpt lat="46.47534" lon="5.16625">
        <ele>204.19999694824</ele>
        <time>2021-12-30T12:37:20.000Z</time>
      </trkpt>
      <trkpt lat="46.47533" lon="5.16607">
        <ele>204.19999694824</ele>
        <time>2021-12-30T12:37:22.000Z</time>
      </trkpt>
      <trkpt lat="46.47524" lon="5.16522">
        <ele>203.80000305176</ele>
        <time>2021-12-30T12:37:31.000Z</time>
      </trkpt>
      <trkpt lat="46.47523" lon="5.16513">
        <ele>203.80000305176</ele>
        <time>2021-12-30T12:37:32.000Z</time>
      </trkpt>
      <trkpt lat="46.47515" lon="5.16433">
        <ele>203.80000305176</ele>
        <time>2021-12-30T12:37:41.000Z</time>
      </trkpt>
      <trkpt lat="46.47513" lon="5.16415">
        <ele>204</ele>
        <time>2021-12-30T12:37:43.000Z</time>
      </trkpt>
      <trkpt lat="46.47504" lon="5.16333">
        <ele>203.80000305176</ele>
        <time>2021-12-30T12:37:52.000Z</time>
      </trkpt>
      <trkpt lat="46.475" lon="5.16294">
        <ele>203.39999389648</ele>
        <time>2021-12-30T12:37:56.000Z</time>
      </trkpt>
      <trkpt lat="46.47491" lon="5.16216">
        <ele>202.80000305176</ele>
        <time>2021-12-30T12:38:04.000Z</time>
      </trkpt>
      <trkpt lat="46.47484" lon="5.16144">
        <ele>203.19999694824</ele>
        <time>2021-12-30T12:38:12.000Z</time>
      </trkpt>
      <trkpt lat="46.47479" lon="5.16082">
        <ele>203.80000305176</ele>
        <time>2021-12-30T12:38:19.000Z</time>
      </trkpt>
      <trkpt lat="46.47473" lon="5.16028">
        <ele>204</ele>
        <time>2021-12-30T12:38:25.000Z</time>
      </trkpt>
      <trkpt lat="46.47469" lon="5.15987">
        <ele>204.19999694824</ele>
        <time>2021-12-30T12:38:30.000Z</time>
      </trkpt>
      <trkpt lat="46.47475" lon="5.15976">
        <ele>204.39999389648</ele>
        <time>2021-12-30T12:38:32.000Z</time>
      </trkpt>
      <trkpt lat="46.47479" lon="5.15975">
        <ele>204.39999389648</ele>
        <time>2021-12-30T12:38:33.000Z</time>
      </trkpt>
      <trkpt lat="46.47483" lon="5.15977">
        <ele>204.39999389648</ele>
        <time>2021-12-30T12:38:34.000Z</time>
      </trkpt>
      <trkpt lat="46.47493" lon="5.15987">
        <ele>204.39999389648</ele>
        <time>2021-12-30T12:38:36.000Z</time>
      </trkpt>
      <trkpt lat="46.47504" lon="5.16">
        <ele>204.39999389648</ele>
        <time>2021-12-30T12:38:38.000Z</time>
      </trkpt>
      <trkpt lat="46.47512" lon="5.16019">
        <ele>204.19999694824</ele>
        <time>2021-12-30T12:38:40.000Z</time>
      </trkpt>
      <trkpt lat="46.47529" lon="5.16082">
        <ele>203</ele>
        <time>2021-12-30T12:38:46.000Z</time>
      </trkpt>
      <trkpt lat="46.47539" lon="5.16113">
        <ele>202.39999389648</ele>
        <time>2021-12-30T12:38:49.000Z</time>
      </trkpt>
      <trkpt lat="46.47542" lon="5.16123">
        <ele>202.39999389648</ele>
        <time>2021-12-30T12:38:50.000Z</time>
      </trkpt>
      <trkpt lat="46.47552" lon="5.16142">
        <ele>202</ele>
        <time>2021-12-30T12:38:52.000Z</time>
      </trkpt>
      <trkpt lat="46.47567" lon="5.16169">
        <ele>201.60000610352</ele>
        <time>2021-12-30T12:38:55.000Z</time>
      </trkpt>
      <trkpt lat="46.47578" lon="5.16184">
        <ele>201.39999389648</ele>
        <time>2021-12-30T12:38:57.000Z</time>
      </trkpt>
      <trkpt lat="46.47585" lon="5.1619">
        <ele>201.19999694824</ele>
        <time>2021-12-30T12:38:58.000Z</time>
      </trkpt>
      <trkpt lat="46.47605" lon="5.16205">
        <ele>201.19999694824</ele>
        <time>2021-12-30T12:39:01.000Z</time>
      </trkpt>
      <trkpt lat="46.47626" lon="5.16217">
        <ele>201</ele>
        <time>2021-12-30T12:39:04.000Z</time>
      </trkpt>
      <trkpt lat="46.47649" lon="5.16224">
        <ele>200.80000305176</ele>
        <time>2021-12-30T12:39:07.000Z</time>
      </trkpt>
      <trkpt lat="46.47704" lon="5.16237">
        <ele>200.60000610352</ele>
        <time>2021-12-30T12:39:14.000Z</time>
      </trkpt>
      <trkpt lat="46.4772" lon="5.16242">
        <ele>200.39999389648</ele>
        <time>2021-12-30T12:39:16.000Z</time>
      </trkpt>
      <trkpt lat="46.47728" lon="5.16246">
        <ele>200.19999694824</ele>
        <time>2021-12-30T12:39:17.000Z</time>
      </trkpt>
      <trkpt lat="46.47759" lon="5.16266">
        <ele>199.39999389648</ele>
        <time>2021-12-30T12:39:21.000Z</time>
      </trkpt>
      <trkpt lat="46.47773" lon="5.1628">
        <ele>199.19999694824</ele>
        <time>2021-12-30T12:39:23.000Z</time>
      </trkpt>
      <trkpt lat="46.47799" lon="5.16309">
        <ele>198.80000305176</ele>
        <time>2021-12-30T12:39:27.000Z</time>
      </trkpt>
      <trkpt lat="46.47811" lon="5.16323">
        <ele>198.80000305176</ele>
        <time>2021-12-30T12:39:29.000Z</time>
      </trkpt>
      <trkpt lat="46.47822" lon="5.16334">
        <ele>198.60000610352</ele>
        <time>2021-12-30T12:39:31.000Z</time>
      </trkpt>
      <trkpt lat="46.47848" lon="5.16362">
        <ele>198.39999389648</ele>
        <time>2021-12-30T12:39:35.000Z</time>
      </trkpt>
      <trkpt lat="46.47875" lon="5.16391">
        <ele>198.19999694824</ele>
        <time>2021-12-30T12:39:39.000Z</time>
      </trkpt>
      <trkpt lat="46.47901" lon="5.16417">
        <ele>198</ele>
        <time>2021-12-30T12:39:43.000Z</time>
      </trkpt>
      <trkpt lat="46.47951" lon="5.16464">
        <ele>198</ele>
        <time>2021-12-30T12:39:51.000Z</time>
      </trkpt>
      <trkpt lat="46.47996" lon="5.16493">
        <ele>198.80000305176</ele>
        <time>2021-12-30T12:39:58.000Z</time>
      </trkpt>
      <trkpt lat="46.48008" lon="5.16502">
        <ele>199.19999694824</ele>
        <time>2021-12-30T12:40:00.000Z</time>
      </trkpt>
      <trkpt lat="46.4804" lon="5.16526">
        <ele>199.80000305176</ele>
        <time>2021-12-30T12:40:05.000Z</time>
      </trkpt>
      <trkpt lat="46.48066" lon="5.16547">
        <ele>200.39999389648</ele>
        <time>2021-12-30T12:40:09.000Z</time>
      </trkpt>
      <trkpt lat="46.48079" lon="5.16559">
        <ele>200.39999389648</ele>
        <time>2021-12-30T12:40:11.000Z</time>
      </trkpt>
      <trkpt lat="46.48115" lon="5.16592">
        <ele>201</ele>
        <time>2021-12-30T12:40:17.000Z</time>
      </trkpt>
      <trkpt lat="46.48141" lon="5.16612">
        <ele>201.39999389648</ele>
        <time>2021-12-30T12:40:21.000Z</time>
      </trkpt>
      <trkpt lat="46.48168" lon="5.16628">
        <ele>201.80000305176</ele>
        <time>2021-12-30T12:40:25.000Z</time>
      </trkpt>
      <trkpt lat="46.48224" lon="5.16652">
        <ele>202.19999694824</ele>
        <time>2021-12-30T12:40:33.000Z</time>
      </trkpt>
      <trkpt lat="46.48279" lon="5.16678">
        <ele>202.39999389648</ele>
        <time>2021-12-30T12:40:41.000Z</time>
      </trkpt>
      <trkpt lat="46.483" lon="5.16689">
        <ele>202.39999389648</ele>
        <time>2021-12-30T12:40:44.000Z</time>
      </trkpt>
      <trkpt lat="46.48355" lon="5.16724">
        <ele>202</ele>
        <time>2021-12-30T12:40:52.000Z</time>
      </trkpt>
      <trkpt lat="46.48362" lon="5.16728">
        <ele>202</ele>
        <time>2021-12-30T12:40:53.000Z</time>
      </trkpt>
      <trkpt lat="46.48413" lon="5.16761">
        <ele>201.60000610352</ele>
        <time>2021-12-30T12:41:00.000Z</time>
      </trkpt>
      <trkpt lat="46.48421" lon="5.16766">
        <ele>201.39999389648</ele>
        <time>2021-12-30T12:41:01.000Z</time>
      </trkpt>
      <trkpt lat="46.4846" lon="5.16792">
        <ele>200.39999389648</ele>
        <time>2021-12-30T12:41:06.000Z</time>
      </trkpt>
      <trkpt lat="46.48485" lon="5.16808">
        <ele>199.80000305176</ele>
        <time>2021-12-30T12:41:09.000Z</time>
      </trkpt>
      <trkpt lat="46.48502" lon="5.16819">
        <ele>199.39999389648</ele>
        <time>2021-12-30T12:41:11.000Z</time>
      </trkpt>
      <trkpt lat="46.48528" lon="5.16835">
        <ele>198.19999694824</ele>
        <time>2021-12-30T12:41:14.000Z</time>
      </trkpt>
      <trkpt lat="46.48554" lon="5.16846">
        <ele>197.60000610352</ele>
        <time>2021-12-30T12:41:17.000Z</time>
      </trkpt>
      <trkpt lat="46.48563" lon="5.16849">
        <ele>197.19999694824</ele>
        <time>2021-12-30T12:41:18.000Z</time>
      </trkpt>
      <trkpt lat="46.48605" lon="5.16854">
        <ele>196.60000610352</ele>
        <time>2021-12-30T12:41:23.000Z</time>
      </trkpt>
      <trkpt lat="46.48662" lon="5.16848">
        <ele>196.60000610352</ele>
        <time>2021-12-30T12:41:30.000Z</time>
      </trkpt>
      <trkpt lat="46.4867" lon="5.16847">
        <ele>196.80000305176</ele>
        <time>2021-12-30T12:41:31.000Z</time>
      </trkpt>
      <trkpt lat="46.48725" lon="5.16839">
        <ele>197</ele>
        <time>2021-12-30T12:41:38.000Z</time>
      </trkpt>
      <trkpt lat="46.4874" lon="5.16836">
        <ele>197</ele>
        <time>2021-12-30T12:41:40.000Z</time>
      </trkpt>
      <trkpt lat="46.488" lon="5.16824">
        <ele>197.39999389648</ele>
        <time>2021-12-30T12:41:48.000Z</time>
      </trkpt>
      <trkpt lat="46.48807" lon="5.16822">
        <ele>197.39999389648</ele>
        <time>2021-12-30T12:41:49.000Z</time>
      </trkpt>
      <trkpt lat="46.48859" lon="5.16793">
        <ele>197.60000610352</ele>
        <time>2021-12-30T12:41:56.000Z</time>
      </trkpt>
      <trkpt lat="46.48913" lon="5.16762">
        <ele>196.80000305176</ele>
        <time>2021-12-30T12:42:03.000Z</time>
      </trkpt>
      <trkpt lat="46.48921" lon="5.16758">
        <ele>196.80000305176</ele>
        <time>2021-12-30T12:42:04.000Z</time>
      </trkpt>
      <trkpt lat="46.48945" lon="5.16745">
        <ele>196.19999694824</ele>
        <time>2021-12-30T12:42:07.000Z</time>
      </trkpt>
      <trkpt lat="46.48993" lon="5.16722">
        <ele>195.39999389648</ele>
        <time>2021-12-30T12:42:13.000Z</time>
      </trkpt>
      <trkpt lat="46.49017" lon="5.16712">
        <ele>195</ele>
        <time>2021-12-30T12:42:16.000Z</time>
      </trkpt>
      <trkpt lat="46.49072" lon="5.1669">
        <ele>194.19999694824</ele>
        <time>2021-12-30T12:42:23.000Z</time>
      </trkpt>
      <trkpt lat="46.49126" lon="5.16671">
        <ele>194.19999694824</ele>
        <time>2021-12-30T12:42:30.000Z</time>
      </trkpt>
      <trkpt lat="46.49134" lon="5.16668">
        <ele>194.19999694824</ele>
        <time>2021-12-30T12:42:31.000Z</time>
      </trkpt>
      <trkpt lat="46.4918" lon="5.16651">
        <ele>194</ele>
        <time>2021-12-30T12:42:37.000Z</time>
      </trkpt>
      <trkpt lat="46.49211" lon="5.1664">
        <ele>193.60000610352</ele>
        <time>2021-12-30T12:42:41.000Z</time>
      </trkpt>
      <trkpt lat="46.49248" lon="5.16632">
        <ele>193.39999389648</ele>
        <time>2021-12-30T12:42:46.000Z</time>
      </trkpt>
      <trkpt lat="46.49304" lon="5.16632">
        <ele>194</ele>
        <time>2021-12-30T12:42:54.000Z</time>
      </trkpt>
      <trkpt lat="46.49359" lon="5.16633">
        <ele>194.80000305176</ele>
        <time>2021-12-30T12:43:02.000Z</time>
      </trkpt>
      <trkpt lat="46.49372" lon="5.16634">
        <ele>195</ele>
        <time>2021-12-30T12:43:04.000Z</time>
      </trkpt>
      <trkpt lat="46.49419" lon="5.16634">
        <ele>195.80000305176</ele>
        <time>2021-12-30T12:43:11.000Z</time>
      </trkpt>
      <trkpt lat="46.49453" lon="5.16634">
        <ele>196.39999389648</ele>
        <time>2021-12-30T12:43:16.000Z</time>
      </trkpt>
      <trkpt lat="46.49466" lon="5.16632">
        <ele>196.39999389648</ele>
        <time>2021-12-30T12:43:18.000Z</time>
      </trkpt>
      <trkpt lat="46.49516" lon="5.16619">
        <ele>197</ele>
        <time>2021-12-30T12:43:26.000Z</time>
      </trkpt>
      <trkpt lat="46.49528" lon="5.16614">
        <ele>197.39999389648</ele>
        <time>2021-12-30T12:43:28.000Z</time>
      </trkpt>
      <trkpt lat="46.49573" lon="5.16597">
        <ele>198</ele>
        <time>2021-12-30T12:43:35.000Z</time>
      </trkpt>
      <trkpt lat="46.49624" lon="5.16578">
        <ele>197.80000305176</ele>
        <time>2021-12-30T12:43:42.000Z</time>
      </trkpt>
      <trkpt lat="46.49681" lon="5.16556">
        <ele>196.39999389648</ele>
        <time>2021-12-30T12:43:49.000Z</time>
      </trkpt>
      <trkpt lat="46.4969" lon="5.16553">
        <ele>195.80000305176</ele>
        <time>2021-12-30T12:43:50.000Z</time>
      </trkpt>
      <trkpt lat="46.49718" lon="5.1655">
        <ele>194.80000305176</ele>
        <time>2021-12-30T12:43:53.000Z</time>
      </trkpt>
      <trkpt lat="46.49728" lon="5.1655">
        <ele>194.39999389648</ele>
        <time>2021-12-30T12:43:54.000Z</time>
      </trkpt>
      <trkpt lat="46.49757" lon="5.16552">
        <ele>192.80000305176</ele>
        <time>2021-12-30T12:43:57.000Z</time>
      </trkpt>
      <trkpt lat="46.49777" lon="5.16556">
        <ele>191.60000610352</ele>
        <time>2021-12-30T12:43:59.000Z</time>
      </trkpt>
      <trkpt lat="46.49786" lon="5.16558">
        <ele>191.39999389648</ele>
        <time>2021-12-30T12:44:00.000Z</time>
      </trkpt>
      <trkpt lat="46.49796" lon="5.16559">
        <ele>190.60000610352</ele>
        <time>2021-12-30T12:44:01.000Z</time>
      </trkpt>
      <trkpt lat="46.49851" lon="5.16569">
        <ele>189.60000610352</ele>
        <time>2021-12-30T12:44:07.000Z</time>
      </trkpt>
      <trkpt lat="46.49868" lon="5.16571">
        <ele>189.19999694824</ele>
        <time>2021-12-30T12:44:09.000Z</time>
      </trkpt>
      <trkpt lat="46.49928" lon="5.16581">
        <ele>189</ele>
        <time>2021-12-30T12:44:16.000Z</time>
      </trkpt>
      <trkpt lat="46.49937" lon="5.16583">
        <ele>188.80000305176</ele>
        <time>2021-12-30T12:44:17.000Z</time>
      </trkpt>
      <trkpt lat="46.49962" lon="5.16591">
        <ele>188.60000610352</ele>
        <time>2021-12-30T12:44:20.000Z</time>
      </trkpt>
      <trkpt lat="46.49995" lon="5.16602">
        <ele>188.39999389648</ele>
        <time>2021-12-30T12:44:24.000Z</time>
      </trkpt>
      <trkpt lat="46.50056" lon="5.1662">
        <ele>188</ele>
        <time>2021-12-30T12:44:31.000Z</time>
      </trkpt>
      <trkpt lat="46.50074" lon="5.16625">
        <ele>187.60000610352</ele>
        <time>2021-12-30T12:44:33.000Z</time>
      </trkpt>
      <trkpt lat="46.50083" lon="5.16627">
        <ele>187.39999389648</ele>
        <time>2021-12-30T12:44:34.000Z</time>
      </trkpt>
      <trkpt lat="46.50121" lon="5.16633">
        <ele>186.39999389648</ele>
        <time>2021-12-30T12:44:38.000Z</time>
      </trkpt>
      <trkpt lat="46.5013" lon="5.16633">
        <ele>186.19999694824</ele>
        <time>2021-12-30T12:44:39.000Z</time>
      </trkpt>
      <trkpt lat="46.50159" lon="5.16632">
        <ele>185.19999694824</ele>
        <time>2021-12-30T12:44:42.000Z</time>
      </trkpt>
      <trkpt lat="46.50207" lon="5.16628">
        <ele>184</ele>
        <time>2021-12-30T12:44:47.000Z</time>
      </trkpt>
      <trkpt lat="46.50263" lon="5.16625">
        <ele>183.19999694824</ele>
        <time>2021-12-30T12:44:53.000Z</time>
      </trkpt>
      <trkpt lat="46.50273" lon="5.16625">
        <ele>182.80000305176</ele>
        <time>2021-12-30T12:44:54.000Z</time>
      </trkpt>
      <trkpt lat="46.50282" lon="5.16627">
        <ele>182.80000305176</ele>
        <time>2021-12-30T12:44:55.000Z</time>
      </trkpt>
      <trkpt lat="46.50299" lon="5.16638">
        <ele>182.39999389648</ele>
        <time>2021-12-30T12:44:57.000Z</time>
      </trkpt>
      <trkpt lat="46.50306" lon="5.16645">
        <ele>182.39999389648</ele>
        <time>2021-12-30T12:44:58.000Z</time>
      </trkpt>
      <trkpt lat="46.50342" lon="5.16685">
        <ele>182</ele>
        <time>2021-12-30T12:45:03.000Z</time>
      </trkpt>
      <trkpt lat="46.5038" lon="5.16702">
        <ele>181.80000305176</ele>
        <time>2021-12-30T12:45:08.000Z</time>
      </trkpt>
      <trkpt lat="46.50433" lon="5.16715">
        <ele>182.39999389648</ele>
        <time>2021-12-30T12:45:15.000Z</time>
      </trkpt>
      <trkpt lat="46.50455" lon="5.16714">
        <ele>183</ele>
        <time>2021-12-30T12:45:18.000Z</time>
      </trkpt>
      <trkpt lat="46.50462" lon="5.16712">
        <ele>183</ele>
        <time>2021-12-30T12:45:19.000Z</time>
      </trkpt>
      <trkpt lat="46.50468" lon="5.16709">
        <ele>183.19999694824</ele>
        <time>2021-12-30T12:45:20.000Z</time>
      </trkpt>
      <trkpt lat="46.505" lon="5.16691">
        <ele>183.80000305176</ele>
        <time>2021-12-30T12:45:25.000Z</time>
      </trkpt>
      <trkpt lat="46.50507" lon="5.16687">
        <ele>184.19999694824</ele>
        <time>2021-12-30T12:45:26.000Z</time>
      </trkpt>
      <trkpt lat="46.50549" lon="5.1666">
        <ele>184.60000610352</ele>
        <time>2021-12-30T12:45:33.000Z</time>
      </trkpt>
      <trkpt lat="46.50599" lon="5.16628">
        <ele>185.19999694824</ele>
        <time>2021-12-30T12:45:41.000Z</time>
      </trkpt>
      <trkpt lat="46.50605" lon="5.16623">
        <ele>185.19999694824</ele>
        <time>2021-12-30T12:45:42.000Z</time>
      </trkpt>
      <trkpt lat="46.50611" lon="5.16618">
        <ele>185.19999694824</ele>
        <time>2021-12-30T12:45:43.000Z</time>
      </trkpt>
      <trkpt lat="46.50662" lon="5.16574">
        <ele>184</ele>
        <time>2021-12-30T12:45:51.000Z</time>
      </trkpt>
      <trkpt lat="46.50669" lon="5.16569">
        <ele>184</ele>
        <time>2021-12-30T12:45:52.000Z</time>
      </trkpt>
      <trkpt lat="46.5071" lon="5.16543">
        <ele>183.80000305176</ele>
        <time>2021-12-30T12:45:58.000Z</time>
      </trkpt>
      <trkpt lat="46.50755" lon="5.16533">
        <ele>183.19999694824</ele>
        <time>2021-12-30T12:46:04.000Z</time>
      </trkpt>
      <trkpt lat="46.5077" lon="5.16534">
        <ele>182.80000305176</ele>
        <time>2021-12-30T12:46:06.000Z</time>
      </trkpt>
      <trkpt lat="46.50791" lon="5.1654">
        <ele>182.80000305176</ele>
        <time>2021-12-30T12:46:09.000Z</time>
      </trkpt>
      <trkpt lat="46.50846" lon="5.16561">
        <ele>183.19999694824</ele>
        <time>2021-12-30T12:46:17.000Z</time>
      </trkpt>
      <trkpt lat="46.50889" lon="5.1657">
        <ele>183.39999389648</ele>
        <time>2021-12-30T12:46:23.000Z</time>
      </trkpt>
      <trkpt lat="46.5093" lon="5.16565">
        <ele>183</ele>
        <time>2021-12-30T12:46:29.000Z</time>
      </trkpt>
      <trkpt lat="46.50978" lon="5.16562">
        <ele>183.39999389648</ele>
        <time>2021-12-30T12:46:36.000Z</time>
      </trkpt>
      <trkpt lat="46.50984" lon="5.16563">
        <ele>183.60000610352</ele>
        <time>2021-12-30T12:46:37.000Z</time>
      </trkpt>
      <trkpt lat="46.50997" lon="5.16571">
        <ele>183.39999389648</ele>
        <time>2021-12-30T12:46:39.000Z</time>
      </trkpt>
      <trkpt lat="46.51003" lon="5.16576">
        <ele>183.60000610352</ele>
        <time>2021-12-30T12:46:40.000Z</time>
      </trkpt>
      <trkpt lat="46.51026" lon="5.16597">
        <ele>184</ele>
        <time>2021-12-30T12:46:44.000Z</time>
      </trkpt>
      <trkpt lat="46.51033" lon="5.166">
        <ele>184</ele>
        <time>2021-12-30T12:46:45.000Z</time>
      </trkpt>
      <trkpt lat="46.51039" lon="5.16604">
        <ele>184.19999694824</ele>
        <time>2021-12-30T12:46:46.000Z</time>
      </trkpt>
      <trkpt lat="46.51094" lon="5.16626">
        <ele>184</ele>
        <time>2021-12-30T12:46:54.000Z</time>
      </trkpt>
      <trkpt lat="46.511" lon="5.1663">
        <ele>184</ele>
        <time>2021-12-30T12:46:55.000Z</time>
      </trkpt>
      <trkpt lat="46.51124" lon="5.16653">
        <ele>184.39999389648</ele>
        <time>2021-12-30T12:46:59.000Z</time>
      </trkpt>
      <trkpt lat="46.51165" lon="5.16708">
        <ele>185</ele>
        <time>2021-12-30T12:47:07.000Z</time>
      </trkpt>
      <trkpt lat="46.51179" lon="5.16728">
        <ele>185.19999694824</ele>
        <time>2021-12-30T12:47:10.000Z</time>
      </trkpt>
      <trkpt lat="46.5121" lon="5.16764">
        <ele>186</ele>
        <time>2021-12-30T12:47:16.000Z</time>
      </trkpt>
      <trkpt lat="46.51228" lon="5.16776">
        <ele>186.39999389648</ele>
        <time>2021-12-30T12:47:19.000Z</time>
      </trkpt>
      <trkpt lat="46.51235" lon="5.16778">
        <ele>186.39999389648</ele>
        <time>2021-12-30T12:47:20.000Z</time>
      </trkpt>
      <trkpt lat="46.51241" lon="5.1678">
        <ele>186.60000610352</ele>
        <time>2021-12-30T12:47:21.000Z</time>
      </trkpt>
      <trkpt lat="46.51261" lon="5.1678">
        <ele>187</ele>
        <time>2021-12-30T12:47:24.000Z</time>
      </trkpt>
      <trkpt lat="46.51274" lon="5.16775">
        <ele>187</ele>
        <time>2021-12-30T12:47:26.000Z</time>
      </trkpt>
      <trkpt lat="46.51309" lon="5.16753">
        <ele>187.39999389648</ele>
        <time>2021-12-30T12:47:32.000Z</time>
      </trkpt>
      <trkpt lat="46.51327" lon="5.16741">
        <ele>187.80000305176</ele>
        <time>2021-12-30T12:47:35.000Z</time>
      </trkpt>
      <trkpt lat="46.51376" lon="5.16703">
        <ele>188</ele>
        <time>2021-12-30T12:47:43.000Z</time>
      </trkpt>
      <trkpt lat="46.51412" lon="5.16676">
        <ele>188.19999694824</ele>
        <time>2021-12-30T12:47:49.000Z</time>
      </trkpt>
      <trkpt lat="46.51441" lon="5.16671">
        <ele>188.39999389648</ele>
        <time>2021-12-30T12:47:53.000Z</time>
      </trkpt>
      <trkpt lat="46.51449" lon="5.16672">
        <ele>188.39999389648</ele>
        <time>2021-12-30T12:47:54.000Z</time>
      </trkpt>
      <trkpt lat="46.51494" lon="5.16682">
        <ele>188.19999694824</ele>
        <time>2021-12-30T12:48:00.000Z</time>
      </trkpt>
      <trkpt lat="46.51537" lon="5.167">
        <ele>188</ele>
        <time>2021-12-30T12:48:06.000Z</time>
      </trkpt>
      <trkpt lat="46.51544" lon="5.16701">
        <ele>188.19999694824</ele>
        <time>2021-12-30T12:48:07.000Z</time>
      </trkpt>
      <trkpt lat="46.51551" lon="5.16701">
        <ele>188.19999694824</ele>
        <time>2021-12-30T12:48:08.000Z</time>
      </trkpt>
      <trkpt lat="46.51564" lon="5.16697">
        <ele>188.19999694824</ele>
        <time>2021-12-30T12:48:10.000Z</time>
      </trkpt>
      <trkpt lat="46.51601" lon="5.16673">
        <ele>188.60000610352</ele>
        <time>2021-12-30T12:48:16.000Z</time>
      </trkpt>
      <trkpt lat="46.51626" lon="5.16659">
        <ele>189.19999694824</ele>
        <time>2021-12-30T12:48:20.000Z</time>
      </trkpt>
      <trkpt lat="46.51646" lon="5.16654">
        <ele>189.39999389648</ele>
        <time>2021-12-30T12:48:23.000Z</time>
      </trkpt>
      <trkpt lat="46.51674" lon="5.16649">
        <ele>190</ele>
        <time>2021-12-30T12:48:27.000Z</time>
      </trkpt>
      <trkpt lat="46.51695" lon="5.16639">
        <ele>190</ele>
        <time>2021-12-30T12:48:30.000Z</time>
      </trkpt>
      <trkpt lat="46.51703" lon="5.16634">
        <ele>189.80000305176</ele>
        <time>2021-12-30T12:48:31.000Z</time>
      </trkpt>
      <trkpt lat="46.51721" lon="5.16613">
        <ele>189.60000610352</ele>
        <time>2021-12-30T12:48:34.000Z</time>
      </trkpt>
      <trkpt lat="46.51741" lon="5.16592">
        <ele>189</ele>
        <time>2021-12-30T12:48:37.000Z</time>
      </trkpt>
      <trkpt lat="46.51749" lon="5.16586">
        <ele>188.80000305176</ele>
        <time>2021-12-30T12:48:38.000Z</time>
      </trkpt>
      <trkpt lat="46.51758" lon="5.16581">
        <ele>188.60000610352</ele>
        <time>2021-12-30T12:48:39.000Z</time>
      </trkpt>
      <trkpt lat="46.51767" lon="5.16579">
        <ele>188.19999694824</ele>
        <time>2021-12-30T12:48:40.000Z</time>
      </trkpt>
      <trkpt lat="46.51775" lon="5.16577">
        <ele>188</ele>
        <time>2021-12-30T12:48:41.000Z</time>
      </trkpt>
      <trkpt lat="46.51801" lon="5.16578">
        <ele>186.80000305176</ele>
        <time>2021-12-30T12:48:44.000Z</time>
      </trkpt>
      <trkpt lat="46.51826" lon="5.1658">
        <ele>186.60000610352</ele>
        <time>2021-12-30T12:48:47.000Z</time>
      </trkpt>
      <trkpt lat="46.51871" lon="5.16579">
        <ele>186.19999694824</ele>
        <time>2021-12-30T12:48:53.000Z</time>
      </trkpt>
      <trkpt lat="46.51916" lon="5.16572">
        <ele>187.19999694824</ele>
        <time>2021-12-30T12:49:00.000Z</time>
      </trkpt>
      <trkpt lat="46.51928" lon="5.1657">
        <ele>187.80000305176</ele>
        <time>2021-12-30T12:49:02.000Z</time>
      </trkpt>
      <trkpt lat="46.51955" lon="5.16564">
        <ele>189.39999389648</ele>
        <time>2021-12-30T12:49:07.000Z</time>
      </trkpt>
      <trkpt lat="46.51961" lon="5.16563">
        <ele>189.60000610352</ele>
        <time>2021-12-30T12:49:08.000Z</time>
      </trkpt>
      <trkpt lat="46.51971" lon="5.16561">
        <ele>190.39999389648</ele>
        <time>2021-12-30T12:49:10.000Z</time>
      </trkpt>
      <trkpt lat="46.51993" lon="5.16556">
        <ele>191.39999389648</ele>
        <time>2021-12-30T12:49:14.000Z</time>
      </trkpt>
      <trkpt lat="46.51998" lon="5.16554">
        <ele>191.60000610352</ele>
        <time>2021-12-30T12:49:15.000Z</time>
      </trkpt>
      <trkpt lat="46.5202" lon="5.16549">
        <ele>192.60000610352</ele>
        <time>2021-12-30T12:49:19.000Z</time>
      </trkpt>
      <trkpt lat="46.52037" lon="5.16547">
        <ele>193</ele>
        <time>2021-12-30T12:49:22.000Z</time>
      </trkpt>
      <trkpt lat="46.52054" lon="5.16547">
        <ele>193.80000305176</ele>
        <time>2021-12-30T12:49:25.000Z</time>
      </trkpt>
      <trkpt lat="46.5207" lon="5.16552">
        <ele>194.19999694824</ele>
        <time>2021-12-30T12:49:28.000Z</time>
      </trkpt>
      <trkpt lat="46.52097" lon="5.16564">
        <ele>195</ele>
        <time>2021-12-30T12:49:33.000Z</time>
      </trkpt>
      <trkpt lat="46.52118" lon="5.16576">
        <ele>195.39999389648</ele>
        <time>2021-12-30T12:49:37.000Z</time>
      </trkpt>
      <trkpt lat="46.52144" lon="5.16591">
        <ele>196</ele>
        <time>2021-12-30T12:49:42.000Z</time>
      </trkpt>
      <trkpt lat="46.52168" lon="5.16604">
        <ele>196.39999389648</ele>
        <time>2021-12-30T12:49:46.000Z</time>
      </trkpt>
      <trkpt lat="46.52199" lon="5.16621">
        <ele>196.19999694824</ele>
        <time>2021-12-30T12:49:51.000Z</time>
      </trkpt>
      <trkpt lat="46.52239" lon="5.16646">
        <ele>195.80000305176</ele>
        <time>2021-12-30T12:49:57.000Z</time>
      </trkpt>
      <trkpt lat="46.52251" lon="5.16658">
        <ele>195.60000610352</ele>
        <time>2021-12-30T12:49:59.000Z</time>
      </trkpt>
      <trkpt lat="46.52256" lon="5.16664">
        <ele>195.60000610352</ele>
        <time>2021-12-30T12:50:00.000Z</time>
      </trkpt>
      <trkpt lat="46.52265" lon="5.16678">
        <ele>195.60000610352</ele>
        <time>2021-12-30T12:50:02.000Z</time>
      </trkpt>
      <trkpt lat="46.52269" lon="5.16686">
        <ele>195.60000610352</ele>
        <time>2021-12-30T12:50:03.000Z</time>
      </trkpt>
      <trkpt lat="46.52275" lon="5.16704">
        <ele>195.60000610352</ele>
        <time>2021-12-30T12:50:05.000Z</time>
      </trkpt>
      <trkpt lat="46.52278" lon="5.16723">
        <ele>195.60000610352</ele>
        <time>2021-12-30T12:50:07.000Z</time>
      </trkpt>
      <trkpt lat="46.5228" lon="5.16776">
        <ele>195.60000610352</ele>
        <time>2021-12-30T12:50:12.000Z</time>
      </trkpt>
      <trkpt lat="46.52277" lon="5.16865">
        <ele>195</ele>
        <time>2021-12-30T12:50:20.000Z</time>
      </trkpt>
      <trkpt lat="46.52277" lon="5.16876">
        <ele>195</ele>
        <time>2021-12-30T12:50:21.000Z</time>
      </trkpt>
      <trkpt lat="46.5228" lon="5.16933">
        <ele>194.39999389648</ele>
        <time>2021-12-30T12:50:26.000Z</time>
      </trkpt>
      <trkpt lat="46.52285" lon="5.16955">
        <ele>193.80000305176</ele>
        <time>2021-12-30T12:50:28.000Z</time>
      </trkpt>
      <trkpt lat="46.52293" lon="5.16975">
        <ele>193.60000610352</ele>
        <time>2021-12-30T12:50:30.000Z</time>
      </trkpt>
      <trkpt lat="46.52297" lon="5.16984">
        <ele>193.60000610352</ele>
        <time>2021-12-30T12:50:31.000Z</time>
      </trkpt>
      <trkpt lat="46.52313" lon="5.17008">
        <ele>193.39999389648</ele>
        <time>2021-12-30T12:50:34.000Z</time>
      </trkpt>
      <trkpt lat="46.52353" lon="5.17054">
        <ele>193.80000305176</ele>
        <time>2021-12-30T12:50:41.000Z</time>
      </trkpt>
      <trkpt lat="46.52399" lon="5.17105">
        <ele>194</ele>
        <time>2021-12-30T12:50:49.000Z</time>
      </trkpt>
      <trkpt lat="46.5242" lon="5.17132">
        <ele>194.60000610352</ele>
        <time>2021-12-30T12:50:53.000Z</time>
      </trkpt>
      <trkpt lat="46.52453" lon="5.17171">
        <ele>194.80000305176</ele>
        <time>2021-12-30T12:50:59.000Z</time>
      </trkpt>
      <trkpt lat="46.52464" lon="5.17184">
        <ele>195</ele>
        <time>2021-12-30T12:51:01.000Z</time>
      </trkpt>
      <trkpt lat="46.52511" lon="5.17236">
        <ele>194.60000610352</ele>
        <time>2021-12-30T12:51:09.000Z</time>
      </trkpt>
      <trkpt lat="46.52522" lon="5.17249">
        <ele>194.60000610352</ele>
        <time>2021-12-30T12:51:11.000Z</time>
      </trkpt>
      <trkpt lat="46.52551" lon="5.17281">
        <ele>193.80000305176</ele>
        <time>2021-12-30T12:51:16.000Z</time>
      </trkpt>
      <trkpt lat="46.52575" lon="5.17307">
        <ele>193.19999694824</ele>
        <time>2021-12-30T12:51:20.000Z</time>
      </trkpt>
      <trkpt lat="46.52594" lon="5.17329">
        <ele>192.80000305176</ele>
        <time>2021-12-30T12:51:23.000Z</time>
      </trkpt>
      <trkpt lat="46.52608" lon="5.17345">
        <ele>192.60000610352</ele>
        <time>2021-12-30T12:51:25.000Z</time>
      </trkpt>
      <trkpt lat="46.52631" lon="5.1737">
        <ele>191.80000305176</ele>
        <time>2021-12-30T12:51:28.000Z</time>
      </trkpt>
      <trkpt lat="46.52647" lon="5.17387">
        <ele>190.60000610352</ele>
        <time>2021-12-30T12:51:30.000Z</time>
      </trkpt>
      <trkpt lat="46.52673" lon="5.17416">
        <ele>189.19999694824</ele>
        <time>2021-12-30T12:51:33.000Z</time>
      </trkpt>
      <trkpt lat="46.52682" lon="5.17426">
        <ele>188</ele>
        <time>2021-12-30T12:51:34.000Z</time>
      </trkpt>
      <trkpt lat="46.527" lon="5.17445">
        <ele>186.60000610352</ele>
        <time>2021-12-30T12:51:36.000Z</time>
      </trkpt>
      <trkpt lat="46.52709" lon="5.17455">
        <ele>185.80000305176</ele>
        <time>2021-12-30T12:51:37.000Z</time>
      </trkpt>
      <trkpt lat="46.52718" lon="5.17466">
        <ele>185.60000610352</ele>
        <time>2021-12-30T12:51:38.000Z</time>
      </trkpt>
      <trkpt lat="46.52735" lon="5.17489">
        <ele>184.60000610352</ele>
        <time>2021-12-30T12:51:40.000Z</time>
      </trkpt>
      <trkpt lat="46.52743" lon="5.17502">
        <ele>184</ele>
        <time>2021-12-30T12:51:41.000Z</time>
      </trkpt>
      <trkpt lat="46.52758" lon="5.17527">
        <ele>182.60000610352</ele>
        <time>2021-12-30T12:51:43.000Z</time>
      </trkpt>
      <trkpt lat="46.52772" lon="5.1755">
        <ele>181.60000610352</ele>
        <time>2021-12-30T12:51:45.000Z</time>
      </trkpt>
      <trkpt lat="46.52779" lon="5.17561">
        <ele>181</ele>
        <time>2021-12-30T12:51:46.000Z</time>
      </trkpt>
      <trkpt lat="46.52792" lon="5.17584">
        <ele>180.60000610352</ele>
        <time>2021-12-30T12:51:48.000Z</time>
      </trkpt>
      <trkpt lat="46.52815" lon="5.17624">
        <ele>180.19999694824</ele>
        <time>2021-12-30T12:51:52.000Z</time>
      </trkpt>
      <trkpt lat="46.5282" lon="5.17631">
        <ele>180.19999694824</ele>
        <time>2021-12-30T12:51:53.000Z</time>
      </trkpt>
      <trkpt lat="46.52839" lon="5.17648">
        <ele>180.60000610352</ele>
        <time>2021-12-30T12:51:56.000Z</time>
      </trkpt>
      <trkpt lat="46.52876" lon="5.17664">
        <ele>181.19999694824</ele>
        <time>2021-12-30T12:52:01.000Z</time>
      </trkpt>
      <trkpt lat="46.52913" lon="5.17681">
        <ele>181.80000305176</ele>
        <time>2021-12-30T12:52:06.000Z</time>
      </trkpt>
      <trkpt lat="46.5292" lon="5.17684">
        <ele>182.19999694824</ele>
        <time>2021-12-30T12:52:07.000Z</time>
      </trkpt>
      <trkpt lat="46.52947" lon="5.17696">
        <ele>183</ele>
        <time>2021-12-30T12:52:11.000Z</time>
      </trkpt>
      <trkpt lat="46.52981" lon="5.17711">
        <ele>183.80000305176</ele>
        <time>2021-12-30T12:52:16.000Z</time>
      </trkpt>
      <trkpt lat="46.53028" lon="5.17727">
        <ele>184.19999694824</ele>
        <time>2021-12-30T12:52:23.000Z</time>
      </trkpt>
      <trkpt lat="46.53041" lon="5.1773">
        <ele>184.39999389648</ele>
        <time>2021-12-30T12:52:25.000Z</time>
      </trkpt>
      <trkpt lat="46.53072" lon="5.17736">
        <ele>185.39999389648</ele>
        <time>2021-12-30T12:52:30.000Z</time>
      </trkpt>
      <trkpt lat="46.5309" lon="5.17738">
        <ele>185.60000610352</ele>
        <time>2021-12-30T12:52:33.000Z</time>
      </trkpt>
      <trkpt lat="46.53107" lon="5.17741">
        <ele>186.39999389648</ele>
        <time>2021-12-30T12:52:36.000Z</time>
      </trkpt>
      <trkpt lat="46.5313" lon="5.17745">
        <ele>187.39999389648</ele>
        <time>2021-12-30T12:52:40.000Z</time>
      </trkpt>
      <trkpt lat="46.53141" lon="5.17747">
        <ele>188.19999694824</ele>
        <time>2021-12-30T12:52:42.000Z</time>
      </trkpt>
      <trkpt lat="46.53153" lon="5.17749">
        <ele>188.60000610352</ele>
        <time>2021-12-30T12:52:44.000Z</time>
      </trkpt>
      <trkpt lat="46.53194" lon="5.17757">
        <ele>189.80000305176</ele>
        <time>2021-12-30T12:52:51.000Z</time>
      </trkpt>
      <trkpt lat="46.53206" lon="5.17759">
        <ele>190</ele>
        <time>2021-12-30T12:52:53.000Z</time>
      </trkpt>
      <trkpt lat="46.53234" lon="5.17764">
        <ele>190.80000305176</ele>
        <time>2021-12-30T12:52:58.000Z</time>
      </trkpt>
      <trkpt lat="46.53261" lon="5.17767">
        <ele>191</ele>
        <time>2021-12-30T12:53:02.000Z</time>
      </trkpt>
      <trkpt lat="46.53314" lon="5.17764">
        <ele>190.19999694824</ele>
        <time>2021-12-30T12:53:09.000Z</time>
      </trkpt>
      <trkpt lat="46.53329" lon="5.17762">
        <ele>189.60000610352</ele>
        <time>2021-12-30T12:53:11.000Z</time>
      </trkpt>
      <trkpt lat="46.53351" lon="5.17754">
        <ele>189</ele>
        <time>2021-12-30T12:53:14.000Z</time>
      </trkpt>
      <trkpt lat="46.53358" lon="5.1775">
        <ele>189</ele>
        <time>2021-12-30T12:53:15.000Z</time>
      </trkpt>
      <trkpt lat="46.53403" lon="5.17718">
        <ele>189</ele>
        <time>2021-12-30T12:53:22.000Z</time>
      </trkpt>
      <trkpt lat="46.53451" lon="5.17682">
        <ele>189.60000610352</ele>
        <time>2021-12-30T12:53:30.000Z</time>
      </trkpt>
      <trkpt lat="46.53457" lon="5.17677">
        <ele>189.60000610352</ele>
        <time>2021-12-30T12:53:31.000Z</time>
      </trkpt>
      <trkpt lat="46.53504" lon="5.17642">
        <ele>190.60000610352</ele>
        <time>2021-12-30T12:53:39.000Z</time>
      </trkpt>
      <trkpt lat="46.53522" lon="5.17628">
        <ele>190.80000305176</ele>
        <time>2021-12-30T12:53:42.000Z</time>
      </trkpt>
      <trkpt lat="46.53564" lon="5.17607">
        <ele>190.80000305176</ele>
        <time>2021-12-30T12:53:48.000Z</time>
      </trkpt>
      <trkpt lat="46.53622" lon="5.17593">
        <ele>190.19999694824</ele>
        <time>2021-12-30T12:53:56.000Z</time>
      </trkpt>
      <trkpt lat="46.53679" lon="5.1758">
        <ele>190.39999389648</ele>
        <time>2021-12-30T12:54:04.000Z</time>
      </trkpt>
      <trkpt lat="46.53685" lon="5.17579">
        <ele>190.39999389648</ele>
        <time>2021-12-30T12:54:05.000Z</time>
      </trkpt>
      <trkpt lat="46.53741" lon="5.17567">
        <ele>190.39999389648</ele>
        <time>2021-12-30T12:54:13.000Z</time>
      </trkpt>
      <trkpt lat="46.53756" lon="5.17564">
        <ele>190.60000610352</ele>
        <time>2021-12-30T12:54:15.000Z</time>
      </trkpt>
      <trkpt lat="46.53816" lon="5.17551">
        <ele>190.39999389648</ele>
        <time>2021-12-30T12:54:23.000Z</time>
      </trkpt>
      <trkpt lat="46.53864" lon="5.17539">
        <ele>189.60000610352</ele>
        <time>2021-12-30T12:54:29.000Z</time>
      </trkpt>
      <trkpt lat="46.53879" lon="5.17532">
        <ele>189.39999389648</ele>
        <time>2021-12-30T12:54:31.000Z</time>
      </trkpt>
      <trkpt lat="46.53913" lon="5.17507">
        <ele>188.80000305176</ele>
        <time>2021-12-30T12:54:36.000Z</time>
      </trkpt>
      <trkpt lat="46.53954" lon="5.17476">
        <ele>189.19999694824</ele>
        <time>2021-12-30T12:54:43.000Z</time>
      </trkpt>
      <trkpt lat="46.54007" lon="5.17435">
        <ele>190.39999389648</ele>
        <time>2021-12-30T12:54:52.000Z</time>
      </trkpt>
      <trkpt lat="46.54055" lon="5.17399">
        <ele>190.60000610352</ele>
        <time>2021-12-30T12:55:00.000Z</time>
      </trkpt>
      <trkpt lat="46.54074" lon="5.17385">
        <ele>190.60000610352</ele>
        <time>2021-12-30T12:55:03.000Z</time>
      </trkpt>
      <trkpt lat="46.54119" lon="5.17351">
        <ele>190.19999694824</ele>
        <time>2021-12-30T12:55:10.000Z</time>
      </trkpt>
      <trkpt lat="46.54165" lon="5.17316">
        <ele>188.60000610352</ele>
        <time>2021-12-30T12:55:16.000Z</time>
      </trkpt>
      <trkpt lat="46.54173" lon="5.1731">
        <ele>188.19999694824</ele>
        <time>2021-12-30T12:55:17.000Z</time>
      </trkpt>
      <trkpt lat="46.54199" lon="5.1729">
        <ele>187.19999694824</ele>
        <time>2021-12-30T12:55:20.000Z</time>
      </trkpt>
      <trkpt lat="46.54217" lon="5.17276">
        <ele>186.19999694824</ele>
        <time>2021-12-30T12:55:22.000Z</time>
      </trkpt>
      <trkpt lat="46.54225" lon="5.1727">
        <ele>186</ele>
        <time>2021-12-30T12:55:23.000Z</time>
      </trkpt>
      <trkpt lat="46.54242" lon="5.17257">
        <ele>184.60000610352</ele>
        <time>2021-12-30T12:55:25.000Z</time>
      </trkpt>
      <trkpt lat="46.54273" lon="5.17234">
        <ele>184.19999694824</ele>
        <time>2021-12-30T12:55:29.000Z</time>
      </trkpt>
      <trkpt lat="46.54304" lon="5.17211">
        <ele>184.60000610352</ele>
        <time>2021-12-30T12:55:34.000Z</time>
      </trkpt>
      <trkpt lat="46.54328" lon="5.17193">
        <ele>186</ele>
        <time>2021-12-30T12:55:38.000Z</time>
      </trkpt>
      <trkpt lat="46.54347" lon="5.1718">
        <ele>186.60000610352</ele>
        <time>2021-12-30T12:55:41.000Z</time>
      </trkpt>
      <trkpt lat="46.54366" lon="5.17168">
        <ele>187</ele>
        <time>2021-12-30T12:55:44.000Z</time>
      </trkpt>
      <trkpt lat="46.54383" lon="5.17155">
        <ele>187.39999389648</ele>
        <time>2021-12-30T12:55:47.000Z</time>
      </trkpt>
      <trkpt lat="46.54401" lon="5.17144">
        <ele>188</ele>
        <time>2021-12-30T12:55:50.000Z</time>
      </trkpt>
      <trkpt lat="46.54408" lon="5.17141">
        <ele>188</ele>
        <time>2021-12-30T12:55:51.000Z</time>
      </trkpt>
      <trkpt lat="46.54421" lon="5.17138">
        <ele>188.19999694824</ele>
        <time>2021-12-30T12:55:53.000Z</time>
      </trkpt>
      <trkpt lat="46.54463" lon="5.17138">
        <ele>188.60000610352</ele>
        <time>2021-12-30T12:55:59.000Z</time>
      </trkpt>
      <trkpt lat="46.54524" lon="5.17137">
        <ele>188.39999389648</ele>
        <time>2021-12-30T12:56:07.000Z</time>
      </trkpt>
      <trkpt lat="46.54532" lon="5.17137">
        <ele>188.19999694824</ele>
        <time>2021-12-30T12:56:08.000Z</time>
      </trkpt>
      <trkpt lat="46.54586" lon="5.17138">
        <ele>187.60000610352</ele>
        <time>2021-12-30T12:56:15.000Z</time>
      </trkpt>
      <trkpt lat="46.54611" lon="5.17137">
        <ele>186.80000305176</ele>
        <time>2021-12-30T12:56:18.000Z</time>
      </trkpt>
      <trkpt lat="46.54651" lon="5.17138">
        <ele>185.80000305176</ele>
        <time>2021-12-30T12:56:23.000Z</time>
      </trkpt>
      <trkpt lat="46.54684" lon="5.1714">
        <ele>184.80000305176</ele>
        <time>2021-12-30T12:56:27.000Z</time>
      </trkpt>
      <trkpt lat="46.54692" lon="5.17141">
        <ele>184.80000305176</ele>
        <time>2021-12-30T12:56:28.000Z</time>
      </trkpt>
      <trkpt lat="46.54742" lon="5.1715">
        <ele>183.39999389648</ele>
        <time>2021-12-30T12:56:34.000Z</time>
      </trkpt>
      <trkpt lat="46.54778" lon="5.17156">
        <ele>182.19999694824</ele>
        <time>2021-12-30T12:56:38.000Z</time>
      </trkpt>
      <trkpt lat="46.54807" lon="5.17161">
        <ele>181.19999694824</ele>
        <time>2021-12-30T12:56:41.000Z</time>
      </trkpt>
      <trkpt lat="46.54817" lon="5.17162">
        <ele>181</ele>
        <time>2021-12-30T12:56:42.000Z</time>
      </trkpt>
      <trkpt lat="46.54837" lon="5.17163">
        <ele>179.80000305176</ele>
        <time>2021-12-30T12:56:44.000Z</time>
      </trkpt>
      <trkpt lat="46.54847" lon="5.17162">
        <ele>179</ele>
        <time>2021-12-30T12:56:45.000Z</time>
      </trkpt>
      <trkpt lat="46.54857" lon="5.1716">
        <ele>178.60000610352</ele>
        <time>2021-12-30T12:56:46.000Z</time>
      </trkpt>
      <trkpt lat="46.54866" lon="5.17155">
        <ele>178</ele>
        <time>2021-12-30T12:56:47.000Z</time>
      </trkpt>
      <trkpt lat="46.54875" lon="5.17149">
        <ele>177.39999389648</ele>
        <time>2021-12-30T12:56:48.000Z</time>
      </trkpt>
      <trkpt lat="46.54883" lon="5.17141">
        <ele>177.19999694824</ele>
        <time>2021-12-30T12:56:49.000Z</time>
      </trkpt>
      <trkpt lat="46.54918" lon="5.17098">
        <ele>176.19999694824</ele>
        <time>2021-12-30T12:56:54.000Z</time>
      </trkpt>
      <trkpt lat="46.54934" lon="5.17088">
        <ele>176.19999694824</ele>
        <time>2021-12-30T12:56:56.000Z</time>
      </trkpt>
      <trkpt lat="46.54942" lon="5.17086">
        <ele>176</ele>
        <time>2021-12-30T12:56:57.000Z</time>
      </trkpt>
      <trkpt lat="46.5495" lon="5.17086">
        <ele>176</ele>
        <time>2021-12-30T12:56:58.000Z</time>
      </trkpt>
      <trkpt lat="46.54973" lon="5.17086">
        <ele>176.19999694824</ele>
        <time>2021-12-30T12:57:01.000Z</time>
      </trkpt>
      <trkpt lat="46.54991" lon="5.17072">
        <ele>176.80000305176</ele>
        <time>2021-12-30T12:57:04.000Z</time>
      </trkpt>
      <trkpt lat="46.55006" lon="5.17058">
        <ele>177.39999389648</ele>
        <time>2021-12-30T12:57:07.000Z</time>
      </trkpt>
      <trkpt lat="46.55015" lon="5.1705">
        <ele>178</ele>
        <time>2021-12-30T12:57:09.000Z</time>
      </trkpt>
      <trkpt lat="46.55019" lon="5.17045">
        <ele>178.60000610352</ele>
        <time>2021-12-30T12:57:10.000Z</time>
      </trkpt>
      <trkpt lat="46.55034" lon="5.17028">
        <ele>179.80000305176</ele>
        <time>2021-12-30T12:57:14.000Z</time>
      </trkpt>
      <trkpt lat="46.55038" lon="5.17024">
        <ele>180.19999694824</ele>
        <time>2021-12-30T12:57:15.000Z</time>
      </trkpt>
      <trkpt lat="46.55043" lon="5.17023">
        <ele>180.39999389648</ele>
        <time>2021-12-30T12:57:16.000Z</time>
      </trkpt>
      <trkpt lat="46.55048" lon="5.17025">
        <ele>181</ele>
        <time>2021-12-30T12:57:17.000Z</time>
      </trkpt>
      <trkpt lat="46.5506" lon="5.17033">
        <ele>182.19999694824</ele>
        <time>2021-12-30T12:57:20.000Z</time>
      </trkpt>
      <trkpt lat="46.55078" lon="5.17044">
        <ele>183.60000610352</ele>
        <time>2021-12-30T12:57:24.000Z</time>
      </trkpt>
      <trkpt lat="46.55087" lon="5.17049">
        <ele>184.39999389648</ele>
        <time>2021-12-30T12:57:26.000Z</time>
      </trkpt>
      <trkpt lat="46.55091" lon="5.17052">
        <ele>184.60000610352</ele>
        <time>2021-12-30T12:57:27.000Z</time>
      </trkpt>
      <trkpt lat="46.55109" lon="5.17063">
        <ele>185.80000305176</ele>
        <time>2021-12-30T12:57:31.000Z</time>
      </trkpt>
      <trkpt lat="46.55119" lon="5.17068">
        <ele>186.39999389648</ele>
        <time>2021-12-30T12:57:33.000Z</time>
      </trkpt>
      <trkpt lat="46.55133" lon="5.17075">
        <ele>187</ele>
        <time>2021-12-30T12:57:36.000Z</time>
      </trkpt>
      <trkpt lat="46.55138" lon="5.17078">
        <ele>187</ele>
        <time>2021-12-30T12:57:37.000Z</time>
      </trkpt>
      <trkpt lat="46.55148" lon="5.17081">
        <ele>187.39999389648</ele>
        <time>2021-12-30T12:57:39.000Z</time>
      </trkpt>
      <trkpt lat="46.55152" lon="5.17082">
        <ele>187.60000610352</ele>
        <time>2021-12-30T12:57:40.000Z</time>
      </trkpt>
      <trkpt lat="46.55162" lon="5.1708">
        <ele>188</ele>
        <time>2021-12-30T12:57:42.000Z</time>
      </trkpt>
      <trkpt lat="46.55167" lon="5.17077">
        <ele>188.39999389648</ele>
        <time>2021-12-30T12:57:43.000Z</time>
      </trkpt>
      <trkpt lat="46.55171" lon="5.17073">
        <ele>188.60000610352</ele>
        <time>2021-12-30T12:57:44.000Z</time>
      </trkpt>
      <trkpt lat="46.5518" lon="5.17064">
        <ele>189</ele>
        <time>2021-12-30T12:57:46.000Z</time>
      </trkpt>
      <trkpt lat="46.55189" lon="5.17056">
        <ele>189.19999694824</ele>
        <time>2021-12-30T12:57:48.000Z</time>
      </trkpt>
      <trkpt lat="46.552" lon="5.17049">
        <ele>189.39999389648</ele>
        <time>2021-12-30T12:57:50.000Z</time>
      </trkpt>
      <trkpt lat="46.55211" lon="5.17045">
        <ele>189.60000610352</ele>
        <time>2021-12-30T12:57:52.000Z</time>
      </trkpt>
      <trkpt lat="46.55217" lon="5.17044">
        <ele>189.60000610352</ele>
        <time>2021-12-30T12:57:53.000Z</time>
      </trkpt>
      <trkpt lat="46.5526" lon="5.17045">
        <ele>189.60000610352</ele>
        <time>2021-12-30T12:58:00.000Z</time>
      </trkpt>
      <trkpt lat="46.55303" lon="5.17046">
        <ele>189.80000305176</ele>
        <time>2021-12-30T12:58:07.000Z</time>
      </trkpt>
      <trkpt lat="46.55346" lon="5.17046">
        <ele>190.19999694824</ele>
        <time>2021-12-30T12:58:14.000Z</time>
      </trkpt>
      <trkpt lat="46.55362" lon="5.17047">
        <ele>190.80000305176</ele>
        <time>2021-12-30T12:58:17.000Z</time>
      </trkpt>
      <trkpt lat="46.55373" lon="5.17049">
        <ele>191.19999694824</ele>
        <time>2021-12-30T12:58:19.000Z</time>
      </trkpt>
      <trkpt lat="46.55395" lon="5.17055">
        <ele>192.19999694824</ele>
        <time>2021-12-30T12:58:23.000Z</time>
      </trkpt>
      <trkpt lat="46.554" lon="5.17056">
        <ele>192.39999389648</ele>
        <time>2021-12-30T12:58:24.000Z</time>
      </trkpt>
      <trkpt lat="46.55406" lon="5.17058">
        <ele>192.39999389648</ele>
        <time>2021-12-30T12:58:25.000Z</time>
      </trkpt>
      <trkpt lat="46.55449" lon="5.17063">
        <ele>193.39999389648</ele>
        <time>2021-12-30T12:58:34.000Z</time>
      </trkpt>
      <trkpt lat="46.55489" lon="5.17055">
        <ele>194.19999694824</ele>
        <time>2021-12-30T12:58:41.000Z</time>
      </trkpt>
      <trkpt lat="46.55524" lon="5.17059">
        <ele>194.39999389648</ele>
        <time>2021-12-30T12:58:47.000Z</time>
      </trkpt>
      <trkpt lat="46.55529" lon="5.17061">
        <ele>194.39999389648</ele>
        <time>2021-12-30T12:58:48.000Z</time>
      </trkpt>
      <trkpt lat="46.55536" lon="5.1707">
        <ele>194.39999389648</ele>
        <time>2021-12-30T12:58:50.000Z</time>
      </trkpt>
      <trkpt lat="46.55536" lon="5.17075">
        <ele>194.39999389648</ele>
        <time>2021-12-30T12:58:51.000Z</time>
      </trkpt>
      <trkpt lat="46.55535" lon="5.17086">
        <ele>194.60000610352</ele>
        <time>2021-12-30T12:58:53.000Z</time>
      </trkpt>
      <trkpt lat="46.55528" lon="5.17104">
        <ele>194.60000610352</ele>
        <time>2021-12-30T12:58:56.000Z</time>
      </trkpt>
      <trkpt lat="46.55521" lon="5.17118">
        <ele>194.60000610352</ele>
        <time>2021-12-30T12:58:58.000Z</time>
      </trkpt>
      <trkpt lat="46.55498" lon="5.17166">
        <ele>194.80000305176</ele>
        <time>2021-12-30T12:59:04.000Z</time>
      </trkpt>
      <trkpt lat="46.55471" lon="5.17211">
        <ele>194.60000610352</ele>
        <time>2021-12-30T12:59:10.000Z</time>
      </trkpt>
      <trkpt lat="46.55451" lon="5.17256">
        <ele>194.60000610352</ele>
        <time>2021-12-30T12:59:16.000Z</time>
      </trkpt>
      <trkpt lat="46.55436" lon="5.17314">
        <ele>194.60000610352</ele>
        <time>2021-12-30T12:59:22.000Z</time>
      </trkpt>
      <trkpt lat="46.55425" lon="5.17378">
        <ele>194.19999694824</ele>
        <time>2021-12-30T12:59:28.000Z</time>
      </trkpt>
      <trkpt lat="46.55418" lon="5.17463">
        <ele>193.80000305176</ele>
        <time>2021-12-30T12:59:36.000Z</time>
      </trkpt>
      <trkpt lat="46.55411" lon="5.17543">
        <ele>194.19999694824</ele>
        <time>2021-12-30T12:59:44.000Z</time>
      </trkpt>
      <trkpt lat="46.5541" lon="5.17553">
        <ele>194.19999694824</ele>
        <time>2021-12-30T12:59:45.000Z</time>
      </trkpt>
      <trkpt lat="46.55402" lon="5.17637">
        <ele>194.80000305176</ele>
        <time>2021-12-30T12:59:54.000Z</time>
      </trkpt>
      <trkpt lat="46.55395" lon="5.17722">
        <ele>195.39999389648</ele>
        <time>2021-12-30T13:00:03.000Z</time>
      </trkpt>
      <trkpt lat="46.55394" lon="5.17732">
        <ele>195.39999389648</ele>
        <time>2021-12-30T13:00:04.000Z</time>
      </trkpt>
      <trkpt lat="46.55392" lon="5.17811">
        <ele>195.60000610352</ele>
        <time>2021-12-30T13:00:12.000Z</time>
      </trkpt>
      <trkpt lat="46.55394" lon="5.17868">
        <ele>195.19999694824</ele>
        <time>2021-12-30T13:00:17.000Z</time>
      </trkpt>
      <trkpt lat="46.55395" lon="5.17905">
        <ele>194.19999694824</ele>
        <time>2021-12-30T13:00:20.000Z</time>
      </trkpt>
      <trkpt lat="46.55396" lon="5.17942">
        <ele>193</ele>
        <time>2021-12-30T13:00:23.000Z</time>
      </trkpt>
      <trkpt lat="46.55405" lon="5.17999">
        <ele>192.60000610352</ele>
        <time>2021-12-30T13:00:28.000Z</time>
      </trkpt>
      <trkpt lat="46.55409" lon="5.18009">
        <ele>192.60000610352</ele>
        <time>2021-12-30T13:00:29.000Z</time>
      </trkpt>
      <trkpt lat="46.55422" lon="5.18036">
        <ele>192.60000610352</ele>
        <time>2021-12-30T13:00:32.000Z</time>
      </trkpt>
      <trkpt lat="46.55463" lon="5.18093">
        <ele>193</ele>
        <time>2021-12-30T13:00:40.000Z</time>
      </trkpt>
      <trkpt lat="46.55497" lon="5.1814">
        <ele>194</ele>
        <time>2021-12-30T13:00:47.000Z</time>
      </trkpt>
      <trkpt lat="46.55502" lon="5.18147">
        <ele>194.19999694824</ele>
        <time>2021-12-30T13:00:48.000Z</time>
      </trkpt>
      <trkpt lat="46.55541" lon="5.18207">
        <ele>194.80000305176</ele>
        <time>2021-12-30T13:00:56.000Z</time>
      </trkpt>
      <trkpt lat="46.55545" lon="5.18216">
        <ele>195</ele>
        <time>2021-12-30T13:00:57.000Z</time>
      </trkpt>
      <trkpt lat="46.55562" lon="5.18263">
        <ele>195.19999694824</ele>
        <time>2021-12-30T13:01:02.000Z</time>
      </trkpt>
      <trkpt lat="46.55577" lon="5.18335">
        <ele>195.39999389648</ele>
        <time>2021-12-30T13:01:09.000Z</time>
      </trkpt>
      <trkpt lat="46.55591" lon="5.18417">
        <ele>195</ele>
        <time>2021-12-30T13:01:17.000Z</time>
      </trkpt>
      <trkpt lat="46.55599" lon="5.18459">
        <ele>195</ele>
        <time>2021-12-30T13:01:21.000Z</time>
      </trkpt>
      <trkpt lat="46.55612" lon="5.18539">
        <ele>195.39999389648</ele>
        <time>2021-12-30T13:01:29.000Z</time>
      </trkpt>
      <trkpt lat="46.55622" lon="5.18599">
        <ele>195.39999389648</ele>
        <time>2021-12-30T13:01:35.000Z</time>
      </trkpt>
      <trkpt lat="46.55636" lon="5.18679">
        <ele>195.39999389648</ele>
        <time>2021-12-30T13:01:43.000Z</time>
      </trkpt>
      <trkpt lat="46.55643" lon="5.1872">
        <ele>195.60000610352</ele>
        <time>2021-12-30T13:01:47.000Z</time>
      </trkpt>
      <trkpt lat="46.55657" lon="5.18803">
        <ele>195.39999389648</ele>
        <time>2021-12-30T13:01:55.000Z</time>
      </trkpt>
      <trkpt lat="46.55659" lon="5.18813">
        <ele>195.39999389648</ele>
        <time>2021-12-30T13:01:56.000Z</time>
      </trkpt>
      <trkpt lat="46.55673" lon="5.18897">
        <ele>195.60000610352</ele>
        <time>2021-12-30T13:02:04.000Z</time>
      </trkpt>
      <trkpt lat="46.55679" lon="5.18929">
        <ele>195.60000610352</ele>
        <time>2021-12-30T13:02:07.000Z</time>
      </trkpt>
      <trkpt lat="46.55692" lon="5.19">
        <ele>195.39999389648</ele>
        <time>2021-12-30T13:02:14.000Z</time>
      </trkpt>
      <trkpt lat="46.55704" lon="5.19071">
        <ele>195.19999694824</ele>
        <time>2021-12-30T13:02:21.000Z</time>
      </trkpt>
      <trkpt lat="46.55716" lon="5.19152">
        <ele>195.39999389648</ele>
        <time>2021-12-30T13:02:29.000Z</time>
      </trkpt>
      <trkpt lat="46.55717" lon="5.19163">
        <ele>195.39999389648</ele>
        <time>2021-12-30T13:02:30.000Z</time>
      </trkpt>
      <trkpt lat="46.55722" lon="5.19245">
        <ele>195.60000610352</ele>
        <time>2021-12-30T13:02:38.000Z</time>
      </trkpt>
      <trkpt lat="46.55723" lon="5.19267">
        <ele>195.39999389648</ele>
        <time>2021-12-30T13:02:40.000Z</time>
      </trkpt>
      <trkpt lat="46.55728" lon="5.19353">
        <ele>195.19999694824</ele>
        <time>2021-12-30T13:02:48.000Z</time>
      </trkpt>
      <trkpt lat="46.55729" lon="5.19374">
        <ele>195</ele>
        <time>2021-12-30T13:02:50.000Z</time>
      </trkpt>
      <trkpt lat="46.55734" lon="5.19458">
        <ele>195.39999389648</ele>
        <time>2021-12-30T13:02:58.000Z</time>
      </trkpt>
      <trkpt lat="46.55735" lon="5.19479">
        <ele>195.39999389648</ele>
        <time>2021-12-30T13:03:00.000Z</time>
      </trkpt>
      <trkpt lat="46.55739" lon="5.19561">
        <ele>195.39999389648</ele>
        <time>2021-12-30T13:03:08.000Z</time>
      </trkpt>
      <trkpt lat="46.55741" lon="5.19582">
        <ele>195.39999389648</ele>
        <time>2021-12-30T13:03:10.000Z</time>
      </trkpt>
      <trkpt lat="46.55745" lon="5.19623">
        <ele>195.80000305176</ele>
        <time>2021-12-30T13:03:14.000Z</time>
      </trkpt>
      <trkpt lat="46.5575" lon="5.19643">
        <ele>195.80000305176</ele>
        <time>2021-12-30T13:03:16.000Z</time>
      </trkpt>
      <trkpt lat="46.55769" lon="5.19688">
        <ele>196</ele>
        <time>2021-12-30T13:03:21.000Z</time>
      </trkpt>
      <trkpt lat="46.55788" lon="5.19721">
        <ele>196</ele>
        <time>2021-12-30T13:03:25.000Z</time>
      </trkpt>
      <trkpt lat="46.55799" lon="5.19749">
        <ele>195.80000305176</ele>
        <time>2021-12-30T13:03:28.000Z</time>
      </trkpt>
      <trkpt lat="46.55802" lon="5.19759">
        <ele>195.80000305176</ele>
        <time>2021-12-30T13:03:29.000Z</time>
      </trkpt>
      <trkpt lat="46.5581" lon="5.19799">
        <ele>195.80000305176</ele>
        <time>2021-12-30T13:03:33.000Z</time>
      </trkpt>
      <trkpt lat="46.55821" lon="5.19881">
        <ele>195.80000305176</ele>
        <time>2021-12-30T13:03:41.000Z</time>
      </trkpt>
      <trkpt lat="46.55822" lon="5.19891">
        <ele>195.80000305176</ele>
        <time>2021-12-30T13:03:42.000Z</time>
      </trkpt>
      <trkpt lat="46.55835" lon="5.19974">
        <ele>195.80000305176</ele>
        <time>2021-12-30T13:03:50.000Z</time>
      </trkpt>
      <trkpt lat="46.55836" lon="5.19984">
        <ele>195.80000305176</ele>
        <time>2021-12-30T13:03:51.000Z</time>
      </trkpt>
      <trkpt lat="46.55842" lon="5.20026">
        <ele>196</ele>
        <time>2021-12-30T13:03:55.000Z</time>
      </trkpt>
      <trkpt lat="46.55854" lon="5.201">
        <ele>195.39999389648</ele>
        <time>2021-12-30T13:04:02.000Z</time>
      </trkpt>
      <trkpt lat="46.55866" lon="5.20184">
        <ele>195.39999389648</ele>
        <time>2021-12-30T13:04:10.000Z</time>
      </trkpt>
      <trkpt lat="46.55867" lon="5.20195">
        <ele>195.39999389648</ele>
        <time>2021-12-30T13:04:11.000Z</time>
      </trkpt>
      <trkpt lat="46.5588" lon="5.20276">
        <ele>195.60000610352</ele>
        <time>2021-12-30T13:04:19.000Z</time>
      </trkpt>
      <trkpt lat="46.55892" lon="5.20356">
        <ele>195.39999389648</ele>
        <time>2021-12-30T13:04:27.000Z</time>
      </trkpt>
      <trkpt lat="46.55894" lon="5.20365">
        <ele>195.39999389648</ele>
        <time>2021-12-30T13:04:28.000Z</time>
      </trkpt>
      <trkpt lat="46.55904" lon="5.20438">
        <ele>195.19999694824</ele>
        <time>2021-12-30T13:04:35.000Z</time>
      </trkpt>
      <trkpt lat="46.5591" lon="5.20481">
        <ele>195</ele>
        <time>2021-12-30T13:04:39.000Z</time>
      </trkpt>
      <trkpt lat="46.55914" lon="5.20526">
        <ele>194.80000305176</ele>
        <time>2021-12-30T13:04:43.000Z</time>
      </trkpt>
      <trkpt lat="46.55913" lon="5.20549">
        <ele>194.60000610352</ele>
        <time>2021-12-30T13:04:45.000Z</time>
      </trkpt>
      <trkpt lat="46.55908" lon="5.20582">
        <ele>194.39999389648</ele>
        <time>2021-12-30T13:04:48.000Z</time>
      </trkpt>
      <trkpt lat="46.55889" lon="5.20631">
        <ele>194.19999694824</ele>
        <time>2021-12-30T13:04:53.000Z</time>
      </trkpt>
      <trkpt lat="46.55876" lon="5.20659">
        <ele>194</ele>
        <time>2021-12-30T13:04:56.000Z</time>
      </trkpt>
      <trkpt lat="46.55854" lon="5.20704">
        <ele>193.80000305176</ele>
        <time>2021-12-30T13:05:01.000Z</time>
      </trkpt>
      <trkpt lat="46.55843" lon="5.20732">
        <ele>193.80000305176</ele>
        <time>2021-12-30T13:05:04.000Z</time>
      </trkpt>
      <trkpt lat="46.55839" lon="5.20751">
        <ele>194</ele>
        <time>2021-12-30T13:05:06.000Z</time>
      </trkpt>
      <trkpt lat="46.55836" lon="5.20771">
        <ele>194</ele>
        <time>2021-12-30T13:05:08.000Z</time>
      </trkpt>
      <trkpt lat="46.55836" lon="5.20791">
        <ele>194.19999694824</ele>
        <time>2021-12-30T13:05:10.000Z</time>
      </trkpt>
      <trkpt lat="46.5584" lon="5.20863">
        <ele>194.80000305176</ele>
        <time>2021-12-30T13:05:17.000Z</time>
      </trkpt>
      <trkpt lat="46.55848" lon="5.20949">
        <ele>194.80000305176</ele>
        <time>2021-12-30T13:05:25.000Z</time>
      </trkpt>
      <trkpt lat="46.55854" lon="5.21026">
        <ele>194.80000305176</ele>
        <time>2021-12-30T13:05:32.000Z</time>
      </trkpt>
      <trkpt lat="46.55859" lon="5.21104">
        <ele>194.60000610352</ele>
        <time>2021-12-30T13:05:39.000Z</time>
      </trkpt>
      <trkpt lat="46.55861" lon="5.21136">
        <ele>194.39999389648</ele>
        <time>2021-12-30T13:05:42.000Z</time>
      </trkpt>
      <trkpt lat="46.55861" lon="5.21212">
        <ele>194.39999389648</ele>
        <time>2021-12-30T13:05:49.000Z</time>
      </trkpt>
      <trkpt lat="46.55861" lon="5.21297">
        <ele>194.60000610352</ele>
        <time>2021-12-30T13:05:57.000Z</time>
      </trkpt>
      <trkpt lat="46.55861" lon="5.21307">
        <ele>194.60000610352</ele>
        <time>2021-12-30T13:05:58.000Z</time>
      </trkpt>
      <trkpt lat="46.55862" lon="5.2139">
        <ele>194.80000305176</ele>
        <time>2021-12-30T13:06:06.000Z</time>
      </trkpt>
      <trkpt lat="46.55862" lon="5.21401">
        <ele>194.80000305176</ele>
        <time>2021-12-30T13:06:07.000Z</time>
      </trkpt>
      <trkpt lat="46.5586" lon="5.21439">
        <ele>195</ele>
        <time>2021-12-30T13:06:11.000Z</time>
      </trkpt>
      <trkpt lat="46.55857" lon="5.21445">
        <ele>195</ele>
        <time>2021-12-30T13:06:12.000Z</time>
      </trkpt>
      <trkpt lat="46.55854" lon="5.21451">
        <ele>195</ele>
        <time>2021-12-30T13:06:13.000Z</time>
      </trkpt>
      <trkpt lat="46.55845" lon="5.21459">
        <ele>195</ele>
        <time>2021-12-30T13:06:15.000Z</time>
      </trkpt>
      <trkpt lat="46.55829" lon="5.21483">
        <ele>194.60000610352</ele>
        <time>2021-12-30T13:06:20.000Z</time>
      </trkpt>
      <trkpt lat="46.55826" lon="5.21488">
        <ele>194.60000610352</ele>
        <time>2021-12-30T13:06:21.000Z</time>
      </trkpt>
      <trkpt lat="46.55822" lon="5.21493">
        <ele>194.60000610352</ele>
        <time>2021-12-30T13:06:24.000Z</time>
      </trkpt>
      <trkpt lat="46.55822" lon="5.21493">
        <ele>194.80000305176</ele>
        <time>2021-12-30T13:06:29.000Z</time>
      </trkpt>
      <trkpt lat="46.55825" lon="5.21489">
        <ele>194.80000305176</ele>
        <time>2021-12-30T13:07:18.000Z</time>
      </trkpt>
      <trkpt lat="46.55825" lon="5.21488">
        <ele>194.80000305176</ele>
        <time>2021-12-30T13:07:20.000Z</time>
      </trkpt>
      <trkpt lat="46.55829" lon="5.21482">
        <ele>194.80000305176</ele>
        <time>2021-12-30T13:07:59.000Z</time>
      </trkpt>
      <trkpt lat="46.55833" lon="5.21476">
        <ele>194.80000305176</ele>
        <time>2021-12-30T13:08:01.000Z</time>
      </trkpt>
      <trkpt lat="46.55846" lon="5.21457">
        <ele>194.80000305176</ele>
        <time>2021-12-30T13:08:06.000Z</time>
      </trkpt>
      <trkpt lat="46.55856" lon="5.21449">
        <ele>194.80000305176</ele>
        <time>2021-12-30T13:08:09.000Z</time>
      </trkpt>
      <trkpt lat="46.55859" lon="5.2145">
        <ele>194.80000305176</ele>
        <time>2021-12-30T13:08:10.000Z</time>
      </trkpt>
      <trkpt lat="46.55861" lon="5.21453">
        <ele>194.80000305176</ele>
        <time>2021-12-30T13:08:11.000Z</time>
      </trkpt>
      <trkpt lat="46.55863" lon="5.21465">
        <ele>194.60000610352</ele>
        <time>2021-12-30T13:08:13.000Z</time>
      </trkpt>
      <trkpt lat="46.55862" lon="5.21505">
        <ele>194</ele>
        <time>2021-12-30T13:08:17.000Z</time>
      </trkpt>
      <trkpt lat="46.55864" lon="5.21541">
        <ele>193.19999694824</ele>
        <time>2021-12-30T13:08:20.000Z</time>
      </trkpt>
      <trkpt lat="46.55867" lon="5.21566">
        <ele>192.39999389648</ele>
        <time>2021-12-30T13:08:22.000Z</time>
      </trkpt>
      <trkpt lat="46.55868" lon="5.21578">
        <ele>192</ele>
        <time>2021-12-30T13:08:23.000Z</time>
      </trkpt>
      <trkpt lat="46.55872" lon="5.21617">
        <ele>190.60000610352</ele>
        <time>2021-12-30T13:08:26.000Z</time>
      </trkpt>
      <trkpt lat="46.55874" lon="5.21644">
        <ele>189.39999389648</ele>
        <time>2021-12-30T13:08:28.000Z</time>
      </trkpt>
      <trkpt lat="46.55876" lon="5.21658">
        <ele>189.39999389648</ele>
        <time>2021-12-30T13:08:29.000Z</time>
      </trkpt>
      <trkpt lat="46.5588" lon="5.21699">
        <ele>187.80000305176</ele>
        <time>2021-12-30T13:08:32.000Z</time>
      </trkpt>
      <trkpt lat="46.55885" lon="5.21741">
        <ele>186.19999694824</ele>
        <time>2021-12-30T13:08:35.000Z</time>
      </trkpt>
      <trkpt lat="46.55891" lon="5.21769">
        <ele>185.39999389648</ele>
        <time>2021-12-30T13:08:37.000Z</time>
      </trkpt>
      <trkpt lat="46.55894" lon="5.21783">
        <ele>185.19999694824</ele>
        <time>2021-12-30T13:08:38.000Z</time>
      </trkpt>
      <trkpt lat="46.55901" lon="5.2181">
        <ele>184</ele>
        <time>2021-12-30T13:08:40.000Z</time>
      </trkpt>
      <trkpt lat="46.55909" lon="5.21837">
        <ele>182.80000305176</ele>
        <time>2021-12-30T13:08:42.000Z</time>
      </trkpt>
      <trkpt lat="46.55921" lon="5.21874">
        <ele>181.60000610352</ele>
        <time>2021-12-30T13:08:45.000Z</time>
      </trkpt>
      <trkpt lat="46.55935" lon="5.21921">
        <ele>180.80000305176</ele>
        <time>2021-12-30T13:08:49.000Z</time>
      </trkpt>
      <trkpt lat="46.55941" lon="5.21944">
        <ele>180.60000610352</ele>
        <time>2021-12-30T13:08:51.000Z</time>
      </trkpt>
      <trkpt lat="46.55956" lon="5.21989">
        <ele>180.39999389648</ele>
        <time>2021-12-30T13:08:55.000Z</time>
      </trkpt>
      <trkpt lat="46.55975" lon="5.22054">
        <ele>180.19999694824</ele>
        <time>2021-12-30T13:09:01.000Z</time>
      </trkpt>
      <trkpt lat="46.55998" lon="5.22127">
        <ele>180.39999389648</ele>
        <time>2021-12-30T13:09:08.000Z</time>
      </trkpt>
      <trkpt lat="46.56016" lon="5.22186">
        <ele>181.19999694824</ele>
        <time>2021-12-30T13:09:14.000Z</time>
      </trkpt>
      <trkpt lat="46.56039" lon="5.22265">
        <ele>181.60000610352</ele>
        <time>2021-12-30T13:09:22.000Z</time>
      </trkpt>
      <trkpt lat="46.56045" lon="5.22286">
        <ele>181.60000610352</ele>
        <time>2021-12-30T13:09:24.000Z</time>
      </trkpt>
      <trkpt lat="46.56068" lon="5.2236">
        <ele>180.80000305176</ele>
        <time>2021-12-30T13:09:31.000Z</time>
      </trkpt>
      <trkpt lat="46.56074" lon="5.22381">
        <ele>180.60000610352</ele>
        <time>2021-12-30T13:09:33.000Z</time>
      </trkpt>
      <trkpt lat="46.56096" lon="5.22454">
        <ele>180.39999389648</ele>
        <time>2021-12-30T13:09:40.000Z</time>
      </trkpt>
      <trkpt lat="46.56105" lon="5.22485">
        <ele>180.39999389648</ele>
        <time>2021-12-30T13:09:43.000Z</time>
      </trkpt>
      <trkpt lat="46.56127" lon="5.22558">
        <ele>180.60000610352</ele>
        <time>2021-12-30T13:09:50.000Z</time>
      </trkpt>
      <trkpt lat="46.56133" lon="5.22579">
        <ele>180.60000610352</ele>
        <time>2021-12-30T13:09:52.000Z</time>
      </trkpt>
      <trkpt lat="46.56158" lon="5.22649">
        <ele>180.60000610352</ele>
        <time>2021-12-30T13:09:59.000Z</time>
      </trkpt>
      <trkpt lat="46.56172" lon="5.22688">
        <ele>180.80000305176</ele>
        <time>2021-12-30T13:10:03.000Z</time>
      </trkpt>
      <trkpt lat="46.56196" lon="5.22751">
        <ele>181.19999694824</ele>
        <time>2021-12-30T13:10:10.000Z</time>
      </trkpt>
      <trkpt lat="46.56205" lon="5.22774">
        <ele>181.80000305176</ele>
        <time>2021-12-30T13:10:13.000Z</time>
      </trkpt>
      <trkpt lat="46.56214" lon="5.22797">
        <ele>183</ele>
        <time>2021-12-30T13:10:16.000Z</time>
      </trkpt>
      <trkpt lat="46.56217" lon="5.22805">
        <ele>183</ele>
        <time>2021-12-30T13:10:17.000Z</time>
      </trkpt>
      <trkpt lat="46.56225" lon="5.22826">
        <ele>184.19999694824</ele>
        <time>2021-12-30T13:10:20.000Z</time>
      </trkpt>
      <trkpt lat="46.56233" lon="5.22845">
        <ele>185.19999694824</ele>
        <time>2021-12-30T13:10:23.000Z</time>
      </trkpt>
      <trkpt lat="46.56235" lon="5.22851">
        <ele>185.39999389648</ele>
        <time>2021-12-30T13:10:24.000Z</time>
      </trkpt>
      <trkpt lat="46.56239" lon="5.22862">
        <ele>185.80000305176</ele>
        <time>2021-12-30T13:10:26.000Z</time>
      </trkpt>
      <trkpt lat="46.56243" lon="5.22872">
        <ele>186.39999389648</ele>
        <time>2021-12-30T13:10:28.000Z</time>
      </trkpt>
      <trkpt lat="46.56247" lon="5.22883">
        <ele>187</ele>
        <time>2021-12-30T13:10:30.000Z</time>
      </trkpt>
      <trkpt lat="46.56252" lon="5.22892">
        <ele>187.60000610352</ele>
        <time>2021-12-30T13:10:32.000Z</time>
      </trkpt>
      <trkpt lat="46.56259" lon="5.22905">
        <ele>188.60000610352</ele>
        <time>2021-12-30T13:10:35.000Z</time>
      </trkpt>
      <trkpt lat="46.5626" lon="5.2291">
        <ele>189</ele>
        <time>2021-12-30T13:10:36.000Z</time>
      </trkpt>
      <trkpt lat="46.56269" lon="5.22928">
        <ele>189.80000305176</ele>
        <time>2021-12-30T13:10:40.000Z</time>
      </trkpt>
      <trkpt lat="46.56271" lon="5.22933">
        <ele>190.19999694824</ele>
        <time>2021-12-30T13:10:41.000Z</time>
      </trkpt>
      <trkpt lat="46.5628" lon="5.22956">
        <ele>191.39999389648</ele>
        <time>2021-12-30T13:10:45.000Z</time>
      </trkpt>
      <trkpt lat="46.56292" lon="5.22979">
        <ele>192.39999389648</ele>
        <time>2021-12-30T13:10:50.000Z</time>
      </trkpt>
      <trkpt lat="46.56297" lon="5.22991">
        <ele>192.60000610352</ele>
        <time>2021-12-30T13:10:52.000Z</time>
      </trkpt>
      <trkpt lat="46.56302" lon="5.23011">
        <ele>193.60000610352</ele>
        <time>2021-12-30T13:10:55.000Z</time>
      </trkpt>
      <trkpt lat="46.56308" lon="5.23033">
        <ele>194.19999694824</ele>
        <time>2021-12-30T13:10:58.000Z</time>
      </trkpt>
      <trkpt lat="46.56313" lon="5.23047">
        <ele>194.80000305176</ele>
        <time>2021-12-30T13:11:00.000Z</time>
      </trkpt>
      <trkpt lat="46.56323" lon="5.23064">
        <ele>195.19999694824</ele>
        <time>2021-12-30T13:11:03.000Z</time>
      </trkpt>
      <trkpt lat="46.56334" lon="5.23086">
        <ele>195.80000305176</ele>
        <time>2021-12-30T13:11:06.000Z</time>
      </trkpt>
      <trkpt lat="46.56338" lon="5.23095">
        <ele>196.19999694824</ele>
        <time>2021-12-30T13:11:07.000Z</time>
      </trkpt>
      <trkpt lat="46.56342" lon="5.23114">
        <ele>196.39999389648</ele>
        <time>2021-12-30T13:11:09.000Z</time>
      </trkpt>
      <trkpt lat="46.56347" lon="5.23141">
        <ele>196.80000305176</ele>
        <time>2021-12-30T13:11:12.000Z</time>
      </trkpt>
      <trkpt lat="46.5635" lon="5.23148">
        <ele>196.80000305176</ele>
        <time>2021-12-30T13:11:13.000Z</time>
      </trkpt>
      <trkpt lat="46.56362" lon="5.23179">
        <ele>197</ele>
        <time>2021-12-30T13:11:17.000Z</time>
      </trkpt>
      <trkpt lat="46.56363" lon="5.23186">
        <ele>197.19999694824</ele>
        <time>2021-12-30T13:11:18.000Z</time>
      </trkpt>
      <trkpt lat="46.56365" lon="5.23192">
        <ele>197.19999694824</ele>
        <time>2021-12-30T13:11:19.000Z</time>
      </trkpt>
      <trkpt lat="46.56378" lon="5.23223">
        <ele>197.39999389648</ele>
        <time>2021-12-30T13:11:23.000Z</time>
      </trkpt>
      <trkpt lat="46.564" lon="5.23284">
        <ele>197</ele>
        <time>2021-12-30T13:11:30.000Z</time>
      </trkpt>
      <trkpt lat="46.56403" lon="5.23292">
        <ele>197</ele>
        <time>2021-12-30T13:11:31.000Z</time>
      </trkpt>
      <trkpt lat="46.5642" lon="5.2334">
        <ele>196.80000305176</ele>
        <time>2021-12-30T13:11:36.000Z</time>
      </trkpt>
      <trkpt lat="46.56448" lon="5.23407">
        <ele>196.60000610352</ele>
        <time>2021-12-30T13:11:43.000Z</time>
      </trkpt>
      <trkpt lat="46.56481" lon="5.23466">
        <ele>196.39999389648</ele>
        <time>2021-12-30T13:11:50.000Z</time>
      </trkpt>
      <trkpt lat="46.56514" lon="5.23511">
        <ele>196.39999389648</ele>
        <time>2021-12-30T13:11:56.000Z</time>
      </trkpt>
      <trkpt lat="46.56558" lon="5.23569">
        <ele>196.39999389648</ele>
        <time>2021-12-30T13:12:04.000Z</time>
      </trkpt>
      <trkpt lat="46.56564" lon="5.23575">
        <ele>196.39999389648</ele>
        <time>2021-12-30T13:12:05.000Z</time>
      </trkpt>
      <trkpt lat="46.56604" lon="5.23602">
        <ele>196.39999389648</ele>
        <time>2021-12-30T13:12:11.000Z</time>
      </trkpt>
      <trkpt lat="46.56653" lon="5.23637">
        <ele>196</ele>
        <time>2021-12-30T13:12:18.000Z</time>
      </trkpt>
      <trkpt lat="46.56679" lon="5.23666">
        <ele>195.60000610352</ele>
        <time>2021-12-30T13:12:22.000Z</time>
      </trkpt>
      <trkpt lat="46.56692" lon="5.23683">
        <ele>195.19999694824</ele>
        <time>2021-12-30T13:12:24.000Z</time>
      </trkpt>
      <trkpt lat="46.56711" lon="5.23711">
        <ele>194.39999389648</ele>
        <time>2021-12-30T13:12:27.000Z</time>
      </trkpt>
      <trkpt lat="46.5673" lon="5.23741">
        <ele>193.39999389648</ele>
        <time>2021-12-30T13:12:30.000Z</time>
      </trkpt>
      <trkpt lat="46.56736" lon="5.2375">
        <ele>193.19999694824</ele>
        <time>2021-12-30T13:12:31.000Z</time>
      </trkpt>
      <trkpt lat="46.56752" lon="5.23781">
        <ele>192.19999694824</ele>
        <time>2021-12-30T13:12:34.000Z</time>
      </trkpt>
      <trkpt lat="46.56767" lon="5.23812">
        <ele>192</ele>
        <time>2021-12-30T13:12:37.000Z</time>
      </trkpt>
      <trkpt lat="46.56795" lon="5.23855">
        <ele>192</ele>
        <time>2021-12-30T13:12:42.000Z</time>
      </trkpt>
      <trkpt lat="46.56829" lon="5.23883">
        <ele>192.60000610352</ele>
        <time>2021-12-30T13:12:47.000Z</time>
      </trkpt>
      <trkpt lat="46.56863" lon="5.23904">
        <ele>193.19999694824</ele>
        <time>2021-12-30T13:12:52.000Z</time>
      </trkpt>
      <trkpt lat="46.56876" lon="5.23912">
        <ele>193.60000610352</ele>
        <time>2021-12-30T13:12:54.000Z</time>
      </trkpt>
      <trkpt lat="46.56896" lon="5.23925">
        <ele>194.19999694824</ele>
        <time>2021-12-30T13:12:57.000Z</time>
      </trkpt>
      <trkpt lat="46.5693" lon="5.23944">
        <ele>195.19999694824</ele>
        <time>2021-12-30T13:13:02.000Z</time>
      </trkpt>
      <trkpt lat="46.56937" lon="5.23947">
        <ele>195.39999389648</ele>
        <time>2021-12-30T13:13:03.000Z</time>
      </trkpt>
      <trkpt lat="46.56983" lon="5.23962">
        <ele>196</ele>
        <time>2021-12-30T13:13:09.000Z</time>
      </trkpt>
      <trkpt lat="46.57042" lon="5.23979">
        <ele>196.19999694824</ele>
        <time>2021-12-30T13:13:17.000Z</time>
      </trkpt>
      <trkpt lat="46.57102" lon="5.23998">
        <ele>196.19999694824</ele>
        <time>2021-12-30T13:13:25.000Z</time>
      </trkpt>
      <trkpt lat="46.57109" lon="5.24002">
        <ele>196.19999694824</ele>
        <time>2021-12-30T13:13:26.000Z</time>
      </trkpt>
      <trkpt lat="46.57136" lon="5.24026">
        <ele>196.19999694824</ele>
        <time>2021-12-30T13:13:30.000Z</time>
      </trkpt>
      <trkpt lat="46.57163" lon="5.24068">
        <ele>195.80000305176</ele>
        <time>2021-12-30T13:13:35.000Z</time>
      </trkpt>
      <trkpt lat="46.57187" lon="5.24124">
        <ele>194.80000305176</ele>
        <time>2021-12-30T13:13:40.000Z</time>
      </trkpt>
      <trkpt lat="46.57198" lon="5.24149">
        <ele>194.19999694824</ele>
        <time>2021-12-30T13:13:42.000Z</time>
      </trkpt>
      <trkpt lat="46.57204" lon="5.2416">
        <ele>193.39999389648</ele>
        <time>2021-12-30T13:13:43.000Z</time>
      </trkpt>
      <trkpt lat="46.5721" lon="5.24171">
        <ele>193</ele>
        <time>2021-12-30T13:13:44.000Z</time>
      </trkpt>
      <trkpt lat="46.57218" lon="5.2418">
        <ele>192.19999694824</ele>
        <time>2021-12-30T13:13:45.000Z</time>
      </trkpt>
      <trkpt lat="46.57228" lon="5.24186">
        <ele>191.80000305176</ele>
        <time>2021-12-30T13:13:46.000Z</time>
      </trkpt>
      <trkpt lat="46.57248" lon="5.24197">
        <ele>190.39999389648</ele>
        <time>2021-12-30T13:13:48.000Z</time>
      </trkpt>
      <trkpt lat="46.57258" lon="5.24204">
        <ele>190</ele>
        <time>2021-12-30T13:13:49.000Z</time>
      </trkpt>
      <trkpt lat="46.57267" lon="5.24213">
        <ele>189</ele>
        <time>2021-12-30T13:13:50.000Z</time>
      </trkpt>
      <trkpt lat="46.57275" lon="5.24224">
        <ele>188.19999694824</ele>
        <time>2021-12-30T13:13:51.000Z</time>
      </trkpt>
      <trkpt lat="46.57283" lon="5.24238">
        <ele>186.80000305176</ele>
        <time>2021-12-30T13:13:52.000Z</time>
      </trkpt>
      <trkpt lat="46.57289" lon="5.24253">
        <ele>186</ele>
        <time>2021-12-30T13:13:53.000Z</time>
      </trkpt>
      <trkpt lat="46.57294" lon="5.24269">
        <ele>185.60000610352</ele>
        <time>2021-12-30T13:13:54.000Z</time>
      </trkpt>
      <trkpt lat="46.57298" lon="5.24285">
        <ele>184.39999389648</ele>
        <time>2021-12-30T13:13:55.000Z</time>
      </trkpt>
      <trkpt lat="46.57304" lon="5.24319">
        <ele>182.60000610352</ele>
        <time>2021-12-30T13:13:57.000Z</time>
      </trkpt>
      <trkpt lat="46.57308" lon="5.24353">
        <ele>180.60000610352</ele>
        <time>2021-12-30T13:13:59.000Z</time>
      </trkpt>
      <trkpt lat="46.5731" lon="5.24404">
        <ele>178.60000610352</ele>
        <time>2021-12-30T13:14:02.000Z</time>
      </trkpt>
      <trkpt lat="46.57308" lon="5.24421">
        <ele>178.39999389648</ele>
        <time>2021-12-30T13:14:03.000Z</time>
      </trkpt>
      <trkpt lat="46.57305" lon="5.24437">
        <ele>177.60000610352</ele>
        <time>2021-12-30T13:14:04.000Z</time>
      </trkpt>
      <trkpt lat="46.57298" lon="5.24466">
        <ele>176.60000610352</ele>
        <time>2021-12-30T13:14:06.000Z</time>
      </trkpt>
      <trkpt lat="46.57294" lon="5.2448">
        <ele>176.39999389648</ele>
        <time>2021-12-30T13:14:07.000Z</time>
      </trkpt>
      <trkpt lat="46.57281" lon="5.24533">
        <ele>175.19999694824</ele>
        <time>2021-12-30T13:14:11.000Z</time>
      </trkpt>
      <trkpt lat="46.57279" lon="5.24546">
        <ele>175.19999694824</ele>
        <time>2021-12-30T13:14:12.000Z</time>
      </trkpt>
      <trkpt lat="46.57277" lon="5.24587">
        <ele>174.39999389648</ele>
        <time>2021-12-30T13:14:16.000Z</time>
      </trkpt>
      <trkpt lat="46.57277" lon="5.24594">
        <ele>174.39999389648</ele>
        <time>2021-12-30T13:14:18.000Z</time>
      </trkpt>
      <trkpt lat="46.57279" lon="5.24595">
        <ele>174.60000610352</ele>
        <time>2021-12-30T13:14:19.000Z</time>
      </trkpt>
      <trkpt lat="46.5728" lon="5.24589">
        <ele>174.60000610352</ele>
        <time>2021-12-30T13:14:21.000Z</time>
      </trkpt>
      <trkpt lat="46.57279" lon="5.24584">
        <ele>174.60000610352</ele>
        <time>2021-12-30T13:14:22.000Z</time>
      </trkpt>
      <trkpt lat="46.57277" lon="5.24574">
        <ele>174.60000610352</ele>
        <time>2021-12-30T13:14:24.000Z</time>
      </trkpt>
      <trkpt lat="46.57274" lon="5.24571">
        <ele>174.60000610352</ele>
        <time>2021-12-30T13:14:25.000Z</time>
      </trkpt>
      <trkpt lat="46.5727" lon="5.24569">
        <ele>174.60000610352</ele>
        <time>2021-12-30T13:14:26.000Z</time>
      </trkpt>
      <trkpt lat="46.57255" lon="5.24567">
        <ele>174.80000305176</ele>
        <time>2021-12-30T13:14:29.000Z</time>
      </trkpt>
      <trkpt lat="46.57216" lon="5.24564">
        <ele>175.19999694824</ele>
        <time>2021-12-30T13:14:36.000Z</time>
      </trkpt>
      <trkpt lat="46.57184" lon="5.24572">
        <ele>176</ele>
        <time>2021-12-30T13:14:42.000Z</time>
      </trkpt>
      <trkpt lat="46.57163" lon="5.24582">
        <ele>176.60000610352</ele>
        <time>2021-12-30T13:14:46.000Z</time>
      </trkpt>
      <trkpt lat="46.57144" lon="5.24594">
        <ele>176.80000305176</ele>
        <time>2021-12-30T13:14:50.000Z</time>
      </trkpt>
      <trkpt lat="46.57139" lon="5.24597">
        <ele>176.80000305176</ele>
        <time>2021-12-30T13:14:51.000Z</time>
      </trkpt>
      <trkpt lat="46.57134" lon="5.246">
        <ele>176.80000305176</ele>
        <time>2021-12-30T13:14:52.000Z</time>
      </trkpt>
      <trkpt lat="46.57121" lon="5.24611">
        <ele>177</ele>
        <time>2021-12-30T13:14:55.000Z</time>
      </trkpt>
      <trkpt lat="46.57116" lon="5.24613">
        <ele>177</ele>
        <time>2021-12-30T13:14:56.000Z</time>
      </trkpt>
      <trkpt lat="46.57113" lon="5.24614">
        <ele>177</ele>
        <time>2021-12-30T13:14:57.000Z</time>
      </trkpt>
      <trkpt lat="46.57106" lon="5.24611">
        <ele>177.19999694824</ele>
        <time>2021-12-30T13:14:59.000Z</time>
      </trkpt>
      <trkpt lat="46.57088" lon="5.24586">
        <ele>177.19999694824</ele>
        <time>2021-12-30T13:15:04.000Z</time>
      </trkpt>
      <trkpt lat="46.5708" lon="5.24576">
        <ele>177.19999694824</ele>
        <time>2021-12-30T13:15:06.000Z</time>
      </trkpt>
      <trkpt lat="46.5707" lon="5.24572">
        <ele>177.39999389648</ele>
        <time>2021-12-30T13:15:08.000Z</time>
      </trkpt>
      <trkpt lat="46.57059" lon="5.24575">
        <ele>177.39999389648</ele>
        <time>2021-12-30T13:15:10.000Z</time>
      </trkpt>
      <trkpt lat="46.57054" lon="5.24578">
        <ele>177.39999389648</ele>
        <time>2021-12-30T13:15:11.000Z</time>
      </trkpt>
      <trkpt lat="46.57041" lon="5.2459">
        <ele>177.60000610352</ele>
        <time>2021-12-30T13:15:14.000Z</time>
      </trkpt>
      <trkpt lat="46.57023" lon="5.24608">
        <ele>177.80000305176</ele>
        <time>2021-12-30T13:15:18.000Z</time>
      </trkpt>
      <trkpt lat="46.56997" lon="5.24638">
        <ele>178.19999694824</ele>
        <time>2021-12-30T13:15:25.000Z</time>
      </trkpt>
      <trkpt lat="46.56989" lon="5.24644">
        <ele>178.60000610352</ele>
        <time>2021-12-30T13:15:28.000Z</time>
      </trkpt>
      <trkpt lat="46.56986" lon="5.24645">
        <ele>179</ele>
        <time>2021-12-30T13:15:29.000Z</time>
      </trkpt>
      <trkpt lat="46.56973" lon="5.24648">
        <ele>179.60000610352</ele>
        <time>2021-12-30T13:15:32.000Z</time>
      </trkpt>
      <trkpt lat="46.56969" lon="5.24651">
        <ele>179.80000305176</ele>
        <time>2021-12-30T13:15:33.000Z</time>
      </trkpt>
      <trkpt lat="46.56965" lon="5.24658">
        <ele>179.80000305176</ele>
        <time>2021-12-30T13:15:34.000Z</time>
      </trkpt>
      <trkpt lat="46.56949" lon="5.24702">
        <ele>179.39999389648</ele>
        <time>2021-12-30T13:15:39.000Z</time>
      </trkpt>
      <trkpt lat="46.56929" lon="5.24761">
        <ele>178.39999389648</ele>
        <time>2021-12-30T13:15:45.000Z</time>
      </trkpt>
      <trkpt lat="46.56922" lon="5.24782">
        <ele>178</ele>
        <time>2021-12-30T13:15:47.000Z</time>
      </trkpt>
      <trkpt lat="46.56908" lon="5.24824">
        <ele>177.19999694824</ele>
        <time>2021-12-30T13:15:51.000Z</time>
      </trkpt>
      <trkpt lat="46.56893" lon="5.24863">
        <ele>176.80000305176</ele>
        <time>2021-12-30T13:15:55.000Z</time>
      </trkpt>
      <trkpt lat="46.56868" lon="5.24911">
        <ele>177</ele>
        <time>2021-12-30T13:16:01.000Z</time>
      </trkpt>
      <trkpt lat="46.56831" lon="5.24967">
        <ele>177.80000305176</ele>
        <time>2021-12-30T13:16:09.000Z</time>
      </trkpt>
      <trkpt lat="46.56822" lon="5.24982">
        <ele>178</ele>
        <time>2021-12-30T13:16:11.000Z</time>
      </trkpt>
      <trkpt lat="46.56813" lon="5.2501">
        <ele>178</ele>
        <time>2021-12-30T13:16:14.000Z</time>
      </trkpt>
      <trkpt lat="46.56809" lon="5.25062">
        <ele>177.80000305176</ele>
        <time>2021-12-30T13:16:19.000Z</time>
      </trkpt>
      <trkpt lat="46.56805" lon="5.25114">
        <ele>177.39999389648</ele>
        <time>2021-12-30T13:16:24.000Z</time>
      </trkpt>
      <trkpt lat="46.56788" lon="5.25185">
        <ele>176.60000610352</ele>
        <time>2021-12-30T13:16:31.000Z</time>
      </trkpt>
      <trkpt lat="46.56786" lon="5.25196">
        <ele>176.60000610352</ele>
        <time>2021-12-30T13:16:32.000Z</time>
      </trkpt>
      <trkpt lat="46.56783" lon="5.25228">
        <ele>176.39999389648</ele>
        <time>2021-12-30T13:16:35.000Z</time>
      </trkpt>
      <trkpt lat="46.56784" lon="5.25263">
        <ele>176.19999694824</ele>
        <time>2021-12-30T13:16:38.000Z</time>
      </trkpt>
      <trkpt lat="46.56788" lon="5.25285">
        <ele>176</ele>
        <time>2021-12-30T13:16:40.000Z</time>
      </trkpt>
      <trkpt lat="46.56807" lon="5.25361">
        <ele>175</ele>
        <time>2021-12-30T13:16:47.000Z</time>
      </trkpt>
      <trkpt lat="46.56809" lon="5.25372">
        <ele>174.80000305176</ele>
        <time>2021-12-30T13:16:48.000Z</time>
      </trkpt>
      <trkpt lat="46.56813" lon="5.25405">
        <ele>174.60000610352</ele>
        <time>2021-12-30T13:16:51.000Z</time>
      </trkpt>
      <trkpt lat="46.56813" lon="5.25427">
        <ele>174.60000610352</ele>
        <time>2021-12-30T13:16:53.000Z</time>
      </trkpt>
      <trkpt lat="46.56811" lon="5.2545">
        <ele>174.80000305176</ele>
        <time>2021-12-30T13:16:55.000Z</time>
      </trkpt>
      <trkpt lat="46.56807" lon="5.25471">
        <ele>174.80000305176</ele>
        <time>2021-12-30T13:16:57.000Z</time>
      </trkpt>
      <trkpt lat="46.56786" lon="5.25525">
        <ele>175.19999694824</ele>
        <time>2021-12-30T13:17:03.000Z</time>
      </trkpt>
      <trkpt lat="46.56765" lon="5.25575">
        <ele>175.60000610352</ele>
        <time>2021-12-30T13:17:09.000Z</time>
      </trkpt>
      <trkpt lat="46.56757" lon="5.2559">
        <ele>175.80000305176</ele>
        <time>2021-12-30T13:17:11.000Z</time>
      </trkpt>
      <trkpt lat="46.56743" lon="5.25612">
        <ele>176.19999694824</ele>
        <time>2021-12-30T13:17:14.000Z</time>
      </trkpt>
      <trkpt lat="46.56738" lon="5.25619">
        <ele>176.19999694824</ele>
        <time>2021-12-30T13:17:15.000Z</time>
      </trkpt>
      <trkpt lat="46.56697" lon="5.25669">
        <ele>176.80000305176</ele>
        <time>2021-12-30T13:17:23.000Z</time>
      </trkpt>
      <trkpt lat="46.5665" lon="5.25724">
        <ele>177.19999694824</ele>
        <time>2021-12-30T13:17:32.000Z</time>
      </trkpt>
      <trkpt lat="46.5664" lon="5.25736">
        <ele>177.19999694824</ele>
        <time>2021-12-30T13:17:34.000Z</time>
      </trkpt>
      <trkpt lat="46.56593" lon="5.2579">
        <ele>177.80000305176</ele>
        <time>2021-12-30T13:17:43.000Z</time>
      </trkpt>
      <trkpt lat="46.56588" lon="5.25796">
        <ele>177.80000305176</ele>
        <time>2021-12-30T13:17:44.000Z</time>
      </trkpt>
      <trkpt lat="46.5654" lon="5.25846">
        <ele>177.60000610352</ele>
        <time>2021-12-30T13:17:53.000Z</time>
      </trkpt>
      <trkpt lat="46.56534" lon="5.25852">
        <ele>177.60000610352</ele>
        <time>2021-12-30T13:17:54.000Z</time>
      </trkpt>
      <trkpt lat="46.56483" lon="5.259">
        <ele>177.80000305176</ele>
        <time>2021-12-30T13:18:03.000Z</time>
      </trkpt>
      <trkpt lat="46.56466" lon="5.25916">
        <ele>177.80000305176</ele>
        <time>2021-12-30T13:18:06.000Z</time>
      </trkpt>
      <trkpt lat="46.56418" lon="5.25961">
        <ele>177.80000305176</ele>
        <time>2021-12-30T13:18:14.000Z</time>
      </trkpt>
      <trkpt lat="46.56406" lon="5.25972">
        <ele>177.80000305176</ele>
        <time>2021-12-30T13:18:16.000Z</time>
      </trkpt>
      <trkpt lat="46.56358" lon="5.26017">
        <ele>177.80000305176</ele>
        <time>2021-12-30T13:18:24.000Z</time>
      </trkpt>
      <trkpt lat="46.56341" lon="5.26034">
        <ele>177.80000305176</ele>
        <time>2021-12-30T13:18:27.000Z</time>
      </trkpt>
      <trkpt lat="46.56306" lon="5.26067">
        <ele>178.19999694824</ele>
        <time>2021-12-30T13:18:33.000Z</time>
      </trkpt>
      <trkpt lat="46.56288" lon="5.26084">
        <ele>178.19999694824</ele>
        <time>2021-12-30T13:18:36.000Z</time>
      </trkpt>
      <trkpt lat="46.56238" lon="5.26132">
        <ele>178.39999389648</ele>
        <time>2021-12-30T13:18:45.000Z</time>
      </trkpt>
      <trkpt lat="46.56232" lon="5.26137">
        <ele>178.39999389648</ele>
        <time>2021-12-30T13:18:46.000Z</time>
      </trkpt>
      <trkpt lat="46.56195" lon="5.26173">
        <ele>178.80000305176</ele>
        <time>2021-12-30T13:18:53.000Z</time>
      </trkpt>
      <trkpt lat="46.56178" lon="5.26189">
        <ele>179.19999694824</ele>
        <time>2021-12-30T13:18:56.000Z</time>
      </trkpt>
      <trkpt lat="46.56148" lon="5.2621">
        <ele>179.39999389648</ele>
        <time>2021-12-30T13:19:01.000Z</time>
      </trkpt>
      <trkpt lat="46.56142" lon="5.26212">
        <ele>179.39999389648</ele>
        <time>2021-12-30T13:19:02.000Z</time>
      </trkpt>
      <trkpt lat="46.56123" lon="5.26215">
        <ele>179.60000610352</ele>
        <time>2021-12-30T13:19:05.000Z</time>
      </trkpt>
      <trkpt lat="46.5608" lon="5.26205">
        <ele>179.80000305176</ele>
        <time>2021-12-30T13:19:12.000Z</time>
      </trkpt>
      <trkpt lat="46.56046" lon="5.262">
        <ele>180.39999389648</ele>
        <time>2021-12-30T13:19:18.000Z</time>
      </trkpt>
      <trkpt lat="46.56017" lon="5.26197">
        <ele>181.80000305176</ele>
        <time>2021-12-30T13:19:24.000Z</time>
      </trkpt>
      <trkpt lat="46.56012" lon="5.26197">
        <ele>182.19999694824</ele>
        <time>2021-12-30T13:19:25.000Z</time>
      </trkpt>
      <trkpt lat="46.55998" lon="5.26198">
        <ele>183</ele>
        <time>2021-12-30T13:19:28.000Z</time>
      </trkpt>
      <trkpt lat="46.55979" lon="5.26199">
        <ele>184</ele>
        <time>2021-12-30T13:19:32.000Z</time>
      </trkpt>
      <trkpt lat="46.5597" lon="5.26199">
        <ele>184.19999694824</ele>
        <time>2021-12-30T13:19:34.000Z</time>
      </trkpt>
      <trkpt lat="46.55957" lon="5.26199">
        <ele>185</ele>
        <time>2021-12-30T13:19:37.000Z</time>
      </trkpt>
      <trkpt lat="46.55935" lon="5.26201">
        <ele>186.60000610352</ele>
        <time>2021-12-30T13:19:42.000Z</time>
      </trkpt>
      <trkpt lat="46.55915" lon="5.26201">
        <ele>187.80000305176</ele>
        <time>2021-12-30T13:19:47.000Z</time>
      </trkpt>
      <trkpt lat="46.55904" lon="5.26203">
        <ele>188.80000305176</ele>
        <time>2021-12-30T13:19:50.000Z</time>
      </trkpt>
      <trkpt lat="46.55901" lon="5.26203">
        <ele>189</ele>
        <time>2021-12-30T13:19:51.000Z</time>
      </trkpt>
      <trkpt lat="46.55884" lon="5.26206">
        <ele>190</ele>
        <time>2021-12-30T13:19:56.000Z</time>
      </trkpt>
      <trkpt lat="46.55871" lon="5.26207">
        <ele>191.19999694824</ele>
        <time>2021-12-30T13:20:00.000Z</time>
      </trkpt>
      <trkpt lat="46.55851" lon="5.26207">
        <ele>192.39999389648</ele>
        <time>2021-12-30T13:20:05.000Z</time>
      </trkpt>
      <trkpt lat="46.55838" lon="5.26206">
        <ele>193.39999389648</ele>
        <time>2021-12-30T13:20:08.000Z</time>
      </trkpt>
      <trkpt lat="46.55834" lon="5.26206">
        <ele>193.39999389648</ele>
        <time>2021-12-30T13:20:09.000Z</time>
      </trkpt>
      <trkpt lat="46.55802" lon="5.26206">
        <ele>194.60000610352</ele>
        <time>2021-12-30T13:20:16.000Z</time>
      </trkpt>
      <trkpt lat="46.55781" lon="5.26206">
        <ele>195</ele>
        <time>2021-12-30T13:20:20.000Z</time>
      </trkpt>
      <trkpt lat="46.55736" lon="5.26208">
        <ele>195</ele>
        <time>2021-12-30T13:20:28.000Z</time>
      </trkpt>
      <trkpt lat="46.55681" lon="5.26212">
        <ele>194.39999389648</ele>
        <time>2021-12-30T13:20:37.000Z</time>
      </trkpt>
      <trkpt lat="46.55674" lon="5.26212">
        <ele>194.39999389648</ele>
        <time>2021-12-30T13:20:38.000Z</time>
      </trkpt>
      <trkpt lat="46.55619" lon="5.26217">
        <ele>194.19999694824</ele>
        <time>2021-12-30T13:20:47.000Z</time>
      </trkpt>
      <trkpt lat="46.55595" lon="5.26217">
        <ele>194</ele>
        <time>2021-12-30T13:20:51.000Z</time>
      </trkpt>
      <trkpt lat="46.55583" lon="5.26214">
        <ele>194.19999694824</ele>
        <time>2021-12-30T13:20:53.000Z</time>
      </trkpt>
      <trkpt lat="46.55539" lon="5.26208">
        <ele>194.19999694824</ele>
        <time>2021-12-30T13:21:00.000Z</time>
      </trkpt>
      <trkpt lat="46.55493" lon="5.26215">
        <ele>194.19999694824</ele>
        <time>2021-12-30T13:21:07.000Z</time>
      </trkpt>
      <trkpt lat="46.55467" lon="5.26211">
        <ele>193.80000305176</ele>
        <time>2021-12-30T13:21:11.000Z</time>
      </trkpt>
      <trkpt lat="46.55461" lon="5.26209">
        <ele>193.60000610352</ele>
        <time>2021-12-30T13:21:12.000Z</time>
      </trkpt>
      <trkpt lat="46.55417" lon="5.26181">
        <ele>193.80000305176</ele>
        <time>2021-12-30T13:21:20.000Z</time>
      </trkpt>
      <trkpt lat="46.55376" lon="5.2615">
        <ele>194.19999694824</ele>
        <time>2021-12-30T13:21:28.000Z</time>
      </trkpt>
      <trkpt lat="46.55338" lon="5.26133">
        <ele>194.19999694824</ele>
        <time>2021-12-30T13:21:34.000Z</time>
      </trkpt>
      <trkpt lat="46.55292" lon="5.26122">
        <ele>193.80000305176</ele>
        <time>2021-12-30T13:21:41.000Z</time>
      </trkpt>
      <trkpt lat="46.55286" lon="5.26122">
        <ele>193.80000305176</ele>
        <time>2021-12-30T13:21:42.000Z</time>
      </trkpt>
      <trkpt lat="46.55261" lon="5.26128">
        <ele>193.80000305176</ele>
        <time>2021-12-30T13:21:46.000Z</time>
      </trkpt>
      <trkpt lat="46.55231" lon="5.26138">
        <ele>194.19999694824</ele>
        <time>2021-12-30T13:21:51.000Z</time>
      </trkpt>
      <trkpt lat="46.55225" lon="5.26138">
        <ele>194.19999694824</ele>
        <time>2021-12-30T13:21:52.000Z</time>
      </trkpt>
      <trkpt lat="46.55219" lon="5.26137">
        <ele>194.19999694824</ele>
        <time>2021-12-30T13:21:53.000Z</time>
      </trkpt>
      <trkpt lat="46.55203" lon="5.26129">
        <ele>194.39999389648</ele>
        <time>2021-12-30T13:21:56.000Z</time>
      </trkpt>
      <trkpt lat="46.55168" lon="5.26106">
        <ele>195.39999389648</ele>
        <time>2021-12-30T13:22:02.000Z</time>
      </trkpt>
      <trkpt lat="46.55114" lon="5.26075">
        <ele>194.19999694824</ele>
        <time>2021-12-30T13:22:10.000Z</time>
      </trkpt>
      <trkpt lat="46.55101" lon="5.26067">
        <ele>194</ele>
        <time>2021-12-30T13:22:12.000Z</time>
      </trkpt>
      <trkpt lat="46.55087" lon="5.26061">
        <ele>193.39999389648</ele>
        <time>2021-12-30T13:22:14.000Z</time>
      </trkpt>
      <trkpt lat="46.55079" lon="5.26059">
        <ele>192.80000305176</ele>
        <time>2021-12-30T13:22:15.000Z</time>
      </trkpt>
      <trkpt lat="46.55065" lon="5.26055">
        <ele>192.19999694824</ele>
        <time>2021-12-30T13:22:17.000Z</time>
      </trkpt>
      <trkpt lat="46.55024" lon="5.26047">
        <ele>191</ele>
        <time>2021-12-30T13:22:22.000Z</time>
      </trkpt>
      <trkpt lat="46.54997" lon="5.26045">
        <ele>189.80000305176</ele>
        <time>2021-12-30T13:22:25.000Z</time>
      </trkpt>
      <trkpt lat="46.54968" lon="5.26042">
        <ele>188.39999389648</ele>
        <time>2021-12-30T13:22:28.000Z</time>
      </trkpt>
      <trkpt lat="46.54947" lon="5.2604">
        <ele>187</ele>
        <time>2021-12-30T13:22:30.000Z</time>
      </trkpt>
      <trkpt lat="46.54926" lon="5.26038">
        <ele>186</ele>
        <time>2021-12-30T13:22:32.000Z</time>
      </trkpt>
      <trkpt lat="46.54904" lon="5.26036">
        <ele>184.39999389648</ele>
        <time>2021-12-30T13:22:34.000Z</time>
      </trkpt>
      <trkpt lat="46.54893" lon="5.26036">
        <ele>183.39999389648</ele>
        <time>2021-12-30T13:22:35.000Z</time>
      </trkpt>
      <trkpt lat="46.54882" lon="5.26035">
        <ele>183</ele>
        <time>2021-12-30T13:22:36.000Z</time>
      </trkpt>
      <trkpt lat="46.54871" lon="5.26034">
        <ele>182</ele>
        <time>2021-12-30T13:22:37.000Z</time>
      </trkpt>
      <trkpt lat="46.5485" lon="5.2603">
        <ele>181</ele>
        <time>2021-12-30T13:22:39.000Z</time>
      </trkpt>
      <trkpt lat="46.54831" lon="5.26024">
        <ele>179.60000610352</ele>
        <time>2021-12-30T13:22:41.000Z</time>
      </trkpt>
      <trkpt lat="46.54812" lon="5.26016">
        <ele>178.39999389648</ele>
        <time>2021-12-30T13:22:43.000Z</time>
      </trkpt>
      <trkpt lat="46.54778" lon="5.26002">
        <ele>177.80000305176</ele>
        <time>2021-12-30T13:22:47.000Z</time>
      </trkpt>
      <trkpt lat="46.54747" lon="5.25993">
        <ele>178</ele>
        <time>2021-12-30T13:22:51.000Z</time>
      </trkpt>
      <trkpt lat="46.54739" lon="5.25992">
        <ele>178</ele>
        <time>2021-12-30T13:22:52.000Z</time>
      </trkpt>
      <trkpt lat="46.54726" lon="5.25992">
        <ele>178.19999694824</ele>
        <time>2021-12-30T13:22:54.000Z</time>
      </trkpt>
      <trkpt lat="46.54707" lon="5.25994">
        <ele>178.80000305176</ele>
        <time>2021-12-30T13:22:57.000Z</time>
      </trkpt>
      <trkpt lat="46.54686" lon="5.25996">
        <ele>179.60000610352</ele>
        <time>2021-12-30T13:23:00.000Z</time>
      </trkpt>
      <trkpt lat="46.5466" lon="5.26">
        <ele>180.60000610352</ele>
        <time>2021-12-30T13:23:04.000Z</time>
      </trkpt>
      <trkpt lat="46.54654" lon="5.26001">
        <ele>180.80000305176</ele>
        <time>2021-12-30T13:23:05.000Z</time>
      </trkpt>
      <trkpt lat="46.546" lon="5.26009">
        <ele>181.60000610352</ele>
        <time>2021-12-30T13:23:13.000Z</time>
      </trkpt>
      <trkpt lat="46.54586" lon="5.26011">
        <ele>181.60000610352</ele>
        <time>2021-12-30T13:23:15.000Z</time>
      </trkpt>
      <trkpt lat="46.54573" lon="5.26014">
        <ele>181.80000305176</ele>
        <time>2021-12-30T13:23:17.000Z</time>
      </trkpt>
      <trkpt lat="46.54529" lon="5.26026">
        <ele>181.39999389648</ele>
        <time>2021-12-30T13:23:23.000Z</time>
      </trkpt>
      <trkpt lat="46.54494" lon="5.26047">
        <ele>180.60000610352</ele>
        <time>2021-12-30T13:23:28.000Z</time>
      </trkpt>
      <trkpt lat="46.54487" lon="5.26052">
        <ele>180.39999389648</ele>
        <time>2021-12-30T13:23:29.000Z</time>
      </trkpt>
      <trkpt lat="46.5444" lon="5.26091">
        <ele>179.60000610352</ele>
        <time>2021-12-30T13:23:36.000Z</time>
      </trkpt>
      <trkpt lat="46.54433" lon="5.26097">
        <ele>179.60000610352</ele>
        <time>2021-12-30T13:23:37.000Z</time>
      </trkpt>
      <trkpt lat="46.54383" lon="5.26143">
        <ele>179.19999694824</ele>
        <time>2021-12-30T13:23:45.000Z</time>
      </trkpt>
      <trkpt lat="46.54377" lon="5.26148">
        <ele>179.19999694824</ele>
        <time>2021-12-30T13:23:46.000Z</time>
      </trkpt>
      <trkpt lat="46.54341" lon="5.26167">
        <ele>179.80000305176</ele>
        <time>2021-12-30T13:23:52.000Z</time>
      </trkpt>
      <trkpt lat="46.54325" lon="5.26176">
        <ele>180.19999694824</ele>
        <time>2021-12-30T13:23:55.000Z</time>
      </trkpt>
      <trkpt lat="46.5432" lon="5.26178">
        <ele>180.60000610352</ele>
        <time>2021-12-30T13:23:56.000Z</time>
      </trkpt>
      <trkpt lat="46.54315" lon="5.26181">
        <ele>180.80000305176</ele>
        <time>2021-12-30T13:23:57.000Z</time>
      </trkpt>
      <trkpt lat="46.54291" lon="5.26191">
        <ele>181.60000610352</ele>
        <time>2021-12-30T13:24:02.000Z</time>
      </trkpt>
      <trkpt lat="46.54287" lon="5.26193">
        <ele>182</ele>
        <time>2021-12-30T13:24:03.000Z</time>
      </trkpt>
      <trkpt lat="46.54264" lon="5.26197">
        <ele>182.60000610352</ele>
        <time>2021-12-30T13:24:08.000Z</time>
      </trkpt>
      <trkpt lat="46.54259" lon="5.26196">
        <ele>183</ele>
        <time>2021-12-30T13:24:09.000Z</time>
      </trkpt>
      <trkpt lat="46.54239" lon="5.26186">
        <ele>184</ele>
        <time>2021-12-30T13:24:14.000Z</time>
      </trkpt>
      <trkpt lat="46.54224" lon="5.26169">
        <ele>185.19999694824</ele>
        <time>2021-12-30T13:24:19.000Z</time>
      </trkpt>
      <trkpt lat="46.54218" lon="5.26159">
        <ele>185.80000305176</ele>
        <time>2021-12-30T13:24:21.000Z</time>
      </trkpt>
      <trkpt lat="46.54212" lon="5.26152">
        <ele>186.39999389648</ele>
        <time>2021-12-30T13:24:23.000Z</time>
      </trkpt>
      <trkpt lat="46.54197" lon="5.26139">
        <ele>187.60000610352</ele>
        <time>2021-12-30T13:24:27.000Z</time>
      </trkpt>
      <trkpt lat="46.54186" lon="5.26135">
        <ele>188.80000305176</ele>
        <time>2021-12-30T13:24:30.000Z</time>
      </trkpt>
      <trkpt lat="46.54174" lon="5.26135">
        <ele>189.80000305176</ele>
        <time>2021-12-30T13:24:33.000Z</time>
      </trkpt>
      <trkpt lat="46.5415" lon="5.2614">
        <ele>191</ele>
        <time>2021-12-30T13:24:39.000Z</time>
      </trkpt>
      <trkpt lat="46.54146" lon="5.26142">
        <ele>191.39999389648</ele>
        <time>2021-12-30T13:24:40.000Z</time>
      </trkpt>
      <trkpt lat="46.54127" lon="5.26148">
        <ele>192.19999694824</ele>
        <time>2021-12-30T13:24:45.000Z</time>
      </trkpt>
      <trkpt lat="46.54124" lon="5.2615">
        <ele>192.19999694824</ele>
        <time>2021-12-30T13:24:46.000Z</time>
      </trkpt>
      <trkpt lat="46.54112" lon="5.26169">
        <ele>192.19999694824</ele>
        <time>2021-12-30T13:24:50.000Z</time>
      </trkpt>
      <trkpt lat="46.54108" lon="5.26174">
        <ele>192</ele>
        <time>2021-12-30T13:24:51.000Z</time>
      </trkpt>
      <trkpt lat="46.54095" lon="5.26185">
        <ele>191.80000305176</ele>
        <time>2021-12-30T13:24:54.000Z</time>
      </trkpt>
      <trkpt lat="46.54063" lon="5.26202">
        <ele>191.39999389648</ele>
        <time>2021-12-30T13:25:01.000Z</time>
      </trkpt>
      <trkpt lat="46.5405" lon="5.2621">
        <ele>191</ele>
        <time>2021-12-30T13:25:04.000Z</time>
      </trkpt>
      <trkpt lat="46.54032" lon="5.26219">
        <ele>190.60000610352</ele>
        <time>2021-12-30T13:25:08.000Z</time>
      </trkpt>
      <trkpt lat="46.54027" lon="5.26222">
        <ele>190.60000610352</ele>
        <time>2021-12-30T13:25:09.000Z</time>
      </trkpt>
      <trkpt lat="46.54012" lon="5.26241">
        <ele>190</ele>
        <time>2021-12-30T13:25:14.000Z</time>
      </trkpt>
      <trkpt lat="46.54007" lon="5.26251">
        <ele>190</ele>
        <time>2021-12-30T13:25:16.000Z</time>
      </trkpt>
      <trkpt lat="46.54004" lon="5.26257">
        <ele>189.80000305176</ele>
        <time>2021-12-30T13:25:17.000Z</time>
      </trkpt>
      <trkpt lat="46.53999" lon="5.26271">
        <ele>189</ele>
        <time>2021-12-30T13:25:19.000Z</time>
      </trkpt>
      <trkpt lat="46.53996" lon="5.26279">
        <ele>188.60000610352</ele>
        <time>2021-12-30T13:25:20.000Z</time>
      </trkpt>
      <trkpt lat="46.53984" lon="5.26313">
        <ele>187.60000610352</ele>
        <time>2021-12-30T13:25:24.000Z</time>
      </trkpt>
      <trkpt lat="46.53981" lon="5.26322">
        <ele>187</ele>
        <time>2021-12-30T13:25:25.000Z</time>
      </trkpt>
      <trkpt lat="46.53968" lon="5.26361">
        <ele>185.80000305176</ele>
        <time>2021-12-30T13:25:29.000Z</time>
      </trkpt>
      <trkpt lat="46.53961" lon="5.2638">
        <ele>184.80000305176</ele>
        <time>2021-12-30T13:25:31.000Z</time>
      </trkpt>
      <trkpt lat="46.53957" lon="5.2639">
        <ele>184.39999389648</ele>
        <time>2021-12-30T13:25:32.000Z</time>
      </trkpt>
      <trkpt lat="46.53934" lon="5.26456">
        <ele>183.19999694824</ele>
        <time>2021-12-30T13:25:39.000Z</time>
      </trkpt>
      <trkpt lat="46.53927" lon="5.26475">
        <ele>182.80000305176</ele>
        <time>2021-12-30T13:25:41.000Z</time>
      </trkpt>
      <trkpt lat="46.53918" lon="5.26503">
        <ele>181.80000305176</ele>
        <time>2021-12-30T13:25:44.000Z</time>
      </trkpt>
      <trkpt lat="46.53903" lon="5.26548">
        <ele>181.19999694824</ele>
        <time>2021-12-30T13:25:49.000Z</time>
      </trkpt>
      <trkpt lat="46.53897" lon="5.26564">
        <ele>180.60000610352</ele>
        <time>2021-12-30T13:25:51.000Z</time>
      </trkpt>
      <trkpt lat="46.53886" lon="5.2659">
        <ele>180</ele>
        <time>2021-12-30T13:25:55.000Z</time>
      </trkpt>
      <trkpt lat="46.53884" lon="5.26594">
        <ele>179.60000610352</ele>
        <time>2021-12-30T13:25:57.000Z</time>
      </trkpt>
      <trkpt lat="46.53884" lon="5.26594">
        <ele>179.39999389648</ele>
        <time>2021-12-30T13:25:58.000Z</time>
      </trkpt>
      <trkpt lat="46.53884" lon="5.26594">
        <ele>178.80000305176</ele>
        <time>2021-12-30T13:26:01.000Z</time>
      </trkpt>
      <trkpt lat="46.53888" lon="5.26585">
        <ele>178.19999694824</ele>
        <time>2021-12-30T13:27:08.000Z</time>
      </trkpt>
      <trkpt lat="46.5389" lon="5.26582">
        <ele>178.19999694824</ele>
        <time>2021-12-30T13:27:09.000Z</time>
      </trkpt>
      <trkpt lat="46.539" lon="5.26558">
        <ele>178.60000610352</ele>
        <time>2021-12-30T13:27:14.000Z</time>
      </trkpt>
      <trkpt lat="46.53904" lon="5.26546">
        <ele>178.80000305176</ele>
        <time>2021-12-30T13:27:16.000Z</time>
      </trkpt>
      <trkpt lat="46.53912" lon="5.26523">
        <ele>179.19999694824</ele>
        <time>2021-12-30T13:27:20.000Z</time>
      </trkpt>
      <trkpt lat="46.53914" lon="5.26517">
        <ele>179.19999694824</ele>
        <time>2021-12-30T13:27:21.000Z</time>
      </trkpt>
      <trkpt lat="46.53923" lon="5.26493">
        <ele>180.39999389648</ele>
        <time>2021-12-30T13:27:25.000Z</time>
      </trkpt>
      <trkpt lat="46.53927" lon="5.2648">
        <ele>180.80000305176</ele>
        <time>2021-12-30T13:27:27.000Z</time>
      </trkpt>
      <trkpt lat="46.53941" lon="5.26441">
        <ele>181.39999389648</ele>
        <time>2021-12-30T13:27:33.000Z</time>
      </trkpt>
      <trkpt lat="46.53948" lon="5.26422">
        <ele>181.80000305176</ele>
        <time>2021-12-30T13:27:36.000Z</time>
      </trkpt>
      <trkpt lat="46.53959" lon="5.2639">
        <ele>182.60000610352</ele>
        <time>2021-12-30T13:27:41.000Z</time>
      </trkpt>
      <trkpt lat="46.53965" lon="5.26371">
        <ele>182.80000305176</ele>
        <time>2021-12-30T13:27:44.000Z</time>
      </trkpt>
      <trkpt lat="46.53979" lon="5.26334">
        <ele>183.60000610352</ele>
        <time>2021-12-30T13:27:50.000Z</time>
      </trkpt>
      <trkpt lat="46.53987" lon="5.26311">
        <ele>184.19999694824</ele>
        <time>2021-12-30T13:27:54.000Z</time>
      </trkpt>
      <trkpt lat="46.53995" lon="5.26288">
        <ele>184.60000610352</ele>
        <time>2021-12-30T13:27:58.000Z</time>
      </trkpt>
      <trkpt lat="46.54004" lon="5.26268">
        <ele>185.80000305176</ele>
        <time>2021-12-30T13:28:02.000Z</time>
      </trkpt>
      <trkpt lat="46.54008" lon="5.26257">
        <ele>186</ele>
        <time>2021-12-30T13:28:04.000Z</time>
      </trkpt>
      <trkpt lat="46.54017" lon="5.26239">
        <ele>187</ele>
        <time>2021-12-30T13:28:08.000Z</time>
      </trkpt>
      <trkpt lat="46.54032" lon="5.26222">
        <ele>188.19999694824</ele>
        <time>2021-12-30T13:28:13.000Z</time>
      </trkpt>
      <trkpt lat="46.54036" lon="5.2622">
        <ele>188.19999694824</ele>
        <time>2021-12-30T13:28:14.000Z</time>
      </trkpt>
      <trkpt lat="46.5405" lon="5.26211">
        <ele>189.39999389648</ele>
        <time>2021-12-30T13:28:18.000Z</time>
      </trkpt>
      <trkpt lat="46.54066" lon="5.26202">
        <ele>190.19999694824</ele>
        <time>2021-12-30T13:28:22.000Z</time>
      </trkpt>
      <trkpt lat="46.54074" lon="5.26197">
        <ele>190.60000610352</ele>
        <time>2021-12-30T13:28:24.000Z</time>
      </trkpt>
      <trkpt lat="46.54082" lon="5.26193">
        <ele>190.60000610352</ele>
        <time>2021-12-30T13:28:26.000Z</time>
      </trkpt>
      <trkpt lat="46.54084" lon="5.2619">
        <ele>190.60000610352</ele>
        <time>2021-12-30T13:28:27.000Z</time>
      </trkpt>
      <trkpt lat="46.54085" lon="5.26186">
        <ele>190.80000305176</ele>
        <time>2021-12-30T13:28:28.000Z</time>
      </trkpt>
      <trkpt lat="46.54082" lon="5.26179">
        <ele>191</ele>
        <time>2021-12-30T13:28:30.000Z</time>
      </trkpt>
      <trkpt lat="46.5408" lon="5.26177">
        <ele>191.19999694824</ele>
        <time>2021-12-30T13:28:31.000Z</time>
      </trkpt>
      <trkpt lat="46.54079" lon="5.26177">
        <ele>191.39999389648</ele>
        <time>2021-12-30T13:28:33.000Z</time>
      </trkpt>
      <trkpt lat="46.54076" lon="5.26174">
        <ele>191.39999389648</ele>
        <time>2021-12-30T13:29:14.000Z</time>
      </trkpt>
      <trkpt lat="46.54068" lon="5.2617">
        <ele>191.39999389648</ele>
        <time>2021-12-30T13:29:17.000Z</time>
      </trkpt>
      <trkpt lat="46.54044" lon="5.26159">
        <ele>191.39999389648</ele>
        <time>2021-12-30T13:29:22.000Z</time>
      </trkpt>
      <trkpt lat="46.54009" lon="5.26149">
        <ele>191.60000610352</ele>
        <time>2021-12-30T13:29:28.000Z</time>
      </trkpt>
      <trkpt lat="46.53958" lon="5.26139">
        <ele>191.19999694824</ele>
        <time>2021-12-30T13:29:36.000Z</time>
      </trkpt>
      <trkpt lat="46.53902" lon="5.26123">
        <ele>191.19999694824</ele>
        <time>2021-12-30T13:29:45.000Z</time>
      </trkpt>
      <trkpt lat="46.53885" lon="5.26118">
        <ele>191.19999694824</ele>
        <time>2021-12-30T13:29:48.000Z</time>
      </trkpt>
      <trkpt lat="46.53862" lon="5.26107">
        <ele>191.60000610352</ele>
        <time>2021-12-30T13:29:52.000Z</time>
      </trkpt>
      <trkpt lat="46.53847" lon="5.26097">
        <ele>191.60000610352</ele>
        <time>2021-12-30T13:29:55.000Z</time>
      </trkpt>
      <trkpt lat="46.53803" lon="5.26063">
        <ele>192.60000610352</ele>
        <time>2021-12-30T13:30:04.000Z</time>
      </trkpt>
      <trkpt lat="46.53798" lon="5.2606">
        <ele>192.60000610352</ele>
        <time>2021-12-30T13:30:05.000Z</time>
      </trkpt>
      <trkpt lat="46.53766" lon="5.26047">
        <ele>193.19999694824</ele>
        <time>2021-12-30T13:30:11.000Z</time>
      </trkpt>
      <trkpt lat="46.53723" lon="5.26038">
        <ele>193.19999694824</ele>
        <time>2021-12-30T13:30:18.000Z</time>
      </trkpt>
      <trkpt lat="46.53672" lon="5.2603">
        <ele>192.60000610352</ele>
        <time>2021-12-30T13:30:26.000Z</time>
      </trkpt>
      <trkpt lat="46.53658" lon="5.26022">
        <ele>192.60000610352</ele>
        <time>2021-12-30T13:30:28.000Z</time>
      </trkpt>
      <trkpt lat="46.53648" lon="5.26012">
        <ele>192.39999389648</ele>
        <time>2021-12-30T13:30:30.000Z</time>
      </trkpt>
      <trkpt lat="46.53634" lon="5.25994">
        <ele>192.19999694824</ele>
        <time>2021-12-30T13:30:33.000Z</time>
      </trkpt>
      <trkpt lat="46.53624" lon="5.25976">
        <ele>192.19999694824</ele>
        <time>2021-12-30T13:30:36.000Z</time>
      </trkpt>
      <trkpt lat="46.53602" lon="5.2594">
        <ele>192.39999389648</ele>
        <time>2021-12-30T13:30:42.000Z</time>
      </trkpt>
      <trkpt lat="46.53575" lon="5.25898">
        <ele>193.80000305176</ele>
        <time>2021-12-30T13:30:49.000Z</time>
      </trkpt>
      <trkpt lat="46.53559" lon="5.25877">
        <ele>194.19999694824</ele>
        <time>2021-12-30T13:30:53.000Z</time>
      </trkpt>
      <trkpt lat="46.53544" lon="5.25864">
        <ele>194.39999389648</ele>
        <time>2021-12-30T13:30:56.000Z</time>
      </trkpt>
      <trkpt lat="46.53533" lon="5.25858">
        <ele>194.39999389648</ele>
        <time>2021-12-30T13:30:58.000Z</time>
      </trkpt>
      <trkpt lat="46.535" lon="5.25847">
        <ele>194.19999694824</ele>
        <time>2021-12-30T13:31:03.000Z</time>
      </trkpt>
      <trkpt lat="46.53447" lon="5.25837">
        <ele>193.19999694824</ele>
        <time>2021-12-30T13:31:10.000Z</time>
      </trkpt>
      <trkpt lat="46.53424" lon="5.2583">
        <ele>192.60000610352</ele>
        <time>2021-12-30T13:31:13.000Z</time>
      </trkpt>
      <trkpt lat="46.53402" lon="5.25819">
        <ele>192.39999389648</ele>
        <time>2021-12-30T13:31:16.000Z</time>
      </trkpt>
      <trkpt lat="46.53358" lon="5.25788">
        <ele>192.19999694824</ele>
        <time>2021-12-30T13:31:23.000Z</time>
      </trkpt>
      <trkpt lat="46.53327" lon="5.25759">
        <ele>192.60000610352</ele>
        <time>2021-12-30T13:31:29.000Z</time>
      </trkpt>
      <trkpt lat="46.53303" lon="5.25725">
        <ele>193.60000610352</ele>
        <time>2021-12-30T13:31:35.000Z</time>
      </trkpt>
      <trkpt lat="46.53296" lon="5.25715">
        <ele>194</ele>
        <time>2021-12-30T13:31:37.000Z</time>
      </trkpt>
      <trkpt lat="46.53283" lon="5.25699">
        <ele>194.80000305176</ele>
        <time>2021-12-30T13:31:40.000Z</time>
      </trkpt>
      <trkpt lat="46.53275" lon="5.25691">
        <ele>195.60000610352</ele>
        <time>2021-12-30T13:31:42.000Z</time>
      </trkpt>
      <trkpt lat="46.53269" lon="5.25685">
        <ele>195.80000305176</ele>
        <time>2021-12-30T13:31:43.000Z</time>
      </trkpt>
      <trkpt lat="46.53264" lon="5.25681">
        <ele>195.80000305176</ele>
        <time>2021-12-30T13:31:44.000Z</time>
      </trkpt>
      <trkpt lat="46.5325" lon="5.25672">
        <ele>196.39999389648</ele>
        <time>2021-12-30T13:31:47.000Z</time>
      </trkpt>
      <trkpt lat="46.53214" lon="5.25649">
        <ele>197</ele>
        <time>2021-12-30T13:31:54.000Z</time>
      </trkpt>
      <trkpt lat="46.53208" lon="5.25645">
        <ele>197</ele>
        <time>2021-12-30T13:31:55.000Z</time>
      </trkpt>
      <trkpt lat="46.53172" lon="5.25629">
        <ele>197.60000610352</ele>
        <time>2021-12-30T13:32:02.000Z</time>
      </trkpt>
      <trkpt lat="46.53124" lon="5.25628">
        <ele>197.80000305176</ele>
        <time>2021-12-30T13:32:10.000Z</time>
      </trkpt>
      <trkpt lat="46.53082" lon="5.25624">
        <ele>197.80000305176</ele>
        <time>2021-12-30T13:32:17.000Z</time>
      </trkpt>
      <trkpt lat="46.53043" lon="5.25606">
        <ele>198</ele>
        <time>2021-12-30T13:32:24.000Z</time>
      </trkpt>
      <trkpt lat="46.53037" lon="5.25603">
        <ele>198</ele>
        <time>2021-12-30T13:32:25.000Z</time>
      </trkpt>
      <trkpt lat="46.52981" lon="5.25576">
        <ele>198.19999694824</ele>
        <time>2021-12-30T13:32:35.000Z</time>
      </trkpt>
      <trkpt lat="46.52958" lon="5.25565">
        <ele>198.19999694824</ele>
        <time>2021-12-30T13:32:39.000Z</time>
      </trkpt>
      <trkpt lat="46.52919" lon="5.25546">
        <ele>198.19999694824</ele>
        <time>2021-12-30T13:32:46.000Z</time>
      </trkpt>
      <trkpt lat="46.52871" lon="5.25522">
        <ele>198.19999694824</ele>
        <time>2021-12-30T13:32:54.000Z</time>
      </trkpt>
      <trkpt lat="46.52814" lon="5.25499">
        <ele>198.19999694824</ele>
        <time>2021-12-30T13:33:03.000Z</time>
      </trkpt>
      <trkpt lat="46.52801" lon="5.25495">
        <ele>198.19999694824</ele>
        <time>2021-12-30T13:33:05.000Z</time>
      </trkpt>
      <trkpt lat="46.52747" lon="5.25479">
        <ele>198.60000610352</ele>
        <time>2021-12-30T13:33:14.000Z</time>
      </trkpt>
      <trkpt lat="46.5274" lon="5.25476">
        <ele>198.60000610352</ele>
        <time>2021-12-30T13:33:15.000Z</time>
      </trkpt>
      <trkpt lat="46.52729" lon="5.25472">
        <ele>198.60000610352</ele>
        <time>2021-12-30T13:33:17.000Z</time>
      </trkpt>
      <trkpt lat="46.52719" lon="5.25465">
        <ele>198.60000610352</ele>
        <time>2021-12-30T13:33:19.000Z</time>
      </trkpt>
      <trkpt lat="46.52703" lon="5.25439">
        <ele>198.60000610352</ele>
        <time>2021-12-30T13:33:23.000Z</time>
      </trkpt>
      <trkpt lat="46.52698" lon="5.25433">
        <ele>198.60000610352</ele>
        <time>2021-12-30T13:33:24.000Z</time>
      </trkpt>
      <trkpt lat="46.52674" lon="5.25397">
        <ele>198.60000610352</ele>
        <time>2021-12-30T13:33:29.000Z</time>
      </trkpt>
      <trkpt lat="46.52644" lon="5.2535">
        <ele>199</ele>
        <time>2021-12-30T13:33:35.000Z</time>
      </trkpt>
      <trkpt lat="46.52628" lon="5.25304">
        <ele>199.19999694824</ele>
        <time>2021-12-30T13:33:40.000Z</time>
      </trkpt>
      <trkpt lat="46.52623" lon="5.25274">
        <ele>199.60000610352</ele>
        <time>2021-12-30T13:33:43.000Z</time>
      </trkpt>
      <trkpt lat="46.52621" lon="5.25242">
        <ele>199.60000610352</ele>
        <time>2021-12-30T13:33:46.000Z</time>
      </trkpt>
      <trkpt lat="46.52618" lon="5.25167">
        <ele>199.60000610352</ele>
        <time>2021-12-30T13:33:53.000Z</time>
      </trkpt>
      <trkpt lat="46.52615" lon="5.25083">
        <ele>199.19999694824</ele>
        <time>2021-12-30T13:34:01.000Z</time>
      </trkpt>
      <trkpt lat="46.52612" lon="5.25041">
        <ele>199</ele>
        <time>2021-12-30T13:34:05.000Z</time>
      </trkpt>
      <trkpt lat="46.526" lon="5.24955">
        <ele>198.80000305176</ele>
        <time>2021-12-30T13:34:13.000Z</time>
      </trkpt>
      <trkpt lat="46.52591" lon="5.2487">
        <ele>198.19999694824</ele>
        <time>2021-12-30T13:34:21.000Z</time>
      </trkpt>
      <trkpt lat="46.52589" lon="5.24786">
        <ele>198</ele>
        <time>2021-12-30T13:34:29.000Z</time>
      </trkpt>
      <trkpt lat="46.52588" lon="5.24775">
        <ele>198</ele>
        <time>2021-12-30T13:34:30.000Z</time>
      </trkpt>
      <trkpt lat="46.52585" lon="5.24694">
        <ele>198</ele>
        <time>2021-12-30T13:34:38.000Z</time>
      </trkpt>
      <trkpt lat="46.52585" lon="5.24684">
        <ele>198</ele>
        <time>2021-12-30T13:34:39.000Z</time>
      </trkpt>
      <trkpt lat="46.52574" lon="5.24627">
        <ele>198.19999694824</ele>
        <time>2021-12-30T13:34:45.000Z</time>
      </trkpt>
      <trkpt lat="46.52547" lon="5.2455">
        <ele>198</ele>
        <time>2021-12-30T13:34:53.000Z</time>
      </trkpt>
      <trkpt lat="46.5254" lon="5.2453">
        <ele>197.80000305176</ele>
        <time>2021-12-30T13:34:55.000Z</time>
      </trkpt>
      <trkpt lat="46.52521" lon="5.24468">
        <ele>197</ele>
        <time>2021-12-30T13:35:01.000Z</time>
      </trkpt>
      <trkpt lat="46.52518" lon="5.24457">
        <ele>196.80000305176</ele>
        <time>2021-12-30T13:35:02.000Z</time>
      </trkpt>
      <trkpt lat="46.52508" lon="5.24399">
        <ele>196</ele>
        <time>2021-12-30T13:35:07.000Z</time>
      </trkpt>
      <trkpt lat="46.52505" lon="5.24376">
        <ele>195.80000305176</ele>
        <time>2021-12-30T13:35:09.000Z</time>
      </trkpt>
      <trkpt lat="46.52495" lon="5.24298">
        <ele>195.60000610352</ele>
        <time>2021-12-30T13:35:16.000Z</time>
      </trkpt>
      <trkpt lat="46.52494" lon="5.24288">
        <ele>195.60000610352</ele>
        <time>2021-12-30T13:35:17.000Z</time>
      </trkpt>
      <trkpt lat="46.52486" lon="5.24227">
        <ele>195.60000610352</ele>
        <time>2021-12-30T13:35:23.000Z</time>
      </trkpt>
      <trkpt lat="46.52478" lon="5.24174">
        <ele>196.39999389648</ele>
        <time>2021-12-30T13:35:29.000Z</time>
      </trkpt>
      <trkpt lat="46.52477" lon="5.24158">
        <ele>196.80000305176</ele>
        <time>2021-12-30T13:35:31.000Z</time>
      </trkpt>
      <trkpt lat="46.52476" lon="5.24151">
        <ele>197.19999694824</ele>
        <time>2021-12-30T13:35:32.000Z</time>
      </trkpt>
      <trkpt lat="46.52477" lon="5.24139">
        <ele>197.60000610352</ele>
        <time>2021-12-30T13:35:34.000Z</time>
      </trkpt>
      <trkpt lat="46.52478" lon="5.24128">
        <ele>198</ele>
        <time>2021-12-30T13:35:36.000Z</time>
      </trkpt>
      <trkpt lat="46.52477" lon="5.24124">
        <ele>198</ele>
        <time>2021-12-30T13:35:37.000Z</time>
      </trkpt>
      <trkpt lat="46.52474" lon="5.2412">
        <ele>198</ele>
        <time>2021-12-30T13:35:38.000Z</time>
      </trkpt>
      <trkpt lat="46.5247" lon="5.24118">
        <ele>198</ele>
        <time>2021-12-30T13:35:39.000Z</time>
      </trkpt>
      <trkpt lat="46.52459" lon="5.24117">
        <ele>198</ele>
        <time>2021-12-30T13:35:41.000Z</time>
      </trkpt>
      <trkpt lat="46.52426" lon="5.24109">
        <ele>198</ele>
        <time>2021-12-30T13:35:46.000Z</time>
      </trkpt>
      <trkpt lat="46.52368" lon="5.24096">
        <ele>197.39999389648</ele>
        <time>2021-12-30T13:35:54.000Z</time>
      </trkpt>
      <trkpt lat="46.52318" lon="5.24093">
        <ele>197</ele>
        <time>2021-12-30T13:36:01.000Z</time>
      </trkpt>
      <trkpt lat="46.52281" lon="5.24099">
        <ele>196.80000305176</ele>
        <time>2021-12-30T13:36:06.000Z</time>
      </trkpt>
      <trkpt lat="46.52252" lon="5.24105">
        <ele>196.80000305176</ele>
        <time>2021-12-30T13:36:10.000Z</time>
      </trkpt>
      <trkpt lat="46.52192" lon="5.24114">
        <ele>196.39999389648</ele>
        <time>2021-12-30T13:36:18.000Z</time>
      </trkpt>
      <trkpt lat="46.52138" lon="5.24122">
        <ele>195.80000305176</ele>
        <time>2021-12-30T13:36:25.000Z</time>
      </trkpt>
      <trkpt lat="46.52122" lon="5.24125">
        <ele>195.60000610352</ele>
        <time>2021-12-30T13:36:27.000Z</time>
      </trkpt>
      <trkpt lat="46.52079" lon="5.24132">
        <ele>194.60000610352</ele>
        <time>2021-12-30T13:36:32.000Z</time>
      </trkpt>
      <trkpt lat="46.52062" lon="5.24135">
        <ele>194</ele>
        <time>2021-12-30T13:36:34.000Z</time>
      </trkpt>
      <trkpt lat="46.52046" lon="5.24138">
        <ele>193.39999389648</ele>
        <time>2021-12-30T13:36:36.000Z</time>
      </trkpt>
      <trkpt lat="46.52002" lon="5.24145">
        <ele>192.19999694824</ele>
        <time>2021-12-30T13:36:41.000Z</time>
      </trkpt>
      <trkpt lat="46.51958" lon="5.24152">
        <ele>191.39999389648</ele>
        <time>2021-12-30T13:36:46.000Z</time>
      </trkpt>
      <trkpt lat="46.5195" lon="5.24153">
        <ele>190.80000305176</ele>
        <time>2021-12-30T13:36:47.000Z</time>
      </trkpt>
      <trkpt lat="46.51905" lon="5.24161">
        <ele>189.60000610352</ele>
        <time>2021-12-30T13:36:52.000Z</time>
      </trkpt>
      <trkpt lat="46.51879" lon="5.24165">
        <ele>188.80000305176</ele>
        <time>2021-12-30T13:36:55.000Z</time>
      </trkpt>
      <trkpt lat="46.51855" lon="5.24169">
        <ele>188.39999389648</ele>
        <time>2021-12-30T13:36:58.000Z</time>
      </trkpt>
      <trkpt lat="46.51833" lon="5.24173">
        <ele>188.39999389648</ele>
        <time>2021-12-30T13:37:01.000Z</time>
      </trkpt>
      <trkpt lat="46.51792" lon="5.2418">
        <ele>189.60000610352</ele>
        <time>2021-12-30T13:37:07.000Z</time>
      </trkpt>
      <trkpt lat="46.51778" lon="5.24182">
        <ele>190</ele>
        <time>2021-12-30T13:37:09.000Z</time>
      </trkpt>
      <trkpt lat="46.51739" lon="5.24188">
        <ele>190.80000305176</ele>
        <time>2021-12-30T13:37:15.000Z</time>
      </trkpt>
      <trkpt lat="46.51726" lon="5.24191">
        <ele>191</ele>
        <time>2021-12-30T13:37:17.000Z</time>
      </trkpt>
      <trkpt lat="46.51694" lon="5.24201">
        <ele>191.80000305176</ele>
        <time>2021-12-30T13:37:22.000Z</time>
      </trkpt>
      <trkpt lat="46.5166" lon="5.24213">
        <ele>192</ele>
        <time>2021-12-30T13:37:27.000Z</time>
      </trkpt>
      <trkpt lat="46.51613" lon="5.24232">
        <ele>192</ele>
        <time>2021-12-30T13:37:34.000Z</time>
      </trkpt>
      <trkpt lat="46.51564" lon="5.24252">
        <ele>190.39999389648</ele>
        <time>2021-12-30T13:37:41.000Z</time>
      </trkpt>
      <trkpt lat="46.51549" lon="5.24258">
        <ele>189.80000305176</ele>
        <time>2021-12-30T13:37:43.000Z</time>
      </trkpt>
      <trkpt lat="46.51533" lon="5.24263">
        <ele>189.39999389648</ele>
        <time>2021-12-30T13:37:45.000Z</time>
      </trkpt>
      <trkpt lat="46.51508" lon="5.24273">
        <ele>188.80000305176</ele>
        <time>2021-12-30T13:37:48.000Z</time>
      </trkpt>
      <trkpt lat="46.51492" lon="5.24279">
        <ele>188.19999694824</ele>
        <time>2021-12-30T13:37:50.000Z</time>
      </trkpt>
      <trkpt lat="46.51467" lon="5.24289">
        <ele>187</ele>
        <time>2021-12-30T13:37:53.000Z</time>
      </trkpt>
      <trkpt lat="46.51443" lon="5.24298">
        <ele>185.60000610352</ele>
        <time>2021-12-30T13:37:56.000Z</time>
      </trkpt>
      <trkpt lat="46.51419" lon="5.24308">
        <ele>185</ele>
        <time>2021-12-30T13:37:59.000Z</time>
      </trkpt>
      <trkpt lat="46.51395" lon="5.24317">
        <ele>184.60000610352</ele>
        <time>2021-12-30T13:38:02.000Z</time>
      </trkpt>
      <trkpt lat="46.51364" lon="5.2433">
        <ele>183.39999389648</ele>
        <time>2021-12-30T13:38:06.000Z</time>
      </trkpt>
      <trkpt lat="46.51356" lon="5.24333">
        <ele>183.19999694824</ele>
        <time>2021-12-30T13:38:07.000Z</time>
      </trkpt>
      <trkpt lat="46.51325" lon="5.24345">
        <ele>182.39999389648</ele>
        <time>2021-12-30T13:38:11.000Z</time>
      </trkpt>
      <trkpt lat="46.51294" lon="5.24357">
        <ele>181.39999389648</ele>
        <time>2021-12-30T13:38:15.000Z</time>
      </trkpt>
      <trkpt lat="46.51286" lon="5.2436">
        <ele>181.19999694824</ele>
        <time>2021-12-30T13:38:16.000Z</time>
      </trkpt>
      <trkpt lat="46.51254" lon="5.24372">
        <ele>180.19999694824</ele>
        <time>2021-12-30T13:38:20.000Z</time>
      </trkpt>
      <trkpt lat="46.51216" lon="5.24387">
        <ele>179.19999694824</ele>
        <time>2021-12-30T13:38:25.000Z</time>
      </trkpt>
      <trkpt lat="46.51208" lon="5.2439">
        <ele>179</ele>
        <time>2021-12-30T13:38:26.000Z</time>
      </trkpt>
      <trkpt lat="46.51149" lon="5.24413">
        <ele>178.60000610352</ele>
        <time>2021-12-30T13:38:34.000Z</time>
      </trkpt>
      <trkpt lat="46.51096" lon="5.24435">
        <ele>178.39999389648</ele>
        <time>2021-12-30T13:38:42.000Z</time>
      </trkpt>
      <trkpt lat="46.51089" lon="5.24437">
        <ele>178.19999694824</ele>
        <time>2021-12-30T13:38:43.000Z</time>
      </trkpt>
      <trkpt lat="46.51033" lon="5.24459">
        <ele>178.39999389648</ele>
        <time>2021-12-30T13:38:52.000Z</time>
      </trkpt>
      <trkpt lat="46.50977" lon="5.2448">
        <ele>178.80000305176</ele>
        <time>2021-12-30T13:39:01.000Z</time>
      </trkpt>
      <trkpt lat="46.50952" lon="5.24491">
        <ele>179</ele>
        <time>2021-12-30T13:39:05.000Z</time>
      </trkpt>
      <trkpt lat="46.50904" lon="5.24509">
        <ele>179.39999389648</ele>
        <time>2021-12-30T13:39:13.000Z</time>
      </trkpt>
      <trkpt lat="46.5085" lon="5.2453">
        <ele>180</ele>
        <time>2021-12-30T13:39:22.000Z</time>
      </trkpt>
      <trkpt lat="46.50793" lon="5.24553">
        <ele>180.60000610352</ele>
        <time>2021-12-30T13:39:32.000Z</time>
      </trkpt>
      <trkpt lat="46.50781" lon="5.24557">
        <ele>180.80000305176</ele>
        <time>2021-12-30T13:39:34.000Z</time>
      </trkpt>
      <trkpt lat="46.50764" lon="5.24565">
        <ele>181</ele>
        <time>2021-12-30T13:39:37.000Z</time>
      </trkpt>
      <trkpt lat="46.50735" lon="5.24574">
        <ele>181.60000610352</ele>
        <time>2021-12-30T13:39:42.000Z</time>
      </trkpt>
      <trkpt lat="46.50706" lon="5.24582">
        <ele>182.19999694824</ele>
        <time>2021-12-30T13:39:47.000Z</time>
      </trkpt>
      <trkpt lat="46.50688" lon="5.24585">
        <ele>182.39999389648</ele>
        <time>2021-12-30T13:39:50.000Z</time>
      </trkpt>
      <trkpt lat="46.50653" lon="5.2459">
        <ele>183.39999389648</ele>
        <time>2021-12-30T13:39:56.000Z</time>
      </trkpt>
      <trkpt lat="46.50635" lon="5.24592">
        <ele>183.80000305176</ele>
        <time>2021-12-30T13:39:59.000Z</time>
      </trkpt>
      <trkpt lat="46.50606" lon="5.24595">
        <ele>184.39999389648</ele>
        <time>2021-12-30T13:40:04.000Z</time>
      </trkpt>
      <trkpt lat="46.50582" lon="5.24598">
        <ele>185</ele>
        <time>2021-12-30T13:40:08.000Z</time>
      </trkpt>
      <trkpt lat="46.50528" lon="5.24606">
        <ele>185.39999389648</ele>
        <time>2021-12-30T13:40:17.000Z</time>
      </trkpt>
      <trkpt lat="46.50522" lon="5.24606">
        <ele>185.39999389648</ele>
        <time>2021-12-30T13:40:18.000Z</time>
      </trkpt>
      <trkpt lat="46.50467" lon="5.24601">
        <ele>184.80000305176</ele>
        <time>2021-12-30T13:40:26.000Z</time>
      </trkpt>
      <trkpt lat="46.50417" lon="5.24579">
        <ele>183.60000610352</ele>
        <time>2021-12-30T13:40:33.000Z</time>
      </trkpt>
      <trkpt lat="46.50391" lon="5.24561">
        <ele>183.39999389648</ele>
        <time>2021-12-30T13:40:37.000Z</time>
      </trkpt>
      <trkpt lat="46.50379" lon="5.24551">
        <ele>183</ele>
        <time>2021-12-30T13:40:39.000Z</time>
      </trkpt>
      <trkpt lat="46.5033" lon="5.24515">
        <ele>182.60000610352</ele>
        <time>2021-12-30T13:40:47.000Z</time>
      </trkpt>
      <trkpt lat="46.50311" lon="5.24502">
        <ele>182.60000610352</ele>
        <time>2021-12-30T13:40:50.000Z</time>
      </trkpt>
      <trkpt lat="46.50273" lon="5.24474">
        <ele>182.19999694824</ele>
        <time>2021-12-30T13:40:56.000Z</time>
      </trkpt>
      <trkpt lat="46.50253" lon="5.2446">
        <ele>182.19999694824</ele>
        <time>2021-12-30T13:40:59.000Z</time>
      </trkpt>
      <trkpt lat="46.50205" lon="5.24424">
        <ele>181.19999694824</ele>
        <time>2021-12-30T13:41:06.000Z</time>
      </trkpt>
      <trkpt lat="46.50192" lon="5.24414">
        <ele>180.80000305176</ele>
        <time>2021-12-30T13:41:08.000Z</time>
      </trkpt>
      <trkpt lat="46.50164" lon="5.24395">
        <ele>180.19999694824</ele>
        <time>2021-12-30T13:41:12.000Z</time>
      </trkpt>
      <trkpt lat="46.50136" lon="5.24377">
        <ele>179.80000305176</ele>
        <time>2021-12-30T13:41:16.000Z</time>
      </trkpt>
      <trkpt lat="46.50082" lon="5.24348">
        <ele>180</ele>
        <time>2021-12-30T13:41:24.000Z</time>
      </trkpt>
      <trkpt lat="46.50029" lon="5.24317">
        <ele>180.19999694824</ele>
        <time>2021-12-30T13:41:32.000Z</time>
      </trkpt>
      <trkpt lat="46.49988" lon="5.24295">
        <ele>180.19999694824</ele>
        <time>2021-12-30T13:41:38.000Z</time>
      </trkpt>
      <trkpt lat="46.49962" lon="5.24281">
        <ele>179.80000305176</ele>
        <time>2021-12-30T13:41:42.000Z</time>
      </trkpt>
      <trkpt lat="46.4995" lon="5.24272">
        <ele>179.80000305176</ele>
        <time>2021-12-30T13:41:44.000Z</time>
      </trkpt>
      <trkpt lat="46.49904" lon="5.24245">
        <ele>179.60000610352</ele>
        <time>2021-12-30T13:41:51.000Z</time>
      </trkpt>
      <trkpt lat="46.49869" lon="5.24226">
        <ele>180</ele>
        <time>2021-12-30T13:41:57.000Z</time>
      </trkpt>
      <trkpt lat="46.49836" lon="5.24206">
        <ele>181.19999694824</ele>
        <time>2021-12-30T13:42:03.000Z</time>
      </trkpt>
      <trkpt lat="46.49794" lon="5.24182">
        <ele>182.39999389648</ele>
        <time>2021-12-30T13:42:11.000Z</time>
      </trkpt>
      <trkpt lat="46.49768" lon="5.24168">
        <ele>183.39999389648</ele>
        <time>2021-12-30T13:42:16.000Z</time>
      </trkpt>
      <trkpt lat="46.49758" lon="5.24163">
        <ele>183.80000305176</ele>
        <time>2021-12-30T13:42:18.000Z</time>
      </trkpt>
      <trkpt lat="46.49738" lon="5.2415">
        <ele>184.60000610352</ele>
        <time>2021-12-30T13:42:22.000Z</time>
      </trkpt>
      <trkpt lat="46.4972" lon="5.2414">
        <ele>185.39999389648</ele>
        <time>2021-12-30T13:42:26.000Z</time>
      </trkpt>
      <trkpt lat="46.49711" lon="5.24135">
        <ele>186</ele>
        <time>2021-12-30T13:42:28.000Z</time>
      </trkpt>
      <trkpt lat="46.49688" lon="5.24122">
        <ele>186.80000305176</ele>
        <time>2021-12-30T13:42:33.000Z</time>
      </trkpt>
      <trkpt lat="46.49684" lon="5.2412">
        <ele>187</ele>
        <time>2021-12-30T13:42:34.000Z</time>
      </trkpt>
      <trkpt lat="46.49675" lon="5.24116">
        <ele>187.39999389648</ele>
        <time>2021-12-30T13:42:36.000Z</time>
      </trkpt>
      <trkpt lat="46.49661" lon="5.2411">
        <ele>188</ele>
        <time>2021-12-30T13:42:39.000Z</time>
      </trkpt>
      <trkpt lat="46.4963" lon="5.24101">
        <ele>189.19999694824</ele>
        <time>2021-12-30T13:42:46.000Z</time>
      </trkpt>
      <trkpt lat="46.49626" lon="5.241">
        <ele>189.19999694824</ele>
        <time>2021-12-30T13:42:47.000Z</time>
      </trkpt>
      <trkpt lat="46.49598" lon="5.24099">
        <ele>190.19999694824</ele>
        <time>2021-12-30T13:42:53.000Z</time>
      </trkpt>
      <trkpt lat="46.49589" lon="5.241">
        <ele>190.39999389648</ele>
        <time>2021-12-30T13:42:55.000Z</time>
      </trkpt>
      <trkpt lat="46.49567" lon="5.24104">
        <ele>191.19999694824</ele>
        <time>2021-12-30T13:43:00.000Z</time>
      </trkpt>
      <trkpt lat="46.49549" lon="5.24109">
        <ele>191.80000305176</ele>
        <time>2021-12-30T13:43:04.000Z</time>
      </trkpt>
      <trkpt lat="46.49535" lon="5.24115">
        <ele>192.60000610352</ele>
        <time>2021-12-30T13:43:07.000Z</time>
      </trkpt>
      <trkpt lat="46.49517" lon="5.24124">
        <ele>193.19999694824</ele>
        <time>2021-12-30T13:43:11.000Z</time>
      </trkpt>
      <trkpt lat="46.49504" lon="5.24131">
        <ele>193.60000610352</ele>
        <time>2021-12-30T13:43:14.000Z</time>
      </trkpt>
      <trkpt lat="46.49478" lon="5.24148">
        <ele>194.39999389648</ele>
        <time>2021-12-30T13:43:20.000Z</time>
      </trkpt>
      <trkpt lat="46.49465" lon="5.24156">
        <ele>194.60000610352</ele>
        <time>2021-12-30T13:43:23.000Z</time>
      </trkpt>
      <trkpt lat="46.49443" lon="5.24171">
        <ele>195.39999389648</ele>
        <time>2021-12-30T13:43:28.000Z</time>
      </trkpt>
      <trkpt lat="46.49434" lon="5.24177">
        <ele>195.80000305176</ele>
        <time>2021-12-30T13:43:30.000Z</time>
      </trkpt>
      <trkpt lat="46.49406" lon="5.24196">
        <ele>196.39999389648</ele>
        <time>2021-12-30T13:43:36.000Z</time>
      </trkpt>
      <trkpt lat="46.49391" lon="5.24205">
        <ele>197</ele>
        <time>2021-12-30T13:43:39.000Z</time>
      </trkpt>
      <trkpt lat="46.49359" lon="5.24228">
        <ele>197.60000610352</ele>
        <time>2021-12-30T13:43:45.000Z</time>
      </trkpt>
      <trkpt lat="46.49312" lon="5.24259">
        <ele>197.39999389648</ele>
        <time>2021-12-30T13:43:53.000Z</time>
      </trkpt>
      <trkpt lat="46.49259" lon="5.24295">
        <ele>197.60000610352</ele>
        <time>2021-12-30T13:44:02.000Z</time>
      </trkpt>
      <trkpt lat="46.49212" lon="5.24328">
        <ele>197.80000305176</ele>
        <time>2021-12-30T13:44:10.000Z</time>
      </trkpt>
      <trkpt lat="46.49174" lon="5.24354">
        <ele>197.80000305176</ele>
        <time>2021-12-30T13:44:16.000Z</time>
      </trkpt>
      <trkpt lat="46.49136" lon="5.24379">
        <ele>198</ele>
        <time>2021-12-30T13:44:22.000Z</time>
      </trkpt>
      <trkpt lat="46.49117" lon="5.24393">
        <ele>198</ele>
        <time>2021-12-30T13:44:25.000Z</time>
      </trkpt>
      <trkpt lat="46.49065" lon="5.24428">
        <ele>198.19999694824</ele>
        <time>2021-12-30T13:44:33.000Z</time>
      </trkpt>
      <trkpt lat="46.49046" lon="5.2444">
        <ele>198.19999694824</ele>
        <time>2021-12-30T13:44:36.000Z</time>
      </trkpt>
      <trkpt lat="46.48996" lon="5.24474">
        <ele>198.80000305176</ele>
        <time>2021-12-30T13:44:44.000Z</time>
      </trkpt>
      <trkpt lat="46.48979" lon="5.24485">
        <ele>199</ele>
        <time>2021-12-30T13:44:47.000Z</time>
      </trkpt>
      <trkpt lat="46.48973" lon="5.24489">
        <ele>199</ele>
        <time>2021-12-30T13:44:48.000Z</time>
      </trkpt>
      <trkpt lat="46.48927" lon="5.2452">
        <ele>199.80000305176</ele>
        <time>2021-12-30T13:44:56.000Z</time>
      </trkpt>
      <trkpt lat="46.48911" lon="5.2453">
        <ele>200.19999694824</ele>
        <time>2021-12-30T13:44:59.000Z</time>
      </trkpt>
      <trkpt lat="46.48863" lon="5.24563">
        <ele>201.19999694824</ele>
        <time>2021-12-30T13:45:08.000Z</time>
      </trkpt>
      <trkpt lat="46.48857" lon="5.24567">
        <ele>201.39999389648</ele>
        <time>2021-12-30T13:45:09.000Z</time>
      </trkpt>
      <trkpt lat="46.48815" lon="5.24595">
        <ele>202</ele>
        <time>2021-12-30T13:45:17.000Z</time>
      </trkpt>
      <trkpt lat="46.48799" lon="5.24606">
        <ele>202.60000610352</ele>
        <time>2021-12-30T13:45:20.000Z</time>
      </trkpt>
      <trkpt lat="46.48765" lon="5.24625">
        <ele>203</ele>
        <time>2021-12-30T13:45:26.000Z</time>
      </trkpt>
      <trkpt lat="46.48751" lon="5.24629">
        <ele>203</ele>
        <time>2021-12-30T13:45:28.000Z</time>
      </trkpt>
      <trkpt lat="46.48738" lon="5.24629">
        <ele>203</ele>
        <time>2021-12-30T13:45:30.000Z</time>
      </trkpt>
      <trkpt lat="46.48722" lon="5.24626">
        <ele>202.80000305176</ele>
        <time>2021-12-30T13:45:32.000Z</time>
      </trkpt>
      <trkpt lat="46.48701" lon="5.24619">
        <ele>202.60000610352</ele>
        <time>2021-12-30T13:45:35.000Z</time>
      </trkpt>
      <trkpt lat="46.4866" lon="5.24597">
        <ele>201.60000610352</ele>
        <time>2021-12-30T13:45:41.000Z</time>
      </trkpt>
      <trkpt lat="46.4864" lon="5.24586">
        <ele>201.39999389648</ele>
        <time>2021-12-30T13:45:44.000Z</time>
      </trkpt>
      <trkpt lat="46.48597" lon="5.24563">
        <ele>202.19999694824</ele>
        <time>2021-12-30T13:45:51.000Z</time>
      </trkpt>
      <trkpt lat="46.48573" lon="5.24544">
        <ele>202.60000610352</ele>
        <time>2021-12-30T13:45:55.000Z</time>
      </trkpt>
      <trkpt lat="46.48563" lon="5.24534">
        <ele>202.80000305176</ele>
        <time>2021-12-30T13:45:57.000Z</time>
      </trkpt>
      <trkpt lat="46.4852" lon="5.24481">
        <ele>202.60000610352</ele>
        <time>2021-12-30T13:46:05.000Z</time>
      </trkpt>
      <trkpt lat="46.4848" lon="5.24431">
        <ele>201.39999389648</ele>
        <time>2021-12-30T13:46:12.000Z</time>
      </trkpt>
      <trkpt lat="46.48454" lon="5.244">
        <ele>200.39999389648</ele>
        <time>2021-12-30T13:46:16.000Z</time>
      </trkpt>
      <trkpt lat="46.48425" lon="5.2437">
        <ele>200</ele>
        <time>2021-12-30T13:46:21.000Z</time>
      </trkpt>
      <trkpt lat="46.48394" lon="5.24347">
        <ele>199.80000305176</ele>
        <time>2021-12-30T13:46:26.000Z</time>
      </trkpt>
      <trkpt lat="46.48362" lon="5.24335">
        <ele>200.80000305176</ele>
        <time>2021-12-30T13:46:32.000Z</time>
      </trkpt>
      <trkpt lat="46.48357" lon="5.24333">
        <ele>201</ele>
        <time>2021-12-30T13:46:33.000Z</time>
      </trkpt>
      <trkpt lat="46.48345" lon="5.24321">
        <ele>201.80000305176</ele>
        <time>2021-12-30T13:46:36.000Z</time>
      </trkpt>
      <trkpt lat="46.48333" lon="5.24304">
        <ele>202.80000305176</ele>
        <time>2021-12-30T13:46:39.000Z</time>
      </trkpt>
      <trkpt lat="46.48325" lon="5.24293">
        <ele>203.19999694824</ele>
        <time>2021-12-30T13:46:41.000Z</time>
      </trkpt>
      <trkpt lat="46.48315" lon="5.24282">
        <ele>203.80000305176</ele>
        <time>2021-12-30T13:46:43.000Z</time>
      </trkpt>
      <trkpt lat="46.48309" lon="5.24279">
        <ele>204</ele>
        <time>2021-12-30T13:46:44.000Z</time>
      </trkpt>
      <trkpt lat="46.48303" lon="5.24276">
        <ele>204.19999694824</ele>
        <time>2021-12-30T13:46:45.000Z</time>
      </trkpt>
      <trkpt lat="46.48269" lon="5.24266">
        <ele>204.80000305176</ele>
        <time>2021-12-30T13:46:51.000Z</time>
      </trkpt>
      <trkpt lat="46.48257" lon="5.24263">
        <ele>205</ele>
        <time>2021-12-30T13:46:53.000Z</time>
      </trkpt>
      <trkpt lat="46.48216" lon="5.24253">
        <ele>205.60000610352</ele>
        <time>2021-12-30T13:47:00.000Z</time>
      </trkpt>
      <trkpt lat="46.48209" lon="5.24253">
        <ele>205.60000610352</ele>
        <time>2021-12-30T13:47:01.000Z</time>
      </trkpt>
      <trkpt lat="46.48191" lon="5.2426">
        <ele>205.60000610352</ele>
        <time>2021-12-30T13:47:04.000Z</time>
      </trkpt>
      <trkpt lat="46.48181" lon="5.2427">
        <ele>205.39999389648</ele>
        <time>2021-12-30T13:47:06.000Z</time>
      </trkpt>
      <trkpt lat="46.48165" lon="5.2429">
        <ele>205.39999389648</ele>
        <time>2021-12-30T13:47:09.000Z</time>
      </trkpt>
      <trkpt lat="46.48133" lon="5.2433">
        <ele>205.19999694824</ele>
        <time>2021-12-30T13:47:15.000Z</time>
      </trkpt>
      <trkpt lat="46.48103" lon="5.24365">
        <ele>203.80000305176</ele>
        <time>2021-12-30T13:47:20.000Z</time>
      </trkpt>
      <trkpt lat="46.48093" lon="5.24376">
        <ele>203.60000610352</ele>
        <time>2021-12-30T13:47:22.000Z</time>
      </trkpt>
      <trkpt lat="46.48046" lon="5.2442">
        <ele>203.39999389648</ele>
        <time>2021-12-30T13:47:30.000Z</time>
      </trkpt>
      <trkpt lat="46.4804" lon="5.24425">
        <ele>203.39999389648</ele>
        <time>2021-12-30T13:47:31.000Z</time>
      </trkpt>
      <trkpt lat="46.48018" lon="5.24438">
        <ele>203.60000610352</ele>
        <time>2021-12-30T13:47:34.000Z</time>
      </trkpt>
      <trkpt lat="46.48006" lon="5.24442">
        <ele>203.60000610352</ele>
        <time>2021-12-30T13:47:36.000Z</time>
      </trkpt>
      <trkpt lat="46.47998" lon="5.24446">
        <ele>203.60000610352</ele>
        <time>2021-12-30T13:47:37.000Z</time>
      </trkpt>
      <trkpt lat="46.47972" lon="5.24464">
        <ele>204</ele>
        <time>2021-12-30T13:47:41.000Z</time>
      </trkpt>
      <trkpt lat="46.47925" lon="5.24493">
        <ele>204.39999389648</ele>
        <time>2021-12-30T13:47:49.000Z</time>
      </trkpt>
      <trkpt lat="46.47913" lon="5.24497">
        <ele>204.80000305176</ele>
        <time>2021-12-30T13:47:51.000Z</time>
      </trkpt>
      <trkpt lat="46.47894" lon="5.24499">
        <ele>205.19999694824</ele>
        <time>2021-12-30T13:47:54.000Z</time>
      </trkpt>
      <trkpt lat="46.4784" lon="5.24496">
        <ele>205.39999389648</ele>
        <time>2021-12-30T13:48:02.000Z</time>
      </trkpt>
      <trkpt lat="46.47789" lon="5.24499">
        <ele>204.80000305176</ele>
        <time>2021-12-30T13:48:09.000Z</time>
      </trkpt>
      <trkpt lat="46.47734" lon="5.24511">
        <ele>204</ele>
        <time>2021-12-30T13:48:16.000Z</time>
      </trkpt>
      <trkpt lat="46.47719" lon="5.24516">
        <ele>203.60000610352</ele>
        <time>2021-12-30T13:48:18.000Z</time>
      </trkpt>
      <trkpt lat="46.47668" lon="5.24538">
        <ele>203.39999389648</ele>
        <time>2021-12-30T13:48:25.000Z</time>
      </trkpt>
      <trkpt lat="46.47618" lon="5.24567">
        <ele>203.60000610352</ele>
        <time>2021-12-30T13:48:32.000Z</time>
      </trkpt>
      <trkpt lat="46.4759" lon="5.24583">
        <ele>203.39999389648</ele>
        <time>2021-12-30T13:48:36.000Z</time>
      </trkpt>
      <trkpt lat="46.47538" lon="5.24613">
        <ele>202.60000610352</ele>
        <time>2021-12-30T13:48:43.000Z</time>
      </trkpt>
      <trkpt lat="46.47523" lon="5.24621">
        <ele>202.39999389648</ele>
        <time>2021-12-30T13:48:45.000Z</time>
      </trkpt>
      <trkpt lat="46.47485" lon="5.24635">
        <ele>202</ele>
        <time>2021-12-30T13:48:50.000Z</time>
      </trkpt>
      <trkpt lat="46.47431" lon="5.24641">
        <ele>201.60000610352</ele>
        <time>2021-12-30T13:48:57.000Z</time>
      </trkpt>
      <trkpt lat="46.47386" lon="5.24646">
        <ele>201.39999389648</ele>
        <time>2021-12-30T13:49:03.000Z</time>
      </trkpt>
      <trkpt lat="46.47345" lon="5.24649">
        <ele>200.80000305176</ele>
        <time>2021-12-30T13:49:08.000Z</time>
      </trkpt>
      <trkpt lat="46.47315" lon="5.24651">
        <ele>200.39999389648</ele>
        <time>2021-12-30T13:49:12.000Z</time>
      </trkpt>
      <trkpt lat="46.47289" lon="5.24654">
        <ele>199.80000305176</ele>
        <time>2021-12-30T13:49:15.000Z</time>
      </trkpt>
      <trkpt lat="46.47262" lon="5.24654">
        <ele>199.19999694824</ele>
        <time>2021-12-30T13:49:18.000Z</time>
      </trkpt>
      <trkpt lat="46.47225" lon="5.24653">
        <ele>198</ele>
        <time>2021-12-30T13:49:22.000Z</time>
      </trkpt>
      <trkpt lat="46.47218" lon="5.24653">
        <ele>198</ele>
        <time>2021-12-30T13:49:23.000Z</time>
      </trkpt>
      <trkpt lat="46.47198" lon="5.24652">
        <ele>197.39999389648</ele>
        <time>2021-12-30T13:49:25.000Z</time>
      </trkpt>
      <trkpt lat="46.4719" lon="5.24651">
        <ele>196.80000305176</ele>
        <time>2021-12-30T13:49:26.000Z</time>
      </trkpt>
      <trkpt lat="46.47174" lon="5.24649">
        <ele>196.19999694824</ele>
        <time>2021-12-30T13:49:28.000Z</time>
      </trkpt>
      <trkpt lat="46.47164" lon="5.24647">
        <ele>195.80000305176</ele>
        <time>2021-12-30T13:49:29.000Z</time>
      </trkpt>
      <trkpt lat="46.47132" lon="5.24635">
        <ele>194.60000610352</ele>
        <time>2021-12-30T13:49:33.000Z</time>
      </trkpt>
      <trkpt lat="46.47124" lon="5.24631">
        <ele>194.39999389648</ele>
        <time>2021-12-30T13:49:34.000Z</time>
      </trkpt>
      <trkpt lat="46.47107" lon="5.24629">
        <ele>193.19999694824</ele>
        <time>2021-12-30T13:49:36.000Z</time>
      </trkpt>
      <trkpt lat="46.47093" lon="5.24641">
        <ele>192.80000305176</ele>
        <time>2021-12-30T13:49:38.000Z</time>
      </trkpt>
      <trkpt lat="46.47088" lon="5.2465">
        <ele>192.60000610352</ele>
        <time>2021-12-30T13:49:39.000Z</time>
      </trkpt>
      <trkpt lat="46.47085" lon="5.24661">
        <ele>192.39999389648</ele>
        <time>2021-12-30T13:49:40.000Z</time>
      </trkpt>
      <trkpt lat="46.47082" lon="5.24674">
        <ele>192.19999694824</ele>
        <time>2021-12-30T13:49:41.000Z</time>
      </trkpt>
      <trkpt lat="46.47076" lon="5.24693">
        <ele>191.80000305176</ele>
        <time>2021-12-30T13:49:43.000Z</time>
      </trkpt>
      <trkpt lat="46.47058" lon="5.24735">
        <ele>191.19999694824</ele>
        <time>2021-12-30T13:49:47.000Z</time>
      </trkpt>
      <trkpt lat="46.47052" lon="5.24745">
        <ele>191</ele>
        <time>2021-12-30T13:49:48.000Z</time>
      </trkpt>
      <trkpt lat="46.47024" lon="5.24783">
        <ele>189.80000305176</ele>
        <time>2021-12-30T13:49:52.000Z</time>
      </trkpt>
      <trkpt lat="46.47014" lon="5.24794">
        <ele>189.60000610352</ele>
        <time>2021-12-30T13:49:53.000Z</time>
      </trkpt>
      <trkpt lat="46.46988" lon="5.24817">
        <ele>188.19999694824</ele>
        <time>2021-12-30T13:49:56.000Z</time>
      </trkpt>
      <trkpt lat="46.4697" lon="5.24833">
        <ele>187</ele>
        <time>2021-12-30T13:49:58.000Z</time>
      </trkpt>
      <trkpt lat="46.46944" lon="5.24854">
        <ele>185.60000610352</ele>
        <time>2021-12-30T13:50:01.000Z</time>
      </trkpt>
      <trkpt lat="46.46927" lon="5.24868">
        <ele>185.39999389648</ele>
        <time>2021-12-30T13:50:03.000Z</time>
      </trkpt>
      <trkpt lat="46.46892" lon="5.24896">
        <ele>185.60000610352</ele>
        <time>2021-12-30T13:50:08.000Z</time>
      </trkpt>
      <trkpt lat="46.46863" lon="5.24919">
        <ele>186.80000305176</ele>
        <time>2021-12-30T13:50:13.000Z</time>
      </trkpt>
      <trkpt lat="46.46857" lon="5.24924">
        <ele>187.39999389648</ele>
        <time>2021-12-30T13:50:14.000Z</time>
      </trkpt>
      <trkpt lat="46.46834" lon="5.24943">
        <ele>187.80000305176</ele>
        <time>2021-12-30T13:50:18.000Z</time>
      </trkpt>
      <trkpt lat="46.46822" lon="5.24953">
        <ele>188</ele>
        <time>2021-12-30T13:50:20.000Z</time>
      </trkpt>
      <trkpt lat="46.46793" lon="5.24978">
        <ele>189</ele>
        <time>2021-12-30T13:50:26.000Z</time>
      </trkpt>
      <trkpt lat="46.46788" lon="5.24983">
        <ele>189.19999694824</ele>
        <time>2021-12-30T13:50:27.000Z</time>
      </trkpt>
      <trkpt lat="46.46771" lon="5.24996">
        <ele>190.19999694824</ele>
        <time>2021-12-30T13:50:31.000Z</time>
      </trkpt>
      <trkpt lat="46.46763" lon="5.25002">
        <ele>190.60000610352</ele>
        <time>2021-12-30T13:50:33.000Z</time>
      </trkpt>
      <trkpt lat="46.46739" lon="5.25021">
        <ele>191.19999694824</ele>
        <time>2021-12-30T13:50:37.000Z</time>
      </trkpt>
      <trkpt lat="46.46726" lon="5.25032">
        <ele>191.39999389648</ele>
        <time>2021-12-30T13:50:39.000Z</time>
      </trkpt>
      <trkpt lat="46.46687" lon="5.25062">
        <ele>191.39999389648</ele>
        <time>2021-12-30T13:50:45.000Z</time>
      </trkpt>
      <trkpt lat="46.46653" lon="5.25088">
        <ele>191.39999389648</ele>
        <time>2021-12-30T13:50:51.000Z</time>
      </trkpt>
      <trkpt lat="46.46642" lon="5.25098">
        <ele>191.39999389648</ele>
        <time>2021-12-30T13:50:53.000Z</time>
      </trkpt>
      <trkpt lat="46.46627" lon="5.25108">
        <ele>191.39999389648</ele>
        <time>2021-12-30T13:50:56.000Z</time>
      </trkpt>
      <trkpt lat="46.46605" lon="5.25124">
        <ele>192.39999389648</ele>
        <time>2021-12-30T13:51:00.000Z</time>
      </trkpt>
      <trkpt lat="46.46599" lon="5.2513">
        <ele>192.60000610352</ele>
        <time>2021-12-30T13:51:01.000Z</time>
      </trkpt>
      <trkpt lat="46.46588" lon="5.25143">
        <ele>192.80000305176</ele>
        <time>2021-12-30T13:51:03.000Z</time>
      </trkpt>
      <trkpt lat="46.46572" lon="5.25156">
        <ele>193.19999694824</ele>
        <time>2021-12-30T13:51:06.000Z</time>
      </trkpt>
      <trkpt lat="46.46562" lon="5.25164">
        <ele>193.39999389648</ele>
        <time>2021-12-30T13:51:08.000Z</time>
      </trkpt>
      <trkpt lat="46.46525" lon="5.25192">
        <ele>193.80000305176</ele>
        <time>2021-12-30T13:51:14.000Z</time>
      </trkpt>
      <trkpt lat="46.46486" lon="5.25225">
        <ele>194</ele>
        <time>2021-12-30T13:51:22.000Z</time>
      </trkpt>
      <trkpt lat="46.46478" lon="5.25231">
        <ele>194.19999694824</ele>
        <time>2021-12-30T13:51:24.000Z</time>
      </trkpt>
      <trkpt lat="46.46459" lon="5.25246">
        <ele>195</ele>
        <time>2021-12-30T13:51:28.000Z</time>
      </trkpt>
      <trkpt lat="46.46445" lon="5.25256">
        <ele>195.80000305176</ele>
        <time>2021-12-30T13:51:31.000Z</time>
      </trkpt>
      <trkpt lat="46.46427" lon="5.25271">
        <ele>196.19999694824</ele>
        <time>2021-12-30T13:51:35.000Z</time>
      </trkpt>
      <trkpt lat="46.46413" lon="5.25282">
        <ele>197</ele>
        <time>2021-12-30T13:51:38.000Z</time>
      </trkpt>
      <trkpt lat="46.46394" lon="5.25303">
        <ele>197.80000305176</ele>
        <time>2021-12-30T13:51:43.000Z</time>
      </trkpt>
      <trkpt lat="46.46386" lon="5.25313">
        <ele>198.19999694824</ele>
        <time>2021-12-30T13:51:45.000Z</time>
      </trkpt>
      <trkpt lat="46.46368" lon="5.25341">
        <ele>199</ele>
        <time>2021-12-30T13:51:50.000Z</time>
      </trkpt>
      <trkpt lat="46.46364" lon="5.25348">
        <ele>199.19999694824</ele>
        <time>2021-12-30T13:51:51.000Z</time>
      </trkpt>
      <trkpt lat="46.46329" lon="5.2541">
        <ele>200</ele>
        <time>2021-12-30T13:52:01.000Z</time>
      </trkpt>
      <trkpt lat="46.46323" lon="5.25423">
        <ele>200</ele>
        <time>2021-12-30T13:52:03.000Z</time>
      </trkpt>
      <trkpt lat="46.46315" lon="5.25434">
        <ele>200.19999694824</ele>
        <time>2021-12-30T13:52:05.000Z</time>
      </trkpt>
      <trkpt lat="46.46308" lon="5.25446">
        <ele>200.19999694824</ele>
        <time>2021-12-30T13:52:07.000Z</time>
      </trkpt>
      <trkpt lat="46.4628" lon="5.25494">
        <ele>201.19999694824</ele>
        <time>2021-12-30T13:52:15.000Z</time>
      </trkpt>
      <trkpt lat="46.46277" lon="5.255">
        <ele>201.60000610352</ele>
        <time>2021-12-30T13:52:16.000Z</time>
      </trkpt>
      <trkpt lat="46.46257" lon="5.25541">
        <ele>202</ele>
        <time>2021-12-30T13:52:22.000Z</time>
      </trkpt>
      <trkpt lat="46.46253" lon="5.25554">
        <ele>202.19999694824</ele>
        <time>2021-12-30T13:52:24.000Z</time>
      </trkpt>
      <trkpt lat="46.4624" lon="5.256">
        <ele>202.60000610352</ele>
        <time>2021-12-30T13:52:30.000Z</time>
      </trkpt>
      <trkpt lat="46.46238" lon="5.25607">
        <ele>202.80000305176</ele>
        <time>2021-12-30T13:52:31.000Z</time>
      </trkpt>
      <trkpt lat="46.46227" lon="5.25668">
        <ele>203.19999694824</ele>
        <time>2021-12-30T13:52:38.000Z</time>
      </trkpt>
      <trkpt lat="46.46225" lon="5.25691">
        <ele>203.19999694824</ele>
        <time>2021-12-30T13:52:40.000Z</time>
      </trkpt>
      <trkpt lat="46.46226" lon="5.25714">
        <ele>202.80000305176</ele>
        <time>2021-12-30T13:52:42.000Z</time>
      </trkpt>
      <trkpt lat="46.46235" lon="5.25762">
        <ele>201.19999694824</ele>
        <time>2021-12-30T13:52:46.000Z</time>
      </trkpt>
      <trkpt lat="46.4624" lon="5.25785">
        <ele>200.60000610352</ele>
        <time>2021-12-30T13:52:48.000Z</time>
      </trkpt>
      <trkpt lat="46.46242" lon="5.25796">
        <ele>200.19999694824</ele>
        <time>2021-12-30T13:52:49.000Z</time>
      </trkpt>
      <trkpt lat="46.4625" lon="5.25846">
        <ele>200</ele>
        <time>2021-12-30T13:52:54.000Z</time>
      </trkpt>
      <trkpt lat="46.4625" lon="5.25855">
        <ele>200.19999694824</ele>
        <time>2021-12-30T13:52:55.000Z</time>
      </trkpt>
      <trkpt lat="46.46248" lon="5.25879">
        <ele>201</ele>
        <time>2021-12-30T13:52:58.000Z</time>
      </trkpt>
      <trkpt lat="46.46245" lon="5.25894">
        <ele>201.80000305176</ele>
        <time>2021-12-30T13:53:00.000Z</time>
      </trkpt>
      <trkpt lat="46.46241" lon="5.25908">
        <ele>202.80000305176</ele>
        <time>2021-12-30T13:53:02.000Z</time>
      </trkpt>
      <trkpt lat="46.46239" lon="5.25914">
        <ele>203.19999694824</ele>
        <time>2021-12-30T13:53:03.000Z</time>
      </trkpt>
      <trkpt lat="46.46236" lon="5.25921">
        <ele>203.39999389648</ele>
        <time>2021-12-30T13:53:04.000Z</time>
      </trkpt>
      <trkpt lat="46.46231" lon="5.25934">
        <ele>203.80000305176</ele>
        <time>2021-12-30T13:53:06.000Z</time>
      </trkpt>
      <trkpt lat="46.46225" lon="5.25951">
        <ele>205</ele>
        <time>2021-12-30T13:53:09.000Z</time>
      </trkpt>
      <trkpt lat="46.46221" lon="5.25962">
        <ele>205.80000305176</ele>
        <time>2021-12-30T13:53:11.000Z</time>
      </trkpt>
      <trkpt lat="46.46219" lon="5.25968">
        <ele>206.19999694824</ele>
        <time>2021-12-30T13:53:12.000Z</time>
      </trkpt>
      <trkpt lat="46.46216" lon="5.25981">
        <ele>206.80000305176</ele>
        <time>2021-12-30T13:53:14.000Z</time>
      </trkpt>
      <trkpt lat="46.46213" lon="5.25993">
        <ele>207.39999389648</ele>
        <time>2021-12-30T13:53:16.000Z</time>
      </trkpt>
      <trkpt lat="46.46211" lon="5.25999">
        <ele>207.60000610352</ele>
        <time>2021-12-30T13:53:17.000Z</time>
      </trkpt>
      <trkpt lat="46.4621" lon="5.26007">
        <ele>207.80000305176</ele>
        <time>2021-12-30T13:53:18.000Z</time>
      </trkpt>
      <trkpt lat="46.46207" lon="5.2602">
        <ele>208.39999389648</ele>
        <time>2021-12-30T13:53:20.000Z</time>
      </trkpt>
      <trkpt lat="46.46206" lon="5.26027">
        <ele>208.80000305176</ele>
        <time>2021-12-30T13:53:21.000Z</time>
      </trkpt>
      <trkpt lat="46.46204" lon="5.26044">
        <ele>209.19999694824</ele>
        <time>2021-12-30T13:53:23.000Z</time>
      </trkpt>
      <trkpt lat="46.46201" lon="5.26082">
        <ele>209.80000305176</ele>
        <time>2021-12-30T13:53:28.000Z</time>
      </trkpt>
      <trkpt lat="46.46199" lon="5.26107">
        <ele>210</ele>
        <time>2021-12-30T13:53:31.000Z</time>
      </trkpt>
      <trkpt lat="46.46192" lon="5.26189">
        <ele>209.39999389648</ele>
        <time>2021-12-30T13:53:40.000Z</time>
      </trkpt>
      <trkpt lat="46.46187" lon="5.26237">
        <ele>208.80000305176</ele>
        <time>2021-12-30T13:53:45.000Z</time>
      </trkpt>
      <trkpt lat="46.46184" lon="5.26281">
        <ele>208</ele>
        <time>2021-12-30T13:53:49.000Z</time>
      </trkpt>
      <trkpt lat="46.46181" lon="5.26306">
        <ele>207.39999389648</ele>
        <time>2021-12-30T13:53:51.000Z</time>
      </trkpt>
      <trkpt lat="46.46178" lon="5.26346">
        <ele>206.39999389648</ele>
        <time>2021-12-30T13:53:54.000Z</time>
      </trkpt>
      <trkpt lat="46.46174" lon="5.26389">
        <ele>204.80000305176</ele>
        <time>2021-12-30T13:53:57.000Z</time>
      </trkpt>
      <trkpt lat="46.46171" lon="5.26418">
        <ele>203.39999389648</ele>
        <time>2021-12-30T13:53:59.000Z</time>
      </trkpt>
      <trkpt lat="46.46168" lon="5.26448">
        <ele>202.39999389648</ele>
        <time>2021-12-30T13:54:01.000Z</time>
      </trkpt>
      <trkpt lat="46.46163" lon="5.26498">
        <ele>200.60000610352</ele>
        <time>2021-12-30T13:54:04.000Z</time>
      </trkpt>
      <trkpt lat="46.46162" lon="5.2651">
        <ele>199.60000610352</ele>
        <time>2021-12-30T13:54:05.000Z</time>
      </trkpt>
      <trkpt lat="46.46158" lon="5.26557">
        <ele>198.19999694824</ele>
        <time>2021-12-30T13:54:08.000Z</time>
      </trkpt>
      <trkpt lat="46.46156" lon="5.26576">
        <ele>197.19999694824</ele>
        <time>2021-12-30T13:54:09.000Z</time>
      </trkpt>
      <trkpt lat="46.46154" lon="5.26592">
        <ele>196.80000305176</ele>
        <time>2021-12-30T13:54:10.000Z</time>
      </trkpt>
      <trkpt lat="46.46152" lon="5.26621">
        <ele>195.80000305176</ele>
        <time>2021-12-30T13:54:12.000Z</time>
      </trkpt>
      <trkpt lat="46.4615" lon="5.26654">
        <ele>194</ele>
        <time>2021-12-30T13:54:14.000Z</time>
      </trkpt>
      <trkpt lat="46.46149" lon="5.26687">
        <ele>192.60000610352</ele>
        <time>2021-12-30T13:54:16.000Z</time>
      </trkpt>
      <trkpt lat="46.46148" lon="5.26724">
        <ele>191.39999389648</ele>
        <time>2021-12-30T13:54:18.000Z</time>
      </trkpt>
      <trkpt lat="46.46147" lon="5.26753">
        <ele>190.19999694824</ele>
        <time>2021-12-30T13:54:20.000Z</time>
      </trkpt>
      <trkpt lat="46.46146" lon="5.26787">
        <ele>188.80000305176</ele>
        <time>2021-12-30T13:54:22.000Z</time>
      </trkpt>
      <trkpt lat="46.46146" lon="5.26818">
        <ele>187.80000305176</ele>
        <time>2021-12-30T13:54:24.000Z</time>
      </trkpt>
      <trkpt lat="46.46145" lon="5.2686">
        <ele>186.80000305176</ele>
        <time>2021-12-30T13:54:27.000Z</time>
      </trkpt>
      <trkpt lat="46.46144" lon="5.26904">
        <ele>186.19999694824</ele>
        <time>2021-12-30T13:54:30.000Z</time>
      </trkpt>
      <trkpt lat="46.46142" lon="5.26957">
        <ele>185.60000610352</ele>
        <time>2021-12-30T13:54:34.000Z</time>
      </trkpt>
      <trkpt lat="46.46142" lon="5.2697">
        <ele>185.39999389648</ele>
        <time>2021-12-30T13:54:35.000Z</time>
      </trkpt>
      <trkpt lat="46.4614" lon="5.27043">
        <ele>185.80000305176</ele>
        <time>2021-12-30T13:54:41.000Z</time>
      </trkpt>
      <trkpt lat="46.46138" lon="5.27111">
        <ele>186.19999694824</ele>
        <time>2021-12-30T13:54:47.000Z</time>
      </trkpt>
      <trkpt lat="46.46135" lon="5.27197">
        <ele>185.60000610352</ele>
        <time>2021-12-30T13:54:54.000Z</time>
      </trkpt>
      <trkpt lat="46.46134" lon="5.27222">
        <ele>185.19999694824</ele>
        <time>2021-12-30T13:54:56.000Z</time>
      </trkpt>
      <trkpt lat="46.46132" lon="5.27295">
        <ele>184.39999389648</ele>
        <time>2021-12-30T13:55:02.000Z</time>
      </trkpt>
      <trkpt lat="46.46131" lon="5.27339">
        <ele>184.39999389648</ele>
        <time>2021-12-30T13:55:06.000Z</time>
      </trkpt>
      <trkpt lat="46.46129" lon="5.27419">
        <ele>184.39999389648</ele>
        <time>2021-12-30T13:55:13.000Z</time>
      </trkpt>
      <trkpt lat="46.46129" lon="5.2743">
        <ele>184.39999389648</ele>
        <time>2021-12-30T13:55:14.000Z</time>
      </trkpt>
      <trkpt lat="46.46127" lon="5.27516">
        <ele>184.39999389648</ele>
        <time>2021-12-30T13:55:22.000Z</time>
      </trkpt>
      <trkpt lat="46.46126" lon="5.27535">
        <ele>184.39999389648</ele>
        <time>2021-12-30T13:55:24.000Z</time>
      </trkpt>
      <trkpt lat="46.46124" lon="5.27612">
        <ele>184.19999694824</ele>
        <time>2021-12-30T13:55:31.000Z</time>
      </trkpt>
      <trkpt lat="46.46122" lon="5.27692">
        <ele>184.60000610352</ele>
        <time>2021-12-30T13:55:39.000Z</time>
      </trkpt>
      <trkpt lat="46.46121" lon="5.2772">
        <ele>184.80000305176</ele>
        <time>2021-12-30T13:55:42.000Z</time>
      </trkpt>
      <trkpt lat="46.4612" lon="5.27757">
        <ele>185.60000610352</ele>
        <time>2021-12-30T13:55:46.000Z</time>
      </trkpt>
      <trkpt lat="46.4612" lon="5.27766">
        <ele>185.60000610352</ele>
        <time>2021-12-30T13:55:47.000Z</time>
      </trkpt>
      <trkpt lat="46.4612" lon="5.27805">
        <ele>186.60000610352</ele>
        <time>2021-12-30T13:55:52.000Z</time>
      </trkpt>
      <trkpt lat="46.46119" lon="5.2782">
        <ele>186.80000305176</ele>
        <time>2021-12-30T13:55:54.000Z</time>
      </trkpt>
      <trkpt lat="46.4612" lon="5.27848">
        <ele>187.60000610352</ele>
        <time>2021-12-30T13:55:58.000Z</time>
      </trkpt>
      <trkpt lat="46.46121" lon="5.27869">
        <ele>188.39999389648</ele>
        <time>2021-12-30T13:56:01.000Z</time>
      </trkpt>
      <trkpt lat="46.46121" lon="5.27882">
        <ele>188.80000305176</ele>
        <time>2021-12-30T13:56:03.000Z</time>
      </trkpt>
      <trkpt lat="46.46122" lon="5.27918">
        <ele>190.19999694824</ele>
        <time>2021-12-30T13:56:09.000Z</time>
      </trkpt>
      <trkpt lat="46.46125" lon="5.27939">
        <ele>191.39999389648</ele>
        <time>2021-12-30T13:56:13.000Z</time>
      </trkpt>
      <trkpt lat="46.46128" lon="5.27949">
        <ele>191.80000305176</ele>
        <time>2021-12-30T13:56:15.000Z</time>
      </trkpt>
      <trkpt lat="46.46132" lon="5.27958">
        <ele>192.39999389648</ele>
        <time>2021-12-30T13:56:17.000Z</time>
      </trkpt>
      <trkpt lat="46.46139" lon="5.27968">
        <ele>193.60000610352</ele>
        <time>2021-12-30T13:56:20.000Z</time>
      </trkpt>
      <trkpt lat="46.46154" lon="5.27981">
        <ele>195</ele>
        <time>2021-12-30T13:56:25.000Z</time>
      </trkpt>
      <trkpt lat="46.46159" lon="5.27985">
        <ele>195.80000305176</ele>
        <time>2021-12-30T13:56:27.000Z</time>
      </trkpt>
      <trkpt lat="46.46162" lon="5.27987">
        <ele>196.19999694824</ele>
        <time>2021-12-30T13:56:28.000Z</time>
      </trkpt>
      <trkpt lat="46.46169" lon="5.27993">
        <ele>197.19999694824</ele>
        <time>2021-12-30T13:56:31.000Z</time>
      </trkpt>
      <trkpt lat="46.46176" lon="5.27998">
        <ele>197.80000305176</ele>
        <time>2021-12-30T13:56:33.000Z</time>
      </trkpt>
      <trkpt lat="46.46182" lon="5.28003">
        <ele>198.39999389648</ele>
        <time>2021-12-30T13:56:35.000Z</time>
      </trkpt>
      <trkpt lat="46.46189" lon="5.28014">
        <ele>199.39999389648</ele>
        <time>2021-12-30T13:56:38.000Z</time>
      </trkpt>
      <trkpt lat="46.46189" lon="5.2802">
        <ele>199.60000610352</ele>
        <time>2021-12-30T13:56:39.000Z</time>
      </trkpt>
      <trkpt lat="46.46188" lon="5.28051">
        <ele>200.19999694824</ele>
        <time>2021-12-30T13:56:43.000Z</time>
      </trkpt>
      <trkpt lat="46.46185" lon="5.28112">
        <ele>199.80000305176</ele>
        <time>2021-12-30T13:56:50.000Z</time>
      </trkpt>
      <trkpt lat="46.46183" lon="5.28138">
        <ele>199.60000610352</ele>
        <time>2021-12-30T13:56:53.000Z</time>
      </trkpt>
      <trkpt lat="46.46179" lon="5.28161">
        <ele>199.80000305176</ele>
        <time>2021-12-30T13:56:56.000Z</time>
      </trkpt>
      <trkpt lat="46.46169" lon="5.28231">
        <ele>200.19999694824</ele>
        <time>2021-12-30T13:57:04.000Z</time>
      </trkpt>
      <trkpt lat="46.46166" lon="5.28263">
        <ele>199.80000305176</ele>
        <time>2021-12-30T13:57:07.000Z</time>
      </trkpt>
      <trkpt lat="46.46166" lon="5.28285">
        <ele>199.39999389648</ele>
        <time>2021-12-30T13:57:09.000Z</time>
      </trkpt>
      <trkpt lat="46.46171" lon="5.28321">
        <ele>198.39999389648</ele>
        <time>2021-12-30T13:57:12.000Z</time>
      </trkpt>
      <trkpt lat="46.46173" lon="5.28342">
        <ele>198</ele>
        <time>2021-12-30T13:57:14.000Z</time>
      </trkpt>
      <trkpt lat="46.46177" lon="5.28369">
        <ele>197.19999694824</ele>
        <time>2021-12-30T13:57:16.000Z</time>
      </trkpt>
      <trkpt lat="46.46181" lon="5.28393">
        <ele>196.19999694824</ele>
        <time>2021-12-30T13:57:18.000Z</time>
      </trkpt>
      <trkpt lat="46.46186" lon="5.28428">
        <ele>195</ele>
        <time>2021-12-30T13:57:21.000Z</time>
      </trkpt>
      <trkpt lat="46.46195" lon="5.28484">
        <ele>194.60000610352</ele>
        <time>2021-12-30T13:57:27.000Z</time>
      </trkpt>
      <trkpt lat="46.46201" lon="5.2853">
        <ele>196.19999694824</ele>
        <time>2021-12-30T13:57:33.000Z</time>
      </trkpt>
      <trkpt lat="46.46205" lon="5.28554">
        <ele>197.60000610352</ele>
        <time>2021-12-30T13:57:36.000Z</time>
      </trkpt>
      <trkpt lat="46.46208" lon="5.28574">
        <ele>198.60000610352</ele>
        <time>2021-12-30T13:57:39.000Z</time>
      </trkpt>
      <trkpt lat="46.46209" lon="5.28583">
        <ele>198.80000305176</ele>
        <time>2021-12-30T13:57:40.000Z</time>
      </trkpt>
      <trkpt lat="46.46213" lon="5.2861">
        <ele>200.19999694824</ele>
        <time>2021-12-30T13:57:44.000Z</time>
      </trkpt>
      <trkpt lat="46.46215" lon="5.28627">
        <ele>201.19999694824</ele>
        <time>2021-12-30T13:57:47.000Z</time>
      </trkpt>
      <trkpt lat="46.46217" lon="5.28658">
        <ele>202.60000610352</ele>
        <time>2021-12-30T13:57:52.000Z</time>
      </trkpt>
      <trkpt lat="46.4622" lon="5.2867">
        <ele>203.19999694824</ele>
        <time>2021-12-30T13:57:54.000Z</time>
      </trkpt>
      <trkpt lat="46.46221" lon="5.28677">
        <ele>203.39999389648</ele>
        <time>2021-12-30T13:57:55.000Z</time>
      </trkpt>
      <trkpt lat="46.46223" lon="5.28682">
        <ele>203.80000305176</ele>
        <time>2021-12-30T13:57:56.000Z</time>
      </trkpt>
      <trkpt lat="46.46226" lon="5.28688">
        <ele>204.19999694824</ele>
        <time>2021-12-30T13:57:57.000Z</time>
      </trkpt>
      <trkpt lat="46.46229" lon="5.28692">
        <ele>204.39999389648</ele>
        <time>2021-12-30T13:57:58.000Z</time>
      </trkpt>
      <trkpt lat="46.46233" lon="5.28698">
        <ele>205</ele>
        <time>2021-12-30T13:57:59.000Z</time>
      </trkpt>
      <trkpt lat="46.46244" lon="5.28707">
        <ele>205.60000610352</ele>
        <time>2021-12-30T13:58:02.000Z</time>
      </trkpt>
      <trkpt lat="46.46252" lon="5.28713">
        <ele>206</ele>
        <time>2021-12-30T13:58:04.000Z</time>
      </trkpt>
      <trkpt lat="46.46263" lon="5.28721">
        <ele>206.60000610352</ele>
        <time>2021-12-30T13:58:07.000Z</time>
      </trkpt>
      <trkpt lat="46.46267" lon="5.28724">
        <ele>207.19999694824</ele>
        <time>2021-12-30T13:58:08.000Z</time>
      </trkpt>
      <trkpt lat="46.46271" lon="5.28726">
        <ele>207.39999389648</ele>
        <time>2021-12-30T13:58:09.000Z</time>
      </trkpt>
      <trkpt lat="46.46289" lon="5.28737">
        <ele>208.39999389648</ele>
        <time>2021-12-30T13:58:13.000Z</time>
      </trkpt>
      <trkpt lat="46.46297" lon="5.28742">
        <ele>208.80000305176</ele>
        <time>2021-12-30T13:58:15.000Z</time>
      </trkpt>
      <trkpt lat="46.46306" lon="5.28747">
        <ele>209</ele>
        <time>2021-12-30T13:58:17.000Z</time>
      </trkpt>
      <trkpt lat="46.4633" lon="5.28763">
        <ele>209.39999389648</ele>
        <time>2021-12-30T13:58:23.000Z</time>
      </trkpt>
      <trkpt lat="46.46342" lon="5.28771">
        <ele>210.19999694824</ele>
        <time>2021-12-30T13:58:26.000Z</time>
      </trkpt>
      <trkpt lat="46.4635" lon="5.28776">
        <ele>210.60000610352</ele>
        <time>2021-12-30T13:58:28.000Z</time>
      </trkpt>
      <trkpt lat="46.46373" lon="5.28796">
        <ele>211.60000610352</ele>
        <time>2021-12-30T13:58:34.000Z</time>
      </trkpt>
      <trkpt lat="46.46377" lon="5.288">
        <ele>211.60000610352</ele>
        <time>2021-12-30T13:58:35.000Z</time>
      </trkpt>
      <trkpt lat="46.46384" lon="5.28808">
        <ele>211.80000305176</ele>
        <time>2021-12-30T13:58:37.000Z</time>
      </trkpt>
      <trkpt lat="46.46392" lon="5.28819">
        <ele>212</ele>
        <time>2021-12-30T13:58:39.000Z</time>
      </trkpt>
      <trkpt lat="46.4641" lon="5.28857">
        <ele>212.39999389648</ele>
        <time>2021-12-30T13:58:45.000Z</time>
      </trkpt>
      <trkpt lat="46.46415" lon="5.28872">
        <ele>212.60000610352</ele>
        <time>2021-12-30T13:58:47.000Z</time>
      </trkpt>
      <trkpt lat="46.46423" lon="5.28903">
        <ele>213</ele>
        <time>2021-12-30T13:58:51.000Z</time>
      </trkpt>
      <trkpt lat="46.46436" lon="5.28965">
        <ele>213.19999694824</ele>
        <time>2021-12-30T13:58:59.000Z</time>
      </trkpt>
      <trkpt lat="46.46441" lon="5.28988">
        <ele>213.60000610352</ele>
        <time>2021-12-30T13:59:02.000Z</time>
      </trkpt>
      <trkpt lat="46.46449" lon="5.29028">
        <ele>214.19999694824</ele>
        <time>2021-12-30T13:59:07.000Z</time>
      </trkpt>
      <trkpt lat="46.46461" lon="5.29088">
        <ele>214.60000610352</ele>
        <time>2021-12-30T13:59:14.000Z</time>
      </trkpt>
      <trkpt lat="46.46478" lon="5.29166">
        <ele>214.39999389648</ele>
        <time>2021-12-30T13:59:22.000Z</time>
      </trkpt>
      <trkpt lat="46.46481" lon="5.29176">
        <ele>214.39999389648</ele>
        <time>2021-12-30T13:59:23.000Z</time>
      </trkpt>
      <trkpt lat="46.46498" lon="5.29259">
        <ele>214</ele>
        <time>2021-12-30T13:59:31.000Z</time>
      </trkpt>
      <trkpt lat="46.46502" lon="5.29281">
        <ele>213.60000610352</ele>
        <time>2021-12-30T13:59:33.000Z</time>
      </trkpt>
      <trkpt lat="46.46514" lon="5.29335">
        <ele>212.60000610352</ele>
        <time>2021-12-30T13:59:38.000Z</time>
      </trkpt>
      <trkpt lat="46.46521" lon="5.29366">
        <ele>212.19999694824</ele>
        <time>2021-12-30T13:59:41.000Z</time>
      </trkpt>
      <trkpt lat="46.46538" lon="5.29447">
        <ele>211.80000305176</ele>
        <time>2021-12-30T13:59:49.000Z</time>
      </trkpt>
      <trkpt lat="46.4654" lon="5.29457">
        <ele>211.80000305176</ele>
        <time>2021-12-30T13:59:50.000Z</time>
      </trkpt>
      <trkpt lat="46.46552" lon="5.29509">
        <ele>211.60000610352</ele>
        <time>2021-12-30T13:59:55.000Z</time>
      </trkpt>
      <trkpt lat="46.46558" lon="5.2953">
        <ele>211.39999389648</ele>
        <time>2021-12-30T13:59:57.000Z</time>
      </trkpt>
      <trkpt lat="46.46571" lon="5.29588">
        <ele>211.19999694824</ele>
        <time>2021-12-30T14:00:03.000Z</time>
      </trkpt>
      <trkpt lat="46.46585" lon="5.29642">
        <ele>212.19999694824</ele>
        <time>2021-12-30T14:00:09.000Z</time>
      </trkpt>
      <trkpt lat="46.4659" lon="5.2966">
        <ele>212.60000610352</ele>
        <time>2021-12-30T14:00:11.000Z</time>
      </trkpt>
      <trkpt lat="46.46602" lon="5.29704">
        <ele>213.39999389648</ele>
        <time>2021-12-30T14:00:16.000Z</time>
      </trkpt>
      <trkpt lat="46.46605" lon="5.29713">
        <ele>213.60000610352</ele>
        <time>2021-12-30T14:00:17.000Z</time>
      </trkpt>
      <trkpt lat="46.46622" lon="5.29775">
        <ele>214.80000305176</ele>
        <time>2021-12-30T14:00:24.000Z</time>
      </trkpt>
      <trkpt lat="46.46629" lon="5.29808">
        <ele>215</ele>
        <time>2021-12-30T14:00:28.000Z</time>
      </trkpt>
      <trkpt lat="46.46632" lon="5.29816">
        <ele>215.19999694824</ele>
        <time>2021-12-30T14:00:29.000Z</time>
      </trkpt>
      <trkpt lat="46.46639" lon="5.2984">
        <ele>215.19999694824</ele>
        <time>2021-12-30T14:00:32.000Z</time>
      </trkpt>
      <trkpt lat="46.46647" lon="5.29868">
        <ele>215.39999389648</ele>
        <time>2021-12-30T14:00:35.000Z</time>
      </trkpt>
      <trkpt lat="46.46664" lon="5.29933">
        <ele>215.39999389648</ele>
        <time>2021-12-30T14:00:42.000Z</time>
      </trkpt>
      <trkpt lat="46.46681" lon="5.29995">
        <ele>214.39999389648</ele>
        <time>2021-12-30T14:00:48.000Z</time>
      </trkpt>
      <trkpt lat="46.46698" lon="5.30059">
        <ele>213.39999389648</ele>
        <time>2021-12-30T14:00:54.000Z</time>
      </trkpt>
      <trkpt lat="46.46719" lon="5.30141">
        <ele>212.60000610352</ele>
        <time>2021-12-30T14:01:02.000Z</time>
      </trkpt>
      <trkpt lat="46.46737" lon="5.30204">
        <ele>213.19999694824</ele>
        <time>2021-12-30T14:01:09.000Z</time>
      </trkpt>
      <trkpt lat="46.46749" lon="5.30226">
        <ele>213.60000610352</ele>
        <time>2021-12-30T14:01:12.000Z</time>
      </trkpt>
      <trkpt lat="46.46754" lon="5.30232">
        <ele>213.60000610352</ele>
        <time>2021-12-30T14:01:13.000Z</time>
      </trkpt>
      <trkpt lat="46.46801" lon="5.30287">
        <ele>214.39999389648</ele>
        <time>2021-12-30T14:01:22.000Z</time>
      </trkpt>
      <trkpt lat="46.46844" lon="5.30341">
        <ele>214</ele>
        <time>2021-12-30T14:01:30.000Z</time>
      </trkpt>
      <trkpt lat="46.46879" lon="5.30375">
        <ele>214.19999694824</ele>
        <time>2021-12-30T14:01:36.000Z</time>
      </trkpt>
      <trkpt lat="46.46921" lon="5.30394">
        <ele>214</ele>
        <time>2021-12-30T14:01:42.000Z</time>
      </trkpt>
      <trkpt lat="46.46969" lon="5.30419">
        <ele>213.60000610352</ele>
        <time>2021-12-30T14:01:49.000Z</time>
      </trkpt>
      <trkpt lat="46.4701" lon="5.30452">
        <ele>213.80000305176</ele>
        <time>2021-12-30T14:01:56.000Z</time>
      </trkpt>
      <trkpt lat="46.47054" lon="5.30491">
        <ele>214</ele>
        <time>2021-12-30T14:02:03.000Z</time>
      </trkpt>
      <trkpt lat="46.47096" lon="5.30525">
        <ele>214.60000610352</ele>
        <time>2021-12-30T14:02:10.000Z</time>
      </trkpt>
      <trkpt lat="46.47122" lon="5.3054">
        <ele>215</ele>
        <time>2021-12-30T14:02:14.000Z</time>
      </trkpt>
      <trkpt lat="46.47135" lon="5.30547">
        <ele>215</ele>
        <time>2021-12-30T14:02:16.000Z</time>
      </trkpt>
      <trkpt lat="46.47163" lon="5.30556">
        <ele>215</ele>
        <time>2021-12-30T14:02:20.000Z</time>
      </trkpt>
      <trkpt lat="46.47178" lon="5.30558">
        <ele>215</ele>
        <time>2021-12-30T14:02:22.000Z</time>
      </trkpt>
      <trkpt lat="46.47221" lon="5.30555">
        <ele>214.39999389648</ele>
        <time>2021-12-30T14:02:28.000Z</time>
      </trkpt>
      <trkpt lat="46.47236" lon="5.30559">
        <ele>214.19999694824</ele>
        <time>2021-12-30T14:02:30.000Z</time>
      </trkpt>
      <trkpt lat="46.47249" lon="5.30568">
        <ele>214</ele>
        <time>2021-12-30T14:02:32.000Z</time>
      </trkpt>
      <trkpt lat="46.47266" lon="5.30586">
        <ele>214</ele>
        <time>2021-12-30T14:02:35.000Z</time>
      </trkpt>
      <trkpt lat="46.47282" lon="5.30606">
        <ele>214</ele>
        <time>2021-12-30T14:02:38.000Z</time>
      </trkpt>
      <trkpt lat="46.47308" lon="5.30641">
        <ele>214.39999389648</ele>
        <time>2021-12-30T14:02:43.000Z</time>
      </trkpt>
      <trkpt lat="46.47311" lon="5.3065">
        <ele>214.19999694824</ele>
        <time>2021-12-30T14:02:44.000Z</time>
      </trkpt>
      <trkpt lat="46.47314" lon="5.3066">
        <ele>214.19999694824</ele>
        <time>2021-12-30T14:02:45.000Z</time>
      </trkpt>
      <trkpt lat="46.47316" lon="5.3069">
        <ele>214.19999694824</ele>
        <time>2021-12-30T14:02:48.000Z</time>
      </trkpt>
      <trkpt lat="46.47321" lon="5.30778">
        <ele>213.80000305176</ele>
        <time>2021-12-30T14:02:56.000Z</time>
      </trkpt>
      <trkpt lat="46.47322" lon="5.30789">
        <ele>213.60000610352</ele>
        <time>2021-12-30T14:02:57.000Z</time>
      </trkpt>
      <trkpt lat="46.47329" lon="5.3086">
        <ele>213</ele>
        <time>2021-12-30T14:03:04.000Z</time>
      </trkpt>
      <trkpt lat="46.47333" lon="5.30877">
        <ele>213</ele>
        <time>2021-12-30T14:03:06.000Z</time>
      </trkpt>
      <trkpt lat="46.4734" lon="5.30889">
        <ele>213</ele>
        <time>2021-12-30T14:03:08.000Z</time>
      </trkpt>
      <trkpt lat="46.47351" lon="5.30893">
        <ele>213.19999694824</ele>
        <time>2021-12-30T14:03:10.000Z</time>
      </trkpt>
      <trkpt lat="46.47358" lon="5.30893">
        <ele>213.39999389648</ele>
        <time>2021-12-30T14:03:11.000Z</time>
      </trkpt>
      <trkpt lat="46.47394" lon="5.30881">
        <ele>213.60000610352</ele>
        <time>2021-12-30T14:03:16.000Z</time>
      </trkpt>
      <trkpt lat="46.47445" lon="5.30855">
        <ele>213.39999389648</ele>
        <time>2021-12-30T14:03:23.000Z</time>
      </trkpt>
      <trkpt lat="46.47452" lon="5.30852">
        <ele>213.39999389648</ele>
        <time>2021-12-30T14:03:24.000Z</time>
      </trkpt>
      <trkpt lat="46.475" lon="5.30828">
        <ele>214</ele>
        <time>2021-12-30T14:03:31.000Z</time>
      </trkpt>
      <trkpt lat="46.47539" lon="5.30812">
        <ele>214.60000610352</ele>
        <time>2021-12-30T14:03:37.000Z</time>
      </trkpt>
      <trkpt lat="46.47545" lon="5.3081">
        <ele>214.60000610352</ele>
        <time>2021-12-30T14:03:38.000Z</time>
      </trkpt>
      <trkpt lat="46.47592" lon="5.30802">
        <ele>215</ele>
        <time>2021-12-30T14:03:45.000Z</time>
      </trkpt>
      <trkpt lat="46.47652" lon="5.30794">
        <ele>215</ele>
        <time>2021-12-30T14:03:54.000Z</time>
      </trkpt>
      <trkpt lat="46.47659" lon="5.30792">
        <ele>215</ele>
        <time>2021-12-30T14:03:55.000Z</time>
      </trkpt>
      <trkpt lat="46.47715" lon="5.30784">
        <ele>215.19999694824</ele>
        <time>2021-12-30T14:04:03.000Z</time>
      </trkpt>
      <trkpt lat="46.4773" lon="5.30782">
        <ele>215</ele>
        <time>2021-12-30T14:04:05.000Z</time>
      </trkpt>
      <trkpt lat="46.47789" lon="5.30773">
        <ele>214</ele>
        <time>2021-12-30T14:04:13.000Z</time>
      </trkpt>
      <trkpt lat="46.47796" lon="5.30772">
        <ele>214</ele>
        <time>2021-12-30T14:04:14.000Z</time>
      </trkpt>
      <trkpt lat="46.47811" lon="5.30771">
        <ele>214</ele>
        <time>2021-12-30T14:04:16.000Z</time>
      </trkpt>
      <trkpt lat="46.4783" lon="5.30774">
        <ele>214</ele>
        <time>2021-12-30T14:04:19.000Z</time>
      </trkpt>
      <trkpt lat="46.47836" lon="5.30776">
        <ele>214</ele>
        <time>2021-12-30T14:04:20.000Z</time>
      </trkpt>
      <trkpt lat="46.47844" lon="5.30785">
        <ele>214.39999389648</ele>
        <time>2021-12-30T14:04:22.000Z</time>
      </trkpt>
      <trkpt lat="46.47847" lon="5.308">
        <ele>215.19999694824</ele>
        <time>2021-12-30T14:04:25.000Z</time>
      </trkpt>
      <trkpt lat="46.47855" lon="5.30803">
        <ele>216.19999694824</ele>
        <time>2021-12-30T14:04:27.000Z</time>
      </trkpt>
      <trkpt lat="46.47861" lon="5.30802">
        <ele>216.60000610352</ele>
        <time>2021-12-30T14:04:28.000Z</time>
      </trkpt>
      <trkpt lat="46.47868" lon="5.30801">
        <ele>216.80000305176</ele>
        <time>2021-12-30T14:04:29.000Z</time>
      </trkpt>
      <trkpt lat="46.47884" lon="5.30803">
        <ele>216.80000305176</ele>
        <time>2021-12-30T14:04:31.000Z</time>
      </trkpt>
      <trkpt lat="46.47927" lon="5.30817">
        <ele>216</ele>
        <time>2021-12-30T14:04:36.000Z</time>
      </trkpt>
      <trkpt lat="46.47947" lon="5.30819">
        <ele>215.19999694824</ele>
        <time>2021-12-30T14:04:38.000Z</time>
      </trkpt>
      <trkpt lat="46.47967" lon="5.30816">
        <ele>214</ele>
        <time>2021-12-30T14:04:40.000Z</time>
      </trkpt>
      <trkpt lat="46.47986" lon="5.30808">
        <ele>212.80000305176</ele>
        <time>2021-12-30T14:04:42.000Z</time>
      </trkpt>
      <trkpt lat="46.48004" lon="5.30799">
        <ele>211.80000305176</ele>
        <time>2021-12-30T14:04:44.000Z</time>
      </trkpt>
      <trkpt lat="46.48012" lon="5.30794">
        <ele>211.60000610352</ele>
        <time>2021-12-30T14:04:45.000Z</time>
      </trkpt>
      <trkpt lat="46.4805" lon="5.30773">
        <ele>211.60000610352</ele>
        <time>2021-12-30T14:04:50.000Z</time>
      </trkpt>
      <trkpt lat="46.48084" lon="5.30755">
        <ele>213</ele>
        <time>2021-12-30T14:04:55.000Z</time>
      </trkpt>
      <trkpt lat="46.48097" lon="5.30747">
        <ele>213.39999389648</ele>
        <time>2021-12-30T14:04:57.000Z</time>
      </trkpt>
      <trkpt lat="46.48152" lon="5.30718">
        <ele>213.60000610352</ele>
        <time>2021-12-30T14:05:05.000Z</time>
      </trkpt>
      <trkpt lat="46.48205" lon="5.30689">
        <ele>212.80000305176</ele>
        <time>2021-12-30T14:05:12.000Z</time>
      </trkpt>
      <trkpt lat="46.48213" lon="5.30687">
        <ele>212.80000305176</ele>
        <time>2021-12-30T14:05:13.000Z</time>
      </trkpt>
      <trkpt lat="46.48231" lon="5.30685">
        <ele>211.80000305176</ele>
        <time>2021-12-30T14:05:15.000Z</time>
      </trkpt>
      <trkpt lat="46.48248" lon="5.30688">
        <ele>211</ele>
        <time>2021-12-30T14:05:17.000Z</time>
      </trkpt>
      <trkpt lat="46.48257" lon="5.3069">
        <ele>210.80000305176</ele>
        <time>2021-12-30T14:05:18.000Z</time>
      </trkpt>
      <trkpt lat="46.48301" lon="5.30699">
        <ele>209.60000610352</ele>
        <time>2021-12-30T14:05:23.000Z</time>
      </trkpt>
      <trkpt lat="46.4831" lon="5.30699">
        <ele>209.39999389648</ele>
        <time>2021-12-30T14:05:24.000Z</time>
      </trkpt>
      <trkpt lat="46.48326" lon="5.30693">
        <ele>209.39999389648</ele>
        <time>2021-12-30T14:05:26.000Z</time>
      </trkpt>
      <trkpt lat="46.48334" lon="5.30689">
        <ele>209.19999694824</ele>
        <time>2021-12-30T14:05:27.000Z</time>
      </trkpt>
      <trkpt lat="46.48375" lon="5.30653">
        <ele>209</ele>
        <time>2021-12-30T14:05:33.000Z</time>
      </trkpt>
      <trkpt lat="46.48425" lon="5.30606">
        <ele>209.19999694824</ele>
        <time>2021-12-30T14:05:41.000Z</time>
      </trkpt>
      <trkpt lat="46.48465" lon="5.30568">
        <ele>210</ele>
        <time>2021-12-30T14:05:48.000Z</time>
      </trkpt>
      <trkpt lat="46.48499" lon="5.30537">
        <ele>210.60000610352</ele>
        <time>2021-12-30T14:05:54.000Z</time>
      </trkpt>
      <trkpt lat="46.48504" lon="5.30532">
        <ele>210.80000305176</ele>
        <time>2021-12-30T14:05:55.000Z</time>
      </trkpt>
      <trkpt lat="46.48542" lon="5.30498">
        <ele>211.19999694824</ele>
        <time>2021-12-30T14:06:02.000Z</time>
      </trkpt>
      <trkpt lat="46.48548" lon="5.30495">
        <ele>211.19999694824</ele>
        <time>2021-12-30T14:06:03.000Z</time>
      </trkpt>
      <trkpt lat="46.48558" lon="5.30495">
        <ele>211.19999694824</ele>
        <time>2021-12-30T14:06:05.000Z</time>
      </trkpt>
      <trkpt lat="46.48562" lon="5.30508">
        <ele>211.19999694824</ele>
        <time>2021-12-30T14:06:07.000Z</time>
      </trkpt>
      <trkpt lat="46.48561" lon="5.30516">
        <ele>211</ele>
        <time>2021-12-30T14:06:08.000Z</time>
      </trkpt>
      <trkpt lat="46.48556" lon="5.30544">
        <ele>210.80000305176</ele>
        <time>2021-12-30T14:06:11.000Z</time>
      </trkpt>
      <trkpt lat="46.4855" lon="5.30597">
        <ele>210.39999389648</ele>
        <time>2021-12-30T14:06:16.000Z</time>
      </trkpt>
      <trkpt lat="46.48547" lon="5.3062">
        <ele>209.39999389648</ele>
        <time>2021-12-30T14:06:18.000Z</time>
      </trkpt>
      <trkpt lat="46.48542" lon="5.30655">
        <ele>209</ele>
        <time>2021-12-30T14:06:21.000Z</time>
      </trkpt>
      <trkpt lat="46.48543" lon="5.30668">
        <ele>208.60000610352</ele>
        <time>2021-12-30T14:06:22.000Z</time>
      </trkpt>
      <trkpt lat="46.48546" lon="5.30692">
        <ele>208.19999694824</ele>
        <time>2021-12-30T14:06:24.000Z</time>
      </trkpt>
      <trkpt lat="46.48553" lon="5.30719">
        <ele>208</ele>
        <time>2021-12-30T14:06:26.000Z</time>
      </trkpt>
      <trkpt lat="46.48559" lon="5.30731">
        <ele>207.19999694824</ele>
        <time>2021-12-30T14:06:27.000Z</time>
      </trkpt>
      <trkpt lat="46.48565" lon="5.30742">
        <ele>206.80000305176</ele>
        <time>2021-12-30T14:06:28.000Z</time>
      </trkpt>
      <trkpt lat="46.48571" lon="5.30751">
        <ele>206.19999694824</ele>
        <time>2021-12-30T14:06:29.000Z</time>
      </trkpt>
      <trkpt lat="46.48579" lon="5.3076">
        <ele>206</ele>
        <time>2021-12-30T14:06:30.000Z</time>
      </trkpt>
      <trkpt lat="46.48602" lon="5.30782">
        <ele>204.80000305176</ele>
        <time>2021-12-30T14:06:33.000Z</time>
      </trkpt>
      <trkpt lat="46.48626" lon="5.308">
        <ele>203.80000305176</ele>
        <time>2021-12-30T14:06:36.000Z</time>
      </trkpt>
      <trkpt lat="46.48642" lon="5.3081">
        <ele>203.60000610352</ele>
        <time>2021-12-30T14:06:38.000Z</time>
      </trkpt>
      <trkpt lat="46.48686" lon="5.30837">
        <ele>202.80000305176</ele>
        <time>2021-12-30T14:06:44.000Z</time>
      </trkpt>
      <trkpt lat="46.48711" lon="5.30852">
        <ele>203.39999389648</ele>
        <time>2021-12-30T14:06:48.000Z</time>
      </trkpt>
      <trkpt lat="46.48716" lon="5.30858">
        <ele>203.60000610352</ele>
        <time>2021-12-30T14:06:49.000Z</time>
      </trkpt>
      <trkpt lat="46.4872" lon="5.30865">
        <ele>203.80000305176</ele>
        <time>2021-12-30T14:06:50.000Z</time>
      </trkpt>
      <trkpt lat="46.48723" lon="5.30883">
        <ele>204.60000610352</ele>
        <time>2021-12-30T14:06:52.000Z</time>
      </trkpt>
      <trkpt lat="46.48721" lon="5.30901">
        <ele>205</ele>
        <time>2021-12-30T14:06:54.000Z</time>
      </trkpt>
      <trkpt lat="46.48717" lon="5.30909">
        <ele>205</ele>
        <time>2021-12-30T14:06:55.000Z</time>
      </trkpt>
      <trkpt lat="46.48713" lon="5.30915">
        <ele>205</ele>
        <time>2021-12-30T14:06:56.000Z</time>
      </trkpt>
      <trkpt lat="46.487" lon="5.30931">
        <ele>205.80000305176</ele>
        <time>2021-12-30T14:06:59.000Z</time>
      </trkpt>
      <trkpt lat="46.48693" lon="5.30944">
        <ele>206</ele>
        <time>2021-12-30T14:07:01.000Z</time>
      </trkpt>
      <trkpt lat="46.48683" lon="5.30964">
        <ele>206.80000305176</ele>
        <time>2021-12-30T14:07:04.000Z</time>
      </trkpt>
      <trkpt lat="46.4868" lon="5.30971">
        <ele>207.19999694824</ele>
        <time>2021-12-30T14:07:05.000Z</time>
      </trkpt>
      <trkpt lat="46.48658" lon="5.31016">
        <ele>208.19999694824</ele>
        <time>2021-12-30T14:07:11.000Z</time>
      </trkpt>
      <trkpt lat="46.48654" lon="5.31024">
        <ele>208.19999694824</ele>
        <time>2021-12-30T14:07:12.000Z</time>
      </trkpt>
      <trkpt lat="46.48633" lon="5.31066">
        <ele>208</ele>
        <time>2021-12-30T14:07:17.000Z</time>
      </trkpt>
      <trkpt lat="46.48611" lon="5.31112">
        <ele>207.19999694824</ele>
        <time>2021-12-30T14:07:22.000Z</time>
      </trkpt>
      <trkpt lat="46.48602" lon="5.31131">
        <ele>206.60000610352</ele>
        <time>2021-12-30T14:07:24.000Z</time>
      </trkpt>
      <trkpt lat="46.48588" lon="5.31159">
        <ele>205.80000305176</ele>
        <time>2021-12-30T14:07:27.000Z</time>
      </trkpt>
      <trkpt lat="46.48569" lon="5.31198">
        <ele>205</ele>
        <time>2021-12-30T14:07:31.000Z</time>
      </trkpt>
      <trkpt lat="46.48565" lon="5.31207">
        <ele>204.80000305176</ele>
        <time>2021-12-30T14:07:32.000Z</time>
      </trkpt>
      <trkpt lat="46.48553" lon="5.31239">
        <ele>203.80000305176</ele>
        <time>2021-12-30T14:07:35.000Z</time>
      </trkpt>
      <trkpt lat="46.48551" lon="5.31251">
        <ele>203.60000610352</ele>
        <time>2021-12-30T14:07:36.000Z</time>
      </trkpt>
      <trkpt lat="46.4855" lon="5.31263">
        <ele>203.39999389648</ele>
        <time>2021-12-30T14:07:37.000Z</time>
      </trkpt>
      <trkpt lat="46.48552" lon="5.31287">
        <ele>203</ele>
        <time>2021-12-30T14:07:39.000Z</time>
      </trkpt>
      <trkpt lat="46.48553" lon="5.31299">
        <ele>202.60000610352</ele>
        <time>2021-12-30T14:07:40.000Z</time>
      </trkpt>
      <trkpt lat="46.4856" lon="5.31356">
        <ele>201.80000305176</ele>
        <time>2021-12-30T14:07:45.000Z</time>
      </trkpt>
      <trkpt lat="46.48564" lon="5.31367">
        <ele>201.60000610352</ele>
        <time>2021-12-30T14:07:46.000Z</time>
      </trkpt>
      <trkpt lat="46.48575" lon="5.31387">
        <ele>201.19999694824</ele>
        <time>2021-12-30T14:07:48.000Z</time>
      </trkpt>
      <trkpt lat="46.48582" lon="5.31394">
        <ele>200.39999389648</ele>
        <time>2021-12-30T14:07:49.000Z</time>
      </trkpt>
      <trkpt lat="46.48597" lon="5.31412">
        <ele>200</ele>
        <time>2021-12-30T14:07:51.000Z</time>
      </trkpt>
      <trkpt lat="46.48603" lon="5.31424">
        <ele>199.39999389648</ele>
        <time>2021-12-30T14:07:52.000Z</time>
      </trkpt>
      <trkpt lat="46.48608" lon="5.31436">
        <ele>199</ele>
        <time>2021-12-30T14:07:53.000Z</time>
      </trkpt>
      <trkpt lat="46.48611" lon="5.3145">
        <ele>198.19999694824</ele>
        <time>2021-12-30T14:07:54.000Z</time>
      </trkpt>
      <trkpt lat="46.48612" lon="5.31464">
        <ele>197.39999389648</ele>
        <time>2021-12-30T14:07:55.000Z</time>
      </trkpt>
      <trkpt lat="46.48612" lon="5.31478">
        <ele>196.60000610352</ele>
        <time>2021-12-30T14:07:56.000Z</time>
      </trkpt>
      <trkpt lat="46.48613" lon="5.31492">
        <ele>196.39999389648</ele>
        <time>2021-12-30T14:07:57.000Z</time>
      </trkpt>
      <trkpt lat="46.48617" lon="5.31515">
        <ele>195.60000610352</ele>
        <time>2021-12-30T14:07:59.000Z</time>
      </trkpt>
      <trkpt lat="46.4862" lon="5.31525">
        <ele>195.60000610352</ele>
        <time>2021-12-30T14:08:00.000Z</time>
      </trkpt>
      <trkpt lat="46.48629" lon="5.3154">
        <ele>195.39999389648</ele>
        <time>2021-12-30T14:08:02.000Z</time>
      </trkpt>
      <trkpt lat="46.48639" lon="5.31555">
        <ele>195.39999389648</ele>
        <time>2021-12-30T14:08:04.000Z</time>
      </trkpt>
      <trkpt lat="46.48649" lon="5.31568">
        <ele>195.39999389648</ele>
        <time>2021-12-30T14:08:06.000Z</time>
      </trkpt>
      <trkpt lat="46.48653" lon="5.31575">
        <ele>195.39999389648</ele>
        <time>2021-12-30T14:08:07.000Z</time>
      </trkpt>
      <trkpt lat="46.4868" lon="5.31613">
        <ele>195.39999389648</ele>
        <time>2021-12-30T14:08:12.000Z</time>
      </trkpt>
      <trkpt lat="46.48694" lon="5.31629">
        <ele>195.39999389648</ele>
        <time>2021-12-30T14:08:14.000Z</time>
      </trkpt>
      <trkpt lat="46.48725" lon="5.3166">
        <ele>195.60000610352</ele>
        <time>2021-12-30T14:08:18.000Z</time>
      </trkpt>
      <trkpt lat="46.48746" lon="5.31691">
        <ele>195.60000610352</ele>
        <time>2021-12-30T14:08:22.000Z</time>
      </trkpt>
      <trkpt lat="46.48765" lon="5.31714">
        <ele>195.60000610352</ele>
        <time>2021-12-30T14:08:25.000Z</time>
      </trkpt>
      <trkpt lat="46.4877" lon="5.31728">
        <ele>195.60000610352</ele>
        <time>2021-12-30T14:08:26.000Z</time>
      </trkpt>
      <trkpt lat="46.48777" lon="5.31774">
        <ele>195</ele>
        <time>2021-12-30T14:08:30.000Z</time>
      </trkpt>
      <trkpt lat="46.48781" lon="5.31809">
        <ele>194.60000610352</ele>
        <time>2021-12-30T14:08:33.000Z</time>
      </trkpt>
      <trkpt lat="46.48782" lon="5.31819">
        <ele>194.60000610352</ele>
        <time>2021-12-30T14:08:34.000Z</time>
      </trkpt>
      <trkpt lat="46.48785" lon="5.31829">
        <ele>194.39999389648</ele>
        <time>2021-12-30T14:08:35.000Z</time>
      </trkpt>
      <trkpt lat="46.4879" lon="5.31838">
        <ele>194.19999694824</ele>
        <time>2021-12-30T14:08:36.000Z</time>
      </trkpt>
      <trkpt lat="46.48796" lon="5.31845">
        <ele>194.39999389648</ele>
        <time>2021-12-30T14:08:37.000Z</time>
      </trkpt>
      <trkpt lat="46.48803" lon="5.31849">
        <ele>194.19999694824</ele>
        <time>2021-12-30T14:08:38.000Z</time>
      </trkpt>
      <trkpt lat="46.48818" lon="5.31856">
        <ele>194.19999694824</ele>
        <time>2021-12-30T14:08:40.000Z</time>
      </trkpt>
      <trkpt lat="46.48831" lon="5.31868">
        <ele>194.19999694824</ele>
        <time>2021-12-30T14:08:42.000Z</time>
      </trkpt>
      <trkpt lat="46.48836" lon="5.31876">
        <ele>194.19999694824</ele>
        <time>2021-12-30T14:08:43.000Z</time>
      </trkpt>
      <trkpt lat="46.48839" lon="5.31886">
        <ele>194.19999694824</ele>
        <time>2021-12-30T14:08:44.000Z</time>
      </trkpt>
      <trkpt lat="46.48843" lon="5.31906">
        <ele>194.39999389648</ele>
        <time>2021-12-30T14:08:46.000Z</time>
      </trkpt>
      <trkpt lat="46.48847" lon="5.31974">
        <ele>195.39999389648</ele>
        <time>2021-12-30T14:08:53.000Z</time>
      </trkpt>
      <trkpt lat="46.48847" lon="5.31992">
        <ele>195.60000610352</ele>
        <time>2021-12-30T14:08:55.000Z</time>
      </trkpt>
      <trkpt lat="46.48844" lon="5.32018">
        <ele>196.19999694824</ele>
        <time>2021-12-30T14:08:58.000Z</time>
      </trkpt>
      <trkpt lat="46.4884" lon="5.32044">
        <ele>196.60000610352</ele>
        <time>2021-12-30T14:09:01.000Z</time>
      </trkpt>
      <trkpt lat="46.48829" lon="5.32101">
        <ele>197.39999389648</ele>
        <time>2021-12-30T14:09:08.000Z</time>
      </trkpt>
      <trkpt lat="46.48825" lon="5.32135">
        <ele>197.80000305176</ele>
        <time>2021-12-30T14:09:12.000Z</time>
      </trkpt>
      <trkpt lat="46.48824" lon="5.32151">
        <ele>198.19999694824</ele>
        <time>2021-12-30T14:09:14.000Z</time>
      </trkpt>
      <trkpt lat="46.48828" lon="5.32191">
        <ele>199</ele>
        <time>2021-12-30T14:09:19.000Z</time>
      </trkpt>
      <trkpt lat="46.4883" lon="5.32207">
        <ele>199.19999694824</ele>
        <time>2021-12-30T14:09:21.000Z</time>
      </trkpt>
      <trkpt lat="46.48838" lon="5.32237">
        <ele>200</ele>
        <time>2021-12-30T14:09:25.000Z</time>
      </trkpt>
      <trkpt lat="46.48841" lon="5.32243">
        <ele>200.19999694824</ele>
        <time>2021-12-30T14:09:26.000Z</time>
      </trkpt>
      <trkpt lat="46.48869" lon="5.32286">
        <ele>200.39999389648</ele>
        <time>2021-12-30T14:09:32.000Z</time>
      </trkpt>
      <trkpt lat="46.48901" lon="5.32336">
        <ele>198</ele>
        <time>2021-12-30T14:09:37.000Z</time>
      </trkpt>
      <trkpt lat="46.48906" lon="5.32349">
        <ele>196.60000610352</ele>
        <time>2021-12-30T14:09:38.000Z</time>
      </trkpt>
      <trkpt lat="46.48916" lon="5.32374">
        <ele>195.19999694824</ele>
        <time>2021-12-30T14:09:40.000Z</time>
      </trkpt>
      <trkpt lat="46.4892" lon="5.32386">
        <ele>195</ele>
        <time>2021-12-30T14:09:41.000Z</time>
      </trkpt>
      <trkpt lat="46.48927" lon="5.32412">
        <ele>194</ele>
        <time>2021-12-30T14:09:43.000Z</time>
      </trkpt>
      <trkpt lat="46.48937" lon="5.32449">
        <ele>193.39999389648</ele>
        <time>2021-12-30T14:09:46.000Z</time>
      </trkpt>
      <trkpt lat="46.48944" lon="5.32473">
        <ele>193</ele>
        <time>2021-12-30T14:09:48.000Z</time>
      </trkpt>
      <trkpt lat="46.48957" lon="5.32519">
        <ele>192.60000610352</ele>
        <time>2021-12-30T14:09:52.000Z</time>
      </trkpt>
      <trkpt lat="46.48957" lon="5.32552">
        <ele>192.60000610352</ele>
        <time>2021-12-30T14:09:55.000Z</time>
      </trkpt>
      <trkpt lat="46.48955" lon="5.32562">
        <ele>192.80000305176</ele>
        <time>2021-12-30T14:09:56.000Z</time>
      </trkpt>
      <trkpt lat="46.48951" lon="5.3257">
        <ele>192.80000305176</ele>
        <time>2021-12-30T14:09:57.000Z</time>
      </trkpt>
      <trkpt lat="46.4894" lon="5.32584">
        <ele>193</ele>
        <time>2021-12-30T14:09:59.000Z</time>
      </trkpt>
      <trkpt lat="46.48927" lon="5.32606">
        <ele>193.39999389648</ele>
        <time>2021-12-30T14:10:02.000Z</time>
      </trkpt>
      <trkpt lat="46.48924" lon="5.32614">
        <ele>193.80000305176</ele>
        <time>2021-12-30T14:10:03.000Z</time>
      </trkpt>
      <trkpt lat="46.48921" lon="5.32622">
        <ele>194</ele>
        <time>2021-12-30T14:10:04.000Z</time>
      </trkpt>
      <trkpt lat="46.48921" lon="5.3263">
        <ele>194.39999389648</ele>
        <time>2021-12-30T14:10:05.000Z</time>
      </trkpt>
      <trkpt lat="46.48921" lon="5.32637">
        <ele>194.60000610352</ele>
        <time>2021-12-30T14:10:06.000Z</time>
      </trkpt>
      <trkpt lat="46.48922" lon="5.32644">
        <ele>194.80000305176</ele>
        <time>2021-12-30T14:10:07.000Z</time>
      </trkpt>
      <trkpt lat="46.48924" lon="5.3265">
        <ele>195.19999694824</ele>
        <time>2021-12-30T14:10:08.000Z</time>
      </trkpt>
      <trkpt lat="46.48926" lon="5.32655">
        <ele>195.60000610352</ele>
        <time>2021-12-30T14:10:09.000Z</time>
      </trkpt>
      <trkpt lat="46.4893" lon="5.32665">
        <ele>196.19999694824</ele>
        <time>2021-12-30T14:10:11.000Z</time>
      </trkpt>
      <trkpt lat="46.48933" lon="5.32669">
        <ele>196.80000305176</ele>
        <time>2021-12-30T14:10:12.000Z</time>
      </trkpt>
      <trkpt lat="46.48938" lon="5.32677">
        <ele>197.80000305176</ele>
        <time>2021-12-30T14:10:14.000Z</time>
      </trkpt>
      <trkpt lat="46.48941" lon="5.32681">
        <ele>198.19999694824</ele>
        <time>2021-12-30T14:10:15.000Z</time>
      </trkpt>
      <trkpt lat="46.4895" lon="5.32692">
        <ele>199</ele>
        <time>2021-12-30T14:10:18.000Z</time>
      </trkpt>
      <trkpt lat="46.48957" lon="5.32701">
        <ele>199.80000305176</ele>
        <time>2021-12-30T14:10:21.000Z</time>
      </trkpt>
      <trkpt lat="46.48962" lon="5.32705">
        <ele>200.19999694824</ele>
        <time>2021-12-30T14:10:23.000Z</time>
      </trkpt>
      <trkpt lat="46.48968" lon="5.32708">
        <ele>200.80000305176</ele>
        <time>2021-12-30T14:10:25.000Z</time>
      </trkpt>
      <trkpt lat="46.48975" lon="5.3271">
        <ele>201.19999694824</ele>
        <time>2021-12-30T14:10:27.000Z</time>
      </trkpt>
      <trkpt lat="46.48992" lon="5.32712">
        <ele>202.39999389648</ele>
        <time>2021-12-30T14:10:31.000Z</time>
      </trkpt>
      <trkpt lat="46.49007" lon="5.3271">
        <ele>203.39999389648</ele>
        <time>2021-12-30T14:10:35.000Z</time>
      </trkpt>
      <trkpt lat="46.4903" lon="5.32707">
        <ele>204.39999389648</ele>
        <time>2021-12-30T14:10:41.000Z</time>
      </trkpt>
      <trkpt lat="46.49053" lon="5.32701">
        <ele>205.60000610352</ele>
        <time>2021-12-30T14:10:47.000Z</time>
      </trkpt>
      <trkpt lat="46.4906" lon="5.32699">
        <ele>206</ele>
        <time>2021-12-30T14:10:49.000Z</time>
      </trkpt>
      <trkpt lat="46.49071" lon="5.32698">
        <ele>206.80000305176</ele>
        <time>2021-12-30T14:10:52.000Z</time>
      </trkpt>
      <trkpt lat="46.49094" lon="5.32695">
        <ele>207.80000305176</ele>
        <time>2021-12-30T14:10:58.000Z</time>
      </trkpt>
      <trkpt lat="46.49098" lon="5.32694">
        <ele>208</ele>
        <time>2021-12-30T14:10:59.000Z</time>
      </trkpt>
      <trkpt lat="46.49114" lon="5.32699">
        <ele>209</ele>
        <time>2021-12-30T14:11:03.000Z</time>
      </trkpt>
      <trkpt lat="46.49118" lon="5.32702">
        <ele>209</ele>
        <time>2021-12-30T14:11:04.000Z</time>
      </trkpt>
      <trkpt lat="46.4913" lon="5.3272">
        <ele>209.60000610352</ele>
        <time>2021-12-30T14:11:08.000Z</time>
      </trkpt>
      <trkpt lat="46.49132" lon="5.32726">
        <ele>209.80000305176</ele>
        <time>2021-12-30T14:11:09.000Z</time>
      </trkpt>
      <trkpt lat="46.49133" lon="5.32732">
        <ele>210</ele>
        <time>2021-12-30T14:11:10.000Z</time>
      </trkpt>
      <trkpt lat="46.49141" lon="5.32774">
        <ele>210.60000610352</ele>
        <time>2021-12-30T14:11:16.000Z</time>
      </trkpt>
      <trkpt lat="46.49144" lon="5.32799">
        <ele>210.60000610352</ele>
        <time>2021-12-30T14:11:19.000Z</time>
      </trkpt>
      <trkpt lat="46.49144" lon="5.32817">
        <ele>210.60000610352</ele>
        <time>2021-12-30T14:11:21.000Z</time>
      </trkpt>
      <trkpt lat="46.49143" lon="5.32827">
        <ele>210.60000610352</ele>
        <time>2021-12-30T14:11:22.000Z</time>
      </trkpt>
      <trkpt lat="46.49132" lon="5.32874">
        <ele>210</ele>
        <time>2021-12-30T14:11:27.000Z</time>
      </trkpt>
      <trkpt lat="46.49127" lon="5.32892">
        <ele>209.80000305176</ele>
        <time>2021-12-30T14:11:29.000Z</time>
      </trkpt>
      <trkpt lat="46.49126" lon="5.32906">
        <ele>209.60000610352</ele>
        <time>2021-12-30T14:11:31.000Z</time>
      </trkpt>
      <trkpt lat="46.49126" lon="5.32951">
        <ele>209.60000610352</ele>
        <time>2021-12-30T14:11:36.000Z</time>
      </trkpt>
      <trkpt lat="46.49134" lon="5.33014">
        <ele>210</ele>
        <time>2021-12-30T14:11:43.000Z</time>
      </trkpt>
      <trkpt lat="46.49138" lon="5.33032">
        <ele>210.39999389648</ele>
        <time>2021-12-30T14:11:45.000Z</time>
      </trkpt>
      <trkpt lat="46.49148" lon="5.3307">
        <ele>211.19999694824</ele>
        <time>2021-12-30T14:11:50.000Z</time>
      </trkpt>
      <trkpt lat="46.49161" lon="5.33112">
        <ele>211.60000610352</ele>
        <time>2021-12-30T14:11:55.000Z</time>
      </trkpt>
      <trkpt lat="46.49166" lon="5.33118">
        <ele>211.60000610352</ele>
        <time>2021-12-30T14:11:56.000Z</time>
      </trkpt>
      <trkpt lat="46.49194" lon="5.33147">
        <ele>211.60000610352</ele>
        <time>2021-12-30T14:12:01.000Z</time>
      </trkpt>
      <trkpt lat="46.49238" lon="5.33184">
        <ele>212</ele>
        <time>2021-12-30T14:12:09.000Z</time>
      </trkpt>
      <trkpt lat="46.49253" lon="5.332">
        <ele>212.19999694824</ele>
        <time>2021-12-30T14:12:12.000Z</time>
      </trkpt>
      <trkpt lat="46.4926" lon="5.33215">
        <ele>212.39999389648</ele>
        <time>2021-12-30T14:12:14.000Z</time>
      </trkpt>
      <trkpt lat="46.49263" lon="5.33222">
        <ele>212.39999389648</ele>
        <time>2021-12-30T14:12:15.000Z</time>
      </trkpt>
      <trkpt lat="46.49272" lon="5.33253">
        <ele>213.19999694824</ele>
        <time>2021-12-30T14:12:19.000Z</time>
      </trkpt>
      <trkpt lat="46.49273" lon="5.33262">
        <ele>213.19999694824</ele>
        <time>2021-12-30T14:12:20.000Z</time>
      </trkpt>
      <trkpt lat="46.49287" lon="5.33335">
        <ele>214.39999389648</ele>
        <time>2021-12-30T14:12:29.000Z</time>
      </trkpt>
      <trkpt lat="46.49301" lon="5.33407">
        <ele>215.19999694824</ele>
        <time>2021-12-30T14:12:38.000Z</time>
      </trkpt>
      <trkpt lat="46.49302" lon="5.33415">
        <ele>215.39999389648</ele>
        <time>2021-12-30T14:12:39.000Z</time>
      </trkpt>
      <trkpt lat="46.4931" lon="5.33466">
        <ele>216.19999694824</ele>
        <time>2021-12-30T14:12:45.000Z</time>
      </trkpt>
      <trkpt lat="46.49317" lon="5.33509">
        <ele>216.60000610352</ele>
        <time>2021-12-30T14:12:50.000Z</time>
      </trkpt>
      <trkpt lat="46.49319" lon="5.33546">
        <ele>216.60000610352</ele>
        <time>2021-12-30T14:12:54.000Z</time>
      </trkpt>
      <trkpt lat="46.49317" lon="5.33565">
        <ele>216.60000610352</ele>
        <time>2021-12-30T14:12:56.000Z</time>
      </trkpt>
      <trkpt lat="46.49312" lon="5.33592">
        <ele>216.39999389648</ele>
        <time>2021-12-30T14:12:59.000Z</time>
      </trkpt>
      <trkpt lat="46.49304" lon="5.33646">
        <ele>216.39999389648</ele>
        <time>2021-12-30T14:13:05.000Z</time>
      </trkpt>
      <trkpt lat="46.49302" lon="5.3371">
        <ele>216.60000610352</ele>
        <time>2021-12-30T14:13:12.000Z</time>
      </trkpt>
      <trkpt lat="46.49293" lon="5.33771">
        <ele>217.19999694824</ele>
        <time>2021-12-30T14:13:19.000Z</time>
      </trkpt>
      <trkpt lat="46.49283" lon="5.33822">
        <ele>217.60000610352</ele>
        <time>2021-12-30T14:13:25.000Z</time>
      </trkpt>
      <trkpt lat="46.4928" lon="5.33839">
        <ele>217.80000305176</ele>
        <time>2021-12-30T14:13:27.000Z</time>
      </trkpt>
      <trkpt lat="46.49268" lon="5.339">
        <ele>218.19999694824</ele>
        <time>2021-12-30T14:13:34.000Z</time>
      </trkpt>
      <trkpt lat="46.49255" lon="5.33972">
        <ele>218.39999389648</ele>
        <time>2021-12-30T14:13:42.000Z</time>
      </trkpt>
      <trkpt lat="46.4924" lon="5.34046">
        <ele>218.60000610352</ele>
        <time>2021-12-30T14:13:50.000Z</time>
      </trkpt>
      <trkpt lat="46.49225" lon="5.34119">
        <ele>218.39999389648</ele>
        <time>2021-12-30T14:13:57.000Z</time>
      </trkpt>
      <trkpt lat="46.49212" lon="5.34191">
        <ele>216.60000610352</ele>
        <time>2021-12-30T14:14:03.000Z</time>
      </trkpt>
      <trkpt lat="46.4921" lon="5.34203">
        <ele>216.19999694824</ele>
        <time>2021-12-30T14:14:04.000Z</time>
      </trkpt>
      <trkpt lat="46.49203" lon="5.34237">
        <ele>215.19999694824</ele>
        <time>2021-12-30T14:14:07.000Z</time>
      </trkpt>
      <trkpt lat="46.49193" lon="5.34289">
        <ele>215</ele>
        <time>2021-12-30T14:14:12.000Z</time>
      </trkpt>
      <trkpt lat="46.49183" lon="5.34337">
        <ele>215.60000610352</ele>
        <time>2021-12-30T14:14:17.000Z</time>
      </trkpt>
      <trkpt lat="46.49173" lon="5.34389">
        <ele>216.19999694824</ele>
        <time>2021-12-30T14:14:22.000Z</time>
      </trkpt>
      <trkpt lat="46.49158" lon="5.3447">
        <ele>215.39999389648</ele>
        <time>2021-12-30T14:14:29.000Z</time>
      </trkpt>
      <trkpt lat="46.49156" lon="5.34482">
        <ele>215.19999694824</ele>
        <time>2021-12-30T14:14:30.000Z</time>
      </trkpt>
      <trkpt lat="46.49142" lon="5.34555">
        <ele>214.60000610352</ele>
        <time>2021-12-30T14:14:37.000Z</time>
      </trkpt>
      <trkpt lat="46.49131" lon="5.34619">
        <ele>215.80000305176</ele>
        <time>2021-12-30T14:14:44.000Z</time>
      </trkpt>
      <trkpt lat="46.49127" lon="5.34639">
        <ele>216.19999694824</ele>
        <time>2021-12-30T14:14:46.000Z</time>
      </trkpt>
      <trkpt lat="46.49118" lon="5.34682">
        <ele>216.39999389648</ele>
        <time>2021-12-30T14:14:50.000Z</time>
      </trkpt>
      <trkpt lat="46.49102" lon="5.34762">
        <ele>215.60000610352</ele>
        <time>2021-12-30T14:14:58.000Z</time>
      </trkpt>
      <trkpt lat="46.491" lon="5.34772">
        <ele>215.60000610352</ele>
        <time>2021-12-30T14:14:59.000Z</time>
      </trkpt>
      <trkpt lat="46.49089" lon="5.34831">
        <ele>216.19999694824</ele>
        <time>2021-12-30T14:15:06.000Z</time>
      </trkpt>
      <trkpt lat="46.49075" lon="5.34895">
        <ele>217.19999694824</ele>
        <time>2021-12-30T14:15:14.000Z</time>
      </trkpt>
      <trkpt lat="46.49064" lon="5.3495">
        <ele>218</ele>
        <time>2021-12-30T14:15:21.000Z</time>
      </trkpt>
      <trkpt lat="46.49062" lon="5.34966">
        <ele>218.39999389648</ele>
        <time>2021-12-30T14:15:23.000Z</time>
      </trkpt>
      <trkpt lat="46.49056" lon="5.34996">
        <ele>219</ele>
        <time>2021-12-30T14:15:27.000Z</time>
      </trkpt>
      <trkpt lat="46.49049" lon="5.35033">
        <ele>220</ele>
        <time>2021-12-30T14:15:32.000Z</time>
      </trkpt>
      <trkpt lat="46.49048" lon="5.3504">
        <ele>220</ele>
        <time>2021-12-30T14:15:33.000Z</time>
      </trkpt>
      <trkpt lat="46.49036" lon="5.35099">
        <ele>221.19999694824</ele>
        <time>2021-12-30T14:15:41.000Z</time>
      </trkpt>
      <trkpt lat="46.49034" lon="5.35107">
        <ele>221.19999694824</ele>
        <time>2021-12-30T14:15:42.000Z</time>
      </trkpt>
      <trkpt lat="46.49015" lon="5.35157">
        <ele>221.80000305176</ele>
        <time>2021-12-30T14:15:49.000Z</time>
      </trkpt>
      <trkpt lat="46.48993" lon="5.35206">
        <ele>221.80000305176</ele>
        <time>2021-12-30T14:15:55.000Z</time>
      </trkpt>
      <trkpt lat="46.48965" lon="5.35271">
        <ele>220.39999389648</ele>
        <time>2021-12-30T14:16:02.000Z</time>
      </trkpt>
      <trkpt lat="46.48952" lon="5.35299">
        <ele>220</ele>
        <time>2021-12-30T14:16:05.000Z</time>
      </trkpt>
      <trkpt lat="46.48927" lon="5.35355">
        <ele>219.19999694824</ele>
        <time>2021-12-30T14:16:11.000Z</time>
      </trkpt>
      <trkpt lat="46.48898" lon="5.35423">
        <ele>219.39999389648</ele>
        <time>2021-12-30T14:16:19.000Z</time>
      </trkpt>
      <trkpt lat="46.48891" lon="5.35439">
        <ele>219.60000610352</ele>
        <time>2021-12-30T14:16:21.000Z</time>
      </trkpt>
      <trkpt lat="46.48865" lon="5.35499">
        <ele>220.39999389648</ele>
        <time>2021-12-30T14:16:29.000Z</time>
      </trkpt>
      <trkpt lat="46.48848" lon="5.35536">
        <ele>221.19999694824</ele>
        <time>2021-12-30T14:16:34.000Z</time>
      </trkpt>
      <trkpt lat="46.48839" lon="5.35558">
        <ele>221.39999389648</ele>
        <time>2021-12-30T14:16:37.000Z</time>
      </trkpt>
      <trkpt lat="46.48818" lon="5.35607">
        <ele>221.19999694824</ele>
        <time>2021-12-30T14:16:43.000Z</time>
      </trkpt>
      <trkpt lat="46.48796" lon="5.35656">
        <ele>221</ele>
        <time>2021-12-30T14:16:49.000Z</time>
      </trkpt>
      <trkpt lat="46.48771" lon="5.35715">
        <ele>221</ele>
        <time>2021-12-30T14:16:56.000Z</time>
      </trkpt>
      <trkpt lat="46.48742" lon="5.35779">
        <ele>220.80000305176</ele>
        <time>2021-12-30T14:17:04.000Z</time>
      </trkpt>
      <trkpt lat="46.48716" lon="5.3584">
        <ele>221</ele>
        <time>2021-12-30T14:17:12.000Z</time>
      </trkpt>
      <trkpt lat="46.48696" lon="5.35892">
        <ele>222</ele>
        <time>2021-12-30T14:17:19.000Z</time>
      </trkpt>
      <trkpt lat="46.48694" lon="5.359">
        <ele>222.19999694824</ele>
        <time>2021-12-30T14:17:20.000Z</time>
      </trkpt>
      <trkpt lat="46.48683" lon="5.35946">
        <ele>223.19999694824</ele>
        <time>2021-12-30T14:17:26.000Z</time>
      </trkpt>
      <trkpt lat="46.48681" lon="5.35955">
        <ele>223.39999389648</ele>
        <time>2021-12-30T14:17:27.000Z</time>
      </trkpt>
      <trkpt lat="46.48669" lon="5.36022">
        <ele>224.19999694824</ele>
        <time>2021-12-30T14:17:35.000Z</time>
      </trkpt>
      <trkpt lat="46.4866" lon="5.36065">
        <ele>224</ele>
        <time>2021-12-30T14:17:40.000Z</time>
      </trkpt>
      <trkpt lat="46.48646" lon="5.36131">
        <ele>222.19999694824</ele>
        <time>2021-12-30T14:17:46.000Z</time>
      </trkpt>
      <trkpt lat="46.4864" lon="5.36193">
        <ele>221.80000305176</ele>
        <time>2021-12-30T14:17:51.000Z</time>
      </trkpt>
      <trkpt lat="46.48634" lon="5.36259">
        <ele>222.39999389648</ele>
        <time>2021-12-30T14:17:58.000Z</time>
      </trkpt>
      <trkpt lat="46.48627" lon="5.36292">
        <ele>222.80000305176</ele>
        <time>2021-12-30T14:18:02.000Z</time>
      </trkpt>
      <trkpt lat="46.48621" lon="5.36306">
        <ele>223.19999694824</ele>
        <time>2021-12-30T14:18:04.000Z</time>
      </trkpt>
      <trkpt lat="46.48617" lon="5.36311">
        <ele>223.39999389648</ele>
        <time>2021-12-30T14:18:05.000Z</time>
      </trkpt>
      <trkpt lat="46.48612" lon="5.36315">
        <ele>223.80000305176</ele>
        <time>2021-12-30T14:18:06.000Z</time>
      </trkpt>
      <trkpt lat="46.48607" lon="5.36317">
        <ele>223.80000305176</ele>
        <time>2021-12-30T14:18:07.000Z</time>
      </trkpt>
      <trkpt lat="46.48592" lon="5.36321">
        <ele>224.60000610352</ele>
        <time>2021-12-30T14:18:10.000Z</time>
      </trkpt>
      <trkpt lat="46.48578" lon="5.36324">
        <ele>225.80000305176</ele>
        <time>2021-12-30T14:18:13.000Z</time>
      </trkpt>
      <trkpt lat="46.48573" lon="5.36324">
        <ele>226</ele>
        <time>2021-12-30T14:18:14.000Z</time>
      </trkpt>
      <trkpt lat="46.48558" lon="5.36326">
        <ele>227</ele>
        <time>2021-12-30T14:18:17.000Z</time>
      </trkpt>
      <trkpt lat="46.48535" lon="5.3633">
        <ele>228</ele>
        <time>2021-12-30T14:18:22.000Z</time>
      </trkpt>
      <trkpt lat="46.48526" lon="5.36331">
        <ele>228.39999389648</ele>
        <time>2021-12-30T14:18:24.000Z</time>
      </trkpt>
      <trkpt lat="46.48506" lon="5.36335">
        <ele>229.19999694824</ele>
        <time>2021-12-30T14:18:28.000Z</time>
      </trkpt>
      <trkpt lat="46.48475" lon="5.3634">
        <ele>229.60000610352</ele>
        <time>2021-12-30T14:18:34.000Z</time>
      </trkpt>
      <trkpt lat="46.48426" lon="5.36349">
        <ele>229.80000305176</ele>
        <time>2021-12-30T14:18:43.000Z</time>
      </trkpt>
      <trkpt lat="46.48405" lon="5.36361">
        <ele>230.19999694824</ele>
        <time>2021-12-30T14:18:47.000Z</time>
      </trkpt>
      <trkpt lat="46.48396" lon="5.36369">
        <ele>230.19999694824</ele>
        <time>2021-12-30T14:18:49.000Z</time>
      </trkpt>
      <trkpt lat="46.48362" lon="5.36406">
        <ele>230.39999389648</ele>
        <time>2021-12-30T14:18:57.000Z</time>
      </trkpt>
      <trkpt lat="46.48335" lon="5.36436">
        <ele>230.80000305176</ele>
        <time>2021-12-30T14:19:04.000Z</time>
      </trkpt>
      <trkpt lat="46.48327" lon="5.36445">
        <ele>231.19999694824</ele>
        <time>2021-12-30T14:19:06.000Z</time>
      </trkpt>
      <trkpt lat="46.48301" lon="5.36474">
        <ele>232.19999694824</ele>
        <time>2021-12-30T14:19:13.000Z</time>
      </trkpt>
      <trkpt lat="46.48297" lon="5.36478">
        <ele>232.39999389648</ele>
        <time>2021-12-30T14:19:14.000Z</time>
      </trkpt>
      <trkpt lat="46.48272" lon="5.36506">
        <ele>233.19999694824</ele>
        <time>2021-12-30T14:19:21.000Z</time>
      </trkpt>
      <trkpt lat="46.48261" lon="5.36518">
        <ele>233.80000305176</ele>
        <time>2021-12-30T14:19:24.000Z</time>
      </trkpt>
      <trkpt lat="46.48246" lon="5.36534">
        <ele>234.39999389648</ele>
        <time>2021-12-30T14:19:28.000Z</time>
      </trkpt>
      <trkpt lat="46.48224" lon="5.36556">
        <ele>234.80000305176</ele>
        <time>2021-12-30T14:19:34.000Z</time>
      </trkpt>
      <trkpt lat="46.4821" lon="5.36558">
        <ele>235.19999694824</ele>
        <time>2021-12-30T14:19:37.000Z</time>
      </trkpt>
      <trkpt lat="46.48205" lon="5.36557">
        <ele>235.39999389648</ele>
        <time>2021-12-30T14:19:38.000Z</time>
      </trkpt>
      <trkpt lat="46.482" lon="5.36558">
        <ele>235.39999389648</ele>
        <time>2021-12-30T14:19:39.000Z</time>
      </trkpt>
      <trkpt lat="46.48192" lon="5.36566">
        <ele>235.60000610352</ele>
        <time>2021-12-30T14:19:41.000Z</time>
      </trkpt>
      <trkpt lat="46.48187" lon="5.36578">
        <ele>235.80000305176</ele>
        <time>2021-12-30T14:19:43.000Z</time>
      </trkpt>
      <trkpt lat="46.48184" lon="5.36592">
        <ele>236</ele>
        <time>2021-12-30T14:19:45.000Z</time>
      </trkpt>
      <trkpt lat="46.48178" lon="5.36604">
        <ele>236</ele>
        <time>2021-12-30T14:19:47.000Z</time>
      </trkpt>
      <trkpt lat="46.4817" lon="5.36614">
        <ele>236.19999694824</ele>
        <time>2021-12-30T14:19:49.000Z</time>
      </trkpt>
      <trkpt lat="46.48163" lon="5.36622">
        <ele>236.39999389648</ele>
        <time>2021-12-30T14:19:51.000Z</time>
      </trkpt>
      <trkpt lat="46.48156" lon="5.36632">
        <ele>236.60000610352</ele>
        <time>2021-12-30T14:19:53.000Z</time>
      </trkpt>
      <trkpt lat="46.48142" lon="5.36651">
        <ele>237.19999694824</ele>
        <time>2021-12-30T14:19:57.000Z</time>
      </trkpt>
      <trkpt lat="46.48121" lon="5.3667">
        <ele>237.60000610352</ele>
        <time>2021-12-30T14:20:02.000Z</time>
      </trkpt>
      <trkpt lat="46.48114" lon="5.36676">
        <ele>237.60000610352</ele>
        <time>2021-12-30T14:20:04.000Z</time>
      </trkpt>
      <trkpt lat="46.48105" lon="5.36687">
        <ele>238</ele>
        <time>2021-12-30T14:20:08.000Z</time>
      </trkpt>
      <trkpt lat="46.48103" lon="5.36695">
        <ele>238.60000610352</ele>
        <time>2021-12-30T14:20:10.000Z</time>
      </trkpt>
      <trkpt lat="46.48105" lon="5.367">
        <ele>238.60000610352</ele>
        <time>2021-12-30T14:20:11.000Z</time>
      </trkpt>
      <trkpt lat="46.48118" lon="5.36714">
        <ele>239</ele>
        <time>2021-12-30T14:20:15.000Z</time>
      </trkpt>
      <trkpt lat="46.48138" lon="5.3673">
        <ele>239.60000610352</ele>
        <time>2021-12-30T14:20:20.000Z</time>
      </trkpt>
      <trkpt lat="46.48143" lon="5.36733">
        <ele>240</ele>
        <time>2021-12-30T14:20:21.000Z</time>
      </trkpt>
      <trkpt lat="46.48155" lon="5.36742">
        <ele>240.80000305176</ele>
        <time>2021-12-30T14:20:24.000Z</time>
      </trkpt>
      <trkpt lat="46.48178" lon="5.36761">
        <ele>241.80000305176</ele>
        <time>2021-12-30T14:20:30.000Z</time>
      </trkpt>
      <trkpt lat="46.48196" lon="5.36776">
        <ele>243</ele>
        <time>2021-12-30T14:20:35.000Z</time>
      </trkpt>
      <trkpt lat="46.48212" lon="5.36789">
        <ele>244.19999694824</ele>
        <time>2021-12-30T14:20:40.000Z</time>
      </trkpt>
      <trkpt lat="46.48218" lon="5.36794">
        <ele>244.80000305176</ele>
        <time>2021-12-30T14:20:42.000Z</time>
      </trkpt>
      <trkpt lat="46.48224" lon="5.36799">
        <ele>245.39999389648</ele>
        <time>2021-12-30T14:20:44.000Z</time>
      </trkpt>
      <trkpt lat="46.48237" lon="5.3681">
        <ele>246.39999389648</ele>
        <time>2021-12-30T14:20:48.000Z</time>
      </trkpt>
      <trkpt lat="46.48239" lon="5.36813">
        <ele>246.60000610352</ele>
        <time>2021-12-30T14:20:49.000Z</time>
      </trkpt>
      <trkpt lat="46.48251" lon="5.36825">
        <ele>247.39999389648</ele>
        <time>2021-12-30T14:20:54.000Z</time>
      </trkpt>
      <trkpt lat="46.48257" lon="5.3683">
        <ele>248</ele>
        <time>2021-12-30T14:20:56.000Z</time>
      </trkpt>
    </trkseg>
  </trk>
</gpx>